<?xml version="1.0" encoding="UTF-8" standalone="no" ?>
<gpx xmlns="http://www.topografix.com/GPX/1/1" xmlns:xsi="http://www.w3.org/2001/XMLSchema-instance" xsi:schemaLocation="http://www.topografix.com/GPX/1/1 http://www.topografix.com/GPX/1/1/gpx.xsd" version="1.1" creator="VisuGPX - https://www.visugpx.com">
  <metadata>
    <name>SORTIE VTT AU MONT VERDUN 18 02 2017</name>
    <desc><![CDATA[SORTIE VTT AU MONT VERDUN 18 02 2017]]></desc>
  </metadata>
  <trk>
    <name><![CDATA[SORTIE VTT AU MONT VERDUN 18 02 2017_1]]></name>
    <trkseg>
      <trkpt lat="45.87848" lon="4.71245">
        <ele>289.4</ele>
        <time>2017-02-18T13:10:14Z</time>
      </trkpt>
      <trkpt lat="45.87848" lon="4.71245">
        <ele>289.4</ele>
        <time>2017-02-18T13:10:14Z</time>
      </trkpt>
      <trkpt lat="45.87848" lon="4.71245">
        <ele>289.3</ele>
        <time>2017-02-18T13:10:20Z</time>
      </trkpt>
      <trkpt lat="45.87832" lon="4.71265">
        <ele>289.8</ele>
        <time>2017-02-18T13:10:28Z</time>
      </trkpt>
      <trkpt lat="45.87832" lon="4.71265">
        <ele>289.8</ele>
        <time>2017-02-18T13:10:35Z</time>
      </trkpt>
      <trkpt lat="45.87825" lon="4.71266">
        <ele>289.1</ele>
        <time>2017-02-18T13:11:01Z</time>
      </trkpt>
      <trkpt lat="45.87825" lon="4.71266">
        <ele>287.9</ele>
        <time>2017-02-18T13:11:08Z</time>
      </trkpt>
      <trkpt lat="45.87827" lon="4.71264">
        <ele>287.6</ele>
        <time>2017-02-18T13:11:15Z</time>
      </trkpt>
      <trkpt lat="45.87827" lon="4.71264">
        <ele>288.1</ele>
        <time>2017-02-18T13:11:20Z</time>
      </trkpt>
      <trkpt lat="45.87828" lon="4.7126">
        <ele>287.7</ele>
        <time>2017-02-18T13:11:27Z</time>
      </trkpt>
      <trkpt lat="45.87831" lon="4.71258">
        <ele>287.4</ele>
        <time>2017-02-18T13:11:34Z</time>
      </trkpt>
      <trkpt lat="45.87831" lon="4.71258">
        <ele>287.4</ele>
        <time>2017-02-18T13:11:36Z</time>
      </trkpt>
      <trkpt lat="45.8783" lon="4.71258">
        <ele>287</ele>
        <time>2017-02-18T13:11:46Z</time>
      </trkpt>
      <trkpt lat="45.87828" lon="4.71261">
        <ele>287.1</ele>
        <time>2017-02-18T13:11:53Z</time>
      </trkpt>
      <trkpt lat="45.87828" lon="4.71263">
        <ele>287</ele>
        <time>2017-02-18T13:12:00Z</time>
      </trkpt>
      <trkpt lat="45.87828" lon="4.71263">
        <ele>287</ele>
        <time>2017-02-18T13:12:07Z</time>
      </trkpt>
      <trkpt lat="45.87836" lon="4.71261">
        <ele>286.3</ele>
        <time>2017-02-18T13:12:13Z</time>
      </trkpt>
      <trkpt lat="45.87841" lon="4.71252">
        <ele>285.8</ele>
        <time>2017-02-18T13:12:16Z</time>
      </trkpt>
      <trkpt lat="45.87845" lon="4.71242">
        <ele>285.1</ele>
        <time>2017-02-18T13:12:19Z</time>
      </trkpt>
      <trkpt lat="45.87847" lon="4.7123">
        <ele>284.3</ele>
        <time>2017-02-18T13:12:23Z</time>
      </trkpt>
      <trkpt lat="45.87848" lon="4.71219">
        <ele>283.7</ele>
        <time>2017-02-18T13:12:26Z</time>
      </trkpt>
      <trkpt lat="45.87845" lon="4.71207">
        <ele>283.2</ele>
        <time>2017-02-18T13:12:29Z</time>
      </trkpt>
      <trkpt lat="45.87844" lon="4.71196">
        <ele>282.7</ele>
        <time>2017-02-18T13:12:32Z</time>
      </trkpt>
      <trkpt lat="45.87843" lon="4.71183">
        <ele>282.2</ele>
        <time>2017-02-18T13:12:36Z</time>
      </trkpt>
      <trkpt lat="45.87837" lon="4.71173">
        <ele>281.6</ele>
        <time>2017-02-18T13:12:39Z</time>
      </trkpt>
      <trkpt lat="45.87831" lon="4.71163">
        <ele>281.1</ele>
        <time>2017-02-18T13:12:42Z</time>
      </trkpt>
      <trkpt lat="45.87828" lon="4.71158">
        <ele>280.7</ele>
        <time>2017-02-18T13:12:49Z</time>
      </trkpt>
      <trkpt lat="45.87827" lon="4.7116">
        <ele>280.6</ele>
        <time>2017-02-18T13:12:56Z</time>
      </trkpt>
      <trkpt lat="45.87827" lon="4.7116">
        <ele>280.6</ele>
        <time>2017-02-18T13:12:59Z</time>
      </trkpt>
      <trkpt lat="45.87825" lon="4.71151">
        <ele>280.1</ele>
        <time>2017-02-18T13:13:14Z</time>
      </trkpt>
      <trkpt lat="45.87817" lon="4.71149">
        <ele>279.7</ele>
        <time>2017-02-18T13:13:18Z</time>
      </trkpt>
      <trkpt lat="45.87809" lon="4.71154">
        <ele>279.6</ele>
        <time>2017-02-18T13:13:21Z</time>
      </trkpt>
      <trkpt lat="45.87803" lon="4.71158">
        <ele>279.5</ele>
        <time>2017-02-18T13:13:24Z</time>
      </trkpt>
      <trkpt lat="45.87793" lon="4.71165">
        <ele>278.8</ele>
        <time>2017-02-18T13:13:28Z</time>
      </trkpt>
      <trkpt lat="45.87786" lon="4.71174">
        <ele>278.8</ele>
        <time>2017-02-18T13:13:31Z</time>
      </trkpt>
      <trkpt lat="45.87779" lon="4.71182">
        <ele>279.7</ele>
        <time>2017-02-18T13:13:33Z</time>
      </trkpt>
      <trkpt lat="45.87772" lon="4.71188">
        <ele>281.1</ele>
        <time>2017-02-18T13:13:35Z</time>
      </trkpt>
      <trkpt lat="45.87763" lon="4.71195">
        <ele>284.1</ele>
        <time>2017-02-18T13:13:38Z</time>
      </trkpt>
      <trkpt lat="45.87755" lon="4.71202">
        <ele>284.9</ele>
        <time>2017-02-18T13:13:40Z</time>
      </trkpt>
      <trkpt lat="45.87748" lon="4.71208">
        <ele>285.7</ele>
        <time>2017-02-18T13:13:42Z</time>
      </trkpt>
      <trkpt lat="45.8774" lon="4.71214">
        <ele>286.9</ele>
        <time>2017-02-18T13:13:44Z</time>
      </trkpt>
      <trkpt lat="45.87732" lon="4.7122">
        <ele>287.2</ele>
        <time>2017-02-18T13:13:46Z</time>
      </trkpt>
      <trkpt lat="45.87725" lon="4.71227">
        <ele>287</ele>
        <time>2017-02-18T13:13:48Z</time>
      </trkpt>
      <trkpt lat="45.87717" lon="4.71233">
        <ele>287.4</ele>
        <time>2017-02-18T13:13:50Z</time>
      </trkpt>
      <trkpt lat="45.87708" lon="4.71244">
        <ele>286.3</ele>
        <time>2017-02-18T13:13:52Z</time>
      </trkpt>
      <trkpt lat="45.877" lon="4.71254">
        <ele>285.2</ele>
        <time>2017-02-18T13:13:55Z</time>
      </trkpt>
      <trkpt lat="45.87692" lon="4.71262">
        <ele>285.9</ele>
        <time>2017-02-18T13:13:57Z</time>
      </trkpt>
      <trkpt lat="45.87683" lon="4.71272">
        <ele>285.3</ele>
        <time>2017-02-18T13:13:59Z</time>
      </trkpt>
      <trkpt lat="45.87675" lon="4.71279">
        <ele>283.9</ele>
        <time>2017-02-18T13:14:01Z</time>
      </trkpt>
      <trkpt lat="45.87667" lon="4.71287">
        <ele>283.5</ele>
        <time>2017-02-18T13:14:03Z</time>
      </trkpt>
      <trkpt lat="45.8766" lon="4.71293">
        <ele>283.4</ele>
        <time>2017-02-18T13:14:05Z</time>
      </trkpt>
      <trkpt lat="45.87653" lon="4.71298">
        <ele>283.3</ele>
        <time>2017-02-18T13:14:08Z</time>
      </trkpt>
      <trkpt lat="45.87645" lon="4.71299">
        <ele>283.2</ele>
        <time>2017-02-18T13:14:10Z</time>
      </trkpt>
      <trkpt lat="45.87637" lon="4.71301">
        <ele>283.1</ele>
        <time>2017-02-18T13:14:12Z</time>
      </trkpt>
      <trkpt lat="45.87627" lon="4.71306">
        <ele>282.9</ele>
        <time>2017-02-18T13:14:15Z</time>
      </trkpt>
      <trkpt lat="45.87618" lon="4.71311">
        <ele>282.9</ele>
        <time>2017-02-18T13:14:18Z</time>
      </trkpt>
      <trkpt lat="45.8761" lon="4.71313">
        <ele>283.1</ele>
        <time>2017-02-18T13:14:21Z</time>
      </trkpt>
      <trkpt lat="45.87599" lon="4.71313">
        <ele>284.4</ele>
        <time>2017-02-18T13:14:24Z</time>
      </trkpt>
      <trkpt lat="45.87592" lon="4.71314">
        <ele>284.6</ele>
        <time>2017-02-18T13:14:26Z</time>
      </trkpt>
      <trkpt lat="45.87584" lon="4.71316">
        <ele>284.8</ele>
        <time>2017-02-18T13:14:28Z</time>
      </trkpt>
      <trkpt lat="45.87576" lon="4.71312">
        <ele>285</ele>
        <time>2017-02-18T13:14:30Z</time>
      </trkpt>
      <trkpt lat="45.87565" lon="4.71308">
        <ele>284.3</ele>
        <time>2017-02-18T13:14:32Z</time>
      </trkpt>
      <trkpt lat="45.87557" lon="4.71301">
        <ele>284.2</ele>
        <time>2017-02-18T13:14:34Z</time>
      </trkpt>
      <trkpt lat="45.87551" lon="4.71296">
        <ele>283.5</ele>
        <time>2017-02-18T13:14:36Z</time>
      </trkpt>
      <trkpt lat="45.87544" lon="4.71291">
        <ele>282.8</ele>
        <time>2017-02-18T13:14:37Z</time>
      </trkpt>
      <trkpt lat="45.87537" lon="4.71288">
        <ele>281.6</ele>
        <time>2017-02-18T13:14:38Z</time>
      </trkpt>
      <trkpt lat="45.87526" lon="4.71278">
        <ele>279.9</ele>
        <time>2017-02-18T13:14:40Z</time>
      </trkpt>
      <trkpt lat="45.87514" lon="4.71272">
        <ele>278.3</ele>
        <time>2017-02-18T13:14:42Z</time>
      </trkpt>
      <trkpt lat="45.87502" lon="4.71267">
        <ele>277.2</ele>
        <time>2017-02-18T13:14:44Z</time>
      </trkpt>
      <trkpt lat="45.87492" lon="4.71267">
        <ele>276.7</ele>
        <time>2017-02-18T13:14:46Z</time>
      </trkpt>
      <trkpt lat="45.87483" lon="4.71269">
        <ele>277.5</ele>
        <time>2017-02-18T13:14:48Z</time>
      </trkpt>
      <trkpt lat="45.87474" lon="4.71272">
        <ele>277.9</ele>
        <time>2017-02-18T13:14:50Z</time>
      </trkpt>
      <trkpt lat="45.87466" lon="4.71273">
        <ele>277.9</ele>
        <time>2017-02-18T13:14:52Z</time>
      </trkpt>
      <trkpt lat="45.87455" lon="4.71277">
        <ele>278</ele>
        <time>2017-02-18T13:14:55Z</time>
      </trkpt>
      <trkpt lat="45.87446" lon="4.71283">
        <ele>276.8</ele>
        <time>2017-02-18T13:14:57Z</time>
      </trkpt>
      <trkpt lat="45.8744" lon="4.71294">
        <ele>276.1</ele>
        <time>2017-02-18T13:14:59Z</time>
      </trkpt>
      <trkpt lat="45.87436" lon="4.71306">
        <ele>276.1</ele>
        <time>2017-02-18T13:15:01Z</time>
      </trkpt>
      <trkpt lat="45.87431" lon="4.71316">
        <ele>276</ele>
        <time>2017-02-18T13:15:03Z</time>
      </trkpt>
      <trkpt lat="45.87427" lon="4.71328">
        <ele>275.2</ele>
        <time>2017-02-18T13:15:05Z</time>
      </trkpt>
      <trkpt lat="45.87426" lon="4.7134">
        <ele>274.7</ele>
        <time>2017-02-18T13:15:08Z</time>
      </trkpt>
      <trkpt lat="45.8742" lon="4.71348">
        <ele>274.6</ele>
        <time>2017-02-18T13:15:10Z</time>
      </trkpt>
      <trkpt lat="45.87416" lon="4.71356">
        <ele>274.4</ele>
        <time>2017-02-18T13:15:13Z</time>
      </trkpt>
      <trkpt lat="45.8741" lon="4.71367">
        <ele>273.7</ele>
        <time>2017-02-18T13:15:18Z</time>
      </trkpt>
      <trkpt lat="45.87402" lon="4.71366">
        <ele>273</ele>
        <time>2017-02-18T13:15:23Z</time>
      </trkpt>
      <trkpt lat="45.87394" lon="4.71365">
        <ele>271.6</ele>
        <time>2017-02-18T13:15:25Z</time>
      </trkpt>
      <trkpt lat="45.8738" lon="4.71366">
        <ele>271.3</ele>
        <time>2017-02-18T13:15:27Z</time>
      </trkpt>
      <trkpt lat="45.87371" lon="4.71368">
        <ele>270.9</ele>
        <time>2017-02-18T13:15:29Z</time>
      </trkpt>
      <trkpt lat="45.87363" lon="4.71373">
        <ele>270</ele>
        <time>2017-02-18T13:15:32Z</time>
      </trkpt>
      <trkpt lat="45.87358" lon="4.71379">
        <ele>268</ele>
        <time>2017-02-18T13:15:39Z</time>
      </trkpt>
      <trkpt lat="45.87351" lon="4.71388">
        <ele>263.8</ele>
        <time>2017-02-18T13:15:44Z</time>
      </trkpt>
      <trkpt lat="45.87349" lon="4.71404">
        <ele>259.1</ele>
        <time>2017-02-18T13:15:46Z</time>
      </trkpt>
      <trkpt lat="45.87347" lon="4.71424">
        <ele>255.8</ele>
        <time>2017-02-18T13:15:48Z</time>
      </trkpt>
      <trkpt lat="45.87345" lon="4.71443">
        <ele>252.8</ele>
        <time>2017-02-18T13:15:50Z</time>
      </trkpt>
      <trkpt lat="45.87344" lon="4.71453">
        <ele>251.7</ele>
        <time>2017-02-18T13:15:51Z</time>
      </trkpt>
      <trkpt lat="45.87344" lon="4.71464">
        <ele>250.9</ele>
        <time>2017-02-18T13:15:52Z</time>
      </trkpt>
      <trkpt lat="45.87344" lon="4.71475">
        <ele>249.8</ele>
        <time>2017-02-18T13:15:53Z</time>
      </trkpt>
      <trkpt lat="45.87344" lon="4.71486">
        <ele>248.6</ele>
        <time>2017-02-18T13:15:54Z</time>
      </trkpt>
      <trkpt lat="45.87344" lon="4.71499">
        <ele>247.5</ele>
        <time>2017-02-18T13:15:55Z</time>
      </trkpt>
      <trkpt lat="45.87346" lon="4.7151">
        <ele>246.5</ele>
        <time>2017-02-18T13:15:56Z</time>
      </trkpt>
      <trkpt lat="45.87348" lon="4.71523">
        <ele>245.6</ele>
        <time>2017-02-18T13:15:57Z</time>
      </trkpt>
      <trkpt lat="45.8735" lon="4.71535">
        <ele>244.7</ele>
        <time>2017-02-18T13:15:58Z</time>
      </trkpt>
      <trkpt lat="45.87352" lon="4.71548">
        <ele>244</ele>
        <time>2017-02-18T13:15:59Z</time>
      </trkpt>
      <trkpt lat="45.87355" lon="4.7156">
        <ele>243.1</ele>
        <time>2017-02-18T13:16:00Z</time>
      </trkpt>
      <trkpt lat="45.87357" lon="4.71571">
        <ele>242.3</ele>
        <time>2017-02-18T13:16:01Z</time>
      </trkpt>
      <trkpt lat="45.87359" lon="4.71582">
        <ele>241.8</ele>
        <time>2017-02-18T13:16:02Z</time>
      </trkpt>
      <trkpt lat="45.87361" lon="4.71593">
        <ele>241.3</ele>
        <time>2017-02-18T13:16:03Z</time>
      </trkpt>
      <trkpt lat="45.87364" lon="4.71603">
        <ele>241</ele>
        <time>2017-02-18T13:16:04Z</time>
      </trkpt>
      <trkpt lat="45.87366" lon="4.71613">
        <ele>240.9</ele>
        <time>2017-02-18T13:16:05Z</time>
      </trkpt>
      <trkpt lat="45.8737" lon="4.71633">
        <ele>241.1</ele>
        <time>2017-02-18T13:16:07Z</time>
      </trkpt>
      <trkpt lat="45.87374" lon="4.71652">
        <ele>241.3</ele>
        <time>2017-02-18T13:16:09Z</time>
      </trkpt>
      <trkpt lat="45.87378" lon="4.71671">
        <ele>240.8</ele>
        <time>2017-02-18T13:16:11Z</time>
      </trkpt>
      <trkpt lat="45.87382" lon="4.71691">
        <ele>240.8</ele>
        <time>2017-02-18T13:16:13Z</time>
      </trkpt>
      <trkpt lat="45.87386" lon="4.71708">
        <ele>241.4</ele>
        <time>2017-02-18T13:16:15Z</time>
      </trkpt>
      <trkpt lat="45.87389" lon="4.71725">
        <ele>241.1</ele>
        <time>2017-02-18T13:16:17Z</time>
      </trkpt>
      <trkpt lat="45.87391" lon="4.71742">
        <ele>241.7</ele>
        <time>2017-02-18T13:16:19Z</time>
      </trkpt>
      <trkpt lat="45.87395" lon="4.71757">
        <ele>241.7</ele>
        <time>2017-02-18T13:16:21Z</time>
      </trkpt>
      <trkpt lat="45.87398" lon="4.71774">
        <ele>241.8</ele>
        <time>2017-02-18T13:16:23Z</time>
      </trkpt>
      <trkpt lat="45.87401" lon="4.71789">
        <ele>241.9</ele>
        <time>2017-02-18T13:16:25Z</time>
      </trkpt>
      <trkpt lat="45.87404" lon="4.71805">
        <ele>240.2</ele>
        <time>2017-02-18T13:16:27Z</time>
      </trkpt>
      <trkpt lat="45.87407" lon="4.71821">
        <ele>238.8</ele>
        <time>2017-02-18T13:16:29Z</time>
      </trkpt>
      <trkpt lat="45.8741" lon="4.71837">
        <ele>239.4</ele>
        <time>2017-02-18T13:16:31Z</time>
      </trkpt>
      <trkpt lat="45.87413" lon="4.71853">
        <ele>240.9</ele>
        <time>2017-02-18T13:16:33Z</time>
      </trkpt>
      <trkpt lat="45.87416" lon="4.7187">
        <ele>241.9</ele>
        <time>2017-02-18T13:16:35Z</time>
      </trkpt>
      <trkpt lat="45.87419" lon="4.71885">
        <ele>242</ele>
        <time>2017-02-18T13:16:37Z</time>
      </trkpt>
      <trkpt lat="45.87421" lon="4.71901">
        <ele>241.5</ele>
        <time>2017-02-18T13:16:39Z</time>
      </trkpt>
      <trkpt lat="45.87423" lon="4.71915">
        <ele>241</ele>
        <time>2017-02-18T13:16:41Z</time>
      </trkpt>
      <trkpt lat="45.87426" lon="4.71932">
        <ele>240.8</ele>
        <time>2017-02-18T13:16:43Z</time>
      </trkpt>
      <trkpt lat="45.8743" lon="4.71946">
        <ele>240.7</ele>
        <time>2017-02-18T13:16:45Z</time>
      </trkpt>
      <trkpt lat="45.87433" lon="4.71962">
        <ele>241</ele>
        <time>2017-02-18T13:16:47Z</time>
      </trkpt>
      <trkpt lat="45.87437" lon="4.71977">
        <ele>241.1</ele>
        <time>2017-02-18T13:16:49Z</time>
      </trkpt>
      <trkpt lat="45.87439" lon="4.71993">
        <ele>242.4</ele>
        <time>2017-02-18T13:16:51Z</time>
      </trkpt>
      <trkpt lat="45.87441" lon="4.72006">
        <ele>243.2</ele>
        <time>2017-02-18T13:16:53Z</time>
      </trkpt>
      <trkpt lat="45.87444" lon="4.72023">
        <ele>242.5</ele>
        <time>2017-02-18T13:16:55Z</time>
      </trkpt>
      <trkpt lat="45.87447" lon="4.72041">
        <ele>243.3</ele>
        <time>2017-02-18T13:16:57Z</time>
      </trkpt>
      <trkpt lat="45.87451" lon="4.72056">
        <ele>243.8</ele>
        <time>2017-02-18T13:16:59Z</time>
      </trkpt>
      <trkpt lat="45.87454" lon="4.72069">
        <ele>243.1</ele>
        <time>2017-02-18T13:17:01Z</time>
      </trkpt>
      <trkpt lat="45.87455" lon="4.72085">
        <ele>241.9</ele>
        <time>2017-02-18T13:17:03Z</time>
      </trkpt>
      <trkpt lat="45.87454" lon="4.72101">
        <ele>240.3</ele>
        <time>2017-02-18T13:17:05Z</time>
      </trkpt>
      <trkpt lat="45.87451" lon="4.72114">
        <ele>239.3</ele>
        <time>2017-02-18T13:17:07Z</time>
      </trkpt>
      <trkpt lat="45.87444" lon="4.72127">
        <ele>239.4</ele>
        <time>2017-02-18T13:17:09Z</time>
      </trkpt>
      <trkpt lat="45.87438" lon="4.72139">
        <ele>239</ele>
        <time>2017-02-18T13:17:11Z</time>
      </trkpt>
      <trkpt lat="45.87433" lon="4.72147">
        <ele>239.6</ele>
        <time>2017-02-18T13:17:13Z</time>
      </trkpt>
      <trkpt lat="45.87427" lon="4.72155">
        <ele>240.9</ele>
        <time>2017-02-18T13:17:15Z</time>
      </trkpt>
      <trkpt lat="45.8742" lon="4.72166">
        <ele>242.1</ele>
        <time>2017-02-18T13:17:17Z</time>
      </trkpt>
      <trkpt lat="45.87413" lon="4.72179">
        <ele>242.3</ele>
        <time>2017-02-18T13:17:19Z</time>
      </trkpt>
      <trkpt lat="45.87409" lon="4.72188">
        <ele>242.4</ele>
        <time>2017-02-18T13:17:21Z</time>
      </trkpt>
      <trkpt lat="45.87404" lon="4.72198">
        <ele>242.4</ele>
        <time>2017-02-18T13:17:23Z</time>
      </trkpt>
      <trkpt lat="45.87398" lon="4.72207">
        <ele>243.4</ele>
        <time>2017-02-18T13:17:25Z</time>
      </trkpt>
      <trkpt lat="45.87392" lon="4.72216">
        <ele>243.7</ele>
        <time>2017-02-18T13:17:27Z</time>
      </trkpt>
      <trkpt lat="45.87387" lon="4.72226">
        <ele>243.2</ele>
        <time>2017-02-18T13:17:29Z</time>
      </trkpt>
      <trkpt lat="45.87382" lon="4.72237">
        <ele>242.3</ele>
        <time>2017-02-18T13:17:31Z</time>
      </trkpt>
      <trkpt lat="45.87377" lon="4.72247">
        <ele>241.6</ele>
        <time>2017-02-18T13:17:33Z</time>
      </trkpt>
      <trkpt lat="45.87371" lon="4.72257">
        <ele>241.3</ele>
        <time>2017-02-18T13:17:35Z</time>
      </trkpt>
      <trkpt lat="45.87364" lon="4.72268">
        <ele>242.2</ele>
        <time>2017-02-18T13:17:37Z</time>
      </trkpt>
      <trkpt lat="45.87357" lon="4.72282">
        <ele>242.4</ele>
        <time>2017-02-18T13:17:39Z</time>
      </trkpt>
      <trkpt lat="45.8735" lon="4.72298">
        <ele>242.1</ele>
        <time>2017-02-18T13:17:41Z</time>
      </trkpt>
      <trkpt lat="45.87344" lon="4.72313">
        <ele>241.2</ele>
        <time>2017-02-18T13:17:43Z</time>
      </trkpt>
      <trkpt lat="45.87338" lon="4.72326">
        <ele>241.1</ele>
        <time>2017-02-18T13:17:45Z</time>
      </trkpt>
      <trkpt lat="45.87332" lon="4.7234">
        <ele>240.6</ele>
        <time>2017-02-18T13:17:47Z</time>
      </trkpt>
      <trkpt lat="45.87326" lon="4.72353">
        <ele>240.1</ele>
        <time>2017-02-18T13:17:49Z</time>
      </trkpt>
      <trkpt lat="45.87319" lon="4.72367">
        <ele>240.2</ele>
        <time>2017-02-18T13:17:51Z</time>
      </trkpt>
      <trkpt lat="45.87313" lon="4.72381">
        <ele>240.5</ele>
        <time>2017-02-18T13:17:53Z</time>
      </trkpt>
      <trkpt lat="45.87308" lon="4.72393">
        <ele>240.2</ele>
        <time>2017-02-18T13:17:55Z</time>
      </trkpt>
      <trkpt lat="45.87302" lon="4.72407">
        <ele>240</ele>
        <time>2017-02-18T13:17:57Z</time>
      </trkpt>
      <trkpt lat="45.87297" lon="4.72419">
        <ele>240.5</ele>
        <time>2017-02-18T13:17:59Z</time>
      </trkpt>
      <trkpt lat="45.87292" lon="4.7243">
        <ele>240.8</ele>
        <time>2017-02-18T13:18:01Z</time>
      </trkpt>
      <trkpt lat="45.87287" lon="4.72439">
        <ele>240.7</ele>
        <time>2017-02-18T13:18:03Z</time>
      </trkpt>
      <trkpt lat="45.87283" lon="4.72449">
        <ele>242.3</ele>
        <time>2017-02-18T13:18:05Z</time>
      </trkpt>
      <trkpt lat="45.87277" lon="4.7246">
        <ele>242.6</ele>
        <time>2017-02-18T13:18:07Z</time>
      </trkpt>
      <trkpt lat="45.87271" lon="4.72472">
        <ele>243.4</ele>
        <time>2017-02-18T13:18:09Z</time>
      </trkpt>
      <trkpt lat="45.87267" lon="4.72481">
        <ele>243.6</ele>
        <time>2017-02-18T13:18:11Z</time>
      </trkpt>
      <trkpt lat="45.87262" lon="4.72492">
        <ele>243.1</ele>
        <time>2017-02-18T13:18:13Z</time>
      </trkpt>
      <trkpt lat="45.87257" lon="4.72503">
        <ele>242.7</ele>
        <time>2017-02-18T13:18:15Z</time>
      </trkpt>
      <trkpt lat="45.87251" lon="4.72514">
        <ele>242.3</ele>
        <time>2017-02-18T13:18:17Z</time>
      </trkpt>
      <trkpt lat="45.87245" lon="4.72527">
        <ele>242.8</ele>
        <time>2017-02-18T13:18:19Z</time>
      </trkpt>
      <trkpt lat="45.8724" lon="4.72539">
        <ele>242.1</ele>
        <time>2017-02-18T13:18:21Z</time>
      </trkpt>
      <trkpt lat="45.87236" lon="4.72548">
        <ele>241.7</ele>
        <time>2017-02-18T13:18:23Z</time>
      </trkpt>
      <trkpt lat="45.87231" lon="4.7256">
        <ele>242</ele>
        <time>2017-02-18T13:18:26Z</time>
      </trkpt>
      <trkpt lat="45.87226" lon="4.72572">
        <ele>242.6</ele>
        <time>2017-02-18T13:18:29Z</time>
      </trkpt>
      <trkpt lat="45.87222" lon="4.7258">
        <ele>243.4</ele>
        <time>2017-02-18T13:18:32Z</time>
      </trkpt>
      <trkpt lat="45.87217" lon="4.72589">
        <ele>244.1</ele>
        <time>2017-02-18T13:18:36Z</time>
      </trkpt>
      <trkpt lat="45.87213" lon="4.72597">
        <ele>244.8</ele>
        <time>2017-02-18T13:18:40Z</time>
      </trkpt>
      <trkpt lat="45.87208" lon="4.72608">
        <ele>245.3</ele>
        <time>2017-02-18T13:18:44Z</time>
      </trkpt>
      <trkpt lat="45.87202" lon="4.72616">
        <ele>246.1</ele>
        <time>2017-02-18T13:18:50Z</time>
      </trkpt>
      <trkpt lat="45.87198" lon="4.72626">
        <ele>246.3</ele>
        <time>2017-02-18T13:18:54Z</time>
      </trkpt>
      <trkpt lat="45.87194" lon="4.7264">
        <ele>246.9</ele>
        <time>2017-02-18T13:18:58Z</time>
      </trkpt>
      <trkpt lat="45.8719" lon="4.72653">
        <ele>247.2</ele>
        <time>2017-02-18T13:19:01Z</time>
      </trkpt>
      <trkpt lat="45.87187" lon="4.72666">
        <ele>247.4</ele>
        <time>2017-02-18T13:19:03Z</time>
      </trkpt>
      <trkpt lat="45.87184" lon="4.72678">
        <ele>247.5</ele>
        <time>2017-02-18T13:19:05Z</time>
      </trkpt>
      <trkpt lat="45.87181" lon="4.72692">
        <ele>247.5</ele>
        <time>2017-02-18T13:19:08Z</time>
      </trkpt>
      <trkpt lat="45.87178" lon="4.72702">
        <ele>247.5</ele>
        <time>2017-02-18T13:19:10Z</time>
      </trkpt>
      <trkpt lat="45.87174" lon="4.72711">
        <ele>247.5</ele>
        <time>2017-02-18T13:19:12Z</time>
      </trkpt>
      <trkpt lat="45.8717" lon="4.72725">
        <ele>247.6</ele>
        <time>2017-02-18T13:19:15Z</time>
      </trkpt>
      <trkpt lat="45.87168" lon="4.72735">
        <ele>247.7</ele>
        <time>2017-02-18T13:19:17Z</time>
      </trkpt>
      <trkpt lat="45.87166" lon="4.72745">
        <ele>247.9</ele>
        <time>2017-02-18T13:19:19Z</time>
      </trkpt>
      <trkpt lat="45.87164" lon="4.72759">
        <ele>248.1</ele>
        <time>2017-02-18T13:19:22Z</time>
      </trkpt>
      <trkpt lat="45.87161" lon="4.72771">
        <ele>248.2</ele>
        <time>2017-02-18T13:19:25Z</time>
      </trkpt>
      <trkpt lat="45.87156" lon="4.72778">
        <ele>248.4</ele>
        <time>2017-02-18T13:19:29Z</time>
      </trkpt>
      <trkpt lat="45.87147" lon="4.72783">
        <ele>248.7</ele>
        <time>2017-02-18T13:19:33Z</time>
      </trkpt>
      <trkpt lat="45.8714" lon="4.72788">
        <ele>249</ele>
        <time>2017-02-18T13:19:36Z</time>
      </trkpt>
      <trkpt lat="45.87133" lon="4.72793">
        <ele>249.5</ele>
        <time>2017-02-18T13:19:40Z</time>
      </trkpt>
      <trkpt lat="45.87126" lon="4.728">
        <ele>250</ele>
        <time>2017-02-18T13:19:44Z</time>
      </trkpt>
      <trkpt lat="45.87119" lon="4.72805">
        <ele>250.6</ele>
        <time>2017-02-18T13:19:49Z</time>
      </trkpt>
      <trkpt lat="45.87112" lon="4.7281">
        <ele>250.9</ele>
        <time>2017-02-18T13:19:53Z</time>
      </trkpt>
      <trkpt lat="45.87105" lon="4.72816">
        <ele>251.3</ele>
        <time>2017-02-18T13:19:57Z</time>
      </trkpt>
      <trkpt lat="45.87097" lon="4.72819">
        <ele>251.9</ele>
        <time>2017-02-18T13:20:01Z</time>
      </trkpt>
      <trkpt lat="45.87089" lon="4.72824">
        <ele>252.6</ele>
        <time>2017-02-18T13:20:06Z</time>
      </trkpt>
      <trkpt lat="45.87081" lon="4.72831">
        <ele>253.6</ele>
        <time>2017-02-18T13:20:12Z</time>
      </trkpt>
      <trkpt lat="45.87075" lon="4.72837">
        <ele>254.3</ele>
        <time>2017-02-18T13:20:16Z</time>
      </trkpt>
      <trkpt lat="45.87068" lon="4.72843">
        <ele>254.9</ele>
        <time>2017-02-18T13:20:20Z</time>
      </trkpt>
      <trkpt lat="45.8706" lon="4.72848">
        <ele>255.6</ele>
        <time>2017-02-18T13:20:25Z</time>
      </trkpt>
      <trkpt lat="45.87052" lon="4.72852">
        <ele>256.2</ele>
        <time>2017-02-18T13:20:30Z</time>
      </trkpt>
      <trkpt lat="45.87045" lon="4.72858">
        <ele>256.6</ele>
        <time>2017-02-18T13:20:34Z</time>
      </trkpt>
      <trkpt lat="45.87037" lon="4.72863">
        <ele>256.9</ele>
        <time>2017-02-18T13:20:39Z</time>
      </trkpt>
      <trkpt lat="45.87028" lon="4.72869">
        <ele>257.3</ele>
        <time>2017-02-18T13:20:44Z</time>
      </trkpt>
      <trkpt lat="45.87022" lon="4.72873">
        <ele>257.8</ele>
        <time>2017-02-18T13:20:49Z</time>
      </trkpt>
      <trkpt lat="45.87014" lon="4.7288">
        <ele>258.4</ele>
        <time>2017-02-18T13:20:54Z</time>
      </trkpt>
      <trkpt lat="45.87006" lon="4.72884">
        <ele>259.1</ele>
        <time>2017-02-18T13:20:59Z</time>
      </trkpt>
      <trkpt lat="45.86999" lon="4.72888">
        <ele>259.8</ele>
        <time>2017-02-18T13:21:03Z</time>
      </trkpt>
      <trkpt lat="45.86991" lon="4.72889">
        <ele>260.3</ele>
        <time>2017-02-18T13:21:07Z</time>
      </trkpt>
      <trkpt lat="45.86982" lon="4.72889">
        <ele>261</ele>
        <time>2017-02-18T13:21:11Z</time>
      </trkpt>
      <trkpt lat="45.86974" lon="4.72891">
        <ele>262</ele>
        <time>2017-02-18T13:21:15Z</time>
      </trkpt>
      <trkpt lat="45.86964" lon="4.72892">
        <ele>263.1</ele>
        <time>2017-02-18T13:21:19Z</time>
      </trkpt>
      <trkpt lat="45.86956" lon="4.72897">
        <ele>264.2</ele>
        <time>2017-02-18T13:21:23Z</time>
      </trkpt>
      <trkpt lat="45.86947" lon="4.72899">
        <ele>265.3</ele>
        <time>2017-02-18T13:21:27Z</time>
      </trkpt>
      <trkpt lat="45.86938" lon="4.72901">
        <ele>266.5</ele>
        <time>2017-02-18T13:21:31Z</time>
      </trkpt>
      <trkpt lat="45.8693" lon="4.72905">
        <ele>267.4</ele>
        <time>2017-02-18T13:21:35Z</time>
      </trkpt>
      <trkpt lat="45.86925" lon="4.72915">
        <ele>268.3</ele>
        <time>2017-02-18T13:21:39Z</time>
      </trkpt>
      <trkpt lat="45.86921" lon="4.72927">
        <ele>268.7</ele>
        <time>2017-02-18T13:21:43Z</time>
      </trkpt>
      <trkpt lat="45.86919" lon="4.72939">
        <ele>269.2</ele>
        <time>2017-02-18T13:21:47Z</time>
      </trkpt>
      <trkpt lat="45.86918" lon="4.72951">
        <ele>270.2</ele>
        <time>2017-02-18T13:21:49Z</time>
      </trkpt>
      <trkpt lat="45.86917" lon="4.72966">
        <ele>270.7</ele>
        <time>2017-02-18T13:21:52Z</time>
      </trkpt>
      <trkpt lat="45.86915" lon="4.72978">
        <ele>271.3</ele>
        <time>2017-02-18T13:21:54Z</time>
      </trkpt>
      <trkpt lat="45.8691" lon="4.72993">
        <ele>272.9</ele>
        <time>2017-02-18T13:21:56Z</time>
      </trkpt>
      <trkpt lat="45.86903" lon="4.73012">
        <ele>273.5</ele>
        <time>2017-02-18T13:21:58Z</time>
      </trkpt>
      <trkpt lat="45.86896" lon="4.73028">
        <ele>273.6</ele>
        <time>2017-02-18T13:22:00Z</time>
      </trkpt>
      <trkpt lat="45.86891" lon="4.73039">
        <ele>274.4</ele>
        <time>2017-02-18T13:22:02Z</time>
      </trkpt>
      <trkpt lat="45.86886" lon="4.73053">
        <ele>276</ele>
        <time>2017-02-18T13:22:04Z</time>
      </trkpt>
      <trkpt lat="45.86882" lon="4.7307">
        <ele>275.8</ele>
        <time>2017-02-18T13:22:06Z</time>
      </trkpt>
      <trkpt lat="45.8688" lon="4.73084">
        <ele>274.5</ele>
        <time>2017-02-18T13:22:08Z</time>
      </trkpt>
      <trkpt lat="45.86877" lon="4.73098">
        <ele>272.7</ele>
        <time>2017-02-18T13:22:10Z</time>
      </trkpt>
      <trkpt lat="45.86875" lon="4.73115">
        <ele>270.9</ele>
        <time>2017-02-18T13:22:12Z</time>
      </trkpt>
      <trkpt lat="45.86874" lon="4.73126">
        <ele>270.4</ele>
        <time>2017-02-18T13:22:14Z</time>
      </trkpt>
      <trkpt lat="45.86872" lon="4.73139">
        <ele>268.1</ele>
        <time>2017-02-18T13:22:16Z</time>
      </trkpt>
      <trkpt lat="45.86871" lon="4.7315">
        <ele>267.2</ele>
        <time>2017-02-18T13:22:18Z</time>
      </trkpt>
      <trkpt lat="45.86871" lon="4.73163">
        <ele>267.3</ele>
        <time>2017-02-18T13:22:21Z</time>
      </trkpt>
      <trkpt lat="45.86867" lon="4.73172">
        <ele>267.4</ele>
        <time>2017-02-18T13:22:24Z</time>
      </trkpt>
      <trkpt lat="45.86863" lon="4.73184">
        <ele>267.6</ele>
        <time>2017-02-18T13:22:27Z</time>
      </trkpt>
      <trkpt lat="45.86861" lon="4.73194">
        <ele>267.8</ele>
        <time>2017-02-18T13:22:29Z</time>
      </trkpt>
      <trkpt lat="45.8686" lon="4.73205">
        <ele>268</ele>
        <time>2017-02-18T13:22:31Z</time>
      </trkpt>
      <trkpt lat="45.86859" lon="4.73218">
        <ele>268.2</ele>
        <time>2017-02-18T13:22:34Z</time>
      </trkpt>
      <trkpt lat="45.86858" lon="4.73234">
        <ele>268.5</ele>
        <time>2017-02-18T13:22:37Z</time>
      </trkpt>
      <trkpt lat="45.86858" lon="4.73245">
        <ele>268.6</ele>
        <time>2017-02-18T13:22:39Z</time>
      </trkpt>
      <trkpt lat="45.86859" lon="4.73259">
        <ele>268.6</ele>
        <time>2017-02-18T13:22:42Z</time>
      </trkpt>
      <trkpt lat="45.86861" lon="4.73272">
        <ele>268.9</ele>
        <time>2017-02-18T13:22:45Z</time>
      </trkpt>
      <trkpt lat="45.86863" lon="4.73285">
        <ele>269</ele>
        <time>2017-02-18T13:22:48Z</time>
      </trkpt>
      <trkpt lat="45.86865" lon="4.73296">
        <ele>269.2</ele>
        <time>2017-02-18T13:22:51Z</time>
      </trkpt>
      <trkpt lat="45.86866" lon="4.73306">
        <ele>269.3</ele>
        <time>2017-02-18T13:22:53Z</time>
      </trkpt>
      <trkpt lat="45.86868" lon="4.73317">
        <ele>269.3</ele>
        <time>2017-02-18T13:22:55Z</time>
      </trkpt>
      <trkpt lat="45.86869" lon="4.73329">
        <ele>269.3</ele>
        <time>2017-02-18T13:22:57Z</time>
      </trkpt>
      <trkpt lat="45.8687" lon="4.73343">
        <ele>269.4</ele>
        <time>2017-02-18T13:23:00Z</time>
      </trkpt>
      <trkpt lat="45.86872" lon="4.73356">
        <ele>269.6</ele>
        <time>2017-02-18T13:23:03Z</time>
      </trkpt>
      <trkpt lat="45.86872" lon="4.73368">
        <ele>269.7</ele>
        <time>2017-02-18T13:23:05Z</time>
      </trkpt>
      <trkpt lat="45.86872" lon="4.7338">
        <ele>269.8</ele>
        <time>2017-02-18T13:23:07Z</time>
      </trkpt>
      <trkpt lat="45.86871" lon="4.73394">
        <ele>270.2</ele>
        <time>2017-02-18T13:23:10Z</time>
      </trkpt>
      <trkpt lat="45.8687" lon="4.73404">
        <ele>270.4</ele>
        <time>2017-02-18T13:23:12Z</time>
      </trkpt>
      <trkpt lat="45.86867" lon="4.73418">
        <ele>270.7</ele>
        <time>2017-02-18T13:23:15Z</time>
      </trkpt>
      <trkpt lat="45.86865" lon="4.73433">
        <ele>271</ele>
        <time>2017-02-18T13:23:18Z</time>
      </trkpt>
      <trkpt lat="45.86864" lon="4.73445">
        <ele>271.2</ele>
        <time>2017-02-18T13:23:21Z</time>
      </trkpt>
      <trkpt lat="45.86862" lon="4.73457">
        <ele>271.4</ele>
        <time>2017-02-18T13:23:24Z</time>
      </trkpt>
      <trkpt lat="45.86859" lon="4.73466">
        <ele>271.5</ele>
        <time>2017-02-18T13:23:31Z</time>
      </trkpt>
      <trkpt lat="45.8686" lon="4.73467">
        <ele>271.6</ele>
        <time>2017-02-18T13:23:38Z</time>
      </trkpt>
      <trkpt lat="45.8686" lon="4.73466">
        <ele>271.6</ele>
        <time>2017-02-18T13:23:40Z</time>
      </trkpt>
      <trkpt lat="45.86863" lon="4.73467">
        <ele>271.8</ele>
        <time>2017-02-18T13:23:48Z</time>
      </trkpt>
      <trkpt lat="45.86862" lon="4.73467">
        <ele>272.6</ele>
        <time>2017-02-18T13:23:55Z</time>
      </trkpt>
      <trkpt lat="45.86863" lon="4.73464">
        <ele>272</ele>
        <time>2017-02-18T13:24:02Z</time>
      </trkpt>
      <trkpt lat="45.86866" lon="4.73464">
        <ele>271.2</ele>
        <time>2017-02-18T13:24:09Z</time>
      </trkpt>
      <trkpt lat="45.86869" lon="4.73464">
        <ele>271.2</ele>
        <time>2017-02-18T13:24:16Z</time>
      </trkpt>
      <trkpt lat="45.86873" lon="4.73463">
        <ele>271.5</ele>
        <time>2017-02-18T13:24:23Z</time>
      </trkpt>
      <trkpt lat="45.8687" lon="4.73465">
        <ele>270.7</ele>
        <time>2017-02-18T13:24:30Z</time>
      </trkpt>
      <trkpt lat="45.86864" lon="4.73464">
        <ele>269.6</ele>
        <time>2017-02-18T13:24:37Z</time>
      </trkpt>
      <trkpt lat="45.86864" lon="4.73461">
        <ele>270.6</ele>
        <time>2017-02-18T13:24:44Z</time>
      </trkpt>
      <trkpt lat="45.86865" lon="4.73462">
        <ele>270.5</ele>
        <time>2017-02-18T13:24:51Z</time>
      </trkpt>
      <trkpt lat="45.86868" lon="4.73466">
        <ele>270.4</ele>
        <time>2017-02-18T13:24:58Z</time>
      </trkpt>
      <trkpt lat="45.8687" lon="4.73465">
        <ele>271.3</ele>
        <time>2017-02-18T13:25:05Z</time>
      </trkpt>
      <trkpt lat="45.86871" lon="4.73464">
        <ele>272.5</ele>
        <time>2017-02-18T13:25:12Z</time>
      </trkpt>
      <trkpt lat="45.8687" lon="4.73463">
        <ele>272.6</ele>
        <time>2017-02-18T13:25:15Z</time>
      </trkpt>
      <trkpt lat="45.8687" lon="4.73461">
        <ele>272.9</ele>
        <time>2017-02-18T13:25:23Z</time>
      </trkpt>
      <trkpt lat="45.8687" lon="4.73461">
        <ele>273</ele>
        <time>2017-02-18T13:25:24Z</time>
      </trkpt>
      <trkpt lat="45.86865" lon="4.73469">
        <ele>273</ele>
        <time>2017-02-18T13:25:29Z</time>
      </trkpt>
      <trkpt lat="45.86861" lon="4.73482">
        <ele>273</ele>
        <time>2017-02-18T13:25:32Z</time>
      </trkpt>
      <trkpt lat="45.86857" lon="4.73493">
        <ele>273</ele>
        <time>2017-02-18T13:25:34Z</time>
      </trkpt>
      <trkpt lat="45.86854" lon="4.73503">
        <ele>272.7</ele>
        <time>2017-02-18T13:25:36Z</time>
      </trkpt>
      <trkpt lat="45.86851" lon="4.73515">
        <ele>272.7</ele>
        <time>2017-02-18T13:25:39Z</time>
      </trkpt>
      <trkpt lat="45.86847" lon="4.73524">
        <ele>273</ele>
        <time>2017-02-18T13:25:41Z</time>
      </trkpt>
      <trkpt lat="45.86843" lon="4.73533">
        <ele>274.1</ele>
        <time>2017-02-18T13:25:43Z</time>
      </trkpt>
      <trkpt lat="45.86838" lon="4.73542">
        <ele>275.2</ele>
        <time>2017-02-18T13:25:45Z</time>
      </trkpt>
      <trkpt lat="45.86834" lon="4.73551">
        <ele>275.6</ele>
        <time>2017-02-18T13:25:47Z</time>
      </trkpt>
      <trkpt lat="45.86829" lon="4.73561">
        <ele>276.5</ele>
        <time>2017-02-18T13:25:49Z</time>
      </trkpt>
      <trkpt lat="45.86824" lon="4.73569">
        <ele>277.2</ele>
        <time>2017-02-18T13:25:51Z</time>
      </trkpt>
      <trkpt lat="45.86818" lon="4.73579">
        <ele>277.5</ele>
        <time>2017-02-18T13:25:53Z</time>
      </trkpt>
      <trkpt lat="45.86811" lon="4.73591">
        <ele>277.7</ele>
        <time>2017-02-18T13:25:55Z</time>
      </trkpt>
      <trkpt lat="45.86805" lon="4.73601">
        <ele>277.8</ele>
        <time>2017-02-18T13:25:57Z</time>
      </trkpt>
      <trkpt lat="45.868" lon="4.7361">
        <ele>277.7</ele>
        <time>2017-02-18T13:25:59Z</time>
      </trkpt>
      <trkpt lat="45.86793" lon="4.73623">
        <ele>277.8</ele>
        <time>2017-02-18T13:26:02Z</time>
      </trkpt>
      <trkpt lat="45.86788" lon="4.73633">
        <ele>278</ele>
        <time>2017-02-18T13:26:04Z</time>
      </trkpt>
      <trkpt lat="45.86783" lon="4.73642">
        <ele>278.2</ele>
        <time>2017-02-18T13:26:06Z</time>
      </trkpt>
      <trkpt lat="45.86779" lon="4.73651">
        <ele>278.5</ele>
        <time>2017-02-18T13:26:08Z</time>
      </trkpt>
      <trkpt lat="45.86775" lon="4.73661">
        <ele>278.7</ele>
        <time>2017-02-18T13:26:10Z</time>
      </trkpt>
      <trkpt lat="45.86773" lon="4.73673">
        <ele>280.2</ele>
        <time>2017-02-18T13:26:13Z</time>
      </trkpt>
      <trkpt lat="45.86771" lon="4.73687">
        <ele>280.8</ele>
        <time>2017-02-18T13:26:16Z</time>
      </trkpt>
      <trkpt lat="45.86767" lon="4.73701">
        <ele>280.6</ele>
        <time>2017-02-18T13:26:19Z</time>
      </trkpt>
      <trkpt lat="45.86765" lon="4.73712">
        <ele>280.6</ele>
        <time>2017-02-18T13:26:21Z</time>
      </trkpt>
      <trkpt lat="45.8676" lon="4.73725">
        <ele>280.6</ele>
        <time>2017-02-18T13:26:23Z</time>
      </trkpt>
      <trkpt lat="45.86757" lon="4.73735">
        <ele>280.6</ele>
        <time>2017-02-18T13:26:25Z</time>
      </trkpt>
      <trkpt lat="45.86754" lon="4.73746">
        <ele>280.7</ele>
        <time>2017-02-18T13:26:27Z</time>
      </trkpt>
      <trkpt lat="45.86751" lon="4.73756">
        <ele>280.6</ele>
        <time>2017-02-18T13:26:29Z</time>
      </trkpt>
      <trkpt lat="45.86748" lon="4.73768">
        <ele>280.7</ele>
        <time>2017-02-18T13:26:31Z</time>
      </trkpt>
      <trkpt lat="45.86743" lon="4.7378">
        <ele>280.8</ele>
        <time>2017-02-18T13:26:34Z</time>
      </trkpt>
      <trkpt lat="45.86741" lon="4.73792">
        <ele>280.6</ele>
        <time>2017-02-18T13:26:37Z</time>
      </trkpt>
      <trkpt lat="45.86737" lon="4.73805">
        <ele>280.5</ele>
        <time>2017-02-18T13:26:40Z</time>
      </trkpt>
      <trkpt lat="45.86733" lon="4.7382">
        <ele>280</ele>
        <time>2017-02-18T13:26:43Z</time>
      </trkpt>
      <trkpt lat="45.8673" lon="4.7383">
        <ele>280.1</ele>
        <time>2017-02-18T13:26:45Z</time>
      </trkpt>
      <trkpt lat="45.86727" lon="4.73841">
        <ele>280.3</ele>
        <time>2017-02-18T13:26:47Z</time>
      </trkpt>
      <trkpt lat="45.86723" lon="4.73852">
        <ele>281.6</ele>
        <time>2017-02-18T13:26:49Z</time>
      </trkpt>
      <trkpt lat="45.8672" lon="4.73862">
        <ele>281.7</ele>
        <time>2017-02-18T13:26:51Z</time>
      </trkpt>
      <trkpt lat="45.86716" lon="4.73874">
        <ele>281.8</ele>
        <time>2017-02-18T13:26:53Z</time>
      </trkpt>
      <trkpt lat="45.86713" lon="4.73883">
        <ele>281.8</ele>
        <time>2017-02-18T13:26:55Z</time>
      </trkpt>
      <trkpt lat="45.8671" lon="4.73893">
        <ele>281.9</ele>
        <time>2017-02-18T13:26:57Z</time>
      </trkpt>
      <trkpt lat="45.86707" lon="4.73903">
        <ele>282.1</ele>
        <time>2017-02-18T13:26:59Z</time>
      </trkpt>
      <trkpt lat="45.86704" lon="4.73914">
        <ele>282.4</ele>
        <time>2017-02-18T13:27:01Z</time>
      </trkpt>
      <trkpt lat="45.867" lon="4.73925">
        <ele>282.8</ele>
        <time>2017-02-18T13:27:03Z</time>
      </trkpt>
      <trkpt lat="45.86697" lon="4.73937">
        <ele>282.9</ele>
        <time>2017-02-18T13:27:05Z</time>
      </trkpt>
      <trkpt lat="45.86692" lon="4.7395">
        <ele>284.1</ele>
        <time>2017-02-18T13:27:07Z</time>
      </trkpt>
      <trkpt lat="45.86684" lon="4.7396">
        <ele>285.3</ele>
        <time>2017-02-18T13:27:09Z</time>
      </trkpt>
      <trkpt lat="45.86674" lon="4.73965">
        <ele>285.7</ele>
        <time>2017-02-18T13:27:11Z</time>
      </trkpt>
      <trkpt lat="45.86661" lon="4.73971">
        <ele>285</ele>
        <time>2017-02-18T13:27:13Z</time>
      </trkpt>
      <trkpt lat="45.86647" lon="4.73976">
        <ele>285.1</ele>
        <time>2017-02-18T13:27:15Z</time>
      </trkpt>
      <trkpt lat="45.86639" lon="4.73978">
        <ele>285.3</ele>
        <time>2017-02-18T13:27:16Z</time>
      </trkpt>
      <trkpt lat="45.86631" lon="4.73982">
        <ele>285</ele>
        <time>2017-02-18T13:27:17Z</time>
      </trkpt>
      <trkpt lat="45.86623" lon="4.73985">
        <ele>285.1</ele>
        <time>2017-02-18T13:27:18Z</time>
      </trkpt>
      <trkpt lat="45.86614" lon="4.73989">
        <ele>284.5</ele>
        <time>2017-02-18T13:27:19Z</time>
      </trkpt>
      <trkpt lat="45.86606" lon="4.73992">
        <ele>283.9</ele>
        <time>2017-02-18T13:27:20Z</time>
      </trkpt>
      <trkpt lat="45.866" lon="4.73996">
        <ele>282.8</ele>
        <time>2017-02-18T13:27:21Z</time>
      </trkpt>
      <trkpt lat="45.86589" lon="4.74003">
        <ele>280.3</ele>
        <time>2017-02-18T13:27:23Z</time>
      </trkpt>
      <trkpt lat="45.86578" lon="4.74013">
        <ele>278.4</ele>
        <time>2017-02-18T13:27:25Z</time>
      </trkpt>
      <trkpt lat="45.86573" lon="4.74028">
        <ele>278</ele>
        <time>2017-02-18T13:27:27Z</time>
      </trkpt>
      <trkpt lat="45.86571" lon="4.74046">
        <ele>276.6</ele>
        <time>2017-02-18T13:27:29Z</time>
      </trkpt>
      <trkpt lat="45.8657" lon="4.74065">
        <ele>275.3</ele>
        <time>2017-02-18T13:27:31Z</time>
      </trkpt>
      <trkpt lat="45.8657" lon="4.74076">
        <ele>274</ele>
        <time>2017-02-18T13:27:32Z</time>
      </trkpt>
      <trkpt lat="45.8657" lon="4.74088">
        <ele>273.5</ele>
        <time>2017-02-18T13:27:34Z</time>
      </trkpt>
      <trkpt lat="45.86571" lon="4.74099">
        <ele>272.7</ele>
        <time>2017-02-18T13:27:38Z</time>
      </trkpt>
      <trkpt lat="45.86572" lon="4.74113">
        <ele>272.1</ele>
        <time>2017-02-18T13:27:40Z</time>
      </trkpt>
      <trkpt lat="45.86571" lon="4.7413">
        <ele>272</ele>
        <time>2017-02-18T13:27:42Z</time>
      </trkpt>
      <trkpt lat="45.86568" lon="4.74145">
        <ele>272</ele>
        <time>2017-02-18T13:27:44Z</time>
      </trkpt>
      <trkpt lat="45.86566" lon="4.74158">
        <ele>271.8</ele>
        <time>2017-02-18T13:27:48Z</time>
      </trkpt>
      <trkpt lat="45.86564" lon="4.74171">
        <ele>271.7</ele>
        <time>2017-02-18T13:27:52Z</time>
      </trkpt>
      <trkpt lat="45.86563" lon="4.74182">
        <ele>271.9</ele>
        <time>2017-02-18T13:27:58Z</time>
      </trkpt>
      <trkpt lat="45.86559" lon="4.74194">
        <ele>272.3</ele>
        <time>2017-02-18T13:28:04Z</time>
      </trkpt>
      <trkpt lat="45.86555" lon="4.74203">
        <ele>273.1</ele>
        <time>2017-02-18T13:28:10Z</time>
      </trkpt>
      <trkpt lat="45.86552" lon="4.74214">
        <ele>274</ele>
        <time>2017-02-18T13:28:16Z</time>
      </trkpt>
      <trkpt lat="45.86547" lon="4.74222">
        <ele>275</ele>
        <time>2017-02-18T13:28:22Z</time>
      </trkpt>
      <trkpt lat="45.86541" lon="4.74229">
        <ele>275.8</ele>
        <time>2017-02-18T13:28:27Z</time>
      </trkpt>
      <trkpt lat="45.86535" lon="4.74236">
        <ele>276.4</ele>
        <time>2017-02-18T13:28:32Z</time>
      </trkpt>
      <trkpt lat="45.86532" lon="4.74247">
        <ele>276.8</ele>
        <time>2017-02-18T13:28:37Z</time>
      </trkpt>
      <trkpt lat="45.8654" lon="4.74257">
        <ele>277.4</ele>
        <time>2017-02-18T13:28:42Z</time>
      </trkpt>
      <trkpt lat="45.86543" lon="4.74267">
        <ele>277.7</ele>
        <time>2017-02-18T13:28:46Z</time>
      </trkpt>
      <trkpt lat="45.86544" lon="4.74278">
        <ele>278.1</ele>
        <time>2017-02-18T13:28:50Z</time>
      </trkpt>
      <trkpt lat="45.86547" lon="4.74289">
        <ele>278.4</ele>
        <time>2017-02-18T13:28:54Z</time>
      </trkpt>
      <trkpt lat="45.86549" lon="4.743">
        <ele>278.8</ele>
        <time>2017-02-18T13:28:58Z</time>
      </trkpt>
      <trkpt lat="45.86557" lon="4.74304">
        <ele>279.1</ele>
        <time>2017-02-18T13:29:02Z</time>
      </trkpt>
      <trkpt lat="45.86565" lon="4.74305">
        <ele>279.4</ele>
        <time>2017-02-18T13:29:08Z</time>
      </trkpt>
      <trkpt lat="45.86572" lon="4.74308">
        <ele>280.4</ele>
        <time>2017-02-18T13:29:14Z</time>
      </trkpt>
      <trkpt lat="45.86579" lon="4.7432">
        <ele>281.6</ele>
        <time>2017-02-18T13:29:19Z</time>
      </trkpt>
      <trkpt lat="45.86583" lon="4.74331">
        <ele>282.1</ele>
        <time>2017-02-18T13:29:23Z</time>
      </trkpt>
      <trkpt lat="45.86587" lon="4.74341">
        <ele>282.5</ele>
        <time>2017-02-18T13:29:27Z</time>
      </trkpt>
      <trkpt lat="45.86589" lon="4.74355">
        <ele>283.1</ele>
        <time>2017-02-18T13:29:32Z</time>
      </trkpt>
      <trkpt lat="45.8659" lon="4.74358">
        <ele>283.1</ele>
        <time>2017-02-18T13:29:39Z</time>
      </trkpt>
      <trkpt lat="45.8659" lon="4.74358">
        <ele>283.1</ele>
        <time>2017-02-18T13:29:42Z</time>
      </trkpt>
      <trkpt lat="45.86585" lon="4.74375">
        <ele>283.5</ele>
        <time>2017-02-18T13:29:54Z</time>
      </trkpt>
      <trkpt lat="45.86582" lon="4.74388">
        <ele>283.8</ele>
        <time>2017-02-18T13:29:58Z</time>
      </trkpt>
      <trkpt lat="45.86578" lon="4.74399">
        <ele>284.1</ele>
        <time>2017-02-18T13:30:01Z</time>
      </trkpt>
      <trkpt lat="45.86576" lon="4.74412">
        <ele>284.1</ele>
        <time>2017-02-18T13:30:04Z</time>
      </trkpt>
      <trkpt lat="45.86578" lon="4.74423">
        <ele>284.1</ele>
        <time>2017-02-18T13:30:06Z</time>
      </trkpt>
      <trkpt lat="45.86583" lon="4.74433">
        <ele>284</ele>
        <time>2017-02-18T13:30:09Z</time>
      </trkpt>
      <trkpt lat="45.86589" lon="4.74444">
        <ele>284.1</ele>
        <time>2017-02-18T13:30:13Z</time>
      </trkpt>
      <trkpt lat="45.86596" lon="4.74447">
        <ele>284.5</ele>
        <time>2017-02-18T13:30:18Z</time>
      </trkpt>
      <trkpt lat="45.86604" lon="4.74448">
        <ele>284.7</ele>
        <time>2017-02-18T13:30:23Z</time>
      </trkpt>
      <trkpt lat="45.86613" lon="4.74452">
        <ele>284.7</ele>
        <time>2017-02-18T13:30:28Z</time>
      </trkpt>
      <trkpt lat="45.86623" lon="4.74453">
        <ele>285.5</ele>
        <time>2017-02-18T13:30:31Z</time>
      </trkpt>
      <trkpt lat="45.86633" lon="4.74454">
        <ele>286.5</ele>
        <time>2017-02-18T13:30:33Z</time>
      </trkpt>
      <trkpt lat="45.86644" lon="4.74457">
        <ele>286.7</ele>
        <time>2017-02-18T13:30:35Z</time>
      </trkpt>
      <trkpt lat="45.86656" lon="4.74463">
        <ele>286</ele>
        <time>2017-02-18T13:30:37Z</time>
      </trkpt>
      <trkpt lat="45.86669" lon="4.74469">
        <ele>285.3</ele>
        <time>2017-02-18T13:30:39Z</time>
      </trkpt>
      <trkpt lat="45.86682" lon="4.74474">
        <ele>284.4</ele>
        <time>2017-02-18T13:30:41Z</time>
      </trkpt>
      <trkpt lat="45.86689" lon="4.74477">
        <ele>284.2</ele>
        <time>2017-02-18T13:30:42Z</time>
      </trkpt>
      <trkpt lat="45.86702" lon="4.74482">
        <ele>283.9</ele>
        <time>2017-02-18T13:30:44Z</time>
      </trkpt>
      <trkpt lat="45.86709" lon="4.74484">
        <ele>283.6</ele>
        <time>2017-02-18T13:30:45Z</time>
      </trkpt>
      <trkpt lat="45.86722" lon="4.7449">
        <ele>283.7</ele>
        <time>2017-02-18T13:30:47Z</time>
      </trkpt>
      <trkpt lat="45.86729" lon="4.74493">
        <ele>283.4</ele>
        <time>2017-02-18T13:30:48Z</time>
      </trkpt>
      <trkpt lat="45.86737" lon="4.74496">
        <ele>283.2</ele>
        <time>2017-02-18T13:30:49Z</time>
      </trkpt>
      <trkpt lat="45.86744" lon="4.74499">
        <ele>282.8</ele>
        <time>2017-02-18T13:30:50Z</time>
      </trkpt>
      <trkpt lat="45.86758" lon="4.74503">
        <ele>282.4</ele>
        <time>2017-02-18T13:30:52Z</time>
      </trkpt>
      <trkpt lat="45.86765" lon="4.74506">
        <ele>282</ele>
        <time>2017-02-18T13:30:53Z</time>
      </trkpt>
      <trkpt lat="45.86772" lon="4.7451">
        <ele>281.6</ele>
        <time>2017-02-18T13:30:54Z</time>
      </trkpt>
      <trkpt lat="45.86784" lon="4.74517">
        <ele>281.4</ele>
        <time>2017-02-18T13:30:56Z</time>
      </trkpt>
      <trkpt lat="45.86797" lon="4.74526">
        <ele>281.6</ele>
        <time>2017-02-18T13:30:58Z</time>
      </trkpt>
      <trkpt lat="45.86804" lon="4.74532">
        <ele>280.7</ele>
        <time>2017-02-18T13:30:59Z</time>
      </trkpt>
      <trkpt lat="45.8681" lon="4.74538">
        <ele>279.8</ele>
        <time>2017-02-18T13:31:00Z</time>
      </trkpt>
      <trkpt lat="45.86816" lon="4.74544">
        <ele>278.9</ele>
        <time>2017-02-18T13:31:01Z</time>
      </trkpt>
      <trkpt lat="45.86823" lon="4.74551">
        <ele>278.2</ele>
        <time>2017-02-18T13:31:02Z</time>
      </trkpt>
      <trkpt lat="45.86829" lon="4.74557">
        <ele>277.4</ele>
        <time>2017-02-18T13:31:03Z</time>
      </trkpt>
      <trkpt lat="45.86837" lon="4.74571">
        <ele>275.7</ele>
        <time>2017-02-18T13:31:05Z</time>
      </trkpt>
      <trkpt lat="45.86843" lon="4.74585">
        <ele>275.4</ele>
        <time>2017-02-18T13:31:07Z</time>
      </trkpt>
      <trkpt lat="45.86849" lon="4.74596">
        <ele>276</ele>
        <time>2017-02-18T13:31:09Z</time>
      </trkpt>
      <trkpt lat="45.86853" lon="4.74608">
        <ele>277.2</ele>
        <time>2017-02-18T13:31:11Z</time>
      </trkpt>
      <trkpt lat="45.86857" lon="4.74621">
        <ele>277.5</ele>
        <time>2017-02-18T13:31:14Z</time>
      </trkpt>
      <trkpt lat="45.86861" lon="4.74632">
        <ele>277.4</ele>
        <time>2017-02-18T13:31:16Z</time>
      </trkpt>
      <trkpt lat="45.86866" lon="4.74646">
        <ele>277.5</ele>
        <time>2017-02-18T13:31:18Z</time>
      </trkpt>
      <trkpt lat="45.86869" lon="4.74658">
        <ele>276.9</ele>
        <time>2017-02-18T13:31:20Z</time>
      </trkpt>
      <trkpt lat="45.86872" lon="4.74671">
        <ele>276.2</ele>
        <time>2017-02-18T13:31:22Z</time>
      </trkpt>
      <trkpt lat="45.86874" lon="4.74682">
        <ele>276.4</ele>
        <time>2017-02-18T13:31:24Z</time>
      </trkpt>
      <trkpt lat="45.86877" lon="4.74694">
        <ele>276.9</ele>
        <time>2017-02-18T13:31:26Z</time>
      </trkpt>
      <trkpt lat="45.86879" lon="4.74704">
        <ele>276.7</ele>
        <time>2017-02-18T13:31:28Z</time>
      </trkpt>
      <trkpt lat="45.86881" lon="4.74717">
        <ele>276.8</ele>
        <time>2017-02-18T13:31:31Z</time>
      </trkpt>
      <trkpt lat="45.86882" lon="4.74732">
        <ele>276.9</ele>
        <time>2017-02-18T13:31:34Z</time>
      </trkpt>
      <trkpt lat="45.86884" lon="4.74747">
        <ele>277.2</ele>
        <time>2017-02-18T13:31:37Z</time>
      </trkpt>
      <trkpt lat="45.86885" lon="4.74759">
        <ele>277.5</ele>
        <time>2017-02-18T13:31:40Z</time>
      </trkpt>
      <trkpt lat="45.86886" lon="4.74773">
        <ele>277.8</ele>
        <time>2017-02-18T13:31:43Z</time>
      </trkpt>
      <trkpt lat="45.86889" lon="4.74784">
        <ele>278</ele>
        <time>2017-02-18T13:31:46Z</time>
      </trkpt>
      <trkpt lat="45.86891" lon="4.74796">
        <ele>278</ele>
        <time>2017-02-18T13:31:48Z</time>
      </trkpt>
      <trkpt lat="45.86892" lon="4.74808">
        <ele>278.1</ele>
        <time>2017-02-18T13:31:51Z</time>
      </trkpt>
      <trkpt lat="45.86892" lon="4.74821">
        <ele>278.2</ele>
        <time>2017-02-18T13:31:54Z</time>
      </trkpt>
      <trkpt lat="45.86892" lon="4.74833">
        <ele>278.5</ele>
        <time>2017-02-18T13:31:57Z</time>
      </trkpt>
      <trkpt lat="45.86893" lon="4.74843">
        <ele>278.9</ele>
        <time>2017-02-18T13:32:00Z</time>
      </trkpt>
      <trkpt lat="45.86894" lon="4.74856">
        <ele>279.3</ele>
        <time>2017-02-18T13:32:04Z</time>
      </trkpt>
      <trkpt lat="45.86894" lon="4.74867">
        <ele>279.6</ele>
        <time>2017-02-18T13:32:07Z</time>
      </trkpt>
      <trkpt lat="45.86895" lon="4.74879">
        <ele>280</ele>
        <time>2017-02-18T13:32:12Z</time>
      </trkpt>
      <trkpt lat="45.86894" lon="4.74891">
        <ele>280.2</ele>
        <time>2017-02-18T13:32:15Z</time>
      </trkpt>
      <trkpt lat="45.86893" lon="4.74903">
        <ele>280.4</ele>
        <time>2017-02-18T13:32:18Z</time>
      </trkpt>
      <trkpt lat="45.86894" lon="4.74917">
        <ele>281.4</ele>
        <time>2017-02-18T13:32:21Z</time>
      </trkpt>
      <trkpt lat="45.86895" lon="4.74929">
        <ele>282.3</ele>
        <time>2017-02-18T13:32:23Z</time>
      </trkpt>
      <trkpt lat="45.86896" lon="4.74942">
        <ele>282.6</ele>
        <time>2017-02-18T13:32:25Z</time>
      </trkpt>
      <trkpt lat="45.86896" lon="4.74954">
        <ele>282.7</ele>
        <time>2017-02-18T13:32:27Z</time>
      </trkpt>
      <trkpt lat="45.86898" lon="4.74966">
        <ele>282.6</ele>
        <time>2017-02-18T13:32:29Z</time>
      </trkpt>
      <trkpt lat="45.86902" lon="4.74977">
        <ele>282.2</ele>
        <time>2017-02-18T13:32:31Z</time>
      </trkpt>
      <trkpt lat="45.86905" lon="4.7499">
        <ele>282.2</ele>
        <time>2017-02-18T13:32:34Z</time>
      </trkpt>
      <trkpt lat="45.86908" lon="4.74994">
        <ele>282.5</ele>
        <time>2017-02-18T13:32:41Z</time>
      </trkpt>
      <trkpt lat="45.86908" lon="4.74994">
        <ele>282.7</ele>
        <time>2017-02-18T13:32:45Z</time>
      </trkpt>
      <trkpt lat="45.86913" lon="4.7501">
        <ele>284</ele>
        <time>2017-02-18T13:33:38Z</time>
      </trkpt>
      <trkpt lat="45.86914" lon="4.75023">
        <ele>284</ele>
        <time>2017-02-18T13:33:42Z</time>
      </trkpt>
      <trkpt lat="45.86918" lon="4.75034">
        <ele>284.4</ele>
        <time>2017-02-18T13:33:46Z</time>
      </trkpt>
      <trkpt lat="45.86922" lon="4.75043">
        <ele>284.5</ele>
        <time>2017-02-18T13:33:48Z</time>
      </trkpt>
      <trkpt lat="45.86925" lon="4.75055">
        <ele>284.7</ele>
        <time>2017-02-18T13:33:51Z</time>
      </trkpt>
      <trkpt lat="45.8693" lon="4.75067">
        <ele>284.9</ele>
        <time>2017-02-18T13:33:54Z</time>
      </trkpt>
      <trkpt lat="45.86934" lon="4.7508">
        <ele>285.1</ele>
        <time>2017-02-18T13:33:56Z</time>
      </trkpt>
      <trkpt lat="45.86938" lon="4.7509">
        <ele>285.2</ele>
        <time>2017-02-18T13:33:58Z</time>
      </trkpt>
      <trkpt lat="45.86942" lon="4.75103">
        <ele>285.3</ele>
        <time>2017-02-18T13:34:01Z</time>
      </trkpt>
      <trkpt lat="45.86946" lon="4.75116">
        <ele>285.5</ele>
        <time>2017-02-18T13:34:04Z</time>
      </trkpt>
      <trkpt lat="45.8695" lon="4.75126">
        <ele>285.7</ele>
        <time>2017-02-18T13:34:06Z</time>
      </trkpt>
      <trkpt lat="45.86955" lon="4.75139">
        <ele>285.9</ele>
        <time>2017-02-18T13:34:09Z</time>
      </trkpt>
      <trkpt lat="45.86959" lon="4.75148">
        <ele>286.2</ele>
        <time>2017-02-18T13:34:11Z</time>
      </trkpt>
      <trkpt lat="45.86964" lon="4.75159">
        <ele>286.4</ele>
        <time>2017-02-18T13:34:13Z</time>
      </trkpt>
      <trkpt lat="45.86973" lon="4.75165">
        <ele>286.7</ele>
        <time>2017-02-18T13:34:17Z</time>
      </trkpt>
      <trkpt lat="45.86981" lon="4.75173">
        <ele>287.1</ele>
        <time>2017-02-18T13:34:19Z</time>
      </trkpt>
      <trkpt lat="45.86985" lon="4.75185">
        <ele>287.6</ele>
        <time>2017-02-18T13:34:21Z</time>
      </trkpt>
      <trkpt lat="45.8699" lon="4.75202">
        <ele>287.3</ele>
        <time>2017-02-18T13:34:23Z</time>
      </trkpt>
      <trkpt lat="45.86993" lon="4.75217">
        <ele>286.5</ele>
        <time>2017-02-18T13:34:25Z</time>
      </trkpt>
      <trkpt lat="45.86994" lon="4.75232">
        <ele>286</ele>
        <time>2017-02-18T13:34:27Z</time>
      </trkpt>
      <trkpt lat="45.86994" lon="4.75246">
        <ele>285.9</ele>
        <time>2017-02-18T13:34:30Z</time>
      </trkpt>
      <trkpt lat="45.86995" lon="4.75258">
        <ele>286</ele>
        <time>2017-02-18T13:34:32Z</time>
      </trkpt>
      <trkpt lat="45.86997" lon="4.7527">
        <ele>285.7</ele>
        <time>2017-02-18T13:34:34Z</time>
      </trkpt>
      <trkpt lat="45.86999" lon="4.75283">
        <ele>286.1</ele>
        <time>2017-02-18T13:34:36Z</time>
      </trkpt>
      <trkpt lat="45.87001" lon="4.75297">
        <ele>285.4</ele>
        <time>2017-02-18T13:34:38Z</time>
      </trkpt>
      <trkpt lat="45.87002" lon="4.7531">
        <ele>284.4</ele>
        <time>2017-02-18T13:34:40Z</time>
      </trkpt>
      <trkpt lat="45.87002" lon="4.75322">
        <ele>284.3</ele>
        <time>2017-02-18T13:34:42Z</time>
      </trkpt>
      <trkpt lat="45.87003" lon="4.75332">
        <ele>283.4</ele>
        <time>2017-02-18T13:34:44Z</time>
      </trkpt>
      <trkpt lat="45.87001" lon="4.75345">
        <ele>283.4</ele>
        <time>2017-02-18T13:34:47Z</time>
      </trkpt>
      <trkpt lat="45.86991" lon="4.75348">
        <ele>283.3</ele>
        <time>2017-02-18T13:34:51Z</time>
      </trkpt>
      <trkpt lat="45.86982" lon="4.75348">
        <ele>283.3</ele>
        <time>2017-02-18T13:34:55Z</time>
      </trkpt>
      <trkpt lat="45.86973" lon="4.75348">
        <ele>283.6</ele>
        <time>2017-02-18T13:35:00Z</time>
      </trkpt>
      <trkpt lat="45.86964" lon="4.75348">
        <ele>283.7</ele>
        <time>2017-02-18T13:35:05Z</time>
      </trkpt>
      <trkpt lat="45.86957" lon="4.75348">
        <ele>283.8</ele>
        <time>2017-02-18T13:35:08Z</time>
      </trkpt>
      <trkpt lat="45.86949" lon="4.75348">
        <ele>284.1</ele>
        <time>2017-02-18T13:35:12Z</time>
      </trkpt>
      <trkpt lat="45.86942" lon="4.75349">
        <ele>284.4</ele>
        <time>2017-02-18T13:35:16Z</time>
      </trkpt>
      <trkpt lat="45.86934" lon="4.75351">
        <ele>284.7</ele>
        <time>2017-02-18T13:35:20Z</time>
      </trkpt>
      <trkpt lat="45.86927" lon="4.75355">
        <ele>285</ele>
        <time>2017-02-18T13:35:23Z</time>
      </trkpt>
      <trkpt lat="45.86926" lon="4.75366">
        <ele>285</ele>
        <time>2017-02-18T13:35:26Z</time>
      </trkpt>
      <trkpt lat="45.86927" lon="4.75379">
        <ele>284.9</ele>
        <time>2017-02-18T13:35:28Z</time>
      </trkpt>
      <trkpt lat="45.86928" lon="4.75395">
        <ele>284.7</ele>
        <time>2017-02-18T13:35:31Z</time>
      </trkpt>
      <trkpt lat="45.8693" lon="4.75409">
        <ele>285.1</ele>
        <time>2017-02-18T13:35:33Z</time>
      </trkpt>
      <trkpt lat="45.86932" lon="4.75424">
        <ele>285.2</ele>
        <time>2017-02-18T13:35:35Z</time>
      </trkpt>
      <trkpt lat="45.86933" lon="4.75437">
        <ele>285.1</ele>
        <time>2017-02-18T13:35:37Z</time>
      </trkpt>
      <trkpt lat="45.86934" lon="4.75451">
        <ele>285</ele>
        <time>2017-02-18T13:35:39Z</time>
      </trkpt>
      <trkpt lat="45.86932" lon="4.75466">
        <ele>284.6</ele>
        <time>2017-02-18T13:35:41Z</time>
      </trkpt>
      <trkpt lat="45.8693" lon="4.75482">
        <ele>283.8</ele>
        <time>2017-02-18T13:35:43Z</time>
      </trkpt>
      <trkpt lat="45.86928" lon="4.75497">
        <ele>282.4</ele>
        <time>2017-02-18T13:35:45Z</time>
      </trkpt>
      <trkpt lat="45.86928" lon="4.75507">
        <ele>282.4</ele>
        <time>2017-02-18T13:35:47Z</time>
      </trkpt>
      <trkpt lat="45.86926" lon="4.7552">
        <ele>282.2</ele>
        <time>2017-02-18T13:35:49Z</time>
      </trkpt>
      <trkpt lat="45.86924" lon="4.75531">
        <ele>282.2</ele>
        <time>2017-02-18T13:35:51Z</time>
      </trkpt>
      <trkpt lat="45.86923" lon="4.75541">
        <ele>282.2</ele>
        <time>2017-02-18T13:35:53Z</time>
      </trkpt>
      <trkpt lat="45.86922" lon="4.75554">
        <ele>282.2</ele>
        <time>2017-02-18T13:35:56Z</time>
      </trkpt>
      <trkpt lat="45.86921" lon="4.75565">
        <ele>282.6</ele>
        <time>2017-02-18T13:36:01Z</time>
      </trkpt>
      <trkpt lat="45.86921" lon="4.75576">
        <ele>283</ele>
        <time>2017-02-18T13:36:05Z</time>
      </trkpt>
      <trkpt lat="45.86921" lon="4.75588">
        <ele>283.5</ele>
        <time>2017-02-18T13:36:09Z</time>
      </trkpt>
      <trkpt lat="45.86922" lon="4.75599">
        <ele>283.9</ele>
        <time>2017-02-18T13:36:12Z</time>
      </trkpt>
      <trkpt lat="45.86922" lon="4.75609">
        <ele>284.2</ele>
        <time>2017-02-18T13:36:15Z</time>
      </trkpt>
      <trkpt lat="45.86923" lon="4.75622">
        <ele>284.6</ele>
        <time>2017-02-18T13:36:20Z</time>
      </trkpt>
      <trkpt lat="45.86924" lon="4.75632">
        <ele>284.9</ele>
        <time>2017-02-18T13:36:23Z</time>
      </trkpt>
      <trkpt lat="45.86925" lon="4.75645">
        <ele>285.3</ele>
        <time>2017-02-18T13:36:27Z</time>
      </trkpt>
      <trkpt lat="45.86926" lon="4.75656">
        <ele>285.8</ele>
        <time>2017-02-18T13:36:31Z</time>
      </trkpt>
      <trkpt lat="45.86927" lon="4.75669">
        <ele>286.3</ele>
        <time>2017-02-18T13:36:35Z</time>
      </trkpt>
      <trkpt lat="45.86929" lon="4.7568">
        <ele>286.7</ele>
        <time>2017-02-18T13:36:39Z</time>
      </trkpt>
      <trkpt lat="45.86932" lon="4.7569">
        <ele>287</ele>
        <time>2017-02-18T13:36:43Z</time>
      </trkpt>
      <trkpt lat="45.86935" lon="4.75703">
        <ele>287.3</ele>
        <time>2017-02-18T13:36:46Z</time>
      </trkpt>
      <trkpt lat="45.86939" lon="4.75716">
        <ele>287.3</ele>
        <time>2017-02-18T13:36:49Z</time>
      </trkpt>
      <trkpt lat="45.86934" lon="4.75726">
        <ele>287.4</ele>
        <time>2017-02-18T13:36:52Z</time>
      </trkpt>
      <trkpt lat="45.86929" lon="4.75732">
        <ele>287.6</ele>
        <time>2017-02-18T13:36:55Z</time>
      </trkpt>
      <trkpt lat="45.86924" lon="4.7574">
        <ele>287.8</ele>
        <time>2017-02-18T13:36:58Z</time>
      </trkpt>
      <trkpt lat="45.86921" lon="4.75751">
        <ele>288.1</ele>
        <time>2017-02-18T13:37:02Z</time>
      </trkpt>
      <trkpt lat="45.86918" lon="4.75761">
        <ele>288.3</ele>
        <time>2017-02-18T13:37:06Z</time>
      </trkpt>
      <trkpt lat="45.8691" lon="4.75768">
        <ele>288.5</ele>
        <time>2017-02-18T13:37:10Z</time>
      </trkpt>
      <trkpt lat="45.86903" lon="4.75772">
        <ele>289</ele>
        <time>2017-02-18T13:37:14Z</time>
      </trkpt>
      <trkpt lat="45.86895" lon="4.75775">
        <ele>289.3</ele>
        <time>2017-02-18T13:37:18Z</time>
      </trkpt>
      <trkpt lat="45.86887" lon="4.75777">
        <ele>289.7</ele>
        <time>2017-02-18T13:37:22Z</time>
      </trkpt>
      <trkpt lat="45.86879" lon="4.75777">
        <ele>290.1</ele>
        <time>2017-02-18T13:37:26Z</time>
      </trkpt>
      <trkpt lat="45.8687" lon="4.75779">
        <ele>290.8</ele>
        <time>2017-02-18T13:37:28Z</time>
      </trkpt>
      <trkpt lat="45.86863" lon="4.75782">
        <ele>291.5</ele>
        <time>2017-02-18T13:37:31Z</time>
      </trkpt>
      <trkpt lat="45.86855" lon="4.75784">
        <ele>292.3</ele>
        <time>2017-02-18T13:37:35Z</time>
      </trkpt>
      <trkpt lat="45.86846" lon="4.75787">
        <ele>293.2</ele>
        <time>2017-02-18T13:37:40Z</time>
      </trkpt>
      <trkpt lat="45.86838" lon="4.75789">
        <ele>293.7</ele>
        <time>2017-02-18T13:37:44Z</time>
      </trkpt>
      <trkpt lat="45.86831" lon="4.75792">
        <ele>294.5</ele>
        <time>2017-02-18T13:37:48Z</time>
      </trkpt>
      <trkpt lat="45.86824" lon="4.75795">
        <ele>294.9</ele>
        <time>2017-02-18T13:37:52Z</time>
      </trkpt>
      <trkpt lat="45.86817" lon="4.75799">
        <ele>295.2</ele>
        <time>2017-02-18T13:37:56Z</time>
      </trkpt>
      <trkpt lat="45.86808" lon="4.75804">
        <ele>295.6</ele>
        <time>2017-02-18T13:38:00Z</time>
      </trkpt>
      <trkpt lat="45.86801" lon="4.75807">
        <ele>295.9</ele>
        <time>2017-02-18T13:38:03Z</time>
      </trkpt>
      <trkpt lat="45.86794" lon="4.75812">
        <ele>296.4</ele>
        <time>2017-02-18T13:38:07Z</time>
      </trkpt>
      <trkpt lat="45.86787" lon="4.75817">
        <ele>296.7</ele>
        <time>2017-02-18T13:38:10Z</time>
      </trkpt>
      <trkpt lat="45.8678" lon="4.7582">
        <ele>297</ele>
        <time>2017-02-18T13:38:13Z</time>
      </trkpt>
      <trkpt lat="45.86771" lon="4.75825">
        <ele>297.2</ele>
        <time>2017-02-18T13:38:17Z</time>
      </trkpt>
      <trkpt lat="45.86763" lon="4.75831">
        <ele>297.5</ele>
        <time>2017-02-18T13:38:21Z</time>
      </trkpt>
      <trkpt lat="45.86756" lon="4.75834">
        <ele>297.8</ele>
        <time>2017-02-18T13:38:24Z</time>
      </trkpt>
      <trkpt lat="45.86748" lon="4.75839">
        <ele>298.4</ele>
        <time>2017-02-18T13:38:27Z</time>
      </trkpt>
      <trkpt lat="45.86741" lon="4.75844">
        <ele>298.9</ele>
        <time>2017-02-18T13:38:30Z</time>
      </trkpt>
      <trkpt lat="45.86735" lon="4.7585">
        <ele>299.2</ele>
        <time>2017-02-18T13:38:33Z</time>
      </trkpt>
      <trkpt lat="45.86728" lon="4.75856">
        <ele>299.2</ele>
        <time>2017-02-18T13:38:36Z</time>
      </trkpt>
      <trkpt lat="45.8672" lon="4.75862">
        <ele>299.4</ele>
        <time>2017-02-18T13:38:39Z</time>
      </trkpt>
      <trkpt lat="45.86712" lon="4.75868">
        <ele>299.5</ele>
        <time>2017-02-18T13:38:42Z</time>
      </trkpt>
      <trkpt lat="45.86705" lon="4.75873">
        <ele>299.8</ele>
        <time>2017-02-18T13:38:45Z</time>
      </trkpt>
      <trkpt lat="45.86699" lon="4.75878">
        <ele>300.1</ele>
        <time>2017-02-18T13:38:48Z</time>
      </trkpt>
      <trkpt lat="45.86692" lon="4.75883">
        <ele>300.1</ele>
        <time>2017-02-18T13:38:51Z</time>
      </trkpt>
      <trkpt lat="45.86684" lon="4.75888">
        <ele>300.4</ele>
        <time>2017-02-18T13:38:55Z</time>
      </trkpt>
      <trkpt lat="45.86677" lon="4.75894">
        <ele>300.6</ele>
        <time>2017-02-18T13:38:58Z</time>
      </trkpt>
      <trkpt lat="45.8667" lon="4.759">
        <ele>301.3</ele>
        <time>2017-02-18T13:39:04Z</time>
      </trkpt>
      <trkpt lat="45.86663" lon="4.75904">
        <ele>301.7</ele>
        <time>2017-02-18T13:39:08Z</time>
      </trkpt>
      <trkpt lat="45.86656" lon="4.75907">
        <ele>302.3</ele>
        <time>2017-02-18T13:39:12Z</time>
      </trkpt>
      <trkpt lat="45.86648" lon="4.75911">
        <ele>302.7</ele>
        <time>2017-02-18T13:39:16Z</time>
      </trkpt>
      <trkpt lat="45.86639" lon="4.75913">
        <ele>302.9</ele>
        <time>2017-02-18T13:39:20Z</time>
      </trkpt>
      <trkpt lat="45.86631" lon="4.75915">
        <ele>303.4</ele>
        <time>2017-02-18T13:39:24Z</time>
      </trkpt>
      <trkpt lat="45.86625" lon="4.75919">
        <ele>304.1</ele>
        <time>2017-02-18T13:39:27Z</time>
      </trkpt>
      <trkpt lat="45.86617" lon="4.75923">
        <ele>304.8</ele>
        <time>2017-02-18T13:39:30Z</time>
      </trkpt>
      <trkpt lat="45.86609" lon="4.75925">
        <ele>305.6</ele>
        <time>2017-02-18T13:39:34Z</time>
      </trkpt>
      <trkpt lat="45.86601" lon="4.75927">
        <ele>305.8</ele>
        <time>2017-02-18T13:39:38Z</time>
      </trkpt>
      <trkpt lat="45.86594" lon="4.7593">
        <ele>306.9</ele>
        <time>2017-02-18T13:39:45Z</time>
      </trkpt>
      <trkpt lat="45.86586" lon="4.75932">
        <ele>307.7</ele>
        <time>2017-02-18T13:39:51Z</time>
      </trkpt>
      <trkpt lat="45.86578" lon="4.75938">
        <ele>308.2</ele>
        <time>2017-02-18T13:39:56Z</time>
      </trkpt>
      <trkpt lat="45.8657" lon="4.75942">
        <ele>308.6</ele>
        <time>2017-02-18T13:40:00Z</time>
      </trkpt>
      <trkpt lat="45.86561" lon="4.75949">
        <ele>309</ele>
        <time>2017-02-18T13:40:04Z</time>
      </trkpt>
      <trkpt lat="45.86554" lon="4.75953">
        <ele>309.4</ele>
        <time>2017-02-18T13:40:08Z</time>
      </trkpt>
      <trkpt lat="45.86546" lon="4.75955">
        <ele>309.8</ele>
        <time>2017-02-18T13:40:12Z</time>
      </trkpt>
      <trkpt lat="45.86539" lon="4.7596">
        <ele>310.3</ele>
        <time>2017-02-18T13:40:16Z</time>
      </trkpt>
      <trkpt lat="45.86531" lon="4.75963">
        <ele>310.8</ele>
        <time>2017-02-18T13:40:20Z</time>
      </trkpt>
      <trkpt lat="45.86524" lon="4.75965">
        <ele>311.7</ele>
        <time>2017-02-18T13:40:26Z</time>
      </trkpt>
      <trkpt lat="45.86516" lon="4.75969">
        <ele>312.4</ele>
        <time>2017-02-18T13:40:31Z</time>
      </trkpt>
      <trkpt lat="45.86508" lon="4.75971">
        <ele>313.3</ele>
        <time>2017-02-18T13:40:36Z</time>
      </trkpt>
      <trkpt lat="45.865" lon="4.75973">
        <ele>314.1</ele>
        <time>2017-02-18T13:40:40Z</time>
      </trkpt>
      <trkpt lat="45.86494" lon="4.75978">
        <ele>314.6</ele>
        <time>2017-02-18T13:40:44Z</time>
      </trkpt>
      <trkpt lat="45.86486" lon="4.75981">
        <ele>315</ele>
        <time>2017-02-18T13:40:48Z</time>
      </trkpt>
      <trkpt lat="45.86477" lon="4.75985">
        <ele>315.5</ele>
        <time>2017-02-18T13:40:52Z</time>
      </trkpt>
      <trkpt lat="45.86469" lon="4.75987">
        <ele>316</ele>
        <time>2017-02-18T13:40:56Z</time>
      </trkpt>
      <trkpt lat="45.86461" lon="4.75993">
        <ele>316.6</ele>
        <time>2017-02-18T13:41:01Z</time>
      </trkpt>
      <trkpt lat="45.86452" lon="4.75995">
        <ele>317.2</ele>
        <time>2017-02-18T13:41:05Z</time>
      </trkpt>
      <trkpt lat="45.86442" lon="4.75998">
        <ele>318.1</ele>
        <time>2017-02-18T13:41:09Z</time>
      </trkpt>
      <trkpt lat="45.86434" lon="4.75999">
        <ele>319.2</ele>
        <time>2017-02-18T13:41:14Z</time>
      </trkpt>
      <trkpt lat="45.86427" lon="4.76001">
        <ele>320.1</ele>
        <time>2017-02-18T13:41:19Z</time>
      </trkpt>
      <trkpt lat="45.86419" lon="4.76002">
        <ele>320.9</ele>
        <time>2017-02-18T13:41:24Z</time>
      </trkpt>
      <trkpt lat="45.8641" lon="4.76004">
        <ele>321.6</ele>
        <time>2017-02-18T13:41:29Z</time>
      </trkpt>
      <trkpt lat="45.86401" lon="4.76005">
        <ele>322.2</ele>
        <time>2017-02-18T13:41:33Z</time>
      </trkpt>
      <trkpt lat="45.86393" lon="4.76008">
        <ele>322.6</ele>
        <time>2017-02-18T13:41:37Z</time>
      </trkpt>
      <trkpt lat="45.86385" lon="4.7601">
        <ele>323.2</ele>
        <time>2017-02-18T13:41:41Z</time>
      </trkpt>
      <trkpt lat="45.86378" lon="4.76011">
        <ele>323.7</ele>
        <time>2017-02-18T13:41:45Z</time>
      </trkpt>
      <trkpt lat="45.8637" lon="4.76012">
        <ele>324.6</ele>
        <time>2017-02-18T13:41:50Z</time>
      </trkpt>
      <trkpt lat="45.86363" lon="4.76013">
        <ele>325.3</ele>
        <time>2017-02-18T13:41:54Z</time>
      </trkpt>
      <trkpt lat="45.86355" lon="4.76014">
        <ele>325.8</ele>
        <time>2017-02-18T13:41:58Z</time>
      </trkpt>
      <trkpt lat="45.86347" lon="4.76014">
        <ele>326.9</ele>
        <time>2017-02-18T13:42:04Z</time>
      </trkpt>
      <trkpt lat="45.8634" lon="4.76017">
        <ele>327.6</ele>
        <time>2017-02-18T13:42:07Z</time>
      </trkpt>
      <trkpt lat="45.86331" lon="4.76018">
        <ele>328.4</ele>
        <time>2017-02-18T13:42:11Z</time>
      </trkpt>
      <trkpt lat="45.86323" lon="4.76019">
        <ele>328.7</ele>
        <time>2017-02-18T13:42:15Z</time>
      </trkpt>
      <trkpt lat="45.86314" lon="4.7602">
        <ele>329.1</ele>
        <time>2017-02-18T13:42:19Z</time>
      </trkpt>
      <trkpt lat="45.86307" lon="4.76021">
        <ele>329.7</ele>
        <time>2017-02-18T13:42:24Z</time>
      </trkpt>
      <trkpt lat="45.86299" lon="4.7602">
        <ele>330.6</ele>
        <time>2017-02-18T13:42:28Z</time>
      </trkpt>
      <trkpt lat="45.86291" lon="4.76022">
        <ele>331.3</ele>
        <time>2017-02-18T13:42:32Z</time>
      </trkpt>
      <trkpt lat="45.86283" lon="4.76023">
        <ele>331.9</ele>
        <time>2017-02-18T13:42:36Z</time>
      </trkpt>
      <trkpt lat="45.86274" lon="4.76024">
        <ele>332.7</ele>
        <time>2017-02-18T13:42:40Z</time>
      </trkpt>
      <trkpt lat="45.86265" lon="4.76027">
        <ele>333.5</ele>
        <time>2017-02-18T13:42:44Z</time>
      </trkpt>
      <trkpt lat="45.86256" lon="4.76029">
        <ele>334.2</ele>
        <time>2017-02-18T13:42:47Z</time>
      </trkpt>
      <trkpt lat="45.86248" lon="4.76031">
        <ele>334.9</ele>
        <time>2017-02-18T13:42:50Z</time>
      </trkpt>
      <trkpt lat="45.86241" lon="4.76031">
        <ele>335.5</ele>
        <time>2017-02-18T13:42:54Z</time>
      </trkpt>
      <trkpt lat="45.86235" lon="4.7603">
        <ele>336.1</ele>
        <time>2017-02-18T13:43:01Z</time>
      </trkpt>
      <trkpt lat="45.86226" lon="4.7603">
        <ele>336.9</ele>
        <time>2017-02-18T13:43:06Z</time>
      </trkpt>
      <trkpt lat="45.86218" lon="4.76034">
        <ele>337.5</ele>
        <time>2017-02-18T13:43:10Z</time>
      </trkpt>
      <trkpt lat="45.8621" lon="4.76034">
        <ele>337.8</ele>
        <time>2017-02-18T13:43:13Z</time>
      </trkpt>
      <trkpt lat="45.862" lon="4.76034">
        <ele>338.3</ele>
        <time>2017-02-18T13:43:17Z</time>
      </trkpt>
      <trkpt lat="45.86193" lon="4.76034">
        <ele>339.2</ele>
        <time>2017-02-18T13:43:22Z</time>
      </trkpt>
      <trkpt lat="45.86186" lon="4.76031">
        <ele>339.7</ele>
        <time>2017-02-18T13:43:26Z</time>
      </trkpt>
      <trkpt lat="45.86177" lon="4.76031">
        <ele>340.3</ele>
        <time>2017-02-18T13:43:30Z</time>
      </trkpt>
      <trkpt lat="45.86169" lon="4.76032">
        <ele>340.9</ele>
        <time>2017-02-18T13:43:34Z</time>
      </trkpt>
      <trkpt lat="45.86162" lon="4.7603">
        <ele>341.6</ele>
        <time>2017-02-18T13:43:38Z</time>
      </trkpt>
      <trkpt lat="45.86153" lon="4.76026">
        <ele>342.3</ele>
        <time>2017-02-18T13:43:42Z</time>
      </trkpt>
      <trkpt lat="45.86145" lon="4.76028">
        <ele>342.7</ele>
        <time>2017-02-18T13:43:46Z</time>
      </trkpt>
      <trkpt lat="45.86138" lon="4.76032">
        <ele>343.3</ele>
        <time>2017-02-18T13:43:51Z</time>
      </trkpt>
      <trkpt lat="45.86131" lon="4.76038">
        <ele>343.8</ele>
        <time>2017-02-18T13:43:56Z</time>
      </trkpt>
      <trkpt lat="45.86123" lon="4.76045">
        <ele>344</ele>
        <time>2017-02-18T13:44:00Z</time>
      </trkpt>
      <trkpt lat="45.86115" lon="4.76051">
        <ele>344.4</ele>
        <time>2017-02-18T13:44:04Z</time>
      </trkpt>
      <trkpt lat="45.86108" lon="4.76056">
        <ele>344.6</ele>
        <time>2017-02-18T13:44:07Z</time>
      </trkpt>
      <trkpt lat="45.86101" lon="4.76061">
        <ele>344.8</ele>
        <time>2017-02-18T13:44:10Z</time>
      </trkpt>
      <trkpt lat="45.86094" lon="4.76068">
        <ele>345</ele>
        <time>2017-02-18T13:44:13Z</time>
      </trkpt>
      <trkpt lat="45.86087" lon="4.76074">
        <ele>345.2</ele>
        <time>2017-02-18T13:44:16Z</time>
      </trkpt>
      <trkpt lat="45.86079" lon="4.7608">
        <ele>345.6</ele>
        <time>2017-02-18T13:44:20Z</time>
      </trkpt>
      <trkpt lat="45.86072" lon="4.76085">
        <ele>345.8</ele>
        <time>2017-02-18T13:44:23Z</time>
      </trkpt>
      <trkpt lat="45.86065" lon="4.7609">
        <ele>345.8</ele>
        <time>2017-02-18T13:44:26Z</time>
      </trkpt>
      <trkpt lat="45.86058" lon="4.76095">
        <ele>345.9</ele>
        <time>2017-02-18T13:44:29Z</time>
      </trkpt>
      <trkpt lat="45.8605" lon="4.76098">
        <ele>346</ele>
        <time>2017-02-18T13:44:32Z</time>
      </trkpt>
      <trkpt lat="45.86044" lon="4.76105">
        <ele>346.4</ele>
        <time>2017-02-18T13:44:35Z</time>
      </trkpt>
      <trkpt lat="45.86036" lon="4.76108">
        <ele>346.9</ele>
        <time>2017-02-18T13:44:39Z</time>
      </trkpt>
      <trkpt lat="45.86029" lon="4.76114">
        <ele>347.2</ele>
        <time>2017-02-18T13:44:45Z</time>
      </trkpt>
      <trkpt lat="45.86023" lon="4.76122">
        <ele>347.7</ele>
        <time>2017-02-18T13:44:51Z</time>
      </trkpt>
      <trkpt lat="45.86017" lon="4.76127">
        <ele>348.2</ele>
        <time>2017-02-18T13:44:55Z</time>
      </trkpt>
      <trkpt lat="45.86009" lon="4.76131">
        <ele>348.5</ele>
        <time>2017-02-18T13:44:59Z</time>
      </trkpt>
      <trkpt lat="45.86001" lon="4.76136">
        <ele>348.8</ele>
        <time>2017-02-18T13:45:02Z</time>
      </trkpt>
      <trkpt lat="45.85994" lon="4.76138">
        <ele>349.1</ele>
        <time>2017-02-18T13:45:05Z</time>
      </trkpt>
      <trkpt lat="45.85986" lon="4.76145">
        <ele>349.4</ele>
        <time>2017-02-18T13:45:09Z</time>
      </trkpt>
      <trkpt lat="45.8598" lon="4.76151">
        <ele>349.9</ele>
        <time>2017-02-18T13:45:13Z</time>
      </trkpt>
      <trkpt lat="45.85973" lon="4.76158">
        <ele>350.3</ele>
        <time>2017-02-18T13:45:17Z</time>
      </trkpt>
      <trkpt lat="45.85966" lon="4.76165">
        <ele>350.4</ele>
        <time>2017-02-18T13:45:22Z</time>
      </trkpt>
      <trkpt lat="45.8596" lon="4.76171">
        <ele>350.7</ele>
        <time>2017-02-18T13:45:27Z</time>
      </trkpt>
      <trkpt lat="45.85953" lon="4.76178">
        <ele>351.2</ele>
        <time>2017-02-18T13:45:33Z</time>
      </trkpt>
      <trkpt lat="45.85945" lon="4.76181">
        <ele>351.8</ele>
        <time>2017-02-18T13:45:39Z</time>
      </trkpt>
      <trkpt lat="45.85939" lon="4.76187">
        <ele>352.4</ele>
        <time>2017-02-18T13:45:44Z</time>
      </trkpt>
      <trkpt lat="45.85934" lon="4.76197">
        <ele>353</ele>
        <time>2017-02-18T13:45:51Z</time>
      </trkpt>
      <trkpt lat="45.85929" lon="4.76206">
        <ele>353.7</ele>
        <time>2017-02-18T13:45:56Z</time>
      </trkpt>
      <trkpt lat="45.85924" lon="4.76214">
        <ele>354.5</ele>
        <time>2017-02-18T13:46:02Z</time>
      </trkpt>
      <trkpt lat="45.8592" lon="4.76222">
        <ele>355.2</ele>
        <time>2017-02-18T13:46:07Z</time>
      </trkpt>
      <trkpt lat="45.85913" lon="4.76231">
        <ele>355.8</ele>
        <time>2017-02-18T13:46:12Z</time>
      </trkpt>
      <trkpt lat="45.85908" lon="4.76239">
        <ele>356.4</ele>
        <time>2017-02-18T13:46:18Z</time>
      </trkpt>
      <trkpt lat="45.85902" lon="4.76247">
        <ele>357.1</ele>
        <time>2017-02-18T13:46:24Z</time>
      </trkpt>
      <trkpt lat="45.85896" lon="4.76254">
        <ele>357.6</ele>
        <time>2017-02-18T13:46:29Z</time>
      </trkpt>
      <trkpt lat="45.85891" lon="4.7626">
        <ele>358.3</ele>
        <time>2017-02-18T13:46:34Z</time>
      </trkpt>
      <trkpt lat="45.85887" lon="4.76267">
        <ele>359.4</ele>
        <time>2017-02-18T13:46:41Z</time>
      </trkpt>
      <trkpt lat="45.85881" lon="4.76274">
        <ele>360.4</ele>
        <time>2017-02-18T13:46:47Z</time>
      </trkpt>
      <trkpt lat="45.85873" lon="4.76281">
        <ele>361</ele>
        <time>2017-02-18T13:46:52Z</time>
      </trkpt>
      <trkpt lat="45.85867" lon="4.76288">
        <ele>361.7</ele>
        <time>2017-02-18T13:46:56Z</time>
      </trkpt>
      <trkpt lat="45.85861" lon="4.76295">
        <ele>362.4</ele>
        <time>2017-02-18T13:47:02Z</time>
      </trkpt>
      <trkpt lat="45.85855" lon="4.76301">
        <ele>363.1</ele>
        <time>2017-02-18T13:47:07Z</time>
      </trkpt>
      <trkpt lat="45.8585" lon="4.76308">
        <ele>363.8</ele>
        <time>2017-02-18T13:47:12Z</time>
      </trkpt>
      <trkpt lat="45.85843" lon="4.76314">
        <ele>364.3</ele>
        <time>2017-02-18T13:47:18Z</time>
      </trkpt>
      <trkpt lat="45.85836" lon="4.7632">
        <ele>364.8</ele>
        <time>2017-02-18T13:47:23Z</time>
      </trkpt>
      <trkpt lat="45.8583" lon="4.76327">
        <ele>365.6</ele>
        <time>2017-02-18T13:47:29Z</time>
      </trkpt>
      <trkpt lat="45.85822" lon="4.76331">
        <ele>366.1</ele>
        <time>2017-02-18T13:47:34Z</time>
      </trkpt>
      <trkpt lat="45.85816" lon="4.76335">
        <ele>366.8</ele>
        <time>2017-02-18T13:47:41Z</time>
      </trkpt>
      <trkpt lat="45.8581" lon="4.76341">
        <ele>367.6</ele>
        <time>2017-02-18T13:47:47Z</time>
      </trkpt>
      <trkpt lat="45.85803" lon="4.76345">
        <ele>368.4</ele>
        <time>2017-02-18T13:47:52Z</time>
      </trkpt>
      <trkpt lat="45.85796" lon="4.76349">
        <ele>369</ele>
        <time>2017-02-18T13:47:57Z</time>
      </trkpt>
      <trkpt lat="45.85788" lon="4.76355">
        <ele>369.7</ele>
        <time>2017-02-18T13:48:02Z</time>
      </trkpt>
      <trkpt lat="45.8578" lon="4.7636">
        <ele>370.3</ele>
        <time>2017-02-18T13:48:07Z</time>
      </trkpt>
      <trkpt lat="45.85773" lon="4.76365">
        <ele>370.8</ele>
        <time>2017-02-18T13:48:12Z</time>
      </trkpt>
      <trkpt lat="45.85766" lon="4.76366">
        <ele>371.6</ele>
        <time>2017-02-18T13:48:19Z</time>
      </trkpt>
      <trkpt lat="45.85765" lon="4.76365">
        <ele>371.9</ele>
        <time>2017-02-18T13:48:26Z</time>
      </trkpt>
      <trkpt lat="45.85765" lon="4.76364">
        <ele>372.5</ele>
        <time>2017-02-18T13:48:33Z</time>
      </trkpt>
      <trkpt lat="45.85767" lon="4.76364">
        <ele>372.9</ele>
        <time>2017-02-18T13:48:40Z</time>
      </trkpt>
      <trkpt lat="45.85767" lon="4.76364">
        <ele>373.1</ele>
        <time>2017-02-18T13:48:46Z</time>
      </trkpt>
      <trkpt lat="45.85767" lon="4.76366">
        <ele>372.9</ele>
        <time>2017-02-18T13:48:54Z</time>
      </trkpt>
      <trkpt lat="45.85767" lon="4.76367">
        <ele>373.1</ele>
        <time>2017-02-18T13:49:01Z</time>
      </trkpt>
      <trkpt lat="45.85767" lon="4.76366">
        <ele>373</ele>
        <time>2017-02-18T13:49:05Z</time>
      </trkpt>
      <trkpt lat="45.85767" lon="4.76364">
        <ele>372.9</ele>
        <time>2017-02-18T13:49:13Z</time>
      </trkpt>
      <trkpt lat="45.85767" lon="4.76363">
        <ele>372.9</ele>
        <time>2017-02-18T13:49:14Z</time>
      </trkpt>
      <trkpt lat="45.85768" lon="4.76365">
        <ele>372.8</ele>
        <time>2017-02-18T13:49:23Z</time>
      </trkpt>
      <trkpt lat="45.85769" lon="4.76365">
        <ele>372.8</ele>
        <time>2017-02-18T13:49:24Z</time>
      </trkpt>
      <trkpt lat="45.8577" lon="4.76365">
        <ele>372.5</ele>
        <time>2017-02-18T13:49:31Z</time>
      </trkpt>
      <trkpt lat="45.8577" lon="4.76364">
        <ele>372.5</ele>
        <time>2017-02-18T13:49:32Z</time>
      </trkpt>
      <trkpt lat="45.85768" lon="4.76365">
        <ele>372.7</ele>
        <time>2017-02-18T13:49:39Z</time>
      </trkpt>
      <trkpt lat="45.85768" lon="4.76367">
        <ele>373.2</ele>
        <time>2017-02-18T13:49:46Z</time>
      </trkpt>
      <trkpt lat="45.85766" lon="4.76366">
        <ele>374</ele>
        <time>2017-02-18T13:49:53Z</time>
      </trkpt>
      <trkpt lat="45.85766" lon="4.76365">
        <ele>374.2</ele>
        <time>2017-02-18T13:49:55Z</time>
      </trkpt>
      <trkpt lat="45.85767" lon="4.76368">
        <ele>374.1</ele>
        <time>2017-02-18T13:50:02Z</time>
      </trkpt>
      <trkpt lat="45.85766" lon="4.76371">
        <ele>373.7</ele>
        <time>2017-02-18T13:50:09Z</time>
      </trkpt>
      <trkpt lat="45.85765" lon="4.7637">
        <ele>373.9</ele>
        <time>2017-02-18T13:50:16Z</time>
      </trkpt>
      <trkpt lat="45.8576" lon="4.76371">
        <ele>374.9</ele>
        <time>2017-02-18T13:50:23Z</time>
      </trkpt>
      <trkpt lat="45.85759" lon="4.7637">
        <ele>375.4</ele>
        <time>2017-02-18T13:50:30Z</time>
      </trkpt>
      <trkpt lat="45.85753" lon="4.76377">
        <ele>376</ele>
        <time>2017-02-18T13:50:36Z</time>
      </trkpt>
      <trkpt lat="45.85747" lon="4.76384">
        <ele>376.2</ele>
        <time>2017-02-18T13:50:40Z</time>
      </trkpt>
      <trkpt lat="45.8574" lon="4.76391">
        <ele>376.5</ele>
        <time>2017-02-18T13:50:45Z</time>
      </trkpt>
      <trkpt lat="45.85735" lon="4.76398">
        <ele>376.8</ele>
        <time>2017-02-18T13:50:50Z</time>
      </trkpt>
      <trkpt lat="45.85729" lon="4.76404">
        <ele>377</ele>
        <time>2017-02-18T13:50:56Z</time>
      </trkpt>
      <trkpt lat="45.85723" lon="4.76411">
        <ele>377.4</ele>
        <time>2017-02-18T13:51:02Z</time>
      </trkpt>
      <trkpt lat="45.85715" lon="4.76416">
        <ele>377.6</ele>
        <time>2017-02-18T13:51:07Z</time>
      </trkpt>
      <trkpt lat="45.8571" lon="4.76424">
        <ele>378.1</ele>
        <time>2017-02-18T13:51:12Z</time>
      </trkpt>
      <trkpt lat="45.85705" lon="4.76433">
        <ele>378.7</ele>
        <time>2017-02-18T13:51:18Z</time>
      </trkpt>
      <trkpt lat="45.85698" lon="4.7644">
        <ele>379.3</ele>
        <time>2017-02-18T13:51:25Z</time>
      </trkpt>
      <trkpt lat="45.85693" lon="4.76448">
        <ele>379.7</ele>
        <time>2017-02-18T13:51:31Z</time>
      </trkpt>
      <trkpt lat="45.85687" lon="4.76457">
        <ele>380.5</ele>
        <time>2017-02-18T13:51:37Z</time>
      </trkpt>
      <trkpt lat="45.85682" lon="4.76465">
        <ele>381.4</ele>
        <time>2017-02-18T13:51:43Z</time>
      </trkpt>
      <trkpt lat="45.85676" lon="4.76471">
        <ele>382.3</ele>
        <time>2017-02-18T13:51:50Z</time>
      </trkpt>
      <trkpt lat="45.8567" lon="4.76479">
        <ele>383</ele>
        <time>2017-02-18T13:51:56Z</time>
      </trkpt>
      <trkpt lat="45.85665" lon="4.76487">
        <ele>383.6</ele>
        <time>2017-02-18T13:52:03Z</time>
      </trkpt>
      <trkpt lat="45.85658" lon="4.7649">
        <ele>384.8</ele>
        <time>2017-02-18T13:52:09Z</time>
      </trkpt>
      <trkpt lat="45.8565" lon="4.76496">
        <ele>385.5</ele>
        <time>2017-02-18T13:52:13Z</time>
      </trkpt>
      <trkpt lat="45.85643" lon="4.765">
        <ele>386.2</ele>
        <time>2017-02-18T13:52:17Z</time>
      </trkpt>
      <trkpt lat="45.85635" lon="4.76506">
        <ele>387.3</ele>
        <time>2017-02-18T13:52:22Z</time>
      </trkpt>
      <trkpt lat="45.85628" lon="4.76513">
        <ele>388.1</ele>
        <time>2017-02-18T13:52:26Z</time>
      </trkpt>
      <trkpt lat="45.85621" lon="4.76519">
        <ele>388.9</ele>
        <time>2017-02-18T13:52:30Z</time>
      </trkpt>
      <trkpt lat="45.85616" lon="4.7653">
        <ele>389.8</ele>
        <time>2017-02-18T13:52:35Z</time>
      </trkpt>
      <trkpt lat="45.85613" lon="4.7654">
        <ele>390.5</ele>
        <time>2017-02-18T13:52:39Z</time>
      </trkpt>
      <trkpt lat="45.85608" lon="4.76549">
        <ele>391.3</ele>
        <time>2017-02-18T13:52:44Z</time>
      </trkpt>
      <trkpt lat="45.85603" lon="4.76557">
        <ele>391.9</ele>
        <time>2017-02-18T13:52:48Z</time>
      </trkpt>
      <trkpt lat="45.85597" lon="4.76565">
        <ele>392.8</ele>
        <time>2017-02-18T13:52:52Z</time>
      </trkpt>
      <trkpt lat="45.85591" lon="4.76573">
        <ele>393.4</ele>
        <time>2017-02-18T13:52:56Z</time>
      </trkpt>
      <trkpt lat="45.85583" lon="4.76576">
        <ele>394.5</ele>
        <time>2017-02-18T13:53:02Z</time>
      </trkpt>
      <trkpt lat="45.85576" lon="4.7658">
        <ele>396.1</ele>
        <time>2017-02-18T13:53:08Z</time>
      </trkpt>
      <trkpt lat="45.85568" lon="4.76584">
        <ele>397.8</ele>
        <time>2017-02-18T13:53:14Z</time>
      </trkpt>
      <trkpt lat="45.8556" lon="4.76585">
        <ele>398.7</ele>
        <time>2017-02-18T13:53:19Z</time>
      </trkpt>
      <trkpt lat="45.85551" lon="4.76586">
        <ele>400</ele>
        <time>2017-02-18T13:53:26Z</time>
      </trkpt>
      <trkpt lat="45.85544" lon="4.76584">
        <ele>401.2</ele>
        <time>2017-02-18T13:53:32Z</time>
      </trkpt>
      <trkpt lat="45.85536" lon="4.76581">
        <ele>402.5</ele>
        <time>2017-02-18T13:53:38Z</time>
      </trkpt>
      <trkpt lat="45.85528" lon="4.76578">
        <ele>403.9</ele>
        <time>2017-02-18T13:53:45Z</time>
      </trkpt>
      <trkpt lat="45.85521" lon="4.76573">
        <ele>404.3</ele>
        <time>2017-02-18T13:53:52Z</time>
      </trkpt>
      <trkpt lat="45.85513" lon="4.76571">
        <ele>404.7</ele>
        <time>2017-02-18T13:53:58Z</time>
      </trkpt>
      <trkpt lat="45.85506" lon="4.76572">
        <ele>405.1</ele>
        <time>2017-02-18T13:54:03Z</time>
      </trkpt>
      <trkpt lat="45.85507" lon="4.76572">
        <ele>405.2</ele>
        <time>2017-02-18T13:54:10Z</time>
      </trkpt>
      <trkpt lat="45.85507" lon="4.76572">
        <ele>405.3</ele>
        <time>2017-02-18T13:54:15Z</time>
      </trkpt>
      <trkpt lat="45.85506" lon="4.7657">
        <ele>403.8</ele>
        <time>2017-02-18T13:54:22Z</time>
      </trkpt>
      <trkpt lat="45.85505" lon="4.76568">
        <ele>402.7</ele>
        <time>2017-02-18T13:54:29Z</time>
      </trkpt>
      <trkpt lat="45.85501" lon="4.76568">
        <ele>402.7</ele>
        <time>2017-02-18T13:54:36Z</time>
      </trkpt>
      <trkpt lat="45.85501" lon="4.76568">
        <ele>402.6</ele>
        <time>2017-02-18T13:54:43Z</time>
      </trkpt>
      <trkpt lat="45.85504" lon="4.76572">
        <ele>402.3</ele>
        <time>2017-02-18T13:54:51Z</time>
      </trkpt>
      <trkpt lat="45.85504" lon="4.76572">
        <ele>402.2</ele>
        <time>2017-02-18T13:54:52Z</time>
      </trkpt>
      <trkpt lat="45.85509" lon="4.76576">
        <ele>402.2</ele>
        <time>2017-02-18T13:54:59Z</time>
      </trkpt>
      <trkpt lat="45.85509" lon="4.76576">
        <ele>402.2</ele>
        <time>2017-02-18T13:55:05Z</time>
      </trkpt>
      <trkpt lat="45.85507" lon="4.76576">
        <ele>402</ele>
        <time>2017-02-18T13:55:16Z</time>
      </trkpt>
      <trkpt lat="45.85507" lon="4.76576">
        <ele>401.9</ele>
        <time>2017-02-18T13:55:17Z</time>
      </trkpt>
      <trkpt lat="45.85505" lon="4.76577">
        <ele>401.7</ele>
        <time>2017-02-18T13:55:26Z</time>
      </trkpt>
      <trkpt lat="45.85505" lon="4.7658">
        <ele>401.5</ele>
        <time>2017-02-18T13:55:33Z</time>
      </trkpt>
      <trkpt lat="45.85506" lon="4.7658">
        <ele>401.5</ele>
        <time>2017-02-18T13:55:35Z</time>
      </trkpt>
      <trkpt lat="45.85507" lon="4.76577">
        <ele>401.3</ele>
        <time>2017-02-18T13:55:45Z</time>
      </trkpt>
      <trkpt lat="45.85506" lon="4.76577">
        <ele>401.4</ele>
        <time>2017-02-18T13:55:48Z</time>
      </trkpt>
      <trkpt lat="45.85501" lon="4.7658">
        <ele>401.9</ele>
        <time>2017-02-18T13:55:55Z</time>
      </trkpt>
      <trkpt lat="45.85495" lon="4.76587">
        <ele>402.3</ele>
        <time>2017-02-18T13:56:01Z</time>
      </trkpt>
      <trkpt lat="45.85489" lon="4.76593">
        <ele>403</ele>
        <time>2017-02-18T13:56:07Z</time>
      </trkpt>
      <trkpt lat="45.85483" lon="4.76598">
        <ele>404.3</ele>
        <time>2017-02-18T13:56:14Z</time>
      </trkpt>
      <trkpt lat="45.85476" lon="4.76604">
        <ele>405.5</ele>
        <time>2017-02-18T13:56:21Z</time>
      </trkpt>
      <trkpt lat="45.85468" lon="4.76608">
        <ele>406.6</ele>
        <time>2017-02-18T13:56:27Z</time>
      </trkpt>
      <trkpt lat="45.85461" lon="4.7661">
        <ele>407.8</ele>
        <time>2017-02-18T13:56:34Z</time>
      </trkpt>
      <trkpt lat="45.85455" lon="4.7661">
        <ele>409.2</ele>
        <time>2017-02-18T13:56:41Z</time>
      </trkpt>
      <trkpt lat="45.85449" lon="4.7661">
        <ele>410.6</ele>
        <time>2017-02-18T13:56:48Z</time>
      </trkpt>
      <trkpt lat="45.85441" lon="4.76609">
        <ele>411.9</ele>
        <time>2017-02-18T13:56:54Z</time>
      </trkpt>
      <trkpt lat="45.85434" lon="4.76608">
        <ele>413.3</ele>
        <time>2017-02-18T13:57:01Z</time>
      </trkpt>
      <trkpt lat="45.85426" lon="4.76606">
        <ele>414.8</ele>
        <time>2017-02-18T13:57:07Z</time>
      </trkpt>
      <trkpt lat="45.85418" lon="4.76607">
        <ele>415.9</ele>
        <time>2017-02-18T13:57:12Z</time>
      </trkpt>
      <trkpt lat="45.85411" lon="4.76607">
        <ele>417.2</ele>
        <time>2017-02-18T13:57:19Z</time>
      </trkpt>
      <trkpt lat="45.85405" lon="4.76611">
        <ele>418.5</ele>
        <time>2017-02-18T13:57:25Z</time>
      </trkpt>
      <trkpt lat="45.85398" lon="4.76616">
        <ele>419.6</ele>
        <time>2017-02-18T13:57:32Z</time>
      </trkpt>
      <trkpt lat="45.85391" lon="4.76619">
        <ele>420</ele>
        <time>2017-02-18T13:57:37Z</time>
      </trkpt>
      <trkpt lat="45.85385" lon="4.76624">
        <ele>420.4</ele>
        <time>2017-02-18T13:57:42Z</time>
      </trkpt>
      <trkpt lat="45.85378" lon="4.76627">
        <ele>421.4</ele>
        <time>2017-02-18T13:57:49Z</time>
      </trkpt>
      <trkpt lat="45.85371" lon="4.76634">
        <ele>422.1</ele>
        <time>2017-02-18T13:57:55Z</time>
      </trkpt>
      <trkpt lat="45.85364" lon="4.76638">
        <ele>422.7</ele>
        <time>2017-02-18T13:58:02Z</time>
      </trkpt>
      <trkpt lat="45.85359" lon="4.76643">
        <ele>423</ele>
        <time>2017-02-18T13:58:09Z</time>
      </trkpt>
      <trkpt lat="45.85356" lon="4.76652">
        <ele>423.7</ele>
        <time>2017-02-18T13:58:16Z</time>
      </trkpt>
      <trkpt lat="45.85355" lon="4.7666">
        <ele>424.5</ele>
        <time>2017-02-18T13:58:23Z</time>
      </trkpt>
      <trkpt lat="45.85359" lon="4.76664">
        <ele>426</ele>
        <time>2017-02-18T13:58:30Z</time>
      </trkpt>
      <trkpt lat="45.85364" lon="4.76667">
        <ele>427.2</ele>
        <time>2017-02-18T13:58:37Z</time>
      </trkpt>
      <trkpt lat="45.85371" lon="4.76674">
        <ele>428.2</ele>
        <time>2017-02-18T13:58:44Z</time>
      </trkpt>
      <trkpt lat="45.85377" lon="4.7668">
        <ele>429</ele>
        <time>2017-02-18T13:58:51Z</time>
      </trkpt>
      <trkpt lat="45.85382" lon="4.76685">
        <ele>429.7</ele>
        <time>2017-02-18T13:58:58Z</time>
      </trkpt>
      <trkpt lat="45.85387" lon="4.76692">
        <ele>430.6</ele>
        <time>2017-02-18T13:59:05Z</time>
      </trkpt>
      <trkpt lat="45.85392" lon="4.767">
        <ele>431.4</ele>
        <time>2017-02-18T13:59:10Z</time>
      </trkpt>
      <trkpt lat="45.85395" lon="4.76708">
        <ele>432.2</ele>
        <time>2017-02-18T13:59:17Z</time>
      </trkpt>
      <trkpt lat="45.85399" lon="4.76713">
        <ele>433.3</ele>
        <time>2017-02-18T13:59:24Z</time>
      </trkpt>
      <trkpt lat="45.85404" lon="4.76718">
        <ele>434.8</ele>
        <time>2017-02-18T13:59:31Z</time>
      </trkpt>
      <trkpt lat="45.8541" lon="4.76726">
        <ele>436.3</ele>
        <time>2017-02-18T13:59:38Z</time>
      </trkpt>
      <trkpt lat="45.85416" lon="4.76732">
        <ele>437.5</ele>
        <time>2017-02-18T13:59:45Z</time>
      </trkpt>
      <trkpt lat="45.85421" lon="4.76738">
        <ele>438.9</ele>
        <time>2017-02-18T13:59:52Z</time>
      </trkpt>
      <trkpt lat="45.85425" lon="4.76747">
        <ele>440.3</ele>
        <time>2017-02-18T13:59:59Z</time>
      </trkpt>
      <trkpt lat="45.8543" lon="4.76753">
        <ele>441.3</ele>
        <time>2017-02-18T14:00:06Z</time>
      </trkpt>
      <trkpt lat="45.85426" lon="4.76757">
        <ele>442</ele>
        <time>2017-02-18T14:00:13Z</time>
      </trkpt>
      <trkpt lat="45.85422" lon="4.7676">
        <ele>442.6</ele>
        <time>2017-02-18T14:00:20Z</time>
      </trkpt>
      <trkpt lat="45.85417" lon="4.76765">
        <ele>442.8</ele>
        <time>2017-02-18T14:00:27Z</time>
      </trkpt>
      <trkpt lat="45.85411" lon="4.76766">
        <ele>443.5</ele>
        <time>2017-02-18T14:00:34Z</time>
      </trkpt>
      <trkpt lat="45.85404" lon="4.76768">
        <ele>444.3</ele>
        <time>2017-02-18T14:00:39Z</time>
      </trkpt>
      <trkpt lat="45.85396" lon="4.76765">
        <ele>445.1</ele>
        <time>2017-02-18T14:00:45Z</time>
      </trkpt>
      <trkpt lat="45.85388" lon="4.76765">
        <ele>445.8</ele>
        <time>2017-02-18T14:00:51Z</time>
      </trkpt>
      <trkpt lat="45.85381" lon="4.76766">
        <ele>446.4</ele>
        <time>2017-02-18T14:00:58Z</time>
      </trkpt>
      <trkpt lat="45.85374" lon="4.76768">
        <ele>447.2</ele>
        <time>2017-02-18T14:01:04Z</time>
      </trkpt>
      <trkpt lat="45.85366" lon="4.7677">
        <ele>447.9</ele>
        <time>2017-02-18T14:01:10Z</time>
      </trkpt>
      <trkpt lat="45.8536" lon="4.76775">
        <ele>448.9</ele>
        <time>2017-02-18T14:01:17Z</time>
      </trkpt>
      <trkpt lat="45.85356" lon="4.76784">
        <ele>449.7</ele>
        <time>2017-02-18T14:01:23Z</time>
      </trkpt>
      <trkpt lat="45.85353" lon="4.76795">
        <ele>450</ele>
        <time>2017-02-18T14:01:29Z</time>
      </trkpt>
      <trkpt lat="45.85351" lon="4.76805">
        <ele>450.6</ele>
        <time>2017-02-18T14:01:35Z</time>
      </trkpt>
      <trkpt lat="45.85351" lon="4.76816">
        <ele>451.5</ele>
        <time>2017-02-18T14:01:42Z</time>
      </trkpt>
      <trkpt lat="45.85347" lon="4.76826">
        <ele>452.8</ele>
        <time>2017-02-18T14:01:48Z</time>
      </trkpt>
      <trkpt lat="45.85343" lon="4.76835">
        <ele>453.6</ele>
        <time>2017-02-18T14:01:53Z</time>
      </trkpt>
      <trkpt lat="45.85336" lon="4.76843">
        <ele>454.2</ele>
        <time>2017-02-18T14:02:00Z</time>
      </trkpt>
      <trkpt lat="45.85329" lon="4.7685">
        <ele>454.5</ele>
        <time>2017-02-18T14:02:04Z</time>
      </trkpt>
      <trkpt lat="45.85322" lon="4.76854">
        <ele>454.8</ele>
        <time>2017-02-18T14:02:09Z</time>
      </trkpt>
      <trkpt lat="45.85316" lon="4.76861">
        <ele>455.2</ele>
        <time>2017-02-18T14:02:13Z</time>
      </trkpt>
      <trkpt lat="45.8531" lon="4.76869">
        <ele>455.8</ele>
        <time>2017-02-18T14:02:18Z</time>
      </trkpt>
      <trkpt lat="45.85304" lon="4.76876">
        <ele>456.1</ele>
        <time>2017-02-18T14:02:21Z</time>
      </trkpt>
      <trkpt lat="45.85298" lon="4.76884">
        <ele>456.4</ele>
        <time>2017-02-18T14:02:26Z</time>
      </trkpt>
      <trkpt lat="45.85292" lon="4.76896">
        <ele>456.9</ele>
        <time>2017-02-18T14:02:31Z</time>
      </trkpt>
      <trkpt lat="45.85288" lon="4.76906">
        <ele>457</ele>
        <time>2017-02-18T14:02:35Z</time>
      </trkpt>
      <trkpt lat="45.85282" lon="4.76916">
        <ele>457</ele>
        <time>2017-02-18T14:02:39Z</time>
      </trkpt>
      <trkpt lat="45.85275" lon="4.76922">
        <ele>457.1</ele>
        <time>2017-02-18T14:02:43Z</time>
      </trkpt>
      <trkpt lat="45.85267" lon="4.76924">
        <ele>457.2</ele>
        <time>2017-02-18T14:02:47Z</time>
      </trkpt>
      <trkpt lat="45.8526" lon="4.7692">
        <ele>457.9</ele>
        <time>2017-02-18T14:02:54Z</time>
      </trkpt>
      <trkpt lat="45.85253" lon="4.76913">
        <ele>459</ele>
        <time>2017-02-18T14:02:59Z</time>
      </trkpt>
      <trkpt lat="45.85245" lon="4.76908">
        <ele>459.5</ele>
        <time>2017-02-18T14:03:02Z</time>
      </trkpt>
      <trkpt lat="45.85239" lon="4.76902">
        <ele>460.2</ele>
        <time>2017-02-18T14:03:06Z</time>
      </trkpt>
      <trkpt lat="45.85232" lon="4.76896">
        <ele>461</ele>
        <time>2017-02-18T14:03:10Z</time>
      </trkpt>
      <trkpt lat="45.85224" lon="4.76894">
        <ele>463.1</ele>
        <time>2017-02-18T14:03:17Z</time>
      </trkpt>
      <trkpt lat="45.85217" lon="4.7689">
        <ele>464.1</ele>
        <time>2017-02-18T14:03:22Z</time>
      </trkpt>
      <trkpt lat="45.85209" lon="4.76888">
        <ele>465.1</ele>
        <time>2017-02-18T14:03:28Z</time>
      </trkpt>
      <trkpt lat="45.85201" lon="4.76887">
        <ele>465.8</ele>
        <time>2017-02-18T14:03:33Z</time>
      </trkpt>
      <trkpt lat="45.85193" lon="4.76886">
        <ele>466.6</ele>
        <time>2017-02-18T14:03:39Z</time>
      </trkpt>
      <trkpt lat="45.85185" lon="4.76886">
        <ele>467.1</ele>
        <time>2017-02-18T14:03:46Z</time>
      </trkpt>
      <trkpt lat="45.85178" lon="4.76888">
        <ele>467.7</ele>
        <time>2017-02-18T14:03:51Z</time>
      </trkpt>
      <trkpt lat="45.85174" lon="4.76887">
        <ele>467.9</ele>
        <time>2017-02-18T14:03:58Z</time>
      </trkpt>
      <trkpt lat="45.85169" lon="4.7689">
        <ele>467.1</ele>
        <time>2017-02-18T14:04:05Z</time>
      </trkpt>
      <trkpt lat="45.85175" lon="4.76892">
        <ele>467</ele>
        <time>2017-02-18T14:04:12Z</time>
      </trkpt>
      <trkpt lat="45.85175" lon="4.76894">
        <ele>466.9</ele>
        <time>2017-02-18T14:04:19Z</time>
      </trkpt>
      <trkpt lat="45.85169" lon="4.76897">
        <ele>466.7</ele>
        <time>2017-02-18T14:04:26Z</time>
      </trkpt>
      <trkpt lat="45.85164" lon="4.76896">
        <ele>465.6</ele>
        <time>2017-02-18T14:04:33Z</time>
      </trkpt>
      <trkpt lat="45.85161" lon="4.76897">
        <ele>464.4</ele>
        <time>2017-02-18T14:04:40Z</time>
      </trkpt>
      <trkpt lat="45.85155" lon="4.76896">
        <ele>464.3</ele>
        <time>2017-02-18T14:04:47Z</time>
      </trkpt>
      <trkpt lat="45.85155" lon="4.76896">
        <ele>464.4</ele>
        <time>2017-02-18T14:04:54Z</time>
      </trkpt>
      <trkpt lat="45.85154" lon="4.76897">
        <ele>464.4</ele>
        <time>2017-02-18T14:04:57Z</time>
      </trkpt>
      <trkpt lat="45.85154" lon="4.76898">
        <ele>464.7</ele>
        <time>2017-02-18T14:05:04Z</time>
      </trkpt>
      <trkpt lat="45.85148" lon="4.76897">
        <ele>465.6</ele>
        <time>2017-02-18T14:05:11Z</time>
      </trkpt>
      <trkpt lat="45.85143" lon="4.76899">
        <ele>466.4</ele>
        <time>2017-02-18T14:05:18Z</time>
      </trkpt>
      <trkpt lat="45.85135" lon="4.769">
        <ele>467.1</ele>
        <time>2017-02-18T14:05:23Z</time>
      </trkpt>
      <trkpt lat="45.85127" lon="4.76901">
        <ele>467.7</ele>
        <time>2017-02-18T14:05:27Z</time>
      </trkpt>
      <trkpt lat="45.85119" lon="4.76903">
        <ele>468.5</ele>
        <time>2017-02-18T14:05:33Z</time>
      </trkpt>
      <trkpt lat="45.85112" lon="4.76908">
        <ele>469.9</ele>
        <time>2017-02-18T14:05:40Z</time>
      </trkpt>
      <trkpt lat="45.85104" lon="4.76911">
        <ele>471.2</ele>
        <time>2017-02-18T14:05:46Z</time>
      </trkpt>
      <trkpt lat="45.85097" lon="4.76917">
        <ele>472.3</ele>
        <time>2017-02-18T14:05:53Z</time>
      </trkpt>
      <trkpt lat="45.85091" lon="4.76927">
        <ele>472.9</ele>
        <time>2017-02-18T14:05:57Z</time>
      </trkpt>
      <trkpt lat="45.85086" lon="4.76936">
        <ele>473.8</ele>
        <time>2017-02-18T14:06:03Z</time>
      </trkpt>
      <trkpt lat="45.85081" lon="4.76944">
        <ele>474.2</ele>
        <time>2017-02-18T14:06:08Z</time>
      </trkpt>
      <trkpt lat="45.8508" lon="4.76954">
        <ele>474.3</ele>
        <time>2017-02-18T14:06:12Z</time>
      </trkpt>
      <trkpt lat="45.8508" lon="4.76965">
        <ele>474.6</ele>
        <time>2017-02-18T14:06:18Z</time>
      </trkpt>
      <trkpt lat="45.8508" lon="4.76976">
        <ele>474.6</ele>
        <time>2017-02-18T14:06:23Z</time>
      </trkpt>
      <trkpt lat="45.85081" lon="4.76987">
        <ele>475</ele>
        <time>2017-02-18T14:06:29Z</time>
      </trkpt>
      <trkpt lat="45.85081" lon="4.76997">
        <ele>475.3</ele>
        <time>2017-02-18T14:06:34Z</time>
      </trkpt>
      <trkpt lat="45.85081" lon="4.77009">
        <ele>475.8</ele>
        <time>2017-02-18T14:06:40Z</time>
      </trkpt>
      <trkpt lat="45.85081" lon="4.77019">
        <ele>476.2</ele>
        <time>2017-02-18T14:06:46Z</time>
      </trkpt>
      <trkpt lat="45.8508" lon="4.7703">
        <ele>476.5</ele>
        <time>2017-02-18T14:06:51Z</time>
      </trkpt>
      <trkpt lat="45.85076" lon="4.77039">
        <ele>476.5</ele>
        <time>2017-02-18T14:06:56Z</time>
      </trkpt>
      <trkpt lat="45.8507" lon="4.77046">
        <ele>476.7</ele>
        <time>2017-02-18T14:07:01Z</time>
      </trkpt>
      <trkpt lat="45.85066" lon="4.77054">
        <ele>477</ele>
        <time>2017-02-18T14:07:05Z</time>
      </trkpt>
      <trkpt lat="45.85061" lon="4.77063">
        <ele>477.2</ele>
        <time>2017-02-18T14:07:10Z</time>
      </trkpt>
      <trkpt lat="45.85057" lon="4.77073">
        <ele>477.6</ele>
        <time>2017-02-18T14:07:16Z</time>
      </trkpt>
      <trkpt lat="45.85052" lon="4.77084">
        <ele>478.3</ele>
        <time>2017-02-18T14:07:22Z</time>
      </trkpt>
      <trkpt lat="45.85047" lon="4.77092">
        <ele>478.7</ele>
        <time>2017-02-18T14:07:26Z</time>
      </trkpt>
      <trkpt lat="45.8504" lon="4.771">
        <ele>478.8</ele>
        <time>2017-02-18T14:07:29Z</time>
      </trkpt>
      <trkpt lat="45.85035" lon="4.77105">
        <ele>479.1</ele>
        <time>2017-02-18T14:07:33Z</time>
      </trkpt>
      <trkpt lat="45.85028" lon="4.77112">
        <ele>479.6</ele>
        <time>2017-02-18T14:07:38Z</time>
      </trkpt>
      <trkpt lat="45.85024" lon="4.7712">
        <ele>480.3</ele>
        <time>2017-02-18T14:07:42Z</time>
      </trkpt>
      <trkpt lat="45.8502" lon="4.77129">
        <ele>481.1</ele>
        <time>2017-02-18T14:07:46Z</time>
      </trkpt>
      <trkpt lat="45.85016" lon="4.77138">
        <ele>481.8</ele>
        <time>2017-02-18T14:07:50Z</time>
      </trkpt>
      <trkpt lat="45.85009" lon="4.77146">
        <ele>482.5</ele>
        <time>2017-02-18T14:07:55Z</time>
      </trkpt>
      <trkpt lat="45.85004" lon="4.77154">
        <ele>482.9</ele>
        <time>2017-02-18T14:07:58Z</time>
      </trkpt>
      <trkpt lat="45.84999" lon="4.77162">
        <ele>483.3</ele>
        <time>2017-02-18T14:08:01Z</time>
      </trkpt>
      <trkpt lat="45.84992" lon="4.7717">
        <ele>483.6</ele>
        <time>2017-02-18T14:08:05Z</time>
      </trkpt>
      <trkpt lat="45.84986" lon="4.77176">
        <ele>483.7</ele>
        <time>2017-02-18T14:08:08Z</time>
      </trkpt>
      <trkpt lat="45.84979" lon="4.77182">
        <ele>484</ele>
        <time>2017-02-18T14:08:13Z</time>
      </trkpt>
      <trkpt lat="45.84972" lon="4.77186">
        <ele>484.6</ele>
        <time>2017-02-18T14:08:20Z</time>
      </trkpt>
      <trkpt lat="45.84964" lon="4.77188">
        <ele>485.1</ele>
        <time>2017-02-18T14:08:25Z</time>
      </trkpt>
      <trkpt lat="45.84955" lon="4.77189">
        <ele>485.7</ele>
        <time>2017-02-18T14:08:30Z</time>
      </trkpt>
      <trkpt lat="45.84947" lon="4.77192">
        <ele>485.9</ele>
        <time>2017-02-18T14:08:34Z</time>
      </trkpt>
      <trkpt lat="45.84939" lon="4.77192">
        <ele>486.1</ele>
        <time>2017-02-18T14:08:39Z</time>
      </trkpt>
      <trkpt lat="45.8493" lon="4.77194">
        <ele>486.6</ele>
        <time>2017-02-18T14:08:44Z</time>
      </trkpt>
      <trkpt lat="45.84921" lon="4.77195">
        <ele>487.3</ele>
        <time>2017-02-18T14:08:49Z</time>
      </trkpt>
      <trkpt lat="45.84913" lon="4.77194">
        <ele>487.5</ele>
        <time>2017-02-18T14:08:53Z</time>
      </trkpt>
      <trkpt lat="45.84904" lon="4.77194">
        <ele>487.7</ele>
        <time>2017-02-18T14:08:57Z</time>
      </trkpt>
      <trkpt lat="45.84896" lon="4.77192">
        <ele>487.9</ele>
        <time>2017-02-18T14:09:01Z</time>
      </trkpt>
      <trkpt lat="45.84888" lon="4.77188">
        <ele>488.3</ele>
        <time>2017-02-18T14:09:07Z</time>
      </trkpt>
      <trkpt lat="45.8488" lon="4.77182">
        <ele>489</ele>
        <time>2017-02-18T14:09:13Z</time>
      </trkpt>
      <trkpt lat="45.84874" lon="4.77176">
        <ele>489.3</ele>
        <time>2017-02-18T14:09:18Z</time>
      </trkpt>
      <trkpt lat="45.84866" lon="4.7717">
        <ele>489.8</ele>
        <time>2017-02-18T14:09:22Z</time>
      </trkpt>
      <trkpt lat="45.84859" lon="4.77162">
        <ele>490.1</ele>
        <time>2017-02-18T14:09:26Z</time>
      </trkpt>
      <trkpt lat="45.8485" lon="4.77155">
        <ele>490.4</ele>
        <time>2017-02-18T14:09:29Z</time>
      </trkpt>
      <trkpt lat="45.84843" lon="4.77148">
        <ele>490.7</ele>
        <time>2017-02-18T14:09:32Z</time>
      </trkpt>
      <trkpt lat="45.84836" lon="4.77143">
        <ele>491</ele>
        <time>2017-02-18T14:09:35Z</time>
      </trkpt>
      <trkpt lat="45.84828" lon="4.7714">
        <ele>491.5</ele>
        <time>2017-02-18T14:09:39Z</time>
      </trkpt>
      <trkpt lat="45.84819" lon="4.77139">
        <ele>492.1</ele>
        <time>2017-02-18T14:09:43Z</time>
      </trkpt>
      <trkpt lat="45.84811" lon="4.77139">
        <ele>492.4</ele>
        <time>2017-02-18T14:09:46Z</time>
      </trkpt>
      <trkpt lat="45.84802" lon="4.77138">
        <ele>492.6</ele>
        <time>2017-02-18T14:09:49Z</time>
      </trkpt>
      <trkpt lat="45.84793" lon="4.7714">
        <ele>492.6</ele>
        <time>2017-02-18T14:09:52Z</time>
      </trkpt>
      <trkpt lat="45.84786" lon="4.77142">
        <ele>492.6</ele>
        <time>2017-02-18T14:09:55Z</time>
      </trkpt>
      <trkpt lat="45.84775" lon="4.77143">
        <ele>492.9</ele>
        <time>2017-02-18T14:09:58Z</time>
      </trkpt>
      <trkpt lat="45.84765" lon="4.77143">
        <ele>493.1</ele>
        <time>2017-02-18T14:10:01Z</time>
      </trkpt>
      <trkpt lat="45.84756" lon="4.77143">
        <ele>493.4</ele>
        <time>2017-02-18T14:10:04Z</time>
      </trkpt>
      <trkpt lat="45.84749" lon="4.7714">
        <ele>493.5</ele>
        <time>2017-02-18T14:10:07Z</time>
      </trkpt>
      <trkpt lat="45.84748" lon="4.77141">
        <ele>493.7</ele>
        <time>2017-02-18T14:10:14Z</time>
      </trkpt>
      <trkpt lat="45.84748" lon="4.77141">
        <ele>493.8</ele>
        <time>2017-02-18T14:10:16Z</time>
      </trkpt>
      <trkpt lat="45.84746" lon="4.77146">
        <ele>494.2</ele>
        <time>2017-02-18T14:10:28Z</time>
      </trkpt>
      <trkpt lat="45.84745" lon="4.77146">
        <ele>493.7</ele>
        <time>2017-02-18T14:10:35Z</time>
      </trkpt>
      <trkpt lat="45.84748" lon="4.77137">
        <ele>493.7</ele>
        <time>2017-02-18T14:10:42Z</time>
      </trkpt>
      <trkpt lat="45.84748" lon="4.77134">
        <ele>494.5</ele>
        <time>2017-02-18T14:10:49Z</time>
      </trkpt>
      <trkpt lat="45.84744" lon="4.77146">
        <ele>495</ele>
        <time>2017-02-18T14:10:56Z</time>
      </trkpt>
      <trkpt lat="45.84748" lon="4.77156">
        <ele>495.5</ele>
        <time>2017-02-18T14:11:02Z</time>
      </trkpt>
      <trkpt lat="45.84755" lon="4.77157">
        <ele>495.9</ele>
        <time>2017-02-18T14:11:07Z</time>
      </trkpt>
      <trkpt lat="45.84764" lon="4.77159">
        <ele>496.1</ele>
        <time>2017-02-18T14:11:12Z</time>
      </trkpt>
      <trkpt lat="45.84772" lon="4.77161">
        <ele>496.1</ele>
        <time>2017-02-18T14:11:16Z</time>
      </trkpt>
      <trkpt lat="45.8478" lon="4.77163">
        <ele>496.1</ele>
        <time>2017-02-18T14:11:21Z</time>
      </trkpt>
      <trkpt lat="45.84789" lon="4.77165">
        <ele>496.4</ele>
        <time>2017-02-18T14:11:25Z</time>
      </trkpt>
      <trkpt lat="45.84796" lon="4.77169">
        <ele>496.7</ele>
        <time>2017-02-18T14:11:29Z</time>
      </trkpt>
      <trkpt lat="45.84803" lon="4.77173">
        <ele>496.9</ele>
        <time>2017-02-18T14:11:33Z</time>
      </trkpt>
      <trkpt lat="45.8481" lon="4.77177">
        <ele>497.2</ele>
        <time>2017-02-18T14:11:38Z</time>
      </trkpt>
      <trkpt lat="45.84816" lon="4.77184">
        <ele>497.5</ele>
        <time>2017-02-18T14:11:42Z</time>
      </trkpt>
      <trkpt lat="45.84821" lon="4.77192">
        <ele>497.5</ele>
        <time>2017-02-18T14:11:47Z</time>
      </trkpt>
      <trkpt lat="45.84827" lon="4.77199">
        <ele>497.6</ele>
        <time>2017-02-18T14:11:52Z</time>
      </trkpt>
      <trkpt lat="45.84834" lon="4.77205">
        <ele>498</ele>
        <time>2017-02-18T14:11:58Z</time>
      </trkpt>
      <trkpt lat="45.8484" lon="4.77213">
        <ele>498.3</ele>
        <time>2017-02-18T14:12:02Z</time>
      </trkpt>
      <trkpt lat="45.84847" lon="4.7722">
        <ele>498.7</ele>
        <time>2017-02-18T14:12:06Z</time>
      </trkpt>
      <trkpt lat="45.84852" lon="4.77229">
        <ele>499.6</ele>
        <time>2017-02-18T14:12:11Z</time>
      </trkpt>
      <trkpt lat="45.84857" lon="4.77237">
        <ele>500.7</ele>
        <time>2017-02-18T14:12:16Z</time>
      </trkpt>
      <trkpt lat="45.84863" lon="4.77243">
        <ele>501.8</ele>
        <time>2017-02-18T14:12:22Z</time>
      </trkpt>
      <trkpt lat="45.8487" lon="4.77248">
        <ele>504.3</ele>
        <time>2017-02-18T14:12:29Z</time>
      </trkpt>
      <trkpt lat="45.84877" lon="4.77252">
        <ele>505.8</ele>
        <time>2017-02-18T14:12:33Z</time>
      </trkpt>
      <trkpt lat="45.84885" lon="4.77255">
        <ele>507.3</ele>
        <time>2017-02-18T14:12:38Z</time>
      </trkpt>
      <trkpt lat="45.84893" lon="4.77258">
        <ele>508.7</ele>
        <time>2017-02-18T14:12:43Z</time>
      </trkpt>
      <trkpt lat="45.84902" lon="4.77259">
        <ele>509.9</ele>
        <time>2017-02-18T14:12:48Z</time>
      </trkpt>
      <trkpt lat="45.84909" lon="4.77262">
        <ele>511.1</ele>
        <time>2017-02-18T14:12:53Z</time>
      </trkpt>
      <trkpt lat="45.84917" lon="4.77264">
        <ele>511.8</ele>
        <time>2017-02-18T14:12:57Z</time>
      </trkpt>
      <trkpt lat="45.84924" lon="4.77268">
        <ele>512.4</ele>
        <time>2017-02-18T14:13:01Z</time>
      </trkpt>
      <trkpt lat="45.84931" lon="4.7727">
        <ele>513.1</ele>
        <time>2017-02-18T14:13:06Z</time>
      </trkpt>
      <trkpt lat="45.84939" lon="4.77271">
        <ele>513.8</ele>
        <time>2017-02-18T14:13:11Z</time>
      </trkpt>
      <trkpt lat="45.84947" lon="4.77276">
        <ele>514.4</ele>
        <time>2017-02-18T14:13:15Z</time>
      </trkpt>
      <trkpt lat="45.84956" lon="4.77278">
        <ele>515.6</ele>
        <time>2017-02-18T14:13:20Z</time>
      </trkpt>
      <trkpt lat="45.84963" lon="4.7728">
        <ele>516.9</ele>
        <time>2017-02-18T14:13:25Z</time>
      </trkpt>
      <trkpt lat="45.84972" lon="4.77282">
        <ele>518.1</ele>
        <time>2017-02-18T14:13:30Z</time>
      </trkpt>
      <trkpt lat="45.84979" lon="4.77285">
        <ele>519.2</ele>
        <time>2017-02-18T14:13:35Z</time>
      </trkpt>
      <trkpt lat="45.84986" lon="4.77283">
        <ele>520.4</ele>
        <time>2017-02-18T14:13:42Z</time>
      </trkpt>
      <trkpt lat="45.84994" lon="4.7728">
        <ele>521.1</ele>
        <time>2017-02-18T14:13:46Z</time>
      </trkpt>
      <trkpt lat="45.85001" lon="4.7728">
        <ele>522</ele>
        <time>2017-02-18T14:13:51Z</time>
      </trkpt>
      <trkpt lat="45.85008" lon="4.77277">
        <ele>522.7</ele>
        <time>2017-02-18T14:13:56Z</time>
      </trkpt>
      <trkpt lat="45.85016" lon="4.77275">
        <ele>523</ele>
        <time>2017-02-18T14:14:00Z</time>
      </trkpt>
      <trkpt lat="45.85024" lon="4.77274">
        <ele>523.4</ele>
        <time>2017-02-18T14:14:05Z</time>
      </trkpt>
      <trkpt lat="45.85032" lon="4.77273">
        <ele>523.6</ele>
        <time>2017-02-18T14:14:10Z</time>
      </trkpt>
      <trkpt lat="45.8504" lon="4.77272">
        <ele>523.5</ele>
        <time>2017-02-18T14:14:15Z</time>
      </trkpt>
      <trkpt lat="45.85048" lon="4.77271">
        <ele>523.7</ele>
        <time>2017-02-18T14:14:20Z</time>
      </trkpt>
      <trkpt lat="45.85055" lon="4.7727">
        <ele>524</ele>
        <time>2017-02-18T14:14:25Z</time>
      </trkpt>
      <trkpt lat="45.85064" lon="4.77267">
        <ele>524.3</ele>
        <time>2017-02-18T14:14:30Z</time>
      </trkpt>
      <trkpt lat="45.85073" lon="4.77267">
        <ele>524.7</ele>
        <time>2017-02-18T14:14:35Z</time>
      </trkpt>
      <trkpt lat="45.8508" lon="4.77267">
        <ele>525.5</ele>
        <time>2017-02-18T14:14:40Z</time>
      </trkpt>
      <trkpt lat="45.85088" lon="4.77266">
        <ele>526.4</ele>
        <time>2017-02-18T14:14:45Z</time>
      </trkpt>
      <trkpt lat="45.85096" lon="4.77264">
        <ele>527.3</ele>
        <time>2017-02-18T14:14:50Z</time>
      </trkpt>
      <trkpt lat="45.85104" lon="4.77264">
        <ele>528.5</ele>
        <time>2017-02-18T14:14:56Z</time>
      </trkpt>
      <trkpt lat="45.85112" lon="4.77266">
        <ele>529.4</ele>
        <time>2017-02-18T14:15:01Z</time>
      </trkpt>
      <trkpt lat="45.8512" lon="4.77268">
        <ele>530</ele>
        <time>2017-02-18T14:15:06Z</time>
      </trkpt>
      <trkpt lat="45.85129" lon="4.77272">
        <ele>530.6</ele>
        <time>2017-02-18T14:15:11Z</time>
      </trkpt>
      <trkpt lat="45.85136" lon="4.77273">
        <ele>531.2</ele>
        <time>2017-02-18T14:15:16Z</time>
      </trkpt>
      <trkpt lat="45.85144" lon="4.77274">
        <ele>531.5</ele>
        <time>2017-02-18T14:15:22Z</time>
      </trkpt>
      <trkpt lat="45.85152" lon="4.77277">
        <ele>532.4</ele>
        <time>2017-02-18T14:15:28Z</time>
      </trkpt>
      <trkpt lat="45.85159" lon="4.77279">
        <ele>533.2</ele>
        <time>2017-02-18T14:15:33Z</time>
      </trkpt>
      <trkpt lat="45.85167" lon="4.77279">
        <ele>534</ele>
        <time>2017-02-18T14:15:37Z</time>
      </trkpt>
      <trkpt lat="45.85175" lon="4.77279">
        <ele>534.9</ele>
        <time>2017-02-18T14:15:41Z</time>
      </trkpt>
      <trkpt lat="45.85183" lon="4.77279">
        <ele>535.9</ele>
        <time>2017-02-18T14:15:48Z</time>
      </trkpt>
      <trkpt lat="45.8519" lon="4.77281">
        <ele>536.4</ele>
        <time>2017-02-18T14:15:52Z</time>
      </trkpt>
      <trkpt lat="45.85198" lon="4.77283">
        <ele>536.8</ele>
        <time>2017-02-18T14:15:56Z</time>
      </trkpt>
      <trkpt lat="45.85205" lon="4.77286">
        <ele>537</ele>
        <time>2017-02-18T14:16:00Z</time>
      </trkpt>
      <trkpt lat="45.85212" lon="4.7729">
        <ele>537.1</ele>
        <time>2017-02-18T14:16:05Z</time>
      </trkpt>
      <trkpt lat="45.85221" lon="4.77291">
        <ele>536.9</ele>
        <time>2017-02-18T14:16:11Z</time>
      </trkpt>
      <trkpt lat="45.85229" lon="4.77295">
        <ele>536.7</ele>
        <time>2017-02-18T14:16:15Z</time>
      </trkpt>
      <trkpt lat="45.85237" lon="4.77299">
        <ele>536.6</ele>
        <time>2017-02-18T14:16:20Z</time>
      </trkpt>
      <trkpt lat="45.85244" lon="4.77302">
        <ele>536.7</ele>
        <time>2017-02-18T14:16:25Z</time>
      </trkpt>
      <trkpt lat="45.85253" lon="4.77304">
        <ele>536.6</ele>
        <time>2017-02-18T14:16:30Z</time>
      </trkpt>
      <trkpt lat="45.85261" lon="4.77304">
        <ele>536.9</ele>
        <time>2017-02-18T14:16:34Z</time>
      </trkpt>
      <trkpt lat="45.85269" lon="4.77307">
        <ele>537.3</ele>
        <time>2017-02-18T14:16:38Z</time>
      </trkpt>
      <trkpt lat="45.85276" lon="4.77312">
        <ele>537.6</ele>
        <time>2017-02-18T14:16:43Z</time>
      </trkpt>
      <trkpt lat="45.85284" lon="4.77316">
        <ele>538.2</ele>
        <time>2017-02-18T14:16:48Z</time>
      </trkpt>
      <trkpt lat="45.85292" lon="4.77319">
        <ele>538.8</ele>
        <time>2017-02-18T14:16:53Z</time>
      </trkpt>
      <trkpt lat="45.85299" lon="4.77323">
        <ele>539.4</ele>
        <time>2017-02-18T14:16:58Z</time>
      </trkpt>
      <trkpt lat="45.85305" lon="4.77327">
        <ele>540</ele>
        <time>2017-02-18T14:17:03Z</time>
      </trkpt>
      <trkpt lat="45.85313" lon="4.77332">
        <ele>540.4</ele>
        <time>2017-02-18T14:17:07Z</time>
      </trkpt>
      <trkpt lat="45.85321" lon="4.77335">
        <ele>540.5</ele>
        <time>2017-02-18T14:17:11Z</time>
      </trkpt>
      <trkpt lat="45.85328" lon="4.7734">
        <ele>540.5</ele>
        <time>2017-02-18T14:17:15Z</time>
      </trkpt>
      <trkpt lat="45.85336" lon="4.77343">
        <ele>540.8</ele>
        <time>2017-02-18T14:17:20Z</time>
      </trkpt>
      <trkpt lat="45.85343" lon="4.77347">
        <ele>541.3</ele>
        <time>2017-02-18T14:17:25Z</time>
      </trkpt>
      <trkpt lat="45.8535" lon="4.7735">
        <ele>541.7</ele>
        <time>2017-02-18T14:17:29Z</time>
      </trkpt>
      <trkpt lat="45.85358" lon="4.77352">
        <ele>542</ele>
        <time>2017-02-18T14:17:34Z</time>
      </trkpt>
      <trkpt lat="45.85365" lon="4.77353">
        <ele>542.4</ele>
        <time>2017-02-18T14:17:39Z</time>
      </trkpt>
      <trkpt lat="45.85373" lon="4.77356">
        <ele>542.9</ele>
        <time>2017-02-18T14:17:45Z</time>
      </trkpt>
      <trkpt lat="45.85381" lon="4.7736">
        <ele>543.3</ele>
        <time>2017-02-18T14:17:50Z</time>
      </trkpt>
      <trkpt lat="45.85388" lon="4.77364">
        <ele>543.9</ele>
        <time>2017-02-18T14:17:55Z</time>
      </trkpt>
      <trkpt lat="45.85396" lon="4.77366">
        <ele>544.6</ele>
        <time>2017-02-18T14:18:01Z</time>
      </trkpt>
      <trkpt lat="45.85403" lon="4.7737">
        <ele>544.9</ele>
        <time>2017-02-18T14:18:06Z</time>
      </trkpt>
      <trkpt lat="45.85411" lon="4.77371">
        <ele>545.4</ele>
        <time>2017-02-18T14:18:11Z</time>
      </trkpt>
      <trkpt lat="45.85418" lon="4.77375">
        <ele>546.2</ele>
        <time>2017-02-18T14:18:16Z</time>
      </trkpt>
      <trkpt lat="45.85426" lon="4.77379">
        <ele>546.8</ele>
        <time>2017-02-18T14:18:21Z</time>
      </trkpt>
      <trkpt lat="45.85433" lon="4.77384">
        <ele>548.2</ele>
        <time>2017-02-18T14:18:28Z</time>
      </trkpt>
      <trkpt lat="45.8544" lon="4.77389">
        <ele>549.2</ele>
        <time>2017-02-18T14:18:32Z</time>
      </trkpt>
      <trkpt lat="45.85447" lon="4.77394">
        <ele>550.3</ele>
        <time>2017-02-18T14:18:37Z</time>
      </trkpt>
      <trkpt lat="45.85454" lon="4.77398">
        <ele>551.1</ele>
        <time>2017-02-18T14:18:41Z</time>
      </trkpt>
      <trkpt lat="45.85462" lon="4.77404">
        <ele>551.9</ele>
        <time>2017-02-18T14:18:45Z</time>
      </trkpt>
      <trkpt lat="45.8547" lon="4.7741">
        <ele>553</ele>
        <time>2017-02-18T14:18:50Z</time>
      </trkpt>
      <trkpt lat="45.85477" lon="4.77416">
        <ele>554.1</ele>
        <time>2017-02-18T14:18:55Z</time>
      </trkpt>
      <trkpt lat="45.85483" lon="4.77421">
        <ele>555.1</ele>
        <time>2017-02-18T14:19:00Z</time>
      </trkpt>
      <trkpt lat="45.85491" lon="4.77425">
        <ele>555.8</ele>
        <time>2017-02-18T14:19:04Z</time>
      </trkpt>
      <trkpt lat="45.85498" lon="4.77431">
        <ele>556.5</ele>
        <time>2017-02-18T14:19:09Z</time>
      </trkpt>
      <trkpt lat="45.85506" lon="4.77439">
        <ele>556.9</ele>
        <time>2017-02-18T14:19:14Z</time>
      </trkpt>
      <trkpt lat="45.85512" lon="4.77445">
        <ele>557.2</ele>
        <time>2017-02-18T14:19:18Z</time>
      </trkpt>
      <trkpt lat="45.85519" lon="4.77451">
        <ele>557.8</ele>
        <time>2017-02-18T14:19:23Z</time>
      </trkpt>
      <trkpt lat="45.85525" lon="4.77458">
        <ele>558.2</ele>
        <time>2017-02-18T14:19:26Z</time>
      </trkpt>
      <trkpt lat="45.85531" lon="4.77464">
        <ele>558.7</ele>
        <time>2017-02-18T14:19:31Z</time>
      </trkpt>
      <trkpt lat="45.85537" lon="4.7747">
        <ele>559.6</ele>
        <time>2017-02-18T14:19:38Z</time>
      </trkpt>
      <trkpt lat="45.8554" lon="4.77483">
        <ele>561.3</ele>
        <time>2017-02-18T14:19:44Z</time>
      </trkpt>
      <trkpt lat="45.85542" lon="4.77496">
        <ele>562.3</ele>
        <time>2017-02-18T14:19:48Z</time>
      </trkpt>
      <trkpt lat="45.85544" lon="4.77508">
        <ele>563.1</ele>
        <time>2017-02-18T14:19:53Z</time>
      </trkpt>
      <trkpt lat="45.85547" lon="4.7752">
        <ele>563.5</ele>
        <time>2017-02-18T14:19:58Z</time>
      </trkpt>
      <trkpt lat="45.85546" lon="4.77532">
        <ele>563.9</ele>
        <time>2017-02-18T14:20:01Z</time>
      </trkpt>
      <trkpt lat="45.85543" lon="4.77545">
        <ele>564.2</ele>
        <time>2017-02-18T14:20:04Z</time>
      </trkpt>
      <trkpt lat="45.85541" lon="4.77558">
        <ele>564.4</ele>
        <time>2017-02-18T14:20:08Z</time>
      </trkpt>
      <trkpt lat="45.8554" lon="4.7757">
        <ele>564.6</ele>
        <time>2017-02-18T14:20:11Z</time>
      </trkpt>
      <trkpt lat="45.85538" lon="4.77583">
        <ele>564.6</ele>
        <time>2017-02-18T14:20:16Z</time>
      </trkpt>
      <trkpt lat="45.85536" lon="4.77594">
        <ele>565</ele>
        <time>2017-02-18T14:20:20Z</time>
      </trkpt>
      <trkpt lat="45.85532" lon="4.77607">
        <ele>565.2</ele>
        <time>2017-02-18T14:20:24Z</time>
      </trkpt>
      <trkpt lat="45.85531" lon="4.77619">
        <ele>565.5</ele>
        <time>2017-02-18T14:20:28Z</time>
      </trkpt>
      <trkpt lat="45.85528" lon="4.77632">
        <ele>565.9</ele>
        <time>2017-02-18T14:20:32Z</time>
      </trkpt>
      <trkpt lat="45.85525" lon="4.77645">
        <ele>566.1</ele>
        <time>2017-02-18T14:20:37Z</time>
      </trkpt>
      <trkpt lat="45.85521" lon="4.77655">
        <ele>566.1</ele>
        <time>2017-02-18T14:20:41Z</time>
      </trkpt>
      <trkpt lat="45.85519" lon="4.77666">
        <ele>566.1</ele>
        <time>2017-02-18T14:20:44Z</time>
      </trkpt>
      <trkpt lat="45.85515" lon="4.77678">
        <ele>566.1</ele>
        <time>2017-02-18T14:20:48Z</time>
      </trkpt>
      <trkpt lat="45.85509" lon="4.77686">
        <ele>566.2</ele>
        <time>2017-02-18T14:20:52Z</time>
      </trkpt>
      <trkpt lat="45.85504" lon="4.77693">
        <ele>566.3</ele>
        <time>2017-02-18T14:20:55Z</time>
      </trkpt>
      <trkpt lat="45.85496" lon="4.77698">
        <ele>566.3</ele>
        <time>2017-02-18T14:20:58Z</time>
      </trkpt>
      <trkpt lat="45.85489" lon="4.77699">
        <ele>566.4</ele>
        <time>2017-02-18T14:21:01Z</time>
      </trkpt>
      <trkpt lat="45.8548" lon="4.77699">
        <ele>566.8</ele>
        <time>2017-02-18T14:21:05Z</time>
      </trkpt>
      <trkpt lat="45.85471" lon="4.77699">
        <ele>567.1</ele>
        <time>2017-02-18T14:21:09Z</time>
      </trkpt>
      <trkpt lat="45.85461" lon="4.77699">
        <ele>567.6</ele>
        <time>2017-02-18T14:21:13Z</time>
      </trkpt>
      <trkpt lat="45.85453" lon="4.77699">
        <ele>567.9</ele>
        <time>2017-02-18T14:21:17Z</time>
      </trkpt>
      <trkpt lat="45.85444" lon="4.77696">
        <ele>568.3</ele>
        <time>2017-02-18T14:21:22Z</time>
      </trkpt>
      <trkpt lat="45.85437" lon="4.77693">
        <ele>568.6</ele>
        <time>2017-02-18T14:21:25Z</time>
      </trkpt>
      <trkpt lat="45.85428" lon="4.7769">
        <ele>568.9</ele>
        <time>2017-02-18T14:21:29Z</time>
      </trkpt>
      <trkpt lat="45.8542" lon="4.77689">
        <ele>569.1</ele>
        <time>2017-02-18T14:21:32Z</time>
      </trkpt>
      <trkpt lat="45.85412" lon="4.77687">
        <ele>569.5</ele>
        <time>2017-02-18T14:21:36Z</time>
      </trkpt>
      <trkpt lat="45.85402" lon="4.77684">
        <ele>569.9</ele>
        <time>2017-02-18T14:21:40Z</time>
      </trkpt>
      <trkpt lat="45.85393" lon="4.77682">
        <ele>570.1</ele>
        <time>2017-02-18T14:21:44Z</time>
      </trkpt>
      <trkpt lat="45.85385" lon="4.77678">
        <ele>570.2</ele>
        <time>2017-02-18T14:21:48Z</time>
      </trkpt>
      <trkpt lat="45.85376" lon="4.77674">
        <ele>570.5</ele>
        <time>2017-02-18T14:21:52Z</time>
      </trkpt>
      <trkpt lat="45.85367" lon="4.77671">
        <ele>570.9</ele>
        <time>2017-02-18T14:21:56Z</time>
      </trkpt>
      <trkpt lat="45.8536" lon="4.77668">
        <ele>571.3</ele>
        <time>2017-02-18T14:21:59Z</time>
      </trkpt>
      <trkpt lat="45.85351" lon="4.77665">
        <ele>571.7</ele>
        <time>2017-02-18T14:22:03Z</time>
      </trkpt>
      <trkpt lat="45.85342" lon="4.77663">
        <ele>572</ele>
        <time>2017-02-18T14:22:07Z</time>
      </trkpt>
      <trkpt lat="45.85335" lon="4.77661">
        <ele>572.2</ele>
        <time>2017-02-18T14:22:10Z</time>
      </trkpt>
      <trkpt lat="45.85327" lon="4.77661">
        <ele>572.6</ele>
        <time>2017-02-18T14:22:13Z</time>
      </trkpt>
      <trkpt lat="45.85317" lon="4.77663">
        <ele>573.1</ele>
        <time>2017-02-18T14:22:16Z</time>
      </trkpt>
      <trkpt lat="45.85309" lon="4.77665">
        <ele>575.7</ele>
        <time>2017-02-18T14:22:18Z</time>
      </trkpt>
      <trkpt lat="45.853" lon="4.77671">
        <ele>576.1</ele>
        <time>2017-02-18T14:22:20Z</time>
      </trkpt>
      <trkpt lat="45.85292" lon="4.77679">
        <ele>576</ele>
        <time>2017-02-18T14:22:23Z</time>
      </trkpt>
      <trkpt lat="45.85286" lon="4.77685">
        <ele>575.9</ele>
        <time>2017-02-18T14:22:25Z</time>
      </trkpt>
      <trkpt lat="45.85281" lon="4.77694">
        <ele>575.7</ele>
        <time>2017-02-18T14:22:28Z</time>
      </trkpt>
      <trkpt lat="45.85275" lon="4.77699">
        <ele>575.6</ele>
        <time>2017-02-18T14:22:31Z</time>
      </trkpt>
      <trkpt lat="45.85272" lon="4.77695">
        <ele>575.4</ele>
        <time>2017-02-18T14:22:38Z</time>
      </trkpt>
      <trkpt lat="45.85273" lon="4.77694">
        <ele>574</ele>
        <time>2017-02-18T14:22:45Z</time>
      </trkpt>
      <trkpt lat="45.85274" lon="4.77702">
        <ele>574</ele>
        <time>2017-02-18T14:22:52Z</time>
      </trkpt>
      <trkpt lat="45.85273" lon="4.77705">
        <ele>573</ele>
        <time>2017-02-18T14:22:59Z</time>
      </trkpt>
      <trkpt lat="45.85273" lon="4.77707">
        <ele>573</ele>
        <time>2017-02-18T14:23:06Z</time>
      </trkpt>
      <trkpt lat="45.85273" lon="4.77707">
        <ele>572.3</ele>
        <time>2017-02-18T14:23:13Z</time>
      </trkpt>
      <trkpt lat="45.85272" lon="4.7771">
        <ele>570.9</ele>
        <time>2017-02-18T14:23:20Z</time>
      </trkpt>
      <trkpt lat="45.85267" lon="4.77706">
        <ele>569.7</ele>
        <time>2017-02-18T14:23:27Z</time>
      </trkpt>
      <trkpt lat="45.85263" lon="4.77708">
        <ele>569.9</ele>
        <time>2017-02-18T14:23:34Z</time>
      </trkpt>
      <trkpt lat="45.85263" lon="4.77708">
        <ele>569.8</ele>
        <time>2017-02-18T14:23:36Z</time>
      </trkpt>
      <trkpt lat="45.85259" lon="4.77704">
        <ele>567.1</ele>
        <time>2017-02-18T14:23:44Z</time>
      </trkpt>
      <trkpt lat="45.85259" lon="4.77702">
        <ele>566.9</ele>
        <time>2017-02-18T14:23:51Z</time>
      </trkpt>
      <trkpt lat="45.85259" lon="4.77701">
        <ele>566.8</ele>
        <time>2017-02-18T14:23:52Z</time>
      </trkpt>
      <trkpt lat="45.85253" lon="4.7769">
        <ele>565.6</ele>
        <time>2017-02-18T14:24:04Z</time>
      </trkpt>
      <trkpt lat="45.85248" lon="4.77682">
        <ele>566</ele>
        <time>2017-02-18T14:24:08Z</time>
      </trkpt>
      <trkpt lat="45.85242" lon="4.77672">
        <ele>566.7</ele>
        <time>2017-02-18T14:24:12Z</time>
      </trkpt>
      <trkpt lat="45.85237" lon="4.77664">
        <ele>567.2</ele>
        <time>2017-02-18T14:24:15Z</time>
      </trkpt>
      <trkpt lat="45.85232" lon="4.77656">
        <ele>567.9</ele>
        <time>2017-02-18T14:24:19Z</time>
      </trkpt>
      <trkpt lat="45.85225" lon="4.77647">
        <ele>568.6</ele>
        <time>2017-02-18T14:24:23Z</time>
      </trkpt>
      <trkpt lat="45.85219" lon="4.77638">
        <ele>569.3</ele>
        <time>2017-02-18T14:24:27Z</time>
      </trkpt>
      <trkpt lat="45.85214" lon="4.77631">
        <ele>569.8</ele>
        <time>2017-02-18T14:24:30Z</time>
      </trkpt>
      <trkpt lat="45.85208" lon="4.77623">
        <ele>570.5</ele>
        <time>2017-02-18T14:24:34Z</time>
      </trkpt>
      <trkpt lat="45.85202" lon="4.77617">
        <ele>571.4</ele>
        <time>2017-02-18T14:24:38Z</time>
      </trkpt>
      <trkpt lat="45.85196" lon="4.7761">
        <ele>572.2</ele>
        <time>2017-02-18T14:24:42Z</time>
      </trkpt>
      <trkpt lat="45.85189" lon="4.77604">
        <ele>572.8</ele>
        <time>2017-02-18T14:24:46Z</time>
      </trkpt>
      <trkpt lat="45.85182" lon="4.77601">
        <ele>573.8</ele>
        <time>2017-02-18T14:24:53Z</time>
      </trkpt>
      <trkpt lat="45.85177" lon="4.77607">
        <ele>574.3</ele>
        <time>2017-02-18T14:24:58Z</time>
      </trkpt>
      <trkpt lat="45.85171" lon="4.77613">
        <ele>574.8</ele>
        <time>2017-02-18T14:25:05Z</time>
      </trkpt>
      <trkpt lat="45.85165" lon="4.77614">
        <ele>575.9</ele>
        <time>2017-02-18T14:25:12Z</time>
      </trkpt>
      <trkpt lat="45.8516" lon="4.77612">
        <ele>577.8</ele>
        <time>2017-02-18T14:25:19Z</time>
      </trkpt>
      <trkpt lat="45.85155" lon="4.77615">
        <ele>580.1</ele>
        <time>2017-02-18T14:25:26Z</time>
      </trkpt>
      <trkpt lat="45.8515" lon="4.77618">
        <ele>582.1</ele>
        <time>2017-02-18T14:25:33Z</time>
      </trkpt>
      <trkpt lat="45.85146" lon="4.77619">
        <ele>584.1</ele>
        <time>2017-02-18T14:25:40Z</time>
      </trkpt>
      <trkpt lat="45.85139" lon="4.77622">
        <ele>585.4</ele>
        <time>2017-02-18T14:25:47Z</time>
      </trkpt>
      <trkpt lat="45.85134" lon="4.77621">
        <ele>586.9</ele>
        <time>2017-02-18T14:25:54Z</time>
      </trkpt>
      <trkpt lat="45.85132" lon="4.77621">
        <ele>588.6</ele>
        <time>2017-02-18T14:26:01Z</time>
      </trkpt>
      <trkpt lat="45.85129" lon="4.77623">
        <ele>589.6</ele>
        <time>2017-02-18T14:26:08Z</time>
      </trkpt>
      <trkpt lat="45.85125" lon="4.77624">
        <ele>590.6</ele>
        <time>2017-02-18T14:26:15Z</time>
      </trkpt>
      <trkpt lat="45.85121" lon="4.77623">
        <ele>591.3</ele>
        <time>2017-02-18T14:26:22Z</time>
      </trkpt>
      <trkpt lat="45.85117" lon="4.77627">
        <ele>592.5</ele>
        <time>2017-02-18T14:26:29Z</time>
      </trkpt>
      <trkpt lat="45.85113" lon="4.77627">
        <ele>593.6</ele>
        <time>2017-02-18T14:26:36Z</time>
      </trkpt>
      <trkpt lat="45.85108" lon="4.7763">
        <ele>595.3</ele>
        <time>2017-02-18T14:26:43Z</time>
      </trkpt>
      <trkpt lat="45.85105" lon="4.7763">
        <ele>596.1</ele>
        <time>2017-02-18T14:26:50Z</time>
      </trkpt>
      <trkpt lat="45.85101" lon="4.77632">
        <ele>596.6</ele>
        <time>2017-02-18T14:26:57Z</time>
      </trkpt>
      <trkpt lat="45.85098" lon="4.77633">
        <ele>596.7</ele>
        <time>2017-02-18T14:27:04Z</time>
      </trkpt>
      <trkpt lat="45.85094" lon="4.77633">
        <ele>597.6</ele>
        <time>2017-02-18T14:27:11Z</time>
      </trkpt>
      <trkpt lat="45.8509" lon="4.77633">
        <ele>598.1</ele>
        <time>2017-02-18T14:27:18Z</time>
      </trkpt>
      <trkpt lat="45.85087" lon="4.77634">
        <ele>598.6</ele>
        <time>2017-02-18T14:27:25Z</time>
      </trkpt>
      <trkpt lat="45.85083" lon="4.77634">
        <ele>599.6</ele>
        <time>2017-02-18T14:27:32Z</time>
      </trkpt>
      <trkpt lat="45.8508" lon="4.77633">
        <ele>599.9</ele>
        <time>2017-02-18T14:27:39Z</time>
      </trkpt>
      <trkpt lat="45.85077" lon="4.77634">
        <ele>601.2</ele>
        <time>2017-02-18T14:27:46Z</time>
      </trkpt>
      <trkpt lat="45.85074" lon="4.77636">
        <ele>602.8</ele>
        <time>2017-02-18T14:27:53Z</time>
      </trkpt>
      <trkpt lat="45.85067" lon="4.77638">
        <ele>604.2</ele>
        <time>2017-02-18T14:28:00Z</time>
      </trkpt>
      <trkpt lat="45.85061" lon="4.7764">
        <ele>605.4</ele>
        <time>2017-02-18T14:28:07Z</time>
      </trkpt>
      <trkpt lat="45.85056" lon="4.77642">
        <ele>606.3</ele>
        <time>2017-02-18T14:28:14Z</time>
      </trkpt>
      <trkpt lat="45.85054" lon="4.77643">
        <ele>606.5</ele>
        <time>2017-02-18T14:28:21Z</time>
      </trkpt>
      <trkpt lat="45.85053" lon="4.77642">
        <ele>607.7</ele>
        <time>2017-02-18T14:28:28Z</time>
      </trkpt>
      <trkpt lat="45.85051" lon="4.77644">
        <ele>608.1</ele>
        <time>2017-02-18T14:28:36Z</time>
      </trkpt>
      <trkpt lat="45.8505" lon="4.7764">
        <ele>608.8</ele>
        <time>2017-02-18T14:28:43Z</time>
      </trkpt>
      <trkpt lat="45.85049" lon="4.77637">
        <ele>609.7</ele>
        <time>2017-02-18T14:28:50Z</time>
      </trkpt>
      <trkpt lat="45.85046" lon="4.77638">
        <ele>609.8</ele>
        <time>2017-02-18T14:28:57Z</time>
      </trkpt>
      <trkpt lat="45.85044" lon="4.77638">
        <ele>609.7</ele>
        <time>2017-02-18T14:29:04Z</time>
      </trkpt>
      <trkpt lat="45.85044" lon="4.77638">
        <ele>609.6</ele>
        <time>2017-02-18T14:29:10Z</time>
      </trkpt>
      <trkpt lat="45.85043" lon="4.77636">
        <ele>608.9</ele>
        <time>2017-02-18T14:29:20Z</time>
      </trkpt>
      <trkpt lat="45.85035" lon="4.77634">
        <ele>608.9</ele>
        <time>2017-02-18T14:29:25Z</time>
      </trkpt>
      <trkpt lat="45.85026" lon="4.77633">
        <ele>609</ele>
        <time>2017-02-18T14:29:31Z</time>
      </trkpt>
      <trkpt lat="45.85018" lon="4.7763">
        <ele>609.1</ele>
        <time>2017-02-18T14:29:38Z</time>
      </trkpt>
      <trkpt lat="45.8501" lon="4.77628">
        <ele>609.2</ele>
        <time>2017-02-18T14:29:43Z</time>
      </trkpt>
      <trkpt lat="45.85002" lon="4.77624">
        <ele>609.3</ele>
        <time>2017-02-18T14:29:48Z</time>
      </trkpt>
      <trkpt lat="45.84994" lon="4.77624">
        <ele>609.4</ele>
        <time>2017-02-18T14:29:51Z</time>
      </trkpt>
      <trkpt lat="45.84985" lon="4.77621">
        <ele>609.6</ele>
        <time>2017-02-18T14:29:55Z</time>
      </trkpt>
      <trkpt lat="45.84975" lon="4.77619">
        <ele>609.6</ele>
        <time>2017-02-18T14:29:58Z</time>
      </trkpt>
      <trkpt lat="45.84965" lon="4.77619">
        <ele>609.7</ele>
        <time>2017-02-18T14:30:01Z</time>
      </trkpt>
      <trkpt lat="45.84957" lon="4.77618">
        <ele>609.7</ele>
        <time>2017-02-18T14:30:04Z</time>
      </trkpt>
      <trkpt lat="45.84947" lon="4.77617">
        <ele>609.7</ele>
        <time>2017-02-18T14:30:07Z</time>
      </trkpt>
      <trkpt lat="45.84937" lon="4.77614">
        <ele>609.9</ele>
        <time>2017-02-18T14:30:10Z</time>
      </trkpt>
      <trkpt lat="45.84927" lon="4.77615">
        <ele>610.2</ele>
        <time>2017-02-18T14:30:13Z</time>
      </trkpt>
      <trkpt lat="45.8492" lon="4.77615">
        <ele>610.3</ele>
        <time>2017-02-18T14:30:15Z</time>
      </trkpt>
      <trkpt lat="45.84911" lon="4.77615">
        <ele>610.4</ele>
        <time>2017-02-18T14:30:17Z</time>
      </trkpt>
      <trkpt lat="45.84903" lon="4.77615">
        <ele>611.6</ele>
        <time>2017-02-18T14:30:19Z</time>
      </trkpt>
      <trkpt lat="45.84895" lon="4.77616">
        <ele>611.3</ele>
        <time>2017-02-18T14:30:21Z</time>
      </trkpt>
      <trkpt lat="45.84885" lon="4.77618">
        <ele>611.3</ele>
        <time>2017-02-18T14:30:23Z</time>
      </trkpt>
      <trkpt lat="45.84873" lon="4.77618">
        <ele>611.1</ele>
        <time>2017-02-18T14:30:25Z</time>
      </trkpt>
      <trkpt lat="45.84863" lon="4.7762">
        <ele>611</ele>
        <time>2017-02-18T14:30:27Z</time>
      </trkpt>
      <trkpt lat="45.84851" lon="4.77622">
        <ele>610.3</ele>
        <time>2017-02-18T14:30:29Z</time>
      </trkpt>
      <trkpt lat="45.84839" lon="4.77625">
        <ele>609.9</ele>
        <time>2017-02-18T14:30:31Z</time>
      </trkpt>
      <trkpt lat="45.84826" lon="4.77626">
        <ele>608.9</ele>
        <time>2017-02-18T14:30:33Z</time>
      </trkpt>
      <trkpt lat="45.84814" lon="4.77627">
        <ele>608.3</ele>
        <time>2017-02-18T14:30:35Z</time>
      </trkpt>
      <trkpt lat="45.84806" lon="4.77628">
        <ele>608.3</ele>
        <time>2017-02-18T14:30:36Z</time>
      </trkpt>
      <trkpt lat="45.84795" lon="4.77626">
        <ele>608</ele>
        <time>2017-02-18T14:30:38Z</time>
      </trkpt>
      <trkpt lat="45.84784" lon="4.77623">
        <ele>606.9</ele>
        <time>2017-02-18T14:30:40Z</time>
      </trkpt>
      <trkpt lat="45.84774" lon="4.77622">
        <ele>606.8</ele>
        <time>2017-02-18T14:30:42Z</time>
      </trkpt>
      <trkpt lat="45.84763" lon="4.77621">
        <ele>606.1</ele>
        <time>2017-02-18T14:30:44Z</time>
      </trkpt>
      <trkpt lat="45.84755" lon="4.77618">
        <ele>605.9</ele>
        <time>2017-02-18T14:30:46Z</time>
      </trkpt>
      <trkpt lat="45.84747" lon="4.77614">
        <ele>605.7</ele>
        <time>2017-02-18T14:30:48Z</time>
      </trkpt>
      <trkpt lat="45.84738" lon="4.7761">
        <ele>605</ele>
        <time>2017-02-18T14:30:50Z</time>
      </trkpt>
      <trkpt lat="45.84731" lon="4.77605">
        <ele>604.4</ele>
        <time>2017-02-18T14:30:52Z</time>
      </trkpt>
      <trkpt lat="45.84724" lon="4.77602">
        <ele>604.4</ele>
        <time>2017-02-18T14:30:54Z</time>
      </trkpt>
      <trkpt lat="45.84719" lon="4.77595">
        <ele>604.3</ele>
        <time>2017-02-18T14:30:57Z</time>
      </trkpt>
      <trkpt lat="45.84712" lon="4.77586">
        <ele>604.2</ele>
        <time>2017-02-18T14:31:00Z</time>
      </trkpt>
      <trkpt lat="45.84705" lon="4.77579">
        <ele>604.1</ele>
        <time>2017-02-18T14:31:03Z</time>
      </trkpt>
      <trkpt lat="45.84699" lon="4.77571">
        <ele>604</ele>
        <time>2017-02-18T14:31:07Z</time>
      </trkpt>
      <trkpt lat="45.84693" lon="4.77578">
        <ele>604.1</ele>
        <time>2017-02-18T14:31:12Z</time>
      </trkpt>
      <trkpt lat="45.84697" lon="4.77589">
        <ele>604</ele>
        <time>2017-02-18T14:31:15Z</time>
      </trkpt>
      <trkpt lat="45.84701" lon="4.776">
        <ele>603.8</ele>
        <time>2017-02-18T14:31:18Z</time>
      </trkpt>
      <trkpt lat="45.84705" lon="4.7761">
        <ele>603.5</ele>
        <time>2017-02-18T14:31:21Z</time>
      </trkpt>
      <trkpt lat="45.84709" lon="4.77621">
        <ele>603.2</ele>
        <time>2017-02-18T14:31:25Z</time>
      </trkpt>
      <trkpt lat="45.84712" lon="4.77632">
        <ele>603</ele>
        <time>2017-02-18T14:31:29Z</time>
      </trkpt>
      <trkpt lat="45.84716" lon="4.77642">
        <ele>602.7</ele>
        <time>2017-02-18T14:31:33Z</time>
      </trkpt>
      <trkpt lat="45.84719" lon="4.77651">
        <ele>602.5</ele>
        <time>2017-02-18T14:31:37Z</time>
      </trkpt>
      <trkpt lat="45.84723" lon="4.77663">
        <ele>602.2</ele>
        <time>2017-02-18T14:31:42Z</time>
      </trkpt>
      <trkpt lat="45.84725" lon="4.77672">
        <ele>602</ele>
        <time>2017-02-18T14:31:46Z</time>
      </trkpt>
      <trkpt lat="45.84725" lon="4.77684">
        <ele>601.8</ele>
        <time>2017-02-18T14:31:52Z</time>
      </trkpt>
      <trkpt lat="45.84724" lon="4.77696">
        <ele>601.8</ele>
        <time>2017-02-18T14:31:57Z</time>
      </trkpt>
      <trkpt lat="45.84723" lon="4.77707">
        <ele>601.8</ele>
        <time>2017-02-18T14:32:02Z</time>
      </trkpt>
      <trkpt lat="45.84721" lon="4.77717">
        <ele>601.8</ele>
        <time>2017-02-18T14:32:07Z</time>
      </trkpt>
      <trkpt lat="45.84718" lon="4.77726">
        <ele>601.7</ele>
        <time>2017-02-18T14:32:11Z</time>
      </trkpt>
      <trkpt lat="45.84714" lon="4.77737">
        <ele>601.7</ele>
        <time>2017-02-18T14:32:16Z</time>
      </trkpt>
      <trkpt lat="45.84711" lon="4.77748">
        <ele>601.6</ele>
        <time>2017-02-18T14:32:21Z</time>
      </trkpt>
      <trkpt lat="45.84709" lon="4.77758">
        <ele>601.5</ele>
        <time>2017-02-18T14:32:26Z</time>
      </trkpt>
      <trkpt lat="45.84706" lon="4.77768">
        <ele>601.5</ele>
        <time>2017-02-18T14:32:31Z</time>
      </trkpt>
      <trkpt lat="45.84702" lon="4.77777">
        <ele>601.4</ele>
        <time>2017-02-18T14:32:36Z</time>
      </trkpt>
      <trkpt lat="45.84699" lon="4.77788">
        <ele>601.4</ele>
        <time>2017-02-18T14:32:41Z</time>
      </trkpt>
      <trkpt lat="45.84695" lon="4.77798">
        <ele>601.4</ele>
        <time>2017-02-18T14:32:46Z</time>
      </trkpt>
      <trkpt lat="45.84692" lon="4.77807">
        <ele>601.5</ele>
        <time>2017-02-18T14:32:50Z</time>
      </trkpt>
      <trkpt lat="45.84689" lon="4.77818">
        <ele>601.6</ele>
        <time>2017-02-18T14:32:55Z</time>
      </trkpt>
      <trkpt lat="45.84686" lon="4.77828">
        <ele>601.8</ele>
        <time>2017-02-18T14:33:00Z</time>
      </trkpt>
      <trkpt lat="45.84682" lon="4.77837">
        <ele>602</ele>
        <time>2017-02-18T14:33:04Z</time>
      </trkpt>
      <trkpt lat="45.84678" lon="4.77845">
        <ele>602.2</ele>
        <time>2017-02-18T14:33:08Z</time>
      </trkpt>
      <trkpt lat="45.84672" lon="4.77854">
        <ele>602.6</ele>
        <time>2017-02-18T14:33:13Z</time>
      </trkpt>
      <trkpt lat="45.84665" lon="4.77861">
        <ele>603.9</ele>
        <time>2017-02-18T14:33:20Z</time>
      </trkpt>
      <trkpt lat="45.84659" lon="4.77868">
        <ele>605.7</ele>
        <time>2017-02-18T14:33:26Z</time>
      </trkpt>
      <trkpt lat="45.84653" lon="4.77874">
        <ele>606.7</ele>
        <time>2017-02-18T14:33:30Z</time>
      </trkpt>
      <trkpt lat="45.84648" lon="4.77882">
        <ele>607.2</ele>
        <time>2017-02-18T14:33:33Z</time>
      </trkpt>
      <trkpt lat="45.84643" lon="4.77891">
        <ele>607.9</ele>
        <time>2017-02-18T14:33:37Z</time>
      </trkpt>
      <trkpt lat="45.84639" lon="4.77902">
        <ele>608.3</ele>
        <time>2017-02-18T14:33:41Z</time>
      </trkpt>
      <trkpt lat="45.84638" lon="4.77912">
        <ele>608.9</ele>
        <time>2017-02-18T14:33:46Z</time>
      </trkpt>
      <trkpt lat="45.84641" lon="4.77922">
        <ele>609.5</ele>
        <time>2017-02-18T14:33:51Z</time>
      </trkpt>
      <trkpt lat="45.84646" lon="4.77928">
        <ele>610</ele>
        <time>2017-02-18T14:33:55Z</time>
      </trkpt>
      <trkpt lat="45.84655" lon="4.77931">
        <ele>610.5</ele>
        <time>2017-02-18T14:33:59Z</time>
      </trkpt>
      <trkpt lat="45.84664" lon="4.77927">
        <ele>611</ele>
        <time>2017-02-18T14:34:03Z</time>
      </trkpt>
      <trkpt lat="45.8467" lon="4.77921">
        <ele>611.6</ele>
        <time>2017-02-18T14:34:06Z</time>
      </trkpt>
      <trkpt lat="45.84676" lon="4.77914">
        <ele>612.5</ele>
        <time>2017-02-18T14:34:10Z</time>
      </trkpt>
      <trkpt lat="45.84681" lon="4.77906">
        <ele>614</ele>
        <time>2017-02-18T14:34:15Z</time>
      </trkpt>
      <trkpt lat="45.84686" lon="4.77896">
        <ele>615.1</ele>
        <time>2017-02-18T14:34:19Z</time>
      </trkpt>
      <trkpt lat="45.84691" lon="4.77886">
        <ele>616.4</ele>
        <time>2017-02-18T14:34:24Z</time>
      </trkpt>
      <trkpt lat="45.84695" lon="4.77877">
        <ele>617.4</ele>
        <time>2017-02-18T14:34:28Z</time>
      </trkpt>
      <trkpt lat="45.84698" lon="4.77866">
        <ele>618.3</ele>
        <time>2017-02-18T14:34:32Z</time>
      </trkpt>
      <trkpt lat="45.84702" lon="4.77854">
        <ele>618.9</ele>
        <time>2017-02-18T14:34:36Z</time>
      </trkpt>
      <trkpt lat="45.84707" lon="4.77844">
        <ele>619.5</ele>
        <time>2017-02-18T14:34:41Z</time>
      </trkpt>
      <trkpt lat="45.84713" lon="4.77838">
        <ele>620.3</ele>
        <time>2017-02-18T14:34:45Z</time>
      </trkpt>
      <trkpt lat="45.84721" lon="4.77833">
        <ele>620.8</ele>
        <time>2017-02-18T14:34:50Z</time>
      </trkpt>
      <trkpt lat="45.84728" lon="4.77839">
        <ele>621</ele>
        <time>2017-02-18T14:34:55Z</time>
      </trkpt>
      <trkpt lat="45.84731" lon="4.77849">
        <ele>621.1</ele>
        <time>2017-02-18T14:34:59Z</time>
      </trkpt>
      <trkpt lat="45.84732" lon="4.7786">
        <ele>621.1</ele>
        <time>2017-02-18T14:35:03Z</time>
      </trkpt>
      <trkpt lat="45.84729" lon="4.7787">
        <ele>621.1</ele>
        <time>2017-02-18T14:35:07Z</time>
      </trkpt>
      <trkpt lat="45.84725" lon="4.77882">
        <ele>620.9</ele>
        <time>2017-02-18T14:35:12Z</time>
      </trkpt>
      <trkpt lat="45.84721" lon="4.77891">
        <ele>620.7</ele>
        <time>2017-02-18T14:35:17Z</time>
      </trkpt>
      <trkpt lat="45.84717" lon="4.779">
        <ele>620.7</ele>
        <time>2017-02-18T14:35:22Z</time>
      </trkpt>
      <trkpt lat="45.84713" lon="4.7791">
        <ele>620.8</ele>
        <time>2017-02-18T14:35:27Z</time>
      </trkpt>
      <trkpt lat="45.84707" lon="4.77919">
        <ele>621</ele>
        <time>2017-02-18T14:35:32Z</time>
      </trkpt>
      <trkpt lat="45.84704" lon="4.77929">
        <ele>621.2</ele>
        <time>2017-02-18T14:35:37Z</time>
      </trkpt>
      <trkpt lat="45.847" lon="4.77939">
        <ele>621.4</ele>
        <time>2017-02-18T14:35:42Z</time>
      </trkpt>
      <trkpt lat="45.84696" lon="4.77949">
        <ele>621.5</ele>
        <time>2017-02-18T14:35:47Z</time>
      </trkpt>
      <trkpt lat="45.84691" lon="4.77958">
        <ele>621.7</ele>
        <time>2017-02-18T14:35:52Z</time>
      </trkpt>
      <trkpt lat="45.84687" lon="4.77967">
        <ele>621.9</ele>
        <time>2017-02-18T14:35:57Z</time>
      </trkpt>
      <trkpt lat="45.84683" lon="4.77977">
        <ele>622.2</ele>
        <time>2017-02-18T14:36:03Z</time>
      </trkpt>
      <trkpt lat="45.84679" lon="4.77987">
        <ele>622.9</ele>
        <time>2017-02-18T14:36:10Z</time>
      </trkpt>
      <trkpt lat="45.84678" lon="4.77997">
        <ele>623.3</ele>
        <time>2017-02-18T14:36:14Z</time>
      </trkpt>
      <trkpt lat="45.84676" lon="4.78009">
        <ele>624.8</ele>
        <time>2017-02-18T14:36:21Z</time>
      </trkpt>
      <trkpt lat="45.84676" lon="4.7802">
        <ele>625.5</ele>
        <time>2017-02-18T14:36:24Z</time>
      </trkpt>
      <trkpt lat="45.84677" lon="4.7803">
        <ele>626.2</ele>
        <time>2017-02-18T14:36:27Z</time>
      </trkpt>
      <trkpt lat="45.84679" lon="4.78041">
        <ele>627.4</ele>
        <time>2017-02-18T14:36:32Z</time>
      </trkpt>
      <trkpt lat="45.84678" lon="4.78045">
        <ele>628.2</ele>
        <time>2017-02-18T14:36:39Z</time>
      </trkpt>
      <trkpt lat="45.8468" lon="4.78047">
        <ele>629.1</ele>
        <time>2017-02-18T14:36:46Z</time>
      </trkpt>
      <trkpt lat="45.84676" lon="4.78045">
        <ele>629.2</ele>
        <time>2017-02-18T14:36:53Z</time>
      </trkpt>
      <trkpt lat="45.8467" lon="4.78051">
        <ele>629.3</ele>
        <time>2017-02-18T14:36:58Z</time>
      </trkpt>
      <trkpt lat="45.84664" lon="4.78057">
        <ele>629.5</ele>
        <time>2017-02-18T14:37:04Z</time>
      </trkpt>
      <trkpt lat="45.84662" lon="4.78059">
        <ele>630.4</ele>
        <time>2017-02-18T14:37:11Z</time>
      </trkpt>
      <trkpt lat="45.84666" lon="4.78052">
        <ele>631.2</ele>
        <time>2017-02-18T14:37:18Z</time>
      </trkpt>
      <trkpt lat="45.84675" lon="4.78047">
        <ele>631.8</ele>
        <time>2017-02-18T14:37:23Z</time>
      </trkpt>
      <trkpt lat="45.84682" lon="4.78044">
        <ele>632.5</ele>
        <time>2017-02-18T14:37:28Z</time>
      </trkpt>
      <trkpt lat="45.84687" lon="4.78043">
        <ele>633.3</ele>
        <time>2017-02-18T14:37:35Z</time>
      </trkpt>
      <trkpt lat="45.84687" lon="4.78044">
        <ele>633.8</ele>
        <time>2017-02-18T14:37:42Z</time>
      </trkpt>
      <trkpt lat="45.84688" lon="4.78045">
        <ele>634.6</ele>
        <time>2017-02-18T14:37:51Z</time>
      </trkpt>
      <trkpt lat="45.84687" lon="4.78046">
        <ele>634.8</ele>
        <time>2017-02-18T14:37:52Z</time>
      </trkpt>
      <trkpt lat="45.84689" lon="4.78055">
        <ele>635.4</ele>
        <time>2017-02-18T14:37:59Z</time>
      </trkpt>
      <trkpt lat="45.84691" lon="4.78061">
        <ele>636.1</ele>
        <time>2017-02-18T14:38:06Z</time>
      </trkpt>
      <trkpt lat="45.84694" lon="4.78072">
        <ele>636.5</ele>
        <time>2017-02-18T14:38:11Z</time>
      </trkpt>
      <trkpt lat="45.84696" lon="4.78083">
        <ele>637.1</ele>
        <time>2017-02-18T14:38:17Z</time>
      </trkpt>
      <trkpt lat="45.847" lon="4.78096">
        <ele>637.7</ele>
        <time>2017-02-18T14:38:22Z</time>
      </trkpt>
      <trkpt lat="45.84702" lon="4.78107">
        <ele>637.8</ele>
        <time>2017-02-18T14:38:25Z</time>
      </trkpt>
      <trkpt lat="45.84705" lon="4.78119">
        <ele>638.1</ele>
        <time>2017-02-18T14:38:29Z</time>
      </trkpt>
      <trkpt lat="45.84707" lon="4.7813">
        <ele>638.4</ele>
        <time>2017-02-18T14:38:34Z</time>
      </trkpt>
      <trkpt lat="45.84707" lon="4.78143">
        <ele>638.6</ele>
        <time>2017-02-18T14:38:38Z</time>
      </trkpt>
      <trkpt lat="45.84709" lon="4.78156">
        <ele>638.2</ele>
        <time>2017-02-18T14:38:43Z</time>
      </trkpt>
      <trkpt lat="45.84707" lon="4.78168">
        <ele>637.6</ele>
        <time>2017-02-18T14:38:46Z</time>
      </trkpt>
      <trkpt lat="45.84705" lon="4.78179">
        <ele>637.1</ele>
        <time>2017-02-18T14:38:49Z</time>
      </trkpt>
      <trkpt lat="45.84703" lon="4.78191">
        <ele>636.1</ele>
        <time>2017-02-18T14:38:53Z</time>
      </trkpt>
      <trkpt lat="45.847" lon="4.78201">
        <ele>635.3</ele>
        <time>2017-02-18T14:38:56Z</time>
      </trkpt>
      <trkpt lat="45.84699" lon="4.78212">
        <ele>634.4</ele>
        <time>2017-02-18T14:38:59Z</time>
      </trkpt>
      <trkpt lat="45.84697" lon="4.78222">
        <ele>633.4</ele>
        <time>2017-02-18T14:39:03Z</time>
      </trkpt>
      <trkpt lat="45.84694" lon="4.78235">
        <ele>632.8</ele>
        <time>2017-02-18T14:39:06Z</time>
      </trkpt>
      <trkpt lat="45.8469" lon="4.78246">
        <ele>632</ele>
        <time>2017-02-18T14:39:11Z</time>
      </trkpt>
      <trkpt lat="45.84689" lon="4.78259">
        <ele>631.1</ele>
        <time>2017-02-18T14:39:14Z</time>
      </trkpt>
      <trkpt lat="45.84688" lon="4.78271">
        <ele>630.2</ele>
        <time>2017-02-18T14:39:17Z</time>
      </trkpt>
      <trkpt lat="45.84686" lon="4.78283">
        <ele>629.4</ele>
        <time>2017-02-18T14:39:20Z</time>
      </trkpt>
      <trkpt lat="45.84684" lon="4.78294">
        <ele>628.5</ele>
        <time>2017-02-18T14:39:23Z</time>
      </trkpt>
      <trkpt lat="45.84681" lon="4.78304">
        <ele>627.5</ele>
        <time>2017-02-18T14:39:26Z</time>
      </trkpt>
      <trkpt lat="45.84679" lon="4.78317">
        <ele>626.7</ele>
        <time>2017-02-18T14:39:29Z</time>
      </trkpt>
      <trkpt lat="45.84672" lon="4.78327">
        <ele>625.4</ele>
        <time>2017-02-18T14:39:33Z</time>
      </trkpt>
      <trkpt lat="45.84664" lon="4.78332">
        <ele>624.2</ele>
        <time>2017-02-18T14:39:37Z</time>
      </trkpt>
      <trkpt lat="45.84656" lon="4.78337">
        <ele>622.3</ele>
        <time>2017-02-18T14:39:43Z</time>
      </trkpt>
      <trkpt lat="45.84649" lon="4.78344">
        <ele>621.2</ele>
        <time>2017-02-18T14:39:48Z</time>
      </trkpt>
      <trkpt lat="45.84643" lon="4.78351">
        <ele>620</ele>
        <time>2017-02-18T14:39:54Z</time>
      </trkpt>
      <trkpt lat="45.84636" lon="4.78354">
        <ele>619.5</ele>
        <time>2017-02-18T14:39:57Z</time>
      </trkpt>
      <trkpt lat="45.84629" lon="4.78356">
        <ele>618.5</ele>
        <time>2017-02-18T14:40:04Z</time>
      </trkpt>
      <trkpt lat="45.84622" lon="4.78363">
        <ele>617</ele>
        <time>2017-02-18T14:40:11Z</time>
      </trkpt>
      <trkpt lat="45.84616" lon="4.78366">
        <ele>614.8</ele>
        <time>2017-02-18T14:40:18Z</time>
      </trkpt>
      <trkpt lat="45.8461" lon="4.78366">
        <ele>614.5</ele>
        <time>2017-02-18T14:40:25Z</time>
      </trkpt>
      <trkpt lat="45.84602" lon="4.7837">
        <ele>614.9</ele>
        <time>2017-02-18T14:40:32Z</time>
      </trkpt>
      <trkpt lat="45.84598" lon="4.78366">
        <ele>614.9</ele>
        <time>2017-02-18T14:40:39Z</time>
      </trkpt>
      <trkpt lat="45.84593" lon="4.78365">
        <ele>614.4</ele>
        <time>2017-02-18T14:40:46Z</time>
      </trkpt>
      <trkpt lat="45.8459" lon="4.78366">
        <ele>614.1</ele>
        <time>2017-02-18T14:40:53Z</time>
      </trkpt>
      <trkpt lat="45.84583" lon="4.78364">
        <ele>613.9</ele>
        <time>2017-02-18T14:41:00Z</time>
      </trkpt>
      <trkpt lat="45.84575" lon="4.78362">
        <ele>613.3</ele>
        <time>2017-02-18T14:41:06Z</time>
      </trkpt>
      <trkpt lat="45.84568" lon="4.7836">
        <ele>612.6</ele>
        <time>2017-02-18T14:41:11Z</time>
      </trkpt>
      <trkpt lat="45.84561" lon="4.78355">
        <ele>612.4</ele>
        <time>2017-02-18T14:41:16Z</time>
      </trkpt>
      <trkpt lat="45.84554" lon="4.78351">
        <ele>612.5</ele>
        <time>2017-02-18T14:41:19Z</time>
      </trkpt>
      <trkpt lat="45.84548" lon="4.78346">
        <ele>613.2</ele>
        <time>2017-02-18T14:41:26Z</time>
      </trkpt>
      <trkpt lat="45.84538" lon="4.78339">
        <ele>614.1</ele>
        <time>2017-02-18T14:41:30Z</time>
      </trkpt>
      <trkpt lat="45.84528" lon="4.78336">
        <ele>618</ele>
        <time>2017-02-18T14:41:32Z</time>
      </trkpt>
      <trkpt lat="45.84515" lon="4.78333">
        <ele>619.9</ele>
        <time>2017-02-18T14:41:34Z</time>
      </trkpt>
      <trkpt lat="45.84503" lon="4.78332">
        <ele>621.4</ele>
        <time>2017-02-18T14:41:36Z</time>
      </trkpt>
      <trkpt lat="45.84489" lon="4.78334">
        <ele>622.9</ele>
        <time>2017-02-18T14:41:38Z</time>
      </trkpt>
      <trkpt lat="45.84481" lon="4.78335">
        <ele>623.2</ele>
        <time>2017-02-18T14:41:39Z</time>
      </trkpt>
      <trkpt lat="45.84469" lon="4.78336">
        <ele>621.3</ele>
        <time>2017-02-18T14:41:41Z</time>
      </trkpt>
      <trkpt lat="45.84455" lon="4.78334">
        <ele>617.5</ele>
        <time>2017-02-18T14:41:43Z</time>
      </trkpt>
      <trkpt lat="45.84447" lon="4.78332">
        <ele>616.1</ele>
        <time>2017-02-18T14:41:44Z</time>
      </trkpt>
      <trkpt lat="45.84434" lon="4.78327">
        <ele>613.5</ele>
        <time>2017-02-18T14:41:46Z</time>
      </trkpt>
      <trkpt lat="45.84424" lon="4.78324">
        <ele>610.4</ele>
        <time>2017-02-18T14:41:48Z</time>
      </trkpt>
      <trkpt lat="45.84414" lon="4.78319">
        <ele>608.9</ele>
        <time>2017-02-18T14:41:50Z</time>
      </trkpt>
      <trkpt lat="45.84406" lon="4.78315">
        <ele>608.1</ele>
        <time>2017-02-18T14:41:52Z</time>
      </trkpt>
      <trkpt lat="45.84397" lon="4.7831">
        <ele>607.4</ele>
        <time>2017-02-18T14:41:54Z</time>
      </trkpt>
      <trkpt lat="45.84388" lon="4.78309">
        <ele>607.1</ele>
        <time>2017-02-18T14:41:56Z</time>
      </trkpt>
      <trkpt lat="45.84378" lon="4.78309">
        <ele>606.7</ele>
        <time>2017-02-18T14:41:59Z</time>
      </trkpt>
      <trkpt lat="45.84366" lon="4.78313">
        <ele>606.3</ele>
        <time>2017-02-18T14:42:02Z</time>
      </trkpt>
      <trkpt lat="45.84356" lon="4.78318">
        <ele>604.9</ele>
        <time>2017-02-18T14:42:04Z</time>
      </trkpt>
      <trkpt lat="45.84344" lon="4.78319">
        <ele>602.9</ele>
        <time>2017-02-18T14:42:06Z</time>
      </trkpt>
      <trkpt lat="45.84334" lon="4.78318">
        <ele>602.8</ele>
        <time>2017-02-18T14:42:08Z</time>
      </trkpt>
      <trkpt lat="45.84326" lon="4.78318">
        <ele>602.8</ele>
        <time>2017-02-18T14:42:11Z</time>
      </trkpt>
      <trkpt lat="45.84317" lon="4.78322">
        <ele>602.9</ele>
        <time>2017-02-18T14:42:15Z</time>
      </trkpt>
      <trkpt lat="45.84307" lon="4.78324">
        <ele>603.3</ele>
        <time>2017-02-18T14:42:19Z</time>
      </trkpt>
      <trkpt lat="45.84298" lon="4.78325">
        <ele>603.4</ele>
        <time>2017-02-18T14:42:23Z</time>
      </trkpt>
      <trkpt lat="45.8429" lon="4.78325">
        <ele>603.5</ele>
        <time>2017-02-18T14:42:27Z</time>
      </trkpt>
      <trkpt lat="45.84282" lon="4.78328">
        <ele>603.8</ele>
        <time>2017-02-18T14:42:31Z</time>
      </trkpt>
      <trkpt lat="45.84277" lon="4.78335">
        <ele>604.1</ele>
        <time>2017-02-18T14:42:34Z</time>
      </trkpt>
      <trkpt lat="45.8427" lon="4.78341">
        <ele>604.2</ele>
        <time>2017-02-18T14:42:37Z</time>
      </trkpt>
      <trkpt lat="45.84265" lon="4.78349">
        <ele>604.1</ele>
        <time>2017-02-18T14:42:40Z</time>
      </trkpt>
      <trkpt lat="45.84261" lon="4.7836">
        <ele>603.9</ele>
        <time>2017-02-18T14:42:43Z</time>
      </trkpt>
      <trkpt lat="45.8426" lon="4.78371">
        <ele>603.6</ele>
        <time>2017-02-18T14:42:46Z</time>
      </trkpt>
      <trkpt lat="45.84257" lon="4.78383">
        <ele>602.9</ele>
        <time>2017-02-18T14:42:50Z</time>
      </trkpt>
      <trkpt lat="45.84258" lon="4.78395">
        <ele>602.4</ele>
        <time>2017-02-18T14:42:55Z</time>
      </trkpt>
      <trkpt lat="45.8426" lon="4.78407">
        <ele>602.1</ele>
        <time>2017-02-18T14:42:59Z</time>
      </trkpt>
      <trkpt lat="45.8426" lon="4.78418">
        <ele>601.8</ele>
        <time>2017-02-18T14:43:03Z</time>
      </trkpt>
      <trkpt lat="45.84261" lon="4.7843">
        <ele>601.3</ele>
        <time>2017-02-18T14:43:08Z</time>
      </trkpt>
      <trkpt lat="45.84264" lon="4.78442">
        <ele>601.2</ele>
        <time>2017-02-18T14:43:13Z</time>
      </trkpt>
      <trkpt lat="45.84265" lon="4.78453">
        <ele>601</ele>
        <time>2017-02-18T14:43:17Z</time>
      </trkpt>
      <trkpt lat="45.84266" lon="4.78464">
        <ele>600.8</ele>
        <time>2017-02-18T14:43:21Z</time>
      </trkpt>
      <trkpt lat="45.84268" lon="4.78476">
        <ele>600.5</ele>
        <time>2017-02-18T14:43:25Z</time>
      </trkpt>
      <trkpt lat="45.8427" lon="4.78485">
        <ele>600.4</ele>
        <time>2017-02-18T14:43:29Z</time>
      </trkpt>
      <trkpt lat="45.84273" lon="4.78496">
        <ele>600.2</ele>
        <time>2017-02-18T14:43:34Z</time>
      </trkpt>
      <trkpt lat="45.84273" lon="4.78509">
        <ele>600.6</ele>
        <time>2017-02-18T14:43:40Z</time>
      </trkpt>
      <trkpt lat="45.84274" lon="4.78523">
        <ele>601.2</ele>
        <time>2017-02-18T14:43:45Z</time>
      </trkpt>
      <trkpt lat="45.84277" lon="4.78536">
        <ele>601.6</ele>
        <time>2017-02-18T14:43:49Z</time>
      </trkpt>
      <trkpt lat="45.84277" lon="4.78547">
        <ele>601.7</ele>
        <time>2017-02-18T14:43:53Z</time>
      </trkpt>
      <trkpt lat="45.8428" lon="4.78557">
        <ele>602.3</ele>
        <time>2017-02-18T14:43:59Z</time>
      </trkpt>
      <trkpt lat="45.84283" lon="4.78567">
        <ele>602.7</ele>
        <time>2017-02-18T14:44:03Z</time>
      </trkpt>
      <trkpt lat="45.84285" lon="4.78578">
        <ele>603</ele>
        <time>2017-02-18T14:44:07Z</time>
      </trkpt>
      <trkpt lat="45.84286" lon="4.78588">
        <ele>603.1</ele>
        <time>2017-02-18T14:44:11Z</time>
      </trkpt>
      <trkpt lat="45.84283" lon="4.78599">
        <ele>603.6</ele>
        <time>2017-02-18T14:44:16Z</time>
      </trkpt>
      <trkpt lat="45.84279" lon="4.78608">
        <ele>604.1</ele>
        <time>2017-02-18T14:44:20Z</time>
      </trkpt>
      <trkpt lat="45.84275" lon="4.78617">
        <ele>604.4</ele>
        <time>2017-02-18T14:44:23Z</time>
      </trkpt>
      <trkpt lat="45.84272" lon="4.78626">
        <ele>604.7</ele>
        <time>2017-02-18T14:44:26Z</time>
      </trkpt>
      <trkpt lat="45.84268" lon="4.7864">
        <ele>605.5</ele>
        <time>2017-02-18T14:44:31Z</time>
      </trkpt>
      <trkpt lat="45.84264" lon="4.78648">
        <ele>606.2</ele>
        <time>2017-02-18T14:44:34Z</time>
      </trkpt>
      <trkpt lat="45.84259" lon="4.78657">
        <ele>606.7</ele>
        <time>2017-02-18T14:44:37Z</time>
      </trkpt>
      <trkpt lat="45.84254" lon="4.78667">
        <ele>607.6</ele>
        <time>2017-02-18T14:44:42Z</time>
      </trkpt>
      <trkpt lat="45.84251" lon="4.78676">
        <ele>608.5</ele>
        <time>2017-02-18T14:44:46Z</time>
      </trkpt>
      <trkpt lat="45.84247" lon="4.78687">
        <ele>609.1</ele>
        <time>2017-02-18T14:44:49Z</time>
      </trkpt>
      <trkpt lat="45.84244" lon="4.78697">
        <ele>609.4</ele>
        <time>2017-02-18T14:44:53Z</time>
      </trkpt>
      <trkpt lat="45.8424" lon="4.78707">
        <ele>610</ele>
        <time>2017-02-18T14:44:58Z</time>
      </trkpt>
      <trkpt lat="45.84236" lon="4.78716">
        <ele>610.2</ele>
        <time>2017-02-18T14:45:02Z</time>
      </trkpt>
      <trkpt lat="45.84232" lon="4.78726">
        <ele>610.2</ele>
        <time>2017-02-18T14:45:06Z</time>
      </trkpt>
      <trkpt lat="45.84229" lon="4.78738">
        <ele>610</ele>
        <time>2017-02-18T14:45:11Z</time>
      </trkpt>
      <trkpt lat="45.84227" lon="4.78749">
        <ele>610</ele>
        <time>2017-02-18T14:45:15Z</time>
      </trkpt>
      <trkpt lat="45.84225" lon="4.78761">
        <ele>610</ele>
        <time>2017-02-18T14:45:20Z</time>
      </trkpt>
      <trkpt lat="45.84223" lon="4.78771">
        <ele>609.7</ele>
        <time>2017-02-18T14:45:24Z</time>
      </trkpt>
      <trkpt lat="45.84222" lon="4.78783">
        <ele>609.8</ele>
        <time>2017-02-18T14:45:28Z</time>
      </trkpt>
      <trkpt lat="45.84219" lon="4.78794">
        <ele>610.1</ele>
        <time>2017-02-18T14:45:33Z</time>
      </trkpt>
      <trkpt lat="45.84215" lon="4.78808">
        <ele>610.4</ele>
        <time>2017-02-18T14:45:38Z</time>
      </trkpt>
      <trkpt lat="45.84215" lon="4.7882">
        <ele>610.5</ele>
        <time>2017-02-18T14:45:42Z</time>
      </trkpt>
      <trkpt lat="45.84214" lon="4.7883">
        <ele>610.5</ele>
        <time>2017-02-18T14:45:46Z</time>
      </trkpt>
      <trkpt lat="45.84213" lon="4.78843">
        <ele>610.5</ele>
        <time>2017-02-18T14:45:50Z</time>
      </trkpt>
      <trkpt lat="45.84213" lon="4.78848">
        <ele>610.2</ele>
        <time>2017-02-18T14:45:57Z</time>
      </trkpt>
      <trkpt lat="45.84212" lon="4.78851">
        <ele>609.9</ele>
        <time>2017-02-18T14:46:04Z</time>
      </trkpt>
      <trkpt lat="45.84212" lon="4.78855">
        <ele>610</ele>
        <time>2017-02-18T14:46:11Z</time>
      </trkpt>
      <trkpt lat="45.84208" lon="4.7886">
        <ele>610.4</ele>
        <time>2017-02-18T14:46:18Z</time>
      </trkpt>
      <trkpt lat="45.84208" lon="4.78849">
        <ele>611.8</ele>
        <time>2017-02-18T14:46:25Z</time>
      </trkpt>
      <trkpt lat="45.8421" lon="4.78846">
        <ele>613.4</ele>
        <time>2017-02-18T14:46:32Z</time>
      </trkpt>
      <trkpt lat="45.84214" lon="4.78843">
        <ele>614.3</ele>
        <time>2017-02-18T14:46:39Z</time>
      </trkpt>
      <trkpt lat="45.84213" lon="4.78843">
        <ele>614.7</ele>
        <time>2017-02-18T14:46:46Z</time>
      </trkpt>
      <trkpt lat="45.84213" lon="4.78847">
        <ele>614.4</ele>
        <time>2017-02-18T14:46:53Z</time>
      </trkpt>
      <trkpt lat="45.8421" lon="4.78845">
        <ele>613.1</ele>
        <time>2017-02-18T14:47:00Z</time>
      </trkpt>
      <trkpt lat="45.84209" lon="4.78834">
        <ele>612.7</ele>
        <time>2017-02-18T14:47:03Z</time>
      </trkpt>
      <trkpt lat="45.84208" lon="4.78818">
        <ele>612.3</ele>
        <time>2017-02-18T14:47:06Z</time>
      </trkpt>
      <trkpt lat="45.84207" lon="4.78813">
        <ele>611.8</ele>
        <time>2017-02-18T14:47:13Z</time>
      </trkpt>
      <trkpt lat="45.84209" lon="4.78816">
        <ele>612.2</ele>
        <time>2017-02-18T14:47:20Z</time>
      </trkpt>
      <trkpt lat="45.84212" lon="4.7882">
        <ele>613.3</ele>
        <time>2017-02-18T14:47:27Z</time>
      </trkpt>
      <trkpt lat="45.84213" lon="4.78808">
        <ele>614.6</ele>
        <time>2017-02-18T14:47:33Z</time>
      </trkpt>
      <trkpt lat="45.84208" lon="4.78818">
        <ele>614.6</ele>
        <time>2017-02-18T14:47:40Z</time>
      </trkpt>
      <trkpt lat="45.84204" lon="4.78829">
        <ele>614.3</ele>
        <time>2017-02-18T14:47:45Z</time>
      </trkpt>
      <trkpt lat="45.84204" lon="4.78841">
        <ele>613.9</ele>
        <time>2017-02-18T14:47:49Z</time>
      </trkpt>
      <trkpt lat="45.84199" lon="4.78843">
        <ele>613.5</ele>
        <time>2017-02-18T14:47:56Z</time>
      </trkpt>
      <trkpt lat="45.84198" lon="4.78843">
        <ele>612.7</ele>
        <time>2017-02-18T14:48:03Z</time>
      </trkpt>
      <trkpt lat="45.84203" lon="4.78852">
        <ele>612.2</ele>
        <time>2017-02-18T14:48:10Z</time>
      </trkpt>
      <trkpt lat="45.84204" lon="4.78862">
        <ele>612.2</ele>
        <time>2017-02-18T14:48:12Z</time>
      </trkpt>
      <trkpt lat="45.84206" lon="4.78873">
        <ele>612</ele>
        <time>2017-02-18T14:48:14Z</time>
      </trkpt>
      <trkpt lat="45.84208" lon="4.78889">
        <ele>610.1</ele>
        <time>2017-02-18T14:48:17Z</time>
      </trkpt>
      <trkpt lat="45.84206" lon="4.78904">
        <ele>608.8</ele>
        <time>2017-02-18T14:48:19Z</time>
      </trkpt>
      <trkpt lat="45.84202" lon="4.78919">
        <ele>607.8</ele>
        <time>2017-02-18T14:48:21Z</time>
      </trkpt>
      <trkpt lat="45.84197" lon="4.78929">
        <ele>607.6</ele>
        <time>2017-02-18T14:48:23Z</time>
      </trkpt>
      <trkpt lat="45.84193" lon="4.78939">
        <ele>607.7</ele>
        <time>2017-02-18T14:48:28Z</time>
      </trkpt>
      <trkpt lat="45.84192" lon="4.78945">
        <ele>607.5</ele>
        <time>2017-02-18T14:48:35Z</time>
      </trkpt>
      <trkpt lat="45.84192" lon="4.78939">
        <ele>607.2</ele>
        <time>2017-02-18T14:48:42Z</time>
      </trkpt>
      <trkpt lat="45.84191" lon="4.78937">
        <ele>607.5</ele>
        <time>2017-02-18T14:48:49Z</time>
      </trkpt>
      <trkpt lat="45.84188" lon="4.78932">
        <ele>607.2</ele>
        <time>2017-02-18T14:48:56Z</time>
      </trkpt>
      <trkpt lat="45.84187" lon="4.78929">
        <ele>606.7</ele>
        <time>2017-02-18T14:49:03Z</time>
      </trkpt>
      <trkpt lat="45.84187" lon="4.78929">
        <ele>606.2</ele>
        <time>2017-02-18T14:49:10Z</time>
      </trkpt>
      <trkpt lat="45.84182" lon="4.78937">
        <ele>605.9</ele>
        <time>2017-02-18T14:49:16Z</time>
      </trkpt>
      <trkpt lat="45.84185" lon="4.78946">
        <ele>606</ele>
        <time>2017-02-18T14:49:22Z</time>
      </trkpt>
      <trkpt lat="45.84194" lon="4.78944">
        <ele>606.2</ele>
        <time>2017-02-18T14:49:27Z</time>
      </trkpt>
      <trkpt lat="45.84201" lon="4.78937">
        <ele>606.6</ele>
        <time>2017-02-18T14:49:31Z</time>
      </trkpt>
      <trkpt lat="45.84208" lon="4.78931">
        <ele>607.6</ele>
        <time>2017-02-18T14:49:35Z</time>
      </trkpt>
      <trkpt lat="45.84213" lon="4.78918">
        <ele>608.2</ele>
        <time>2017-02-18T14:49:38Z</time>
      </trkpt>
      <trkpt lat="45.84214" lon="4.78906">
        <ele>608.5</ele>
        <time>2017-02-18T14:49:41Z</time>
      </trkpt>
      <trkpt lat="45.84215" lon="4.78894">
        <ele>608.5</ele>
        <time>2017-02-18T14:49:44Z</time>
      </trkpt>
      <trkpt lat="45.84214" lon="4.78883">
        <ele>608.5</ele>
        <time>2017-02-18T14:49:47Z</time>
      </trkpt>
      <trkpt lat="45.84213" lon="4.78872">
        <ele>608.7</ele>
        <time>2017-02-18T14:49:50Z</time>
      </trkpt>
      <trkpt lat="45.84212" lon="4.7886">
        <ele>608.8</ele>
        <time>2017-02-18T14:49:53Z</time>
      </trkpt>
      <trkpt lat="45.84211" lon="4.78847">
        <ele>608.9</ele>
        <time>2017-02-18T14:49:56Z</time>
      </trkpt>
      <trkpt lat="45.84209" lon="4.78835">
        <ele>608.9</ele>
        <time>2017-02-18T14:49:59Z</time>
      </trkpt>
      <trkpt lat="45.84208" lon="4.78824">
        <ele>609</ele>
        <time>2017-02-18T14:50:02Z</time>
      </trkpt>
      <trkpt lat="45.84207" lon="4.78813">
        <ele>609.1</ele>
        <time>2017-02-18T14:50:05Z</time>
      </trkpt>
      <trkpt lat="45.84209" lon="4.78802">
        <ele>609.3</ele>
        <time>2017-02-18T14:50:08Z</time>
      </trkpt>
      <trkpt lat="45.8421" lon="4.78789">
        <ele>609.7</ele>
        <time>2017-02-18T14:50:13Z</time>
      </trkpt>
      <trkpt lat="45.84211" lon="4.78779">
        <ele>610</ele>
        <time>2017-02-18T14:50:17Z</time>
      </trkpt>
      <trkpt lat="45.84212" lon="4.78766">
        <ele>610.2</ele>
        <time>2017-02-18T14:50:20Z</time>
      </trkpt>
      <trkpt lat="45.84214" lon="4.78754">
        <ele>610.3</ele>
        <time>2017-02-18T14:50:22Z</time>
      </trkpt>
      <trkpt lat="45.84215" lon="4.78743">
        <ele>610.2</ele>
        <time>2017-02-18T14:50:24Z</time>
      </trkpt>
      <trkpt lat="45.84216" lon="4.78731">
        <ele>609.7</ele>
        <time>2017-02-18T14:50:26Z</time>
      </trkpt>
      <trkpt lat="45.84218" lon="4.78719">
        <ele>609</ele>
        <time>2017-02-18T14:50:28Z</time>
      </trkpt>
      <trkpt lat="45.8422" lon="4.78706">
        <ele>608.8</ele>
        <time>2017-02-18T14:50:30Z</time>
      </trkpt>
      <trkpt lat="45.84222" lon="4.78693">
        <ele>608.5</ele>
        <time>2017-02-18T14:50:32Z</time>
      </trkpt>
      <trkpt lat="45.84223" lon="4.78679">
        <ele>609</ele>
        <time>2017-02-18T14:50:34Z</time>
      </trkpt>
      <trkpt lat="45.84225" lon="4.78664">
        <ele>609.4</ele>
        <time>2017-02-18T14:50:36Z</time>
      </trkpt>
      <trkpt lat="45.84227" lon="4.7865">
        <ele>609.3</ele>
        <time>2017-02-18T14:50:38Z</time>
      </trkpt>
      <trkpt lat="45.84229" lon="4.78638">
        <ele>610.4</ele>
        <time>2017-02-18T14:50:40Z</time>
      </trkpt>
      <trkpt lat="45.8423" lon="4.78623">
        <ele>611.5</ele>
        <time>2017-02-18T14:50:42Z</time>
      </trkpt>
      <trkpt lat="45.84233" lon="4.78609">
        <ele>612.7</ele>
        <time>2017-02-18T14:50:44Z</time>
      </trkpt>
      <trkpt lat="45.84236" lon="4.78596">
        <ele>614.7</ele>
        <time>2017-02-18T14:50:46Z</time>
      </trkpt>
      <trkpt lat="45.84239" lon="4.78581">
        <ele>616.6</ele>
        <time>2017-02-18T14:50:48Z</time>
      </trkpt>
      <trkpt lat="45.84242" lon="4.7857">
        <ele>616.8</ele>
        <time>2017-02-18T14:50:50Z</time>
      </trkpt>
      <trkpt lat="45.84244" lon="4.78555">
        <ele>617.1</ele>
        <time>2017-02-18T14:50:52Z</time>
      </trkpt>
      <trkpt lat="45.84246" lon="4.78537">
        <ele>618.6</ele>
        <time>2017-02-18T14:50:54Z</time>
      </trkpt>
      <trkpt lat="45.84249" lon="4.78519">
        <ele>620.8</ele>
        <time>2017-02-18T14:50:56Z</time>
      </trkpt>
      <trkpt lat="45.8425" lon="4.78508">
        <ele>621.5</ele>
        <time>2017-02-18T14:50:57Z</time>
      </trkpt>
      <trkpt lat="45.84249" lon="4.78488">
        <ele>622.5</ele>
        <time>2017-02-18T14:50:59Z</time>
      </trkpt>
      <trkpt lat="45.84248" lon="4.78477">
        <ele>622.9</ele>
        <time>2017-02-18T14:51:00Z</time>
      </trkpt>
      <trkpt lat="45.84243" lon="4.78458">
        <ele>623.3</ele>
        <time>2017-02-18T14:51:02Z</time>
      </trkpt>
      <trkpt lat="45.84241" lon="4.78448">
        <ele>623.4</ele>
        <time>2017-02-18T14:51:03Z</time>
      </trkpt>
      <trkpt lat="45.84236" lon="4.78431">
        <ele>623.6</ele>
        <time>2017-02-18T14:51:05Z</time>
      </trkpt>
      <trkpt lat="45.84232" lon="4.78419">
        <ele>623.5</ele>
        <time>2017-02-18T14:51:07Z</time>
      </trkpt>
      <trkpt lat="45.84229" lon="4.78407">
        <ele>623.1</ele>
        <time>2017-02-18T14:51:09Z</time>
      </trkpt>
      <trkpt lat="45.84227" lon="4.78396">
        <ele>623.1</ele>
        <time>2017-02-18T14:51:11Z</time>
      </trkpt>
      <trkpt lat="45.84223" lon="4.78383">
        <ele>622.8</ele>
        <time>2017-02-18T14:51:14Z</time>
      </trkpt>
      <trkpt lat="45.84221" lon="4.78379">
        <ele>622.3</ele>
        <time>2017-02-18T14:51:21Z</time>
      </trkpt>
      <trkpt lat="45.84219" lon="4.78377">
        <ele>621.6</ele>
        <time>2017-02-18T14:51:28Z</time>
      </trkpt>
      <trkpt lat="45.84217" lon="4.78373">
        <ele>618.8</ele>
        <time>2017-02-18T14:51:35Z</time>
      </trkpt>
      <trkpt lat="45.84215" lon="4.78363">
        <ele>617.7</ele>
        <time>2017-02-18T14:51:42Z</time>
      </trkpt>
      <trkpt lat="45.84216" lon="4.78363">
        <ele>617.8</ele>
        <time>2017-02-18T14:51:49Z</time>
      </trkpt>
      <trkpt lat="45.84218" lon="4.78365">
        <ele>618.8</ele>
        <time>2017-02-18T14:51:56Z</time>
      </trkpt>
      <trkpt lat="45.84218" lon="4.78366">
        <ele>618.6</ele>
        <time>2017-02-18T14:52:03Z</time>
      </trkpt>
      <trkpt lat="45.84219" lon="4.78372">
        <ele>617.6</ele>
        <time>2017-02-18T14:52:10Z</time>
      </trkpt>
      <trkpt lat="45.84219" lon="4.78374">
        <ele>617.1</ele>
        <time>2017-02-18T14:52:17Z</time>
      </trkpt>
      <trkpt lat="45.84219" lon="4.78374">
        <ele>616.8</ele>
        <time>2017-02-18T14:52:18Z</time>
      </trkpt>
      <trkpt lat="45.84218" lon="4.78369">
        <ele>616.6</ele>
        <time>2017-02-18T14:52:29Z</time>
      </trkpt>
      <trkpt lat="45.84217" lon="4.78364">
        <ele>615.4</ele>
        <time>2017-02-18T14:52:36Z</time>
      </trkpt>
      <trkpt lat="45.84218" lon="4.78371">
        <ele>613.4</ele>
        <time>2017-02-18T14:52:43Z</time>
      </trkpt>
      <trkpt lat="45.84216" lon="4.78378">
        <ele>613.2</ele>
        <time>2017-02-18T14:52:50Z</time>
      </trkpt>
      <trkpt lat="45.84219" lon="4.78377">
        <ele>613.8</ele>
        <time>2017-02-18T14:52:57Z</time>
      </trkpt>
      <trkpt lat="45.84216" lon="4.78364">
        <ele>614</ele>
        <time>2017-02-18T14:53:01Z</time>
      </trkpt>
      <trkpt lat="45.84215" lon="4.78353">
        <ele>613.9</ele>
        <time>2017-02-18T14:53:03Z</time>
      </trkpt>
      <trkpt lat="45.84213" lon="4.78337">
        <ele>611.9</ele>
        <time>2017-02-18T14:53:05Z</time>
      </trkpt>
      <trkpt lat="45.84212" lon="4.78323">
        <ele>609.5</ele>
        <time>2017-02-18T14:53:07Z</time>
      </trkpt>
      <trkpt lat="45.84214" lon="4.78309">
        <ele>607</ele>
        <time>2017-02-18T14:53:09Z</time>
      </trkpt>
      <trkpt lat="45.84218" lon="4.78296">
        <ele>605.8</ele>
        <time>2017-02-18T14:53:11Z</time>
      </trkpt>
      <trkpt lat="45.84222" lon="4.78285">
        <ele>605.4</ele>
        <time>2017-02-18T14:53:14Z</time>
      </trkpt>
      <trkpt lat="45.84225" lon="4.78276">
        <ele>604.3</ele>
        <time>2017-02-18T14:53:21Z</time>
      </trkpt>
      <trkpt lat="45.84217" lon="4.78272">
        <ele>603.2</ele>
        <time>2017-02-18T14:53:27Z</time>
      </trkpt>
      <trkpt lat="45.8421" lon="4.78277">
        <ele>602.8</ele>
        <time>2017-02-18T14:53:30Z</time>
      </trkpt>
      <trkpt lat="45.84203" lon="4.78287">
        <ele>602.3</ele>
        <time>2017-02-18T14:53:33Z</time>
      </trkpt>
      <trkpt lat="45.84195" lon="4.78296">
        <ele>601.9</ele>
        <time>2017-02-18T14:53:36Z</time>
      </trkpt>
      <trkpt lat="45.8419" lon="4.78307">
        <ele>601.6</ele>
        <time>2017-02-18T14:53:38Z</time>
      </trkpt>
      <trkpt lat="45.84183" lon="4.78318">
        <ele>601.3</ele>
        <time>2017-02-18T14:53:40Z</time>
      </trkpt>
      <trkpt lat="45.8418" lon="4.78331">
        <ele>601.1</ele>
        <time>2017-02-18T14:53:43Z</time>
      </trkpt>
      <trkpt lat="45.84174" lon="4.7834">
        <ele>601.1</ele>
        <time>2017-02-18T14:53:46Z</time>
      </trkpt>
      <trkpt lat="45.84167" lon="4.78348">
        <ele>601.2</ele>
        <time>2017-02-18T14:53:49Z</time>
      </trkpt>
      <trkpt lat="45.84159" lon="4.78351">
        <ele>601.5</ele>
        <time>2017-02-18T14:53:52Z</time>
      </trkpt>
      <trkpt lat="45.84151" lon="4.78354">
        <ele>601.6</ele>
        <time>2017-02-18T14:53:55Z</time>
      </trkpt>
      <trkpt lat="45.84141" lon="4.78356">
        <ele>601.7</ele>
        <time>2017-02-18T14:53:58Z</time>
      </trkpt>
      <trkpt lat="45.84131" lon="4.7836">
        <ele>602.1</ele>
        <time>2017-02-18T14:54:01Z</time>
      </trkpt>
      <trkpt lat="45.84123" lon="4.78362">
        <ele>602.4</ele>
        <time>2017-02-18T14:54:04Z</time>
      </trkpt>
      <trkpt lat="45.84116" lon="4.78366">
        <ele>602.4</ele>
        <time>2017-02-18T14:54:07Z</time>
      </trkpt>
      <trkpt lat="45.84109" lon="4.78371">
        <ele>602.6</ele>
        <time>2017-02-18T14:54:10Z</time>
      </trkpt>
      <trkpt lat="45.84098" lon="4.78372">
        <ele>602.6</ele>
        <time>2017-02-18T14:54:13Z</time>
      </trkpt>
      <trkpt lat="45.8409" lon="4.7837">
        <ele>602.6</ele>
        <time>2017-02-18T14:54:15Z</time>
      </trkpt>
      <trkpt lat="45.84082" lon="4.78369">
        <ele>602.8</ele>
        <time>2017-02-18T14:54:17Z</time>
      </trkpt>
      <trkpt lat="45.84074" lon="4.78369">
        <ele>602.9</ele>
        <time>2017-02-18T14:54:19Z</time>
      </trkpt>
      <trkpt lat="45.84062" lon="4.78365">
        <ele>603.2</ele>
        <time>2017-02-18T14:54:22Z</time>
      </trkpt>
      <trkpt lat="45.84055" lon="4.78362">
        <ele>603.2</ele>
        <time>2017-02-18T14:54:24Z</time>
      </trkpt>
      <trkpt lat="45.84047" lon="4.78361">
        <ele>603.3</ele>
        <time>2017-02-18T14:54:26Z</time>
      </trkpt>
      <trkpt lat="45.84038" lon="4.78358">
        <ele>603.2</ele>
        <time>2017-02-18T14:54:28Z</time>
      </trkpt>
      <trkpt lat="45.8403" lon="4.78359">
        <ele>603.1</ele>
        <time>2017-02-18T14:54:30Z</time>
      </trkpt>
      <trkpt lat="45.84022" lon="4.78362">
        <ele>603.1</ele>
        <time>2017-02-18T14:54:34Z</time>
      </trkpt>
      <trkpt lat="45.84014" lon="4.78363">
        <ele>603.2</ele>
        <time>2017-02-18T14:54:37Z</time>
      </trkpt>
      <trkpt lat="45.84004" lon="4.78362">
        <ele>603.1</ele>
        <time>2017-02-18T14:54:40Z</time>
      </trkpt>
      <trkpt lat="45.83996" lon="4.78363">
        <ele>603.2</ele>
        <time>2017-02-18T14:54:44Z</time>
      </trkpt>
      <trkpt lat="45.83988" lon="4.78361">
        <ele>603.6</ele>
        <time>2017-02-18T14:54:48Z</time>
      </trkpt>
      <trkpt lat="45.83979" lon="4.78358">
        <ele>603.9</ele>
        <time>2017-02-18T14:54:51Z</time>
      </trkpt>
      <trkpt lat="45.83971" lon="4.78356">
        <ele>604.4</ele>
        <time>2017-02-18T14:54:55Z</time>
      </trkpt>
      <trkpt lat="45.83963" lon="4.78358">
        <ele>605.2</ele>
        <time>2017-02-18T14:55:00Z</time>
      </trkpt>
      <trkpt lat="45.83954" lon="4.78358">
        <ele>605.7</ele>
        <time>2017-02-18T14:55:04Z</time>
      </trkpt>
      <trkpt lat="45.83946" lon="4.7836">
        <ele>605.9</ele>
        <time>2017-02-18T14:55:07Z</time>
      </trkpt>
      <trkpt lat="45.83936" lon="4.78362">
        <ele>606.1</ele>
        <time>2017-02-18T14:55:11Z</time>
      </trkpt>
      <trkpt lat="45.83927" lon="4.78363">
        <ele>606</ele>
        <time>2017-02-18T14:55:13Z</time>
      </trkpt>
      <trkpt lat="45.83918" lon="4.78365">
        <ele>606</ele>
        <time>2017-02-18T14:55:16Z</time>
      </trkpt>
      <trkpt lat="45.83909" lon="4.78367">
        <ele>606.2</ele>
        <time>2017-02-18T14:55:19Z</time>
      </trkpt>
      <trkpt lat="45.839" lon="4.78367">
        <ele>606.8</ele>
        <time>2017-02-18T14:55:23Z</time>
      </trkpt>
      <trkpt lat="45.83891" lon="4.78368">
        <ele>606.9</ele>
        <time>2017-02-18T14:55:26Z</time>
      </trkpt>
      <trkpt lat="45.83882" lon="4.78369">
        <ele>606.8</ele>
        <time>2017-02-18T14:55:29Z</time>
      </trkpt>
      <trkpt lat="45.83874" lon="4.78365">
        <ele>606.6</ele>
        <time>2017-02-18T14:55:34Z</time>
      </trkpt>
      <trkpt lat="45.83867" lon="4.78363">
        <ele>606.5</ele>
        <time>2017-02-18T14:55:37Z</time>
      </trkpt>
      <trkpt lat="45.83859" lon="4.78361">
        <ele>606.5</ele>
        <time>2017-02-18T14:55:41Z</time>
      </trkpt>
      <trkpt lat="45.8385" lon="4.78358">
        <ele>606.6</ele>
        <time>2017-02-18T14:55:45Z</time>
      </trkpt>
      <trkpt lat="45.83841" lon="4.7836">
        <ele>606.4</ele>
        <time>2017-02-18T14:55:49Z</time>
      </trkpt>
      <trkpt lat="45.83834" lon="4.78361">
        <ele>606.2</ele>
        <time>2017-02-18T14:55:51Z</time>
      </trkpt>
      <trkpt lat="45.83826" lon="4.78363">
        <ele>606</ele>
        <time>2017-02-18T14:55:53Z</time>
      </trkpt>
      <trkpt lat="45.83817" lon="4.78367">
        <ele>606</ele>
        <time>2017-02-18T14:55:56Z</time>
      </trkpt>
      <trkpt lat="45.83809" lon="4.78372">
        <ele>606</ele>
        <time>2017-02-18T14:55:58Z</time>
      </trkpt>
      <trkpt lat="45.83802" lon="4.78374">
        <ele>605.8</ele>
        <time>2017-02-18T14:56:00Z</time>
      </trkpt>
      <trkpt lat="45.83793" lon="4.78376">
        <ele>605.3</ele>
        <time>2017-02-18T14:56:04Z</time>
      </trkpt>
      <trkpt lat="45.83785" lon="4.78379">
        <ele>605.1</ele>
        <time>2017-02-18T14:56:07Z</time>
      </trkpt>
      <trkpt lat="45.83777" lon="4.78385">
        <ele>605.2</ele>
        <time>2017-02-18T14:56:10Z</time>
      </trkpt>
      <trkpt lat="45.83768" lon="4.78386">
        <ele>604.9</ele>
        <time>2017-02-18T14:56:14Z</time>
      </trkpt>
      <trkpt lat="45.8376" lon="4.78386">
        <ele>604.5</ele>
        <time>2017-02-18T14:56:17Z</time>
      </trkpt>
      <trkpt lat="45.83752" lon="4.78383">
        <ele>604.4</ele>
        <time>2017-02-18T14:56:20Z</time>
      </trkpt>
      <trkpt lat="45.83743" lon="4.78385">
        <ele>604.5</ele>
        <time>2017-02-18T14:56:23Z</time>
      </trkpt>
      <trkpt lat="45.83734" lon="4.78387">
        <ele>604.5</ele>
        <time>2017-02-18T14:56:26Z</time>
      </trkpt>
      <trkpt lat="45.83725" lon="4.78389">
        <ele>604.6</ele>
        <time>2017-02-18T14:56:29Z</time>
      </trkpt>
      <trkpt lat="45.83716" lon="4.78388">
        <ele>604.7</ele>
        <time>2017-02-18T14:56:32Z</time>
      </trkpt>
      <trkpt lat="45.83707" lon="4.78388">
        <ele>605.1</ele>
        <time>2017-02-18T14:56:35Z</time>
      </trkpt>
      <trkpt lat="45.83699" lon="4.78385">
        <ele>605.5</ele>
        <time>2017-02-18T14:56:39Z</time>
      </trkpt>
      <trkpt lat="45.8369" lon="4.78381">
        <ele>605.5</ele>
        <time>2017-02-18T14:56:44Z</time>
      </trkpt>
      <trkpt lat="45.83682" lon="4.78379">
        <ele>605.4</ele>
        <time>2017-02-18T14:56:48Z</time>
      </trkpt>
      <trkpt lat="45.83676" lon="4.78378">
        <ele>605.8</ele>
        <time>2017-02-18T14:56:55Z</time>
      </trkpt>
      <trkpt lat="45.83669" lon="4.78384">
        <ele>605.7</ele>
        <time>2017-02-18T14:57:01Z</time>
      </trkpt>
      <trkpt lat="45.83662" lon="4.78389">
        <ele>605.8</ele>
        <time>2017-02-18T14:57:04Z</time>
      </trkpt>
      <trkpt lat="45.83655" lon="4.78393">
        <ele>605.9</ele>
        <time>2017-02-18T14:57:08Z</time>
      </trkpt>
      <trkpt lat="45.83649" lon="4.784">
        <ele>605.8</ele>
        <time>2017-02-18T14:57:12Z</time>
      </trkpt>
      <trkpt lat="45.83643" lon="4.78408">
        <ele>605.9</ele>
        <time>2017-02-18T14:57:15Z</time>
      </trkpt>
      <trkpt lat="45.83636" lon="4.7841">
        <ele>605.9</ele>
        <time>2017-02-18T14:57:19Z</time>
      </trkpt>
      <trkpt lat="45.83629" lon="4.78414">
        <ele>606</ele>
        <time>2017-02-18T14:57:24Z</time>
      </trkpt>
      <trkpt lat="45.83622" lon="4.78419">
        <ele>605.9</ele>
        <time>2017-02-18T14:57:28Z</time>
      </trkpt>
      <trkpt lat="45.83616" lon="4.78425">
        <ele>605.8</ele>
        <time>2017-02-18T14:57:32Z</time>
      </trkpt>
      <trkpt lat="45.83611" lon="4.78429">
        <ele>605.6</ele>
        <time>2017-02-18T14:57:39Z</time>
      </trkpt>
      <trkpt lat="45.83607" lon="4.78435">
        <ele>606.1</ele>
        <time>2017-02-18T14:57:46Z</time>
      </trkpt>
      <trkpt lat="45.83601" lon="4.78444">
        <ele>606.4</ele>
        <time>2017-02-18T14:57:51Z</time>
      </trkpt>
      <trkpt lat="45.83595" lon="4.78451">
        <ele>606.7</ele>
        <time>2017-02-18T14:57:56Z</time>
      </trkpt>
      <trkpt lat="45.83589" lon="4.78459">
        <ele>607</ele>
        <time>2017-02-18T14:58:00Z</time>
      </trkpt>
      <trkpt lat="45.83583" lon="4.78468">
        <ele>607.1</ele>
        <time>2017-02-18T14:58:04Z</time>
      </trkpt>
      <trkpt lat="45.83577" lon="4.78477">
        <ele>607.3</ele>
        <time>2017-02-18T14:58:08Z</time>
      </trkpt>
      <trkpt lat="45.83572" lon="4.78485">
        <ele>607.5</ele>
        <time>2017-02-18T14:58:12Z</time>
      </trkpt>
      <trkpt lat="45.83567" lon="4.78494">
        <ele>607.7</ele>
        <time>2017-02-18T14:58:16Z</time>
      </trkpt>
      <trkpt lat="45.83562" lon="4.78502">
        <ele>607.7</ele>
        <time>2017-02-18T14:58:20Z</time>
      </trkpt>
      <trkpt lat="45.83557" lon="4.78511">
        <ele>607.8</ele>
        <time>2017-02-18T14:58:24Z</time>
      </trkpt>
      <trkpt lat="45.83554" lon="4.7852">
        <ele>608</ele>
        <time>2017-02-18T14:58:27Z</time>
      </trkpt>
      <trkpt lat="45.83549" lon="4.7853">
        <ele>608.1</ele>
        <time>2017-02-18T14:58:30Z</time>
      </trkpt>
      <trkpt lat="45.83542" lon="4.78538">
        <ele>608.3</ele>
        <time>2017-02-18T14:58:33Z</time>
      </trkpt>
      <trkpt lat="45.83537" lon="4.7855">
        <ele>608.3</ele>
        <time>2017-02-18T14:58:36Z</time>
      </trkpt>
      <trkpt lat="45.83528" lon="4.78559">
        <ele>608.3</ele>
        <time>2017-02-18T14:58:39Z</time>
      </trkpt>
      <trkpt lat="45.8352" lon="4.78566">
        <ele>608.2</ele>
        <time>2017-02-18T14:58:41Z</time>
      </trkpt>
      <trkpt lat="45.83514" lon="4.78572">
        <ele>608.1</ele>
        <time>2017-02-18T14:58:43Z</time>
      </trkpt>
      <trkpt lat="45.83508" lon="4.78579">
        <ele>607.9</ele>
        <time>2017-02-18T14:58:46Z</time>
      </trkpt>
      <trkpt lat="45.835" lon="4.78587">
        <ele>607.7</ele>
        <time>2017-02-18T14:58:49Z</time>
      </trkpt>
      <trkpt lat="45.83492" lon="4.78594">
        <ele>607.5</ele>
        <time>2017-02-18T14:58:52Z</time>
      </trkpt>
      <trkpt lat="45.83484" lon="4.78603">
        <ele>607.5</ele>
        <time>2017-02-18T14:58:55Z</time>
      </trkpt>
      <trkpt lat="45.83477" lon="4.7861">
        <ele>607.3</ele>
        <time>2017-02-18T14:58:57Z</time>
      </trkpt>
      <trkpt lat="45.8347" lon="4.78618">
        <ele>606.9</ele>
        <time>2017-02-18T14:59:00Z</time>
      </trkpt>
      <trkpt lat="45.83462" lon="4.78628">
        <ele>606.5</ele>
        <time>2017-02-18T14:59:03Z</time>
      </trkpt>
      <trkpt lat="45.83456" lon="4.78635">
        <ele>606.3</ele>
        <time>2017-02-18T14:59:05Z</time>
      </trkpt>
      <trkpt lat="45.83449" lon="4.78642">
        <ele>606.1</ele>
        <time>2017-02-18T14:59:07Z</time>
      </trkpt>
      <trkpt lat="45.83442" lon="4.78649">
        <ele>606.1</ele>
        <time>2017-02-18T14:59:09Z</time>
      </trkpt>
      <trkpt lat="45.83435" lon="4.78659">
        <ele>606</ele>
        <time>2017-02-18T14:59:11Z</time>
      </trkpt>
      <trkpt lat="45.83428" lon="4.78667">
        <ele>605.8</ele>
        <time>2017-02-18T14:59:13Z</time>
      </trkpt>
      <trkpt lat="45.83422" lon="4.78677">
        <ele>605.6</ele>
        <time>2017-02-18T14:59:15Z</time>
      </trkpt>
      <trkpt lat="45.83416" lon="4.78682">
        <ele>605.4</ele>
        <time>2017-02-18T14:59:17Z</time>
      </trkpt>
      <trkpt lat="45.83406" lon="4.78688">
        <ele>605.1</ele>
        <time>2017-02-18T14:59:19Z</time>
      </trkpt>
      <trkpt lat="45.83399" lon="4.78695">
        <ele>604.7</ele>
        <time>2017-02-18T14:59:21Z</time>
      </trkpt>
      <trkpt lat="45.83393" lon="4.787">
        <ele>604.3</ele>
        <time>2017-02-18T14:59:23Z</time>
      </trkpt>
      <trkpt lat="45.83383" lon="4.78705">
        <ele>603.7</ele>
        <time>2017-02-18T14:59:26Z</time>
      </trkpt>
      <trkpt lat="45.83374" lon="4.78705">
        <ele>603</ele>
        <time>2017-02-18T14:59:29Z</time>
      </trkpt>
      <trkpt lat="45.83366" lon="4.78708">
        <ele>602.3</ele>
        <time>2017-02-18T14:59:32Z</time>
      </trkpt>
      <trkpt lat="45.83358" lon="4.78713">
        <ele>601.3</ele>
        <time>2017-02-18T14:59:35Z</time>
      </trkpt>
      <trkpt lat="45.83348" lon="4.78717">
        <ele>600.4</ele>
        <time>2017-02-18T14:59:38Z</time>
      </trkpt>
      <trkpt lat="45.83339" lon="4.7872">
        <ele>599.6</ele>
        <time>2017-02-18T14:59:41Z</time>
      </trkpt>
      <trkpt lat="45.83331" lon="4.78722">
        <ele>598.8</ele>
        <time>2017-02-18T14:59:44Z</time>
      </trkpt>
      <trkpt lat="45.83321" lon="4.78723">
        <ele>598</ele>
        <time>2017-02-18T14:59:47Z</time>
      </trkpt>
      <trkpt lat="45.83311" lon="4.78725">
        <ele>597.1</ele>
        <time>2017-02-18T14:59:50Z</time>
      </trkpt>
      <trkpt lat="45.83303" lon="4.78729">
        <ele>591.3</ele>
        <time>2017-02-18T14:59:52Z</time>
      </trkpt>
      <trkpt lat="45.83297" lon="4.78735">
        <ele>590.8</ele>
        <time>2017-02-18T14:59:54Z</time>
      </trkpt>
      <trkpt lat="45.8329" lon="4.78741">
        <ele>590.4</ele>
        <time>2017-02-18T14:59:56Z</time>
      </trkpt>
      <trkpt lat="45.83282" lon="4.78748">
        <ele>589.8</ele>
        <time>2017-02-18T14:59:59Z</time>
      </trkpt>
      <trkpt lat="45.83273" lon="4.78754">
        <ele>589.2</ele>
        <time>2017-02-18T15:00:02Z</time>
      </trkpt>
      <trkpt lat="45.83263" lon="4.7876">
        <ele>586</ele>
        <time>2017-02-18T15:00:05Z</time>
      </trkpt>
      <trkpt lat="45.83256" lon="4.78765">
        <ele>585.2</ele>
        <time>2017-02-18T15:00:08Z</time>
      </trkpt>
      <trkpt lat="45.83249" lon="4.7877">
        <ele>583.8</ele>
        <time>2017-02-18T15:00:14Z</time>
      </trkpt>
      <trkpt lat="45.8324" lon="4.78778">
        <ele>583</ele>
        <time>2017-02-18T15:00:18Z</time>
      </trkpt>
      <trkpt lat="45.83234" lon="4.78785">
        <ele>582.2</ele>
        <time>2017-02-18T15:00:22Z</time>
      </trkpt>
      <trkpt lat="45.83228" lon="4.78792">
        <ele>581.4</ele>
        <time>2017-02-18T15:00:26Z</time>
      </trkpt>
      <trkpt lat="45.83224" lon="4.78795">
        <ele>580.3</ele>
        <time>2017-02-18T15:00:33Z</time>
      </trkpt>
      <trkpt lat="45.83217" lon="4.78805">
        <ele>579.2</ele>
        <time>2017-02-18T15:00:40Z</time>
      </trkpt>
      <trkpt lat="45.83211" lon="4.78814">
        <ele>578.7</ele>
        <time>2017-02-18T15:00:43Z</time>
      </trkpt>
      <trkpt lat="45.83205" lon="4.78824">
        <ele>578.4</ele>
        <time>2017-02-18T15:00:46Z</time>
      </trkpt>
      <trkpt lat="45.83199" lon="4.78837">
        <ele>578</ele>
        <time>2017-02-18T15:00:49Z</time>
      </trkpt>
      <trkpt lat="45.83195" lon="4.78846">
        <ele>575.8</ele>
        <time>2017-02-18T15:00:51Z</time>
      </trkpt>
      <trkpt lat="45.83191" lon="4.78856">
        <ele>574.9</ele>
        <time>2017-02-18T15:00:53Z</time>
      </trkpt>
      <trkpt lat="45.83185" lon="4.78868">
        <ele>574.7</ele>
        <time>2017-02-18T15:00:56Z</time>
      </trkpt>
      <trkpt lat="45.83179" lon="4.78878">
        <ele>574.5</ele>
        <time>2017-02-18T15:00:59Z</time>
      </trkpt>
      <trkpt lat="45.83174" lon="4.78888">
        <ele>574.4</ele>
        <time>2017-02-18T15:01:02Z</time>
      </trkpt>
      <trkpt lat="45.83172" lon="4.78888">
        <ele>574.4</ele>
        <time>2017-02-18T15:01:09Z</time>
      </trkpt>
      <trkpt lat="45.83172" lon="4.78887">
        <ele>574.4</ele>
        <time>2017-02-18T15:01:12Z</time>
      </trkpt>
      <trkpt lat="45.83175" lon="4.78889">
        <ele>574.5</ele>
        <time>2017-02-18T15:01:24Z</time>
      </trkpt>
      <trkpt lat="45.83176" lon="4.78888">
        <ele>574</ele>
        <time>2017-02-18T15:01:31Z</time>
      </trkpt>
      <trkpt lat="45.83174" lon="4.78889">
        <ele>573</ele>
        <time>2017-02-18T15:01:39Z</time>
      </trkpt>
      <trkpt lat="45.83176" lon="4.78888">
        <ele>572.7</ele>
        <time>2017-02-18T15:01:46Z</time>
      </trkpt>
      <trkpt lat="45.83176" lon="4.78891">
        <ele>572.9</ele>
        <time>2017-02-18T15:01:53Z</time>
      </trkpt>
      <trkpt lat="45.83176" lon="4.78893">
        <ele>572.9</ele>
        <time>2017-02-18T15:01:58Z</time>
      </trkpt>
      <trkpt lat="45.83176" lon="4.78892">
        <ele>572.9</ele>
        <time>2017-02-18T15:02:06Z</time>
      </trkpt>
      <trkpt lat="45.83176" lon="4.78892">
        <ele>572.9</ele>
        <time>2017-02-18T15:02:07Z</time>
      </trkpt>
      <trkpt lat="45.83174" lon="4.78891">
        <ele>572.9</ele>
        <time>2017-02-18T15:02:18Z</time>
      </trkpt>
      <trkpt lat="45.83174" lon="4.78891">
        <ele>572.9</ele>
        <time>2017-02-18T15:02:19Z</time>
      </trkpt>
      <trkpt lat="45.83173" lon="4.78891">
        <ele>572.4</ele>
        <time>2017-02-18T15:02:27Z</time>
      </trkpt>
      <trkpt lat="45.8317" lon="4.78891">
        <ele>572.3</ele>
        <time>2017-02-18T15:02:34Z</time>
      </trkpt>
      <trkpt lat="45.83176" lon="4.78888">
        <ele>572.1</ele>
        <time>2017-02-18T15:02:41Z</time>
      </trkpt>
      <trkpt lat="45.83183" lon="4.78888">
        <ele>572.1</ele>
        <time>2017-02-18T15:02:46Z</time>
      </trkpt>
      <trkpt lat="45.8319" lon="4.78885">
        <ele>571.9</ele>
        <time>2017-02-18T15:02:53Z</time>
      </trkpt>
      <trkpt lat="45.83198" lon="4.78881">
        <ele>571.9</ele>
        <time>2017-02-18T15:03:00Z</time>
      </trkpt>
      <trkpt lat="45.83205" lon="4.78877">
        <ele>572.5</ele>
        <time>2017-02-18T15:03:07Z</time>
      </trkpt>
      <trkpt lat="45.83212" lon="4.78874">
        <ele>573</ele>
        <time>2017-02-18T15:03:13Z</time>
      </trkpt>
      <trkpt lat="45.83219" lon="4.78869">
        <ele>573.7</ele>
        <time>2017-02-18T15:03:20Z</time>
      </trkpt>
      <trkpt lat="45.83226" lon="4.78865">
        <ele>574.2</ele>
        <time>2017-02-18T15:03:27Z</time>
      </trkpt>
      <trkpt lat="45.83232" lon="4.7886">
        <ele>574.7</ele>
        <time>2017-02-18T15:03:34Z</time>
      </trkpt>
      <trkpt lat="45.83238" lon="4.78854">
        <ele>575.2</ele>
        <time>2017-02-18T15:03:41Z</time>
      </trkpt>
      <trkpt lat="45.83244" lon="4.7885">
        <ele>575.9</ele>
        <time>2017-02-18T15:03:48Z</time>
      </trkpt>
      <trkpt lat="45.83251" lon="4.78844">
        <ele>576.3</ele>
        <time>2017-02-18T15:03:54Z</time>
      </trkpt>
      <trkpt lat="45.83255" lon="4.78843">
        <ele>576.5</ele>
        <time>2017-02-18T15:04:01Z</time>
      </trkpt>
      <trkpt lat="45.83262" lon="4.78841">
        <ele>576.9</ele>
        <time>2017-02-18T15:04:08Z</time>
      </trkpt>
      <trkpt lat="45.83269" lon="4.7884">
        <ele>577.5</ele>
        <time>2017-02-18T15:04:15Z</time>
      </trkpt>
      <trkpt lat="45.83277" lon="4.78837">
        <ele>578.2</ele>
        <time>2017-02-18T15:04:22Z</time>
      </trkpt>
      <trkpt lat="45.83282" lon="4.78834">
        <ele>579</ele>
        <time>2017-02-18T15:04:29Z</time>
      </trkpt>
      <trkpt lat="45.83287" lon="4.7883">
        <ele>580.3</ele>
        <time>2017-02-18T15:04:36Z</time>
      </trkpt>
      <trkpt lat="45.83293" lon="4.78828">
        <ele>581.5</ele>
        <time>2017-02-18T15:04:43Z</time>
      </trkpt>
      <trkpt lat="45.83299" lon="4.78823">
        <ele>582.3</ele>
        <time>2017-02-18T15:04:50Z</time>
      </trkpt>
      <trkpt lat="45.83304" lon="4.78818">
        <ele>583.5</ele>
        <time>2017-02-18T15:04:57Z</time>
      </trkpt>
      <trkpt lat="45.83311" lon="4.7881">
        <ele>584.4</ele>
        <time>2017-02-18T15:05:02Z</time>
      </trkpt>
      <trkpt lat="45.83317" lon="4.78804">
        <ele>585.5</ele>
        <time>2017-02-18T15:05:09Z</time>
      </trkpt>
      <trkpt lat="45.83322" lon="4.78801">
        <ele>586.7</ele>
        <time>2017-02-18T15:05:16Z</time>
      </trkpt>
      <trkpt lat="45.83328" lon="4.78797">
        <ele>587.7</ele>
        <time>2017-02-18T15:05:23Z</time>
      </trkpt>
      <trkpt lat="45.83333" lon="4.78795">
        <ele>588.5</ele>
        <time>2017-02-18T15:05:30Z</time>
      </trkpt>
      <trkpt lat="45.83337" lon="4.78792">
        <ele>589.3</ele>
        <time>2017-02-18T15:05:37Z</time>
      </trkpt>
      <trkpt lat="45.83341" lon="4.7879">
        <ele>590</ele>
        <time>2017-02-18T15:05:44Z</time>
      </trkpt>
      <trkpt lat="45.83339" lon="4.78789">
        <ele>590.9</ele>
        <time>2017-02-18T15:05:51Z</time>
      </trkpt>
      <trkpt lat="45.83341" lon="4.78789">
        <ele>591.3</ele>
        <time>2017-02-18T15:05:58Z</time>
      </trkpt>
      <trkpt lat="45.8334" lon="4.78789">
        <ele>591.7</ele>
        <time>2017-02-18T15:06:05Z</time>
      </trkpt>
      <trkpt lat="45.8334" lon="4.78789">
        <ele>591.8</ele>
        <time>2017-02-18T15:06:07Z</time>
      </trkpt>
      <trkpt lat="45.83344" lon="4.78787">
        <ele>592.6</ele>
        <time>2017-02-18T15:06:15Z</time>
      </trkpt>
      <trkpt lat="45.83347" lon="4.78785">
        <ele>593.1</ele>
        <time>2017-02-18T15:06:22Z</time>
      </trkpt>
      <trkpt lat="45.83352" lon="4.78781">
        <ele>593.6</ele>
        <time>2017-02-18T15:06:29Z</time>
      </trkpt>
      <trkpt lat="45.83359" lon="4.78776">
        <ele>593.9</ele>
        <time>2017-02-18T15:06:33Z</time>
      </trkpt>
      <trkpt lat="45.83366" lon="4.78772">
        <ele>594.2</ele>
        <time>2017-02-18T15:06:37Z</time>
      </trkpt>
      <trkpt lat="45.83373" lon="4.78766">
        <ele>594.5</ele>
        <time>2017-02-18T15:06:41Z</time>
      </trkpt>
      <trkpt lat="45.83381" lon="4.78761">
        <ele>595.1</ele>
        <time>2017-02-18T15:06:46Z</time>
      </trkpt>
      <trkpt lat="45.83388" lon="4.78759">
        <ele>595.5</ele>
        <time>2017-02-18T15:06:51Z</time>
      </trkpt>
      <trkpt lat="45.83396" lon="4.78756">
        <ele>596</ele>
        <time>2017-02-18T15:06:58Z</time>
      </trkpt>
      <trkpt lat="45.83404" lon="4.78754">
        <ele>596.2</ele>
        <time>2017-02-18T15:07:03Z</time>
      </trkpt>
      <trkpt lat="45.83412" lon="4.78753">
        <ele>596.8</ele>
        <time>2017-02-18T15:07:10Z</time>
      </trkpt>
      <trkpt lat="45.83419" lon="4.7875">
        <ele>597.3</ele>
        <time>2017-02-18T15:07:17Z</time>
      </trkpt>
      <trkpt lat="45.83426" lon="4.78747">
        <ele>597.9</ele>
        <time>2017-02-18T15:07:22Z</time>
      </trkpt>
      <trkpt lat="45.83432" lon="4.78744">
        <ele>598.7</ele>
        <time>2017-02-18T15:07:29Z</time>
      </trkpt>
      <trkpt lat="45.8344" lon="4.78741">
        <ele>599.4</ele>
        <time>2017-02-18T15:07:36Z</time>
      </trkpt>
      <trkpt lat="45.83446" lon="4.78741">
        <ele>600.1</ele>
        <time>2017-02-18T15:07:43Z</time>
      </trkpt>
      <trkpt lat="45.83454" lon="4.78739">
        <ele>600.9</ele>
        <time>2017-02-18T15:07:49Z</time>
      </trkpt>
      <trkpt lat="45.8346" lon="4.78736">
        <ele>601.8</ele>
        <time>2017-02-18T15:07:56Z</time>
      </trkpt>
      <trkpt lat="45.83467" lon="4.78734">
        <ele>602.7</ele>
        <time>2017-02-18T15:08:03Z</time>
      </trkpt>
      <trkpt lat="45.83475" lon="4.78733">
        <ele>603.5</ele>
        <time>2017-02-18T15:08:10Z</time>
      </trkpt>
      <trkpt lat="45.83479" lon="4.7873">
        <ele>604.5</ele>
        <time>2017-02-18T15:08:17Z</time>
      </trkpt>
      <trkpt lat="45.83485" lon="4.78725">
        <ele>605.5</ele>
        <time>2017-02-18T15:08:24Z</time>
      </trkpt>
      <trkpt lat="45.83492" lon="4.78723">
        <ele>606.5</ele>
        <time>2017-02-18T15:08:31Z</time>
      </trkpt>
      <trkpt lat="45.83499" lon="4.78719">
        <ele>607.1</ele>
        <time>2017-02-18T15:08:37Z</time>
      </trkpt>
      <trkpt lat="45.83506" lon="4.78716">
        <ele>607.8</ele>
        <time>2017-02-18T15:08:44Z</time>
      </trkpt>
      <trkpt lat="45.83512" lon="4.78714">
        <ele>608.3</ele>
        <time>2017-02-18T15:08:51Z</time>
      </trkpt>
      <trkpt lat="45.83518" lon="4.78713">
        <ele>608.9</ele>
        <time>2017-02-18T15:08:58Z</time>
      </trkpt>
      <trkpt lat="45.83525" lon="4.7871">
        <ele>609.4</ele>
        <time>2017-02-18T15:09:04Z</time>
      </trkpt>
      <trkpt lat="45.8353" lon="4.78709">
        <ele>610.1</ele>
        <time>2017-02-18T15:09:11Z</time>
      </trkpt>
      <trkpt lat="45.83538" lon="4.78706">
        <ele>610.6</ele>
        <time>2017-02-18T15:09:18Z</time>
      </trkpt>
      <trkpt lat="45.83545" lon="4.78701">
        <ele>611.6</ele>
        <time>2017-02-18T15:09:25Z</time>
      </trkpt>
      <trkpt lat="45.83552" lon="4.78698">
        <ele>612.2</ele>
        <time>2017-02-18T15:09:32Z</time>
      </trkpt>
      <trkpt lat="45.8356" lon="4.78694">
        <ele>612.8</ele>
        <time>2017-02-18T15:09:39Z</time>
      </trkpt>
      <trkpt lat="45.83566" lon="4.7869">
        <ele>613.5</ele>
        <time>2017-02-18T15:09:45Z</time>
      </trkpt>
      <trkpt lat="45.83571" lon="4.78686">
        <ele>614.1</ele>
        <time>2017-02-18T15:09:52Z</time>
      </trkpt>
      <trkpt lat="45.83577" lon="4.78684">
        <ele>615</ele>
        <time>2017-02-18T15:09:59Z</time>
      </trkpt>
      <trkpt lat="45.83584" lon="4.78681">
        <ele>616.1</ele>
        <time>2017-02-18T15:10:06Z</time>
      </trkpt>
      <trkpt lat="45.8359" lon="4.78678">
        <ele>617.1</ele>
        <time>2017-02-18T15:10:13Z</time>
      </trkpt>
      <trkpt lat="45.83597" lon="4.78676">
        <ele>617.7</ele>
        <time>2017-02-18T15:10:20Z</time>
      </trkpt>
      <trkpt lat="45.83604" lon="4.78673">
        <ele>618.6</ele>
        <time>2017-02-18T15:10:25Z</time>
      </trkpt>
      <trkpt lat="45.83612" lon="4.78672">
        <ele>619.7</ele>
        <time>2017-02-18T15:10:31Z</time>
      </trkpt>
      <trkpt lat="45.83617" lon="4.78672">
        <ele>620.5</ele>
        <time>2017-02-18T15:10:38Z</time>
      </trkpt>
      <trkpt lat="45.83618" lon="4.78671">
        <ele>621.2</ele>
        <time>2017-02-18T15:10:45Z</time>
      </trkpt>
      <trkpt lat="45.83618" lon="4.78668">
        <ele>621.9</ele>
        <time>2017-02-18T15:10:52Z</time>
      </trkpt>
      <trkpt lat="45.8362" lon="4.78667">
        <ele>622.2</ele>
        <time>2017-02-18T15:10:59Z</time>
      </trkpt>
      <trkpt lat="45.83619" lon="4.78668">
        <ele>622</ele>
        <time>2017-02-18T15:11:03Z</time>
      </trkpt>
      <trkpt lat="45.83619" lon="4.78668">
        <ele>621.3</ele>
        <time>2017-02-18T15:11:17Z</time>
      </trkpt>
      <trkpt lat="45.83621" lon="4.78667">
        <ele>621.6</ele>
        <time>2017-02-18T15:11:24Z</time>
      </trkpt>
      <trkpt lat="45.83624" lon="4.78665">
        <ele>622.2</ele>
        <time>2017-02-18T15:11:31Z</time>
      </trkpt>
      <trkpt lat="45.83628" lon="4.78663">
        <ele>622.9</ele>
        <time>2017-02-18T15:11:38Z</time>
      </trkpt>
      <trkpt lat="45.83635" lon="4.78657">
        <ele>623.6</ele>
        <time>2017-02-18T15:11:44Z</time>
      </trkpt>
      <trkpt lat="45.83642" lon="4.78653">
        <ele>624.3</ele>
        <time>2017-02-18T15:11:50Z</time>
      </trkpt>
      <trkpt lat="45.8365" lon="4.78649">
        <ele>624.6</ele>
        <time>2017-02-18T15:11:55Z</time>
      </trkpt>
      <trkpt lat="45.83658" lon="4.78644">
        <ele>625</ele>
        <time>2017-02-18T15:12:00Z</time>
      </trkpt>
      <trkpt lat="45.83664" lon="4.78641">
        <ele>625.8</ele>
        <time>2017-02-18T15:12:05Z</time>
      </trkpt>
      <trkpt lat="45.83666" lon="4.78638">
        <ele>626.4</ele>
        <time>2017-02-18T15:12:12Z</time>
      </trkpt>
      <trkpt lat="45.83666" lon="4.78638">
        <ele>626.6</ele>
        <time>2017-02-18T15:12:15Z</time>
      </trkpt>
      <trkpt lat="45.83667" lon="4.78637">
        <ele>627.6</ele>
        <time>2017-02-18T15:12:28Z</time>
      </trkpt>
      <trkpt lat="45.83665" lon="4.7864">
        <ele>628.3</ele>
        <time>2017-02-18T15:12:35Z</time>
      </trkpt>
      <trkpt lat="45.83665" lon="4.7864">
        <ele>628.3</ele>
        <time>2017-02-18T15:12:39Z</time>
      </trkpt>
      <trkpt lat="45.83665" lon="4.78639">
        <ele>628.4</ele>
        <time>2017-02-18T15:12:47Z</time>
      </trkpt>
      <trkpt lat="45.83657" lon="4.78644">
        <ele>628.6</ele>
        <time>2017-02-18T15:12:52Z</time>
      </trkpt>
      <trkpt lat="45.8365" lon="4.78648">
        <ele>628.7</ele>
        <time>2017-02-18T15:12:55Z</time>
      </trkpt>
      <trkpt lat="45.83643" lon="4.78652">
        <ele>628.7</ele>
        <time>2017-02-18T15:12:58Z</time>
      </trkpt>
      <trkpt lat="45.83636" lon="4.78658">
        <ele>628.8</ele>
        <time>2017-02-18T15:13:01Z</time>
      </trkpt>
      <trkpt lat="45.83628" lon="4.78665">
        <ele>628.9</ele>
        <time>2017-02-18T15:13:04Z</time>
      </trkpt>
      <trkpt lat="45.83626" lon="4.78679">
        <ele>628.8</ele>
        <time>2017-02-18T15:13:08Z</time>
      </trkpt>
      <trkpt lat="45.8363" lon="4.78688">
        <ele>628.6</ele>
        <time>2017-02-18T15:13:10Z</time>
      </trkpt>
      <trkpt lat="45.83639" lon="4.78694">
        <ele>628</ele>
        <time>2017-02-18T15:13:12Z</time>
      </trkpt>
      <trkpt lat="45.83647" lon="4.78696">
        <ele>627.2</ele>
        <time>2017-02-18T15:13:14Z</time>
      </trkpt>
      <trkpt lat="45.83656" lon="4.78695">
        <ele>626.8</ele>
        <time>2017-02-18T15:13:16Z</time>
      </trkpt>
      <trkpt lat="45.83665" lon="4.78694">
        <ele>627</ele>
        <time>2017-02-18T15:13:18Z</time>
      </trkpt>
      <trkpt lat="45.83674" lon="4.78692">
        <ele>627.9</ele>
        <time>2017-02-18T15:13:20Z</time>
      </trkpt>
      <trkpt lat="45.83683" lon="4.7869">
        <ele>628</ele>
        <time>2017-02-18T15:13:22Z</time>
      </trkpt>
      <trkpt lat="45.83691" lon="4.7869">
        <ele>627.4</ele>
        <time>2017-02-18T15:13:24Z</time>
      </trkpt>
      <trkpt lat="45.83698" lon="4.78688">
        <ele>627.1</ele>
        <time>2017-02-18T15:13:26Z</time>
      </trkpt>
      <trkpt lat="45.83706" lon="4.78686">
        <ele>627.5</ele>
        <time>2017-02-18T15:13:28Z</time>
      </trkpt>
      <trkpt lat="45.83714" lon="4.78682">
        <ele>628.3</ele>
        <time>2017-02-18T15:13:30Z</time>
      </trkpt>
      <trkpt lat="45.83722" lon="4.78679">
        <ele>629.5</ele>
        <time>2017-02-18T15:13:32Z</time>
      </trkpt>
      <trkpt lat="45.83729" lon="4.78681">
        <ele>629.9</ele>
        <time>2017-02-18T15:13:34Z</time>
      </trkpt>
      <trkpt lat="45.83736" lon="4.78687">
        <ele>629.8</ele>
        <time>2017-02-18T15:13:36Z</time>
      </trkpt>
      <trkpt lat="45.83741" lon="4.78697">
        <ele>627.3</ele>
        <time>2017-02-18T15:13:38Z</time>
      </trkpt>
      <trkpt lat="45.83744" lon="4.78709">
        <ele>626.1</ele>
        <time>2017-02-18T15:13:40Z</time>
      </trkpt>
      <trkpt lat="45.83747" lon="4.78719">
        <ele>624.1</ele>
        <time>2017-02-18T15:13:42Z</time>
      </trkpt>
      <trkpt lat="45.83754" lon="4.7873">
        <ele>622.7</ele>
        <time>2017-02-18T15:13:44Z</time>
      </trkpt>
      <trkpt lat="45.83762" lon="4.78736">
        <ele>622.3</ele>
        <time>2017-02-18T15:13:46Z</time>
      </trkpt>
      <trkpt lat="45.8377" lon="4.78739">
        <ele>621.7</ele>
        <time>2017-02-18T15:13:48Z</time>
      </trkpt>
      <trkpt lat="45.83779" lon="4.78744">
        <ele>621.7</ele>
        <time>2017-02-18T15:13:50Z</time>
      </trkpt>
      <trkpt lat="45.83789" lon="4.78748">
        <ele>621.5</ele>
        <time>2017-02-18T15:13:52Z</time>
      </trkpt>
      <trkpt lat="45.838" lon="4.78754">
        <ele>620.9</ele>
        <time>2017-02-18T15:13:54Z</time>
      </trkpt>
      <trkpt lat="45.83809" lon="4.78763">
        <ele>621.3</ele>
        <time>2017-02-18T15:13:56Z</time>
      </trkpt>
      <trkpt lat="45.83821" lon="4.78773">
        <ele>621.2</ele>
        <time>2017-02-18T15:13:58Z</time>
      </trkpt>
      <trkpt lat="45.83833" lon="4.78784">
        <ele>619.6</ele>
        <time>2017-02-18T15:14:00Z</time>
      </trkpt>
      <trkpt lat="45.83839" lon="4.7879">
        <ele>619.1</ele>
        <time>2017-02-18T15:14:01Z</time>
      </trkpt>
      <trkpt lat="45.83846" lon="4.78797">
        <ele>618.7</ele>
        <time>2017-02-18T15:14:02Z</time>
      </trkpt>
      <trkpt lat="45.83854" lon="4.78804">
        <ele>618.2</ele>
        <time>2017-02-18T15:14:03Z</time>
      </trkpt>
      <trkpt lat="45.83861" lon="4.78811">
        <ele>618</ele>
        <time>2017-02-18T15:14:04Z</time>
      </trkpt>
      <trkpt lat="45.83868" lon="4.78818">
        <ele>617.8</ele>
        <time>2017-02-18T15:14:05Z</time>
      </trkpt>
      <trkpt lat="45.83875" lon="4.78825">
        <ele>617.5</ele>
        <time>2017-02-18T15:14:06Z</time>
      </trkpt>
      <trkpt lat="45.83881" lon="4.78831">
        <ele>617.1</ele>
        <time>2017-02-18T15:14:07Z</time>
      </trkpt>
      <trkpt lat="45.83888" lon="4.78838">
        <ele>616.5</ele>
        <time>2017-02-18T15:14:08Z</time>
      </trkpt>
      <trkpt lat="45.83896" lon="4.78844">
        <ele>616</ele>
        <time>2017-02-18T15:14:09Z</time>
      </trkpt>
      <trkpt lat="45.83903" lon="4.78851">
        <ele>615.4</ele>
        <time>2017-02-18T15:14:10Z</time>
      </trkpt>
      <trkpt lat="45.83911" lon="4.78857">
        <ele>614.8</ele>
        <time>2017-02-18T15:14:11Z</time>
      </trkpt>
      <trkpt lat="45.83918" lon="4.78863">
        <ele>613.9</ele>
        <time>2017-02-18T15:14:12Z</time>
      </trkpt>
      <trkpt lat="45.83926" lon="4.7887">
        <ele>613</ele>
        <time>2017-02-18T15:14:13Z</time>
      </trkpt>
      <trkpt lat="45.83933" lon="4.78877">
        <ele>612.2</ele>
        <time>2017-02-18T15:14:14Z</time>
      </trkpt>
      <trkpt lat="45.8394" lon="4.78883">
        <ele>610.8</ele>
        <time>2017-02-18T15:14:15Z</time>
      </trkpt>
      <trkpt lat="45.83949" lon="4.7889">
        <ele>609.8</ele>
        <time>2017-02-18T15:14:16Z</time>
      </trkpt>
      <trkpt lat="45.83956" lon="4.78896">
        <ele>609.5</ele>
        <time>2017-02-18T15:14:17Z</time>
      </trkpt>
      <trkpt lat="45.83963" lon="4.78902">
        <ele>609.2</ele>
        <time>2017-02-18T15:14:18Z</time>
      </trkpt>
      <trkpt lat="45.83969" lon="4.78908">
        <ele>608.5</ele>
        <time>2017-02-18T15:14:19Z</time>
      </trkpt>
      <trkpt lat="45.83976" lon="4.78914">
        <ele>607.6</ele>
        <time>2017-02-18T15:14:20Z</time>
      </trkpt>
      <trkpt lat="45.83982" lon="4.78919">
        <ele>606.3</ele>
        <time>2017-02-18T15:14:21Z</time>
      </trkpt>
      <trkpt lat="45.83988" lon="4.78925">
        <ele>605.1</ele>
        <time>2017-02-18T15:14:22Z</time>
      </trkpt>
      <trkpt lat="45.83995" lon="4.78931">
        <ele>604</ele>
        <time>2017-02-18T15:14:23Z</time>
      </trkpt>
      <trkpt lat="45.84004" lon="4.78941">
        <ele>602.4</ele>
        <time>2017-02-18T15:14:25Z</time>
      </trkpt>
      <trkpt lat="45.84009" lon="4.7895">
        <ele>601.6</ele>
        <time>2017-02-18T15:14:27Z</time>
      </trkpt>
      <trkpt lat="45.84015" lon="4.78959">
        <ele>601.4</ele>
        <time>2017-02-18T15:14:30Z</time>
      </trkpt>
      <trkpt lat="45.84017" lon="4.7896">
        <ele>601.1</ele>
        <time>2017-02-18T15:14:37Z</time>
      </trkpt>
      <trkpt lat="45.84017" lon="4.7896">
        <ele>601.1</ele>
        <time>2017-02-18T15:14:40Z</time>
      </trkpt>
      <trkpt lat="45.84011" lon="4.78966">
        <ele>601.1</ele>
        <time>2017-02-18T15:14:47Z</time>
      </trkpt>
      <trkpt lat="45.8401" lon="4.78969">
        <ele>600.9</ele>
        <time>2017-02-18T15:14:54Z</time>
      </trkpt>
      <trkpt lat="45.8401" lon="4.78969">
        <ele>600.9</ele>
        <time>2017-02-18T15:14:56Z</time>
      </trkpt>
      <trkpt lat="45.84017" lon="4.78975">
        <ele>599.8</ele>
        <time>2017-02-18T15:18:15Z</time>
      </trkpt>
      <trkpt lat="45.84026" lon="4.7897">
        <ele>599.3</ele>
        <time>2017-02-18T15:18:19Z</time>
      </trkpt>
      <trkpt lat="45.84034" lon="4.78965">
        <ele>598.9</ele>
        <time>2017-02-18T15:18:22Z</time>
      </trkpt>
      <trkpt lat="45.84042" lon="4.78964">
        <ele>598.7</ele>
        <time>2017-02-18T15:18:25Z</time>
      </trkpt>
      <trkpt lat="45.84051" lon="4.78966">
        <ele>598.4</ele>
        <time>2017-02-18T15:18:28Z</time>
      </trkpt>
      <trkpt lat="45.84059" lon="4.78969">
        <ele>598.2</ele>
        <time>2017-02-18T15:18:31Z</time>
      </trkpt>
      <trkpt lat="45.84069" lon="4.78972">
        <ele>597.9</ele>
        <time>2017-02-18T15:18:34Z</time>
      </trkpt>
      <trkpt lat="45.84077" lon="4.78974">
        <ele>597.6</ele>
        <time>2017-02-18T15:18:37Z</time>
      </trkpt>
      <trkpt lat="45.84086" lon="4.78976">
        <ele>597.4</ele>
        <time>2017-02-18T15:18:41Z</time>
      </trkpt>
      <trkpt lat="45.84094" lon="4.78977">
        <ele>597.3</ele>
        <time>2017-02-18T15:18:44Z</time>
      </trkpt>
      <trkpt lat="45.84102" lon="4.78976">
        <ele>597.2</ele>
        <time>2017-02-18T15:18:47Z</time>
      </trkpt>
      <trkpt lat="45.84109" lon="4.78974">
        <ele>597.1</ele>
        <time>2017-02-18T15:18:50Z</time>
      </trkpt>
      <trkpt lat="45.84116" lon="4.78973">
        <ele>597.1</ele>
        <time>2017-02-18T15:18:53Z</time>
      </trkpt>
      <trkpt lat="45.84125" lon="4.78971">
        <ele>597.1</ele>
        <time>2017-02-18T15:18:56Z</time>
      </trkpt>
      <trkpt lat="45.84134" lon="4.78968">
        <ele>597.3</ele>
        <time>2017-02-18T15:19:00Z</time>
      </trkpt>
      <trkpt lat="45.84141" lon="4.78966">
        <ele>597.6</ele>
        <time>2017-02-18T15:19:04Z</time>
      </trkpt>
      <trkpt lat="45.84149" lon="4.78963">
        <ele>597.8</ele>
        <time>2017-02-18T15:19:08Z</time>
      </trkpt>
      <trkpt lat="45.84156" lon="4.7896">
        <ele>598</ele>
        <time>2017-02-18T15:19:10Z</time>
      </trkpt>
      <trkpt lat="45.84164" lon="4.78957">
        <ele>598.4</ele>
        <time>2017-02-18T15:19:14Z</time>
      </trkpt>
      <trkpt lat="45.84172" lon="4.78953">
        <ele>598.5</ele>
        <time>2017-02-18T15:19:17Z</time>
      </trkpt>
      <trkpt lat="45.84178" lon="4.78949">
        <ele>598.4</ele>
        <time>2017-02-18T15:19:20Z</time>
      </trkpt>
      <trkpt lat="45.84187" lon="4.78945">
        <ele>598.3</ele>
        <time>2017-02-18T15:19:24Z</time>
      </trkpt>
      <trkpt lat="45.84194" lon="4.78942">
        <ele>598.5</ele>
        <time>2017-02-18T15:19:28Z</time>
      </trkpt>
      <trkpt lat="45.842" lon="4.78935">
        <ele>598.9</ele>
        <time>2017-02-18T15:19:32Z</time>
      </trkpt>
      <trkpt lat="45.84206" lon="4.78926">
        <ele>599.4</ele>
        <time>2017-02-18T15:19:36Z</time>
      </trkpt>
      <trkpt lat="45.84211" lon="4.78917">
        <ele>599.9</ele>
        <time>2017-02-18T15:19:42Z</time>
      </trkpt>
      <trkpt lat="45.84214" lon="4.78907">
        <ele>600.5</ele>
        <time>2017-02-18T15:19:44Z</time>
      </trkpt>
      <trkpt lat="45.84214" lon="4.78895">
        <ele>601.1</ele>
        <time>2017-02-18T15:19:48Z</time>
      </trkpt>
      <trkpt lat="45.84214" lon="4.78883">
        <ele>601.7</ele>
        <time>2017-02-18T15:19:52Z</time>
      </trkpt>
      <trkpt lat="45.84214" lon="4.78871">
        <ele>602.3</ele>
        <time>2017-02-18T15:19:56Z</time>
      </trkpt>
      <trkpt lat="45.84214" lon="4.78858">
        <ele>602.8</ele>
        <time>2017-02-18T15:20:00Z</time>
      </trkpt>
      <trkpt lat="45.84213" lon="4.78845">
        <ele>603.1</ele>
        <time>2017-02-18T15:20:04Z</time>
      </trkpt>
      <trkpt lat="45.84212" lon="4.78833">
        <ele>603.3</ele>
        <time>2017-02-18T15:20:08Z</time>
      </trkpt>
      <trkpt lat="45.84208" lon="4.78824">
        <ele>603.7</ele>
        <time>2017-02-18T15:20:14Z</time>
      </trkpt>
      <trkpt lat="45.84208" lon="4.78812">
        <ele>604.1</ele>
        <time>2017-02-18T15:20:18Z</time>
      </trkpt>
      <trkpt lat="45.84209" lon="4.788">
        <ele>604.4</ele>
        <time>2017-02-18T15:20:21Z</time>
      </trkpt>
      <trkpt lat="45.84211" lon="4.78784">
        <ele>605.6</ele>
        <time>2017-02-18T15:20:24Z</time>
      </trkpt>
      <trkpt lat="45.84212" lon="4.78773">
        <ele>607</ele>
        <time>2017-02-18T15:20:26Z</time>
      </trkpt>
      <trkpt lat="45.84213" lon="4.78761">
        <ele>607.8</ele>
        <time>2017-02-18T15:20:28Z</time>
      </trkpt>
      <trkpt lat="45.84215" lon="4.78747">
        <ele>607.3</ele>
        <time>2017-02-18T15:20:30Z</time>
      </trkpt>
      <trkpt lat="45.84216" lon="4.78735">
        <ele>607.2</ele>
        <time>2017-02-18T15:20:32Z</time>
      </trkpt>
      <trkpt lat="45.84218" lon="4.78722">
        <ele>607.3</ele>
        <time>2017-02-18T15:20:34Z</time>
      </trkpt>
      <trkpt lat="45.8422" lon="4.78708">
        <ele>607.6</ele>
        <time>2017-02-18T15:20:36Z</time>
      </trkpt>
      <trkpt lat="45.84221" lon="4.78695">
        <ele>608</ele>
        <time>2017-02-18T15:20:38Z</time>
      </trkpt>
      <trkpt lat="45.84223" lon="4.78681">
        <ele>608.4</ele>
        <time>2017-02-18T15:20:40Z</time>
      </trkpt>
      <trkpt lat="45.84225" lon="4.78667">
        <ele>608.5</ele>
        <time>2017-02-18T15:20:42Z</time>
      </trkpt>
      <trkpt lat="45.84228" lon="4.78652">
        <ele>608.7</ele>
        <time>2017-02-18T15:20:44Z</time>
      </trkpt>
      <trkpt lat="45.8423" lon="4.78638">
        <ele>608.9</ele>
        <time>2017-02-18T15:20:46Z</time>
      </trkpt>
      <trkpt lat="45.84233" lon="4.78624">
        <ele>608.9</ele>
        <time>2017-02-18T15:20:48Z</time>
      </trkpt>
      <trkpt lat="45.84236" lon="4.7861">
        <ele>609.6</ele>
        <time>2017-02-18T15:20:50Z</time>
      </trkpt>
      <trkpt lat="45.84238" lon="4.78594">
        <ele>610.7</ele>
        <time>2017-02-18T15:20:52Z</time>
      </trkpt>
      <trkpt lat="45.84241" lon="4.78578">
        <ele>612.1</ele>
        <time>2017-02-18T15:20:54Z</time>
      </trkpt>
      <trkpt lat="45.84243" lon="4.78564">
        <ele>612.2</ele>
        <time>2017-02-18T15:20:56Z</time>
      </trkpt>
      <trkpt lat="45.84247" lon="4.7855">
        <ele>612</ele>
        <time>2017-02-18T15:20:58Z</time>
      </trkpt>
      <trkpt lat="45.84249" lon="4.78539">
        <ele>611.7</ele>
        <time>2017-02-18T15:20:59Z</time>
      </trkpt>
      <trkpt lat="45.84251" lon="4.78523">
        <ele>611.7</ele>
        <time>2017-02-18T15:21:01Z</time>
      </trkpt>
      <trkpt lat="45.84252" lon="4.78505">
        <ele>611.2</ele>
        <time>2017-02-18T15:21:03Z</time>
      </trkpt>
      <trkpt lat="45.84251" lon="4.78486">
        <ele>610.4</ele>
        <time>2017-02-18T15:21:05Z</time>
      </trkpt>
      <trkpt lat="45.84249" lon="4.78475">
        <ele>610</ele>
        <time>2017-02-18T15:21:06Z</time>
      </trkpt>
      <trkpt lat="45.84246" lon="4.78465">
        <ele>609.6</ele>
        <time>2017-02-18T15:21:07Z</time>
      </trkpt>
      <trkpt lat="45.84241" lon="4.78446">
        <ele>608.2</ele>
        <time>2017-02-18T15:21:09Z</time>
      </trkpt>
      <trkpt lat="45.84238" lon="4.78435">
        <ele>607.8</ele>
        <time>2017-02-18T15:21:10Z</time>
      </trkpt>
      <trkpt lat="45.84235" lon="4.78424">
        <ele>607.5</ele>
        <time>2017-02-18T15:21:11Z</time>
      </trkpt>
      <trkpt lat="45.84231" lon="4.78413">
        <ele>607.1</ele>
        <time>2017-02-18T15:21:12Z</time>
      </trkpt>
      <trkpt lat="45.84227" lon="4.78403">
        <ele>606.5</ele>
        <time>2017-02-18T15:21:13Z</time>
      </trkpt>
      <trkpt lat="45.84224" lon="4.78392">
        <ele>605.6</ele>
        <time>2017-02-18T15:21:14Z</time>
      </trkpt>
      <trkpt lat="45.8422" lon="4.78382">
        <ele>604.8</ele>
        <time>2017-02-18T15:21:15Z</time>
      </trkpt>
      <trkpt lat="45.84216" lon="4.7837">
        <ele>603.9</ele>
        <time>2017-02-18T15:21:16Z</time>
      </trkpt>
      <trkpt lat="45.84213" lon="4.7836">
        <ele>603</ele>
        <time>2017-02-18T15:21:17Z</time>
      </trkpt>
      <trkpt lat="45.84209" lon="4.78348">
        <ele>602.1</ele>
        <time>2017-02-18T15:21:18Z</time>
      </trkpt>
      <trkpt lat="45.84208" lon="4.78335">
        <ele>601.3</ele>
        <time>2017-02-18T15:21:19Z</time>
      </trkpt>
      <trkpt lat="45.84207" lon="4.78321">
        <ele>600.8</ele>
        <time>2017-02-18T15:21:20Z</time>
      </trkpt>
      <trkpt lat="45.84209" lon="4.78309">
        <ele>600.3</ele>
        <time>2017-02-18T15:21:21Z</time>
      </trkpt>
      <trkpt lat="45.84213" lon="4.78296">
        <ele>600.1</ele>
        <time>2017-02-18T15:21:22Z</time>
      </trkpt>
      <trkpt lat="45.84217" lon="4.78285">
        <ele>599.9</ele>
        <time>2017-02-18T15:21:23Z</time>
      </trkpt>
      <trkpt lat="45.84222" lon="4.78278">
        <ele>599.4</ele>
        <time>2017-02-18T15:21:24Z</time>
      </trkpt>
      <trkpt lat="45.84228" lon="4.78272">
        <ele>598.7</ele>
        <time>2017-02-18T15:21:25Z</time>
      </trkpt>
      <trkpt lat="45.84235" lon="4.78268">
        <ele>598.2</ele>
        <time>2017-02-18T15:21:26Z</time>
      </trkpt>
      <trkpt lat="45.84247" lon="4.78263">
        <ele>597.2</ele>
        <time>2017-02-18T15:21:28Z</time>
      </trkpt>
      <trkpt lat="45.84258" lon="4.78259">
        <ele>596.2</ele>
        <time>2017-02-18T15:21:30Z</time>
      </trkpt>
      <trkpt lat="45.84266" lon="4.78257">
        <ele>596.2</ele>
        <time>2017-02-18T15:21:32Z</time>
      </trkpt>
      <trkpt lat="45.84273" lon="4.78255">
        <ele>597.4</ele>
        <time>2017-02-18T15:21:34Z</time>
      </trkpt>
      <trkpt lat="45.84282" lon="4.78253">
        <ele>598.1</ele>
        <time>2017-02-18T15:21:36Z</time>
      </trkpt>
      <trkpt lat="45.8429" lon="4.78252">
        <ele>598.8</ele>
        <time>2017-02-18T15:21:38Z</time>
      </trkpt>
      <trkpt lat="45.84297" lon="4.7825">
        <ele>599</ele>
        <time>2017-02-18T15:21:40Z</time>
      </trkpt>
      <trkpt lat="45.84306" lon="4.78249">
        <ele>599.4</ele>
        <time>2017-02-18T15:21:43Z</time>
      </trkpt>
      <trkpt lat="45.84314" lon="4.78249">
        <ele>599.8</ele>
        <time>2017-02-18T15:21:46Z</time>
      </trkpt>
      <trkpt lat="45.84317" lon="4.78247">
        <ele>600.7</ele>
        <time>2017-02-18T15:21:53Z</time>
      </trkpt>
      <trkpt lat="45.84322" lon="4.78249">
        <ele>601</ele>
        <time>2017-02-18T15:22:00Z</time>
      </trkpt>
      <trkpt lat="45.84322" lon="4.78249">
        <ele>601.1</ele>
        <time>2017-02-18T15:22:02Z</time>
      </trkpt>
      <trkpt lat="45.8433" lon="4.78243">
        <ele>600.9</ele>
        <time>2017-02-18T15:22:36Z</time>
      </trkpt>
      <trkpt lat="45.84339" lon="4.7824">
        <ele>601.5</ele>
        <time>2017-02-18T15:22:40Z</time>
      </trkpt>
      <trkpt lat="45.84348" lon="4.78237">
        <ele>602</ele>
        <time>2017-02-18T15:22:44Z</time>
      </trkpt>
      <trkpt lat="45.84356" lon="4.78234">
        <ele>602.5</ele>
        <time>2017-02-18T15:22:47Z</time>
      </trkpt>
      <trkpt lat="45.84363" lon="4.78231">
        <ele>602.8</ele>
        <time>2017-02-18T15:22:50Z</time>
      </trkpt>
      <trkpt lat="45.84371" lon="4.78232">
        <ele>602.9</ele>
        <time>2017-02-18T15:22:53Z</time>
      </trkpt>
      <trkpt lat="45.84378" lon="4.78233">
        <ele>602.9</ele>
        <time>2017-02-18T15:22:56Z</time>
      </trkpt>
      <trkpt lat="45.84386" lon="4.78234">
        <ele>602.9</ele>
        <time>2017-02-18T15:23:00Z</time>
      </trkpt>
      <trkpt lat="45.84394" lon="4.78236">
        <ele>602.9</ele>
        <time>2017-02-18T15:23:05Z</time>
      </trkpt>
      <trkpt lat="45.84402" lon="4.78239">
        <ele>603.1</ele>
        <time>2017-02-18T15:23:10Z</time>
      </trkpt>
      <trkpt lat="45.8441" lon="4.78243">
        <ele>603.5</ele>
        <time>2017-02-18T15:23:15Z</time>
      </trkpt>
      <trkpt lat="45.84417" lon="4.78247">
        <ele>603.9</ele>
        <time>2017-02-18T15:23:20Z</time>
      </trkpt>
      <trkpt lat="45.84424" lon="4.78251">
        <ele>604.4</ele>
        <time>2017-02-18T15:23:25Z</time>
      </trkpt>
      <trkpt lat="45.84431" lon="4.78254">
        <ele>604.7</ele>
        <time>2017-02-18T15:23:29Z</time>
      </trkpt>
      <trkpt lat="45.8444" lon="4.78255">
        <ele>604.9</ele>
        <time>2017-02-18T15:23:34Z</time>
      </trkpt>
      <trkpt lat="45.84447" lon="4.78255">
        <ele>605.1</ele>
        <time>2017-02-18T15:23:38Z</time>
      </trkpt>
      <trkpt lat="45.84455" lon="4.78256">
        <ele>605.5</ele>
        <time>2017-02-18T15:23:43Z</time>
      </trkpt>
      <trkpt lat="45.84463" lon="4.78256">
        <ele>605.7</ele>
        <time>2017-02-18T15:23:47Z</time>
      </trkpt>
      <trkpt lat="45.84472" lon="4.78257">
        <ele>606.2</ele>
        <time>2017-02-18T15:23:53Z</time>
      </trkpt>
      <trkpt lat="45.84481" lon="4.78257">
        <ele>606.6</ele>
        <time>2017-02-18T15:23:58Z</time>
      </trkpt>
      <trkpt lat="45.84488" lon="4.78257">
        <ele>606.8</ele>
        <time>2017-02-18T15:24:02Z</time>
      </trkpt>
      <trkpt lat="45.84497" lon="4.78258">
        <ele>607.1</ele>
        <time>2017-02-18T15:24:07Z</time>
      </trkpt>
      <trkpt lat="45.84506" lon="4.78258">
        <ele>607.5</ele>
        <time>2017-02-18T15:24:12Z</time>
      </trkpt>
      <trkpt lat="45.84513" lon="4.7826">
        <ele>608.3</ele>
        <time>2017-02-18T15:24:16Z</time>
      </trkpt>
      <trkpt lat="45.84521" lon="4.78262">
        <ele>609.2</ele>
        <time>2017-02-18T15:24:20Z</time>
      </trkpt>
      <trkpt lat="45.84529" lon="4.78263">
        <ele>610.6</ele>
        <time>2017-02-18T15:24:27Z</time>
      </trkpt>
      <trkpt lat="45.84537" lon="4.78263">
        <ele>611.4</ele>
        <time>2017-02-18T15:24:32Z</time>
      </trkpt>
      <trkpt lat="45.84544" lon="4.78264">
        <ele>612.6</ele>
        <time>2017-02-18T15:24:37Z</time>
      </trkpt>
      <trkpt lat="45.84553" lon="4.78266">
        <ele>613.7</ele>
        <time>2017-02-18T15:24:42Z</time>
      </trkpt>
      <trkpt lat="45.84562" lon="4.78268">
        <ele>614.9</ele>
        <time>2017-02-18T15:24:48Z</time>
      </trkpt>
      <trkpt lat="45.84569" lon="4.78269">
        <ele>615.6</ele>
        <time>2017-02-18T15:24:52Z</time>
      </trkpt>
      <trkpt lat="45.84577" lon="4.78268">
        <ele>616.3</ele>
        <time>2017-02-18T15:24:56Z</time>
      </trkpt>
      <trkpt lat="45.84584" lon="4.78266">
        <ele>617</ele>
        <time>2017-02-18T15:25:00Z</time>
      </trkpt>
      <trkpt lat="45.84592" lon="4.78265">
        <ele>617.6</ele>
        <time>2017-02-18T15:25:04Z</time>
      </trkpt>
      <trkpt lat="45.84599" lon="4.78263">
        <ele>618.5</ele>
        <time>2017-02-18T15:25:09Z</time>
      </trkpt>
      <trkpt lat="45.84606" lon="4.78257">
        <ele>619.7</ele>
        <time>2017-02-18T15:25:15Z</time>
      </trkpt>
      <trkpt lat="45.84612" lon="4.78249">
        <ele>620.5</ele>
        <time>2017-02-18T15:25:20Z</time>
      </trkpt>
      <trkpt lat="45.84618" lon="4.78242">
        <ele>621</ele>
        <time>2017-02-18T15:25:24Z</time>
      </trkpt>
      <trkpt lat="45.84623" lon="4.78234">
        <ele>621.4</ele>
        <time>2017-02-18T15:25:28Z</time>
      </trkpt>
      <trkpt lat="45.84628" lon="4.78228">
        <ele>621.8</ele>
        <time>2017-02-18T15:25:33Z</time>
      </trkpt>
      <trkpt lat="45.84633" lon="4.78219">
        <ele>622.4</ele>
        <time>2017-02-18T15:25:38Z</time>
      </trkpt>
      <trkpt lat="45.84637" lon="4.78208">
        <ele>623.1</ele>
        <time>2017-02-18T15:25:42Z</time>
      </trkpt>
      <trkpt lat="45.84638" lon="4.78198">
        <ele>623.8</ele>
        <time>2017-02-18T15:25:46Z</time>
      </trkpt>
      <trkpt lat="45.84641" lon="4.78187">
        <ele>624.9</ele>
        <time>2017-02-18T15:25:51Z</time>
      </trkpt>
      <trkpt lat="45.84643" lon="4.78175">
        <ele>625.7</ele>
        <time>2017-02-18T15:25:55Z</time>
      </trkpt>
      <trkpt lat="45.84646" lon="4.78165">
        <ele>626.4</ele>
        <time>2017-02-18T15:25:59Z</time>
      </trkpt>
      <trkpt lat="45.84648" lon="4.78153">
        <ele>627.4</ele>
        <time>2017-02-18T15:26:05Z</time>
      </trkpt>
      <trkpt lat="45.84649" lon="4.78141">
        <ele>628.3</ele>
        <time>2017-02-18T15:26:10Z</time>
      </trkpt>
      <trkpt lat="45.84652" lon="4.78129">
        <ele>629.1</ele>
        <time>2017-02-18T15:26:16Z</time>
      </trkpt>
      <trkpt lat="45.84654" lon="4.78119">
        <ele>630</ele>
        <time>2017-02-18T15:26:20Z</time>
      </trkpt>
      <trkpt lat="45.84658" lon="4.78109">
        <ele>630.9</ele>
        <time>2017-02-18T15:26:24Z</time>
      </trkpt>
      <trkpt lat="45.84659" lon="4.78098">
        <ele>632</ele>
        <time>2017-02-18T15:26:29Z</time>
      </trkpt>
      <trkpt lat="45.84661" lon="4.78088">
        <ele>632.9</ele>
        <time>2017-02-18T15:26:34Z</time>
      </trkpt>
      <trkpt lat="45.84665" lon="4.78078">
        <ele>633.5</ele>
        <time>2017-02-18T15:26:38Z</time>
      </trkpt>
      <trkpt lat="45.84668" lon="4.78068">
        <ele>634.1</ele>
        <time>2017-02-18T15:26:42Z</time>
      </trkpt>
      <trkpt lat="45.84673" lon="4.78058">
        <ele>634.6</ele>
        <time>2017-02-18T15:26:46Z</time>
      </trkpt>
      <trkpt lat="45.84677" lon="4.7805">
        <ele>635.1</ele>
        <time>2017-02-18T15:26:50Z</time>
      </trkpt>
      <trkpt lat="45.84681" lon="4.78039">
        <ele>635.6</ele>
        <time>2017-02-18T15:26:54Z</time>
      </trkpt>
      <trkpt lat="45.84688" lon="4.78033">
        <ele>636.4</ele>
        <time>2017-02-18T15:26:59Z</time>
      </trkpt>
      <trkpt lat="45.84695" lon="4.78032">
        <ele>637.2</ele>
        <time>2017-02-18T15:27:03Z</time>
      </trkpt>
      <trkpt lat="45.847" lon="4.78032">
        <ele>637.3</ele>
        <time>2017-02-18T15:27:10Z</time>
      </trkpt>
      <trkpt lat="45.84696" lon="4.78032">
        <ele>635.7</ele>
        <time>2017-02-18T15:27:17Z</time>
      </trkpt>
      <trkpt lat="45.84696" lon="4.78035">
        <ele>635.6</ele>
        <time>2017-02-18T15:27:24Z</time>
      </trkpt>
      <trkpt lat="45.84701" lon="4.78041">
        <ele>636.2</ele>
        <time>2017-02-18T15:27:31Z</time>
      </trkpt>
      <trkpt lat="45.84703" lon="4.78039">
        <ele>636.2</ele>
        <time>2017-02-18T15:27:38Z</time>
      </trkpt>
      <trkpt lat="45.84707" lon="4.78034">
        <ele>637</ele>
        <time>2017-02-18T15:27:45Z</time>
      </trkpt>
      <trkpt lat="45.84714" lon="4.78029">
        <ele>637.9</ele>
        <time>2017-02-18T15:27:51Z</time>
      </trkpt>
      <trkpt lat="45.84722" lon="4.78029">
        <ele>638.3</ele>
        <time>2017-02-18T15:27:54Z</time>
      </trkpt>
      <trkpt lat="45.8473" lon="4.78027">
        <ele>638.7</ele>
        <time>2017-02-18T15:27:58Z</time>
      </trkpt>
      <trkpt lat="45.84738" lon="4.78027">
        <ele>639.2</ele>
        <time>2017-02-18T15:28:01Z</time>
      </trkpt>
      <trkpt lat="45.84745" lon="4.78025">
        <ele>639.5</ele>
        <time>2017-02-18T15:28:05Z</time>
      </trkpt>
      <trkpt lat="45.84754" lon="4.78023">
        <ele>639.6</ele>
        <time>2017-02-18T15:28:08Z</time>
      </trkpt>
      <trkpt lat="45.84761" lon="4.78023">
        <ele>639.8</ele>
        <time>2017-02-18T15:28:11Z</time>
      </trkpt>
      <trkpt lat="45.84769" lon="4.78023">
        <ele>640</ele>
        <time>2017-02-18T15:28:14Z</time>
      </trkpt>
      <trkpt lat="45.84776" lon="4.78021">
        <ele>640.2</ele>
        <time>2017-02-18T15:28:17Z</time>
      </trkpt>
      <trkpt lat="45.84784" lon="4.78021">
        <ele>640.4</ele>
        <time>2017-02-18T15:28:20Z</time>
      </trkpt>
      <trkpt lat="45.84791" lon="4.78021">
        <ele>640.8</ele>
        <time>2017-02-18T15:28:24Z</time>
      </trkpt>
      <trkpt lat="45.848" lon="4.78022">
        <ele>641</ele>
        <time>2017-02-18T15:28:27Z</time>
      </trkpt>
      <trkpt lat="45.84809" lon="4.78023">
        <ele>641.6</ele>
        <time>2017-02-18T15:28:31Z</time>
      </trkpt>
      <trkpt lat="45.84818" lon="4.78024">
        <ele>642</ele>
        <time>2017-02-18T15:28:35Z</time>
      </trkpt>
      <trkpt lat="45.84825" lon="4.78027">
        <ele>642.1</ele>
        <time>2017-02-18T15:28:39Z</time>
      </trkpt>
      <trkpt lat="45.84833" lon="4.78032">
        <ele>641.9</ele>
        <time>2017-02-18T15:28:45Z</time>
      </trkpt>
      <trkpt lat="45.8484" lon="4.78036">
        <ele>641.8</ele>
        <time>2017-02-18T15:28:49Z</time>
      </trkpt>
      <trkpt lat="45.84848" lon="4.78042">
        <ele>641.8</ele>
        <time>2017-02-18T15:28:54Z</time>
      </trkpt>
      <trkpt lat="45.84856" lon="4.78047">
        <ele>642.1</ele>
        <time>2017-02-18T15:28:59Z</time>
      </trkpt>
      <trkpt lat="45.84863" lon="4.78053">
        <ele>642.8</ele>
        <time>2017-02-18T15:29:04Z</time>
      </trkpt>
      <trkpt lat="45.84869" lon="4.78059">
        <ele>643</ele>
        <time>2017-02-18T15:29:09Z</time>
      </trkpt>
      <trkpt lat="45.84877" lon="4.78065">
        <ele>643.3</ele>
        <time>2017-02-18T15:29:14Z</time>
      </trkpt>
      <trkpt lat="45.84885" lon="4.78071">
        <ele>643.6</ele>
        <time>2017-02-18T15:29:20Z</time>
      </trkpt>
      <trkpt lat="45.84892" lon="4.78078">
        <ele>643.9</ele>
        <time>2017-02-18T15:29:24Z</time>
      </trkpt>
      <trkpt lat="45.84898" lon="4.78082">
        <ele>644.2</ele>
        <time>2017-02-18T15:29:28Z</time>
      </trkpt>
      <trkpt lat="45.84904" lon="4.78088">
        <ele>644.6</ele>
        <time>2017-02-18T15:29:32Z</time>
      </trkpt>
      <trkpt lat="45.84911" lon="4.78093">
        <ele>645</ele>
        <time>2017-02-18T15:29:36Z</time>
      </trkpt>
      <trkpt lat="45.84918" lon="4.78099">
        <ele>645.3</ele>
        <time>2017-02-18T15:29:39Z</time>
      </trkpt>
      <trkpt lat="45.84924" lon="4.78104">
        <ele>645.5</ele>
        <time>2017-02-18T15:29:42Z</time>
      </trkpt>
      <trkpt lat="45.84931" lon="4.78111">
        <ele>645.8</ele>
        <time>2017-02-18T15:29:45Z</time>
      </trkpt>
      <trkpt lat="45.84937" lon="4.7812">
        <ele>646.4</ele>
        <time>2017-02-18T15:29:48Z</time>
      </trkpt>
      <trkpt lat="45.84943" lon="4.78131">
        <ele>646.9</ele>
        <time>2017-02-18T15:29:51Z</time>
      </trkpt>
      <trkpt lat="45.84949" lon="4.78141">
        <ele>647.3</ele>
        <time>2017-02-18T15:29:54Z</time>
      </trkpt>
      <trkpt lat="45.84954" lon="4.78151">
        <ele>647.6</ele>
        <time>2017-02-18T15:29:57Z</time>
      </trkpt>
      <trkpt lat="45.84958" lon="4.7816">
        <ele>647.9</ele>
        <time>2017-02-18T15:30:00Z</time>
      </trkpt>
      <trkpt lat="45.84961" lon="4.7817">
        <ele>648.3</ele>
        <time>2017-02-18T15:30:03Z</time>
      </trkpt>
      <trkpt lat="45.84965" lon="4.78181">
        <ele>648.6</ele>
        <time>2017-02-18T15:30:06Z</time>
      </trkpt>
      <trkpt lat="45.8497" lon="4.78191">
        <ele>648.8</ele>
        <time>2017-02-18T15:30:09Z</time>
      </trkpt>
      <trkpt lat="45.84975" lon="4.78201">
        <ele>649</ele>
        <time>2017-02-18T15:30:12Z</time>
      </trkpt>
      <trkpt lat="45.84977" lon="4.78211">
        <ele>649.2</ele>
        <time>2017-02-18T15:30:15Z</time>
      </trkpt>
      <trkpt lat="45.84984" lon="4.78206">
        <ele>649.3</ele>
        <time>2017-02-18T15:30:20Z</time>
      </trkpt>
      <trkpt lat="45.84991" lon="4.78206">
        <ele>649.2</ele>
        <time>2017-02-18T15:30:24Z</time>
      </trkpt>
      <trkpt lat="45.84997" lon="4.78217">
        <ele>649.2</ele>
        <time>2017-02-18T15:30:27Z</time>
      </trkpt>
      <trkpt lat="45.85001" lon="4.78225">
        <ele>649.1</ele>
        <time>2017-02-18T15:30:29Z</time>
      </trkpt>
      <trkpt lat="45.85005" lon="4.78235">
        <ele>648.5</ele>
        <time>2017-02-18T15:30:31Z</time>
      </trkpt>
      <trkpt lat="45.85007" lon="4.78248">
        <ele>647.9</ele>
        <time>2017-02-18T15:30:33Z</time>
      </trkpt>
      <trkpt lat="45.85004" lon="4.78261">
        <ele>647.4</ele>
        <time>2017-02-18T15:30:35Z</time>
      </trkpt>
      <trkpt lat="45.84994" lon="4.78268">
        <ele>646.9</ele>
        <time>2017-02-18T15:30:37Z</time>
      </trkpt>
      <trkpt lat="45.84985" lon="4.78267">
        <ele>646.1</ele>
        <time>2017-02-18T15:30:39Z</time>
      </trkpt>
      <trkpt lat="45.84976" lon="4.78258">
        <ele>645.7</ele>
        <time>2017-02-18T15:30:41Z</time>
      </trkpt>
      <trkpt lat="45.84969" lon="4.78245">
        <ele>644.7</ele>
        <time>2017-02-18T15:30:43Z</time>
      </trkpt>
      <trkpt lat="45.84963" lon="4.78231">
        <ele>643.9</ele>
        <time>2017-02-18T15:30:45Z</time>
      </trkpt>
      <trkpt lat="45.84955" lon="4.78216">
        <ele>643.5</ele>
        <time>2017-02-18T15:30:47Z</time>
      </trkpt>
      <trkpt lat="45.84946" lon="4.78208">
        <ele>643</ele>
        <time>2017-02-18T15:30:49Z</time>
      </trkpt>
      <trkpt lat="45.84934" lon="4.78208">
        <ele>642.8</ele>
        <time>2017-02-18T15:30:51Z</time>
      </trkpt>
      <trkpt lat="45.84925" lon="4.78219">
        <ele>643</ele>
        <time>2017-02-18T15:30:53Z</time>
      </trkpt>
      <trkpt lat="45.8492" lon="4.78236">
        <ele>643.5</ele>
        <time>2017-02-18T15:30:55Z</time>
      </trkpt>
      <trkpt lat="45.84921" lon="4.78254">
        <ele>643.4</ele>
        <time>2017-02-18T15:30:57Z</time>
      </trkpt>
      <trkpt lat="45.84925" lon="4.78272">
        <ele>643</ele>
        <time>2017-02-18T15:30:59Z</time>
      </trkpt>
      <trkpt lat="45.84931" lon="4.78289">
        <ele>642.4</ele>
        <time>2017-02-18T15:31:01Z</time>
      </trkpt>
      <trkpt lat="45.84936" lon="4.78297">
        <ele>642.1</ele>
        <time>2017-02-18T15:31:02Z</time>
      </trkpt>
      <trkpt lat="45.84946" lon="4.78311">
        <ele>641.6</ele>
        <time>2017-02-18T15:31:04Z</time>
      </trkpt>
      <trkpt lat="45.84955" lon="4.78322">
        <ele>641.1</ele>
        <time>2017-02-18T15:31:06Z</time>
      </trkpt>
      <trkpt lat="45.84967" lon="4.78328">
        <ele>640.4</ele>
        <time>2017-02-18T15:31:08Z</time>
      </trkpt>
      <trkpt lat="45.84981" lon="4.78331">
        <ele>639.4</ele>
        <time>2017-02-18T15:31:10Z</time>
      </trkpt>
      <trkpt lat="45.84988" lon="4.7833">
        <ele>638.9</ele>
        <time>2017-02-18T15:31:11Z</time>
      </trkpt>
      <trkpt lat="45.84995" lon="4.78328">
        <ele>638.5</ele>
        <time>2017-02-18T15:31:12Z</time>
      </trkpt>
      <trkpt lat="45.85002" lon="4.78325">
        <ele>638.4</ele>
        <time>2017-02-18T15:31:13Z</time>
      </trkpt>
      <trkpt lat="45.85015" lon="4.78317">
        <ele>637.9</ele>
        <time>2017-02-18T15:31:15Z</time>
      </trkpt>
      <trkpt lat="45.85022" lon="4.78312">
        <ele>637.2</ele>
        <time>2017-02-18T15:31:16Z</time>
      </trkpt>
      <trkpt lat="45.85029" lon="4.78307">
        <ele>636.3</ele>
        <time>2017-02-18T15:31:17Z</time>
      </trkpt>
      <trkpt lat="45.85036" lon="4.78303">
        <ele>635.6</ele>
        <time>2017-02-18T15:31:18Z</time>
      </trkpt>
      <trkpt lat="45.85043" lon="4.78298">
        <ele>634.9</ele>
        <time>2017-02-18T15:31:19Z</time>
      </trkpt>
      <trkpt lat="45.85051" lon="4.78292">
        <ele>634</ele>
        <time>2017-02-18T15:31:20Z</time>
      </trkpt>
      <trkpt lat="45.85059" lon="4.78287">
        <ele>633.1</ele>
        <time>2017-02-18T15:31:21Z</time>
      </trkpt>
      <trkpt lat="45.85067" lon="4.78282">
        <ele>632.5</ele>
        <time>2017-02-18T15:31:22Z</time>
      </trkpt>
      <trkpt lat="45.85074" lon="4.78277">
        <ele>632.2</ele>
        <time>2017-02-18T15:31:23Z</time>
      </trkpt>
      <trkpt lat="45.85082" lon="4.78271">
        <ele>631.9</ele>
        <time>2017-02-18T15:31:24Z</time>
      </trkpt>
      <trkpt lat="45.8509" lon="4.78267">
        <ele>631.5</ele>
        <time>2017-02-18T15:31:25Z</time>
      </trkpt>
      <trkpt lat="45.85099" lon="4.78261">
        <ele>631</ele>
        <time>2017-02-18T15:31:26Z</time>
      </trkpt>
      <trkpt lat="45.85108" lon="4.78257">
        <ele>630.3</ele>
        <time>2017-02-18T15:31:27Z</time>
      </trkpt>
      <trkpt lat="45.85117" lon="4.78253">
        <ele>629.4</ele>
        <time>2017-02-18T15:31:28Z</time>
      </trkpt>
      <trkpt lat="45.85126" lon="4.7825">
        <ele>628.7</ele>
        <time>2017-02-18T15:31:29Z</time>
      </trkpt>
      <trkpt lat="45.85135" lon="4.7825">
        <ele>628</ele>
        <time>2017-02-18T15:31:30Z</time>
      </trkpt>
      <trkpt lat="45.85144" lon="4.78251">
        <ele>627.4</ele>
        <time>2017-02-18T15:31:31Z</time>
      </trkpt>
      <trkpt lat="45.85155" lon="4.78252">
        <ele>627</ele>
        <time>2017-02-18T15:31:32Z</time>
      </trkpt>
      <trkpt lat="45.85164" lon="4.78254">
        <ele>626.4</ele>
        <time>2017-02-18T15:31:33Z</time>
      </trkpt>
      <trkpt lat="45.85171" lon="4.78256">
        <ele>625.8</ele>
        <time>2017-02-18T15:31:34Z</time>
      </trkpt>
      <trkpt lat="45.85181" lon="4.78263">
        <ele>624.9</ele>
        <time>2017-02-18T15:31:36Z</time>
      </trkpt>
      <trkpt lat="45.8519" lon="4.7827">
        <ele>624.6</ele>
        <time>2017-02-18T15:31:38Z</time>
      </trkpt>
      <trkpt lat="45.85199" lon="4.78279">
        <ele>624.8</ele>
        <time>2017-02-18T15:31:40Z</time>
      </trkpt>
      <trkpt lat="45.85209" lon="4.7829">
        <ele>625</ele>
        <time>2017-02-18T15:31:42Z</time>
      </trkpt>
      <trkpt lat="45.8522" lon="4.78302">
        <ele>625.4</ele>
        <time>2017-02-18T15:31:44Z</time>
      </trkpt>
      <trkpt lat="45.85229" lon="4.78316">
        <ele>625</ele>
        <time>2017-02-18T15:31:46Z</time>
      </trkpt>
      <trkpt lat="45.85235" lon="4.78323">
        <ele>624.4</ele>
        <time>2017-02-18T15:31:47Z</time>
      </trkpt>
      <trkpt lat="45.85241" lon="4.78331">
        <ele>623.7</ele>
        <time>2017-02-18T15:31:48Z</time>
      </trkpt>
      <trkpt lat="45.85246" lon="4.78339">
        <ele>622.9</ele>
        <time>2017-02-18T15:31:49Z</time>
      </trkpt>
      <trkpt lat="45.85252" lon="4.78347">
        <ele>622.1</ele>
        <time>2017-02-18T15:31:50Z</time>
      </trkpt>
      <trkpt lat="45.85258" lon="4.78355">
        <ele>621.3</ele>
        <time>2017-02-18T15:31:51Z</time>
      </trkpt>
      <trkpt lat="45.85264" lon="4.78363">
        <ele>620.6</ele>
        <time>2017-02-18T15:31:52Z</time>
      </trkpt>
      <trkpt lat="45.8527" lon="4.78373">
        <ele>619.9</ele>
        <time>2017-02-18T15:31:53Z</time>
      </trkpt>
      <trkpt lat="45.85275" lon="4.78382">
        <ele>619.1</ele>
        <time>2017-02-18T15:31:54Z</time>
      </trkpt>
      <trkpt lat="45.85281" lon="4.78392">
        <ele>618.4</ele>
        <time>2017-02-18T15:31:55Z</time>
      </trkpt>
      <trkpt lat="45.85287" lon="4.78401">
        <ele>617.6</ele>
        <time>2017-02-18T15:31:56Z</time>
      </trkpt>
      <trkpt lat="45.85292" lon="4.78412">
        <ele>617</ele>
        <time>2017-02-18T15:31:57Z</time>
      </trkpt>
      <trkpt lat="45.85298" lon="4.78422">
        <ele>616.4</ele>
        <time>2017-02-18T15:31:58Z</time>
      </trkpt>
      <trkpt lat="45.85303" lon="4.78432">
        <ele>615.8</ele>
        <time>2017-02-18T15:31:59Z</time>
      </trkpt>
      <trkpt lat="45.85308" lon="4.78443">
        <ele>615.1</ele>
        <time>2017-02-18T15:32:00Z</time>
      </trkpt>
      <trkpt lat="45.85313" lon="4.78453">
        <ele>614.4</ele>
        <time>2017-02-18T15:32:01Z</time>
      </trkpt>
      <trkpt lat="45.85318" lon="4.78463">
        <ele>613.8</ele>
        <time>2017-02-18T15:32:02Z</time>
      </trkpt>
      <trkpt lat="45.85323" lon="4.78471">
        <ele>613.1</ele>
        <time>2017-02-18T15:32:03Z</time>
      </trkpt>
      <trkpt lat="45.85334" lon="4.78482">
        <ele>612.1</ele>
        <time>2017-02-18T15:32:05Z</time>
      </trkpt>
      <trkpt lat="45.85347" lon="4.78489">
        <ele>611.2</ele>
        <time>2017-02-18T15:32:07Z</time>
      </trkpt>
      <trkpt lat="45.85354" lon="4.78492">
        <ele>610.8</ele>
        <time>2017-02-18T15:32:08Z</time>
      </trkpt>
      <trkpt lat="45.85361" lon="4.78495">
        <ele>610.4</ele>
        <time>2017-02-18T15:32:09Z</time>
      </trkpt>
      <trkpt lat="45.85369" lon="4.78497">
        <ele>609.9</ele>
        <time>2017-02-18T15:32:10Z</time>
      </trkpt>
      <trkpt lat="45.85377" lon="4.78498">
        <ele>609.3</ele>
        <time>2017-02-18T15:32:11Z</time>
      </trkpt>
      <trkpt lat="45.85385" lon="4.785">
        <ele>608.8</ele>
        <time>2017-02-18T15:32:12Z</time>
      </trkpt>
      <trkpt lat="45.85393" lon="4.78501">
        <ele>608.4</ele>
        <time>2017-02-18T15:32:13Z</time>
      </trkpt>
      <trkpt lat="45.85401" lon="4.78503">
        <ele>608</ele>
        <time>2017-02-18T15:32:14Z</time>
      </trkpt>
      <trkpt lat="45.85409" lon="4.78505">
        <ele>607.7</ele>
        <time>2017-02-18T15:32:15Z</time>
      </trkpt>
      <trkpt lat="45.85417" lon="4.78508">
        <ele>607.5</ele>
        <time>2017-02-18T15:32:16Z</time>
      </trkpt>
      <trkpt lat="45.85426" lon="4.78512">
        <ele>607.3</ele>
        <time>2017-02-18T15:32:17Z</time>
      </trkpt>
      <trkpt lat="45.85434" lon="4.78516">
        <ele>607</ele>
        <time>2017-02-18T15:32:18Z</time>
      </trkpt>
      <trkpt lat="45.85441" lon="4.7852">
        <ele>606.6</ele>
        <time>2017-02-18T15:32:19Z</time>
      </trkpt>
      <trkpt lat="45.8545" lon="4.78527">
        <ele>605.4</ele>
        <time>2017-02-18T15:32:21Z</time>
      </trkpt>
      <trkpt lat="45.85457" lon="4.78533">
        <ele>604.9</ele>
        <time>2017-02-18T15:32:23Z</time>
      </trkpt>
      <trkpt lat="45.85465" lon="4.78529">
        <ele>604.6</ele>
        <time>2017-02-18T15:32:26Z</time>
      </trkpt>
      <trkpt lat="45.85465" lon="4.78515">
        <ele>604.4</ele>
        <time>2017-02-18T15:32:29Z</time>
      </trkpt>
      <trkpt lat="45.85459" lon="4.78505">
        <ele>604.1</ele>
        <time>2017-02-18T15:32:32Z</time>
      </trkpt>
      <trkpt lat="45.85451" lon="4.78496">
        <ele>603.8</ele>
        <time>2017-02-18T15:32:35Z</time>
      </trkpt>
      <trkpt lat="45.85445" lon="4.78489">
        <ele>603.7</ele>
        <time>2017-02-18T15:32:38Z</time>
      </trkpt>
      <trkpt lat="45.85438" lon="4.78481">
        <ele>603.7</ele>
        <time>2017-02-18T15:32:41Z</time>
      </trkpt>
      <trkpt lat="45.85431" lon="4.78472">
        <ele>603.8</ele>
        <time>2017-02-18T15:32:44Z</time>
      </trkpt>
      <trkpt lat="45.85424" lon="4.78464">
        <ele>603.8</ele>
        <time>2017-02-18T15:32:47Z</time>
      </trkpt>
      <trkpt lat="45.85417" lon="4.78455">
        <ele>603.7</ele>
        <time>2017-02-18T15:32:50Z</time>
      </trkpt>
      <trkpt lat="45.8541" lon="4.78448">
        <ele>603.8</ele>
        <time>2017-02-18T15:32:53Z</time>
      </trkpt>
      <trkpt lat="45.85402" lon="4.7844">
        <ele>603.7</ele>
        <time>2017-02-18T15:32:56Z</time>
      </trkpt>
      <trkpt lat="45.85396" lon="4.78433">
        <ele>603.9</ele>
        <time>2017-02-18T15:32:59Z</time>
      </trkpt>
      <trkpt lat="45.8539" lon="4.78425">
        <ele>604.2</ele>
        <time>2017-02-18T15:33:02Z</time>
      </trkpt>
      <trkpt lat="45.85383" lon="4.78417">
        <ele>604.4</ele>
        <time>2017-02-18T15:33:05Z</time>
      </trkpt>
      <trkpt lat="45.85377" lon="4.78409">
        <ele>604.4</ele>
        <time>2017-02-18T15:33:07Z</time>
      </trkpt>
      <trkpt lat="45.8537" lon="4.78399">
        <ele>604.4</ele>
        <time>2017-02-18T15:33:10Z</time>
      </trkpt>
      <trkpt lat="45.85364" lon="4.78388">
        <ele>604.5</ele>
        <time>2017-02-18T15:33:13Z</time>
      </trkpt>
      <trkpt lat="45.85358" lon="4.78377">
        <ele>604.7</ele>
        <time>2017-02-18T15:33:16Z</time>
      </trkpt>
      <trkpt lat="45.85353" lon="4.7837">
        <ele>604.8</ele>
        <time>2017-02-18T15:33:18Z</time>
      </trkpt>
      <trkpt lat="45.85348" lon="4.7836">
        <ele>604.9</ele>
        <time>2017-02-18T15:33:21Z</time>
      </trkpt>
      <trkpt lat="45.85343" lon="4.7835">
        <ele>605.1</ele>
        <time>2017-02-18T15:33:23Z</time>
      </trkpt>
      <trkpt lat="45.85337" lon="4.7834">
        <ele>605.6</ele>
        <time>2017-02-18T15:33:26Z</time>
      </trkpt>
      <trkpt lat="45.85332" lon="4.78331">
        <ele>606.1</ele>
        <time>2017-02-18T15:33:28Z</time>
      </trkpt>
      <trkpt lat="45.85326" lon="4.7832">
        <ele>606.3</ele>
        <time>2017-02-18T15:33:30Z</time>
      </trkpt>
      <trkpt lat="45.85319" lon="4.78309">
        <ele>606.6</ele>
        <time>2017-02-18T15:33:32Z</time>
      </trkpt>
      <trkpt lat="45.85313" lon="4.78299">
        <ele>606.3</ele>
        <time>2017-02-18T15:33:34Z</time>
      </trkpt>
      <trkpt lat="45.85307" lon="4.78287">
        <ele>606.2</ele>
        <time>2017-02-18T15:33:36Z</time>
      </trkpt>
      <trkpt lat="45.853" lon="4.78275">
        <ele>606</ele>
        <time>2017-02-18T15:33:38Z</time>
      </trkpt>
      <trkpt lat="45.85292" lon="4.78262">
        <ele>605.7</ele>
        <time>2017-02-18T15:33:40Z</time>
      </trkpt>
      <trkpt lat="45.85285" lon="4.78248">
        <ele>605.7</ele>
        <time>2017-02-18T15:33:42Z</time>
      </trkpt>
      <trkpt lat="45.85277" lon="4.78233">
        <ele>604.6</ele>
        <time>2017-02-18T15:33:44Z</time>
      </trkpt>
      <trkpt lat="45.8527" lon="4.78218">
        <ele>603.7</ele>
        <time>2017-02-18T15:33:46Z</time>
      </trkpt>
      <trkpt lat="45.85265" lon="4.78209">
        <ele>603.4</ele>
        <time>2017-02-18T15:33:47Z</time>
      </trkpt>
      <trkpt lat="45.85261" lon="4.78201">
        <ele>602.9</ele>
        <time>2017-02-18T15:33:48Z</time>
      </trkpt>
      <trkpt lat="45.85257" lon="4.7819">
        <ele>602.7</ele>
        <time>2017-02-18T15:33:49Z</time>
      </trkpt>
      <trkpt lat="45.85253" lon="4.7818">
        <ele>602.3</ele>
        <time>2017-02-18T15:33:50Z</time>
      </trkpt>
      <trkpt lat="45.8525" lon="4.7817">
        <ele>602.1</ele>
        <time>2017-02-18T15:33:51Z</time>
      </trkpt>
      <trkpt lat="45.85246" lon="4.78158">
        <ele>601.5</ele>
        <time>2017-02-18T15:33:52Z</time>
      </trkpt>
      <trkpt lat="45.85243" lon="4.78146">
        <ele>600.7</ele>
        <time>2017-02-18T15:33:53Z</time>
      </trkpt>
      <trkpt lat="45.8524" lon="4.78134">
        <ele>600.2</ele>
        <time>2017-02-18T15:33:54Z</time>
      </trkpt>
      <trkpt lat="45.85238" lon="4.78122">
        <ele>599.3</ele>
        <time>2017-02-18T15:33:55Z</time>
      </trkpt>
      <trkpt lat="45.85236" lon="4.78107">
        <ele>598.3</ele>
        <time>2017-02-18T15:33:56Z</time>
      </trkpt>
      <trkpt lat="45.85234" lon="4.78093">
        <ele>597.3</ele>
        <time>2017-02-18T15:33:57Z</time>
      </trkpt>
      <trkpt lat="45.85233" lon="4.78079">
        <ele>596.3</ele>
        <time>2017-02-18T15:33:58Z</time>
      </trkpt>
      <trkpt lat="45.85232" lon="4.78065">
        <ele>595.3</ele>
        <time>2017-02-18T15:33:59Z</time>
      </trkpt>
      <trkpt lat="45.85231" lon="4.78049">
        <ele>594.5</ele>
        <time>2017-02-18T15:34:00Z</time>
      </trkpt>
      <trkpt lat="45.85231" lon="4.78034">
        <ele>593.8</ele>
        <time>2017-02-18T15:34:01Z</time>
      </trkpt>
      <trkpt lat="45.85232" lon="4.78019">
        <ele>593.1</ele>
        <time>2017-02-18T15:34:02Z</time>
      </trkpt>
      <trkpt lat="45.85232" lon="4.78004">
        <ele>592.4</ele>
        <time>2017-02-18T15:34:03Z</time>
      </trkpt>
      <trkpt lat="45.85234" lon="4.77989">
        <ele>591.7</ele>
        <time>2017-02-18T15:34:04Z</time>
      </trkpt>
      <trkpt lat="45.85235" lon="4.77973">
        <ele>591</ele>
        <time>2017-02-18T15:34:05Z</time>
      </trkpt>
      <trkpt lat="45.85237" lon="4.77957">
        <ele>590.3</ele>
        <time>2017-02-18T15:34:06Z</time>
      </trkpt>
      <trkpt lat="45.85239" lon="4.77942">
        <ele>589.5</ele>
        <time>2017-02-18T15:34:07Z</time>
      </trkpt>
      <trkpt lat="45.85242" lon="4.77927">
        <ele>588.7</ele>
        <time>2017-02-18T15:34:08Z</time>
      </trkpt>
      <trkpt lat="45.85244" lon="4.77914">
        <ele>588</ele>
        <time>2017-02-18T15:34:09Z</time>
      </trkpt>
      <trkpt lat="45.85247" lon="4.779">
        <ele>587.4</ele>
        <time>2017-02-18T15:34:10Z</time>
      </trkpt>
      <trkpt lat="45.8525" lon="4.77885">
        <ele>586.7</ele>
        <time>2017-02-18T15:34:11Z</time>
      </trkpt>
      <trkpt lat="45.85253" lon="4.77869">
        <ele>586</ele>
        <time>2017-02-18T15:34:12Z</time>
      </trkpt>
      <trkpt lat="45.85256" lon="4.77853">
        <ele>585</ele>
        <time>2017-02-18T15:34:13Z</time>
      </trkpt>
      <trkpt lat="45.85258" lon="4.77838">
        <ele>584.2</ele>
        <time>2017-02-18T15:34:14Z</time>
      </trkpt>
      <trkpt lat="45.8526" lon="4.77822">
        <ele>583.4</ele>
        <time>2017-02-18T15:34:15Z</time>
      </trkpt>
      <trkpt lat="45.85263" lon="4.77807">
        <ele>582.5</ele>
        <time>2017-02-18T15:34:16Z</time>
      </trkpt>
      <trkpt lat="45.85265" lon="4.77794">
        <ele>581.5</ele>
        <time>2017-02-18T15:34:17Z</time>
      </trkpt>
      <trkpt lat="45.85266" lon="4.77784">
        <ele>580.6</ele>
        <time>2017-02-18T15:34:18Z</time>
      </trkpt>
      <trkpt lat="45.85267" lon="4.77773">
        <ele>580.4</ele>
        <time>2017-02-18T15:34:20Z</time>
      </trkpt>
      <trkpt lat="45.8527" lon="4.77763">
        <ele>580.4</ele>
        <time>2017-02-18T15:34:23Z</time>
      </trkpt>
      <trkpt lat="45.85273" lon="4.77755">
        <ele>580.2</ele>
        <time>2017-02-18T15:34:30Z</time>
      </trkpt>
      <trkpt lat="45.85273" lon="4.77755">
        <ele>580.2</ele>
        <time>2017-02-18T15:34:34Z</time>
      </trkpt>
      <trkpt lat="45.85276" lon="4.77767">
        <ele>579.3</ele>
        <time>2017-02-18T15:36:59Z</time>
      </trkpt>
      <trkpt lat="45.85277" lon="4.7778">
        <ele>579.1</ele>
        <time>2017-02-18T15:37:02Z</time>
      </trkpt>
      <trkpt lat="45.8528" lon="4.77794">
        <ele>578.7</ele>
        <time>2017-02-18T15:37:05Z</time>
      </trkpt>
      <trkpt lat="45.85283" lon="4.77804">
        <ele>578.2</ele>
        <time>2017-02-18T15:37:07Z</time>
      </trkpt>
      <trkpt lat="45.85287" lon="4.7782">
        <ele>577.3</ele>
        <time>2017-02-18T15:37:10Z</time>
      </trkpt>
      <trkpt lat="45.85289" lon="4.77832">
        <ele>576.9</ele>
        <time>2017-02-18T15:37:12Z</time>
      </trkpt>
      <trkpt lat="45.85291" lon="4.77843">
        <ele>576.5</ele>
        <time>2017-02-18T15:37:14Z</time>
      </trkpt>
      <trkpt lat="45.85294" lon="4.77855">
        <ele>576.3</ele>
        <time>2017-02-18T15:37:16Z</time>
      </trkpt>
      <trkpt lat="45.85295" lon="4.77866">
        <ele>576.2</ele>
        <time>2017-02-18T15:37:18Z</time>
      </trkpt>
      <trkpt lat="45.85297" lon="4.77877">
        <ele>576.1</ele>
        <time>2017-02-18T15:37:20Z</time>
      </trkpt>
      <trkpt lat="45.85298" lon="4.77893">
        <ele>576.1</ele>
        <time>2017-02-18T15:37:23Z</time>
      </trkpt>
      <trkpt lat="45.85299" lon="4.77904">
        <ele>576.1</ele>
        <time>2017-02-18T15:37:25Z</time>
      </trkpt>
      <trkpt lat="45.85301" lon="4.77918">
        <ele>576.1</ele>
        <time>2017-02-18T15:37:28Z</time>
      </trkpt>
      <trkpt lat="45.85303" lon="4.77931">
        <ele>575.6</ele>
        <time>2017-02-18T15:37:31Z</time>
      </trkpt>
      <trkpt lat="45.85304" lon="4.77943">
        <ele>575.2</ele>
        <time>2017-02-18T15:37:33Z</time>
      </trkpt>
      <trkpt lat="45.85305" lon="4.77955">
        <ele>575.1</ele>
        <time>2017-02-18T15:37:35Z</time>
      </trkpt>
      <trkpt lat="45.85309" lon="4.77966">
        <ele>575.1</ele>
        <time>2017-02-18T15:37:38Z</time>
      </trkpt>
      <trkpt lat="45.85317" lon="4.77971">
        <ele>575.7</ele>
        <time>2017-02-18T15:37:41Z</time>
      </trkpt>
      <trkpt lat="45.85327" lon="4.77968">
        <ele>576</ele>
        <time>2017-02-18T15:37:43Z</time>
      </trkpt>
      <trkpt lat="45.85336" lon="4.77964">
        <ele>576.4</ele>
        <time>2017-02-18T15:37:45Z</time>
      </trkpt>
      <trkpt lat="45.85345" lon="4.77958">
        <ele>576.4</ele>
        <time>2017-02-18T15:37:47Z</time>
      </trkpt>
      <trkpt lat="45.85352" lon="4.77954">
        <ele>576.3</ele>
        <time>2017-02-18T15:37:49Z</time>
      </trkpt>
      <trkpt lat="45.85357" lon="4.77951">
        <ele>576</ele>
        <time>2017-02-18T15:37:56Z</time>
      </trkpt>
      <trkpt lat="45.85357" lon="4.77951">
        <ele>576</ele>
        <time>2017-02-18T15:38:00Z</time>
      </trkpt>
      <trkpt lat="45.85348" lon="4.77954">
        <ele>575.9</ele>
        <time>2017-02-18T15:38:14Z</time>
      </trkpt>
      <trkpt lat="45.85342" lon="4.77959">
        <ele>575.7</ele>
        <time>2017-02-18T15:38:20Z</time>
      </trkpt>
      <trkpt lat="45.85336" lon="4.77962">
        <ele>575.4</ele>
        <time>2017-02-18T15:38:27Z</time>
      </trkpt>
      <trkpt lat="45.85329" lon="4.77966">
        <ele>575.4</ele>
        <time>2017-02-18T15:38:32Z</time>
      </trkpt>
      <trkpt lat="45.85322" lon="4.7797">
        <ele>575.7</ele>
        <time>2017-02-18T15:38:39Z</time>
      </trkpt>
      <trkpt lat="45.85314" lon="4.7797">
        <ele>576.4</ele>
        <time>2017-02-18T15:38:45Z</time>
      </trkpt>
      <trkpt lat="45.85311" lon="4.77968">
        <ele>576.7</ele>
        <time>2017-02-18T15:38:52Z</time>
      </trkpt>
      <trkpt lat="45.85311" lon="4.77968">
        <ele>576.7</ele>
        <time>2017-02-18T15:38:57Z</time>
      </trkpt>
      <trkpt lat="45.85307" lon="4.77962">
        <ele>576.4</ele>
        <time>2017-02-18T15:39:05Z</time>
      </trkpt>
      <trkpt lat="45.85307" lon="4.77962">
        <ele>576.2</ele>
        <time>2017-02-18T15:39:06Z</time>
      </trkpt>
      <trkpt lat="45.85306" lon="4.77949">
        <ele>575.8</ele>
        <time>2017-02-18T15:39:10Z</time>
      </trkpt>
      <trkpt lat="45.85303" lon="4.77937">
        <ele>575.9</ele>
        <time>2017-02-18T15:39:14Z</time>
      </trkpt>
      <trkpt lat="45.85301" lon="4.77925">
        <ele>576.1</ele>
        <time>2017-02-18T15:39:17Z</time>
      </trkpt>
      <trkpt lat="45.85299" lon="4.7791">
        <ele>576.3</ele>
        <time>2017-02-18T15:39:20Z</time>
      </trkpt>
      <trkpt lat="45.85298" lon="4.77896">
        <ele>576.4</ele>
        <time>2017-02-18T15:39:23Z</time>
      </trkpt>
      <trkpt lat="45.85297" lon="4.77885">
        <ele>576.9</ele>
        <time>2017-02-18T15:39:25Z</time>
      </trkpt>
      <trkpt lat="45.85295" lon="4.77874">
        <ele>577.2</ele>
        <time>2017-02-18T15:39:27Z</time>
      </trkpt>
      <trkpt lat="45.85294" lon="4.77863">
        <ele>577.4</ele>
        <time>2017-02-18T15:39:29Z</time>
      </trkpt>
      <trkpt lat="45.85292" lon="4.77852">
        <ele>577.4</ele>
        <time>2017-02-18T15:39:31Z</time>
      </trkpt>
      <trkpt lat="45.85291" lon="4.77841">
        <ele>577.7</ele>
        <time>2017-02-18T15:39:33Z</time>
      </trkpt>
      <trkpt lat="45.85289" lon="4.77828">
        <ele>577.8</ele>
        <time>2017-02-18T15:39:35Z</time>
      </trkpt>
      <trkpt lat="45.85287" lon="4.77816">
        <ele>577.7</ele>
        <time>2017-02-18T15:39:37Z</time>
      </trkpt>
      <trkpt lat="45.85284" lon="4.77803">
        <ele>577.6</ele>
        <time>2017-02-18T15:39:39Z</time>
      </trkpt>
      <trkpt lat="45.85282" lon="4.7779">
        <ele>577.3</ele>
        <time>2017-02-18T15:39:41Z</time>
      </trkpt>
      <trkpt lat="45.8528" lon="4.77778">
        <ele>576.8</ele>
        <time>2017-02-18T15:39:43Z</time>
      </trkpt>
      <trkpt lat="45.85278" lon="4.77767">
        <ele>576.1</ele>
        <time>2017-02-18T15:39:45Z</time>
      </trkpt>
      <trkpt lat="45.85276" lon="4.77756">
        <ele>575.8</ele>
        <time>2017-02-18T15:39:47Z</time>
      </trkpt>
      <trkpt lat="45.85275" lon="4.77745">
        <ele>575.5</ele>
        <time>2017-02-18T15:39:49Z</time>
      </trkpt>
      <trkpt lat="45.85276" lon="4.77732">
        <ele>575.7</ele>
        <time>2017-02-18T15:39:51Z</time>
      </trkpt>
      <trkpt lat="45.85278" lon="4.7772">
        <ele>576.3</ele>
        <time>2017-02-18T15:39:53Z</time>
      </trkpt>
      <trkpt lat="45.85281" lon="4.77708">
        <ele>576.8</ele>
        <time>2017-02-18T15:39:55Z</time>
      </trkpt>
      <trkpt lat="45.85286" lon="4.77696">
        <ele>576.5</ele>
        <time>2017-02-18T15:39:57Z</time>
      </trkpt>
      <trkpt lat="45.85291" lon="4.77688">
        <ele>576.2</ele>
        <time>2017-02-18T15:39:59Z</time>
      </trkpt>
      <trkpt lat="45.85298" lon="4.7768">
        <ele>575.6</ele>
        <time>2017-02-18T15:40:01Z</time>
      </trkpt>
      <trkpt lat="45.85307" lon="4.77674">
        <ele>575.7</ele>
        <time>2017-02-18T15:40:03Z</time>
      </trkpt>
      <trkpt lat="45.85317" lon="4.77668">
        <ele>576.1</ele>
        <time>2017-02-18T15:40:05Z</time>
      </trkpt>
      <trkpt lat="45.85325" lon="4.77666">
        <ele>576.9</ele>
        <time>2017-02-18T15:40:07Z</time>
      </trkpt>
      <trkpt lat="45.85334" lon="4.77666">
        <ele>578.2</ele>
        <time>2017-02-18T15:40:09Z</time>
      </trkpt>
      <trkpt lat="45.85343" lon="4.77667">
        <ele>579.6</ele>
        <time>2017-02-18T15:40:11Z</time>
      </trkpt>
      <trkpt lat="45.85352" lon="4.7767">
        <ele>580</ele>
        <time>2017-02-18T15:40:13Z</time>
      </trkpt>
      <trkpt lat="45.85361" lon="4.77673">
        <ele>579.3</ele>
        <time>2017-02-18T15:40:15Z</time>
      </trkpt>
      <trkpt lat="45.8537" lon="4.77677">
        <ele>578.5</ele>
        <time>2017-02-18T15:40:17Z</time>
      </trkpt>
      <trkpt lat="45.85381" lon="4.7768">
        <ele>578</ele>
        <time>2017-02-18T15:40:19Z</time>
      </trkpt>
      <trkpt lat="45.85391" lon="4.77685">
        <ele>578.4</ele>
        <time>2017-02-18T15:40:21Z</time>
      </trkpt>
      <trkpt lat="45.85401" lon="4.77689">
        <ele>578.4</ele>
        <time>2017-02-18T15:40:23Z</time>
      </trkpt>
      <trkpt lat="45.85412" lon="4.77692">
        <ele>577.8</ele>
        <time>2017-02-18T15:40:25Z</time>
      </trkpt>
      <trkpt lat="45.85423" lon="4.77696">
        <ele>577.4</ele>
        <time>2017-02-18T15:40:27Z</time>
      </trkpt>
      <trkpt lat="45.85436" lon="4.77699">
        <ele>576.9</ele>
        <time>2017-02-18T15:40:29Z</time>
      </trkpt>
      <trkpt lat="45.85448" lon="4.77702">
        <ele>576.3</ele>
        <time>2017-02-18T15:40:31Z</time>
      </trkpt>
      <trkpt lat="45.8546" lon="4.77704">
        <ele>575.4</ele>
        <time>2017-02-18T15:40:33Z</time>
      </trkpt>
      <trkpt lat="45.85473" lon="4.77706">
        <ele>574.3</ele>
        <time>2017-02-18T15:40:35Z</time>
      </trkpt>
      <trkpt lat="45.85487" lon="4.77707">
        <ele>573</ele>
        <time>2017-02-18T15:40:37Z</time>
      </trkpt>
      <trkpt lat="45.855" lon="4.77703">
        <ele>571.3</ele>
        <time>2017-02-18T15:40:39Z</time>
      </trkpt>
      <trkpt lat="45.85511" lon="4.77694">
        <ele>569.7</ele>
        <time>2017-02-18T15:40:41Z</time>
      </trkpt>
      <trkpt lat="45.85519" lon="4.77681">
        <ele>568.5</ele>
        <time>2017-02-18T15:40:43Z</time>
      </trkpt>
      <trkpt lat="45.85526" lon="4.77664">
        <ele>567.2</ele>
        <time>2017-02-18T15:40:45Z</time>
      </trkpt>
      <trkpt lat="45.8553" lon="4.77647">
        <ele>565.8</ele>
        <time>2017-02-18T15:40:47Z</time>
      </trkpt>
      <trkpt lat="45.85534" lon="4.77628">
        <ele>564.7</ele>
        <time>2017-02-18T15:40:49Z</time>
      </trkpt>
      <trkpt lat="45.85539" lon="4.77609">
        <ele>564</ele>
        <time>2017-02-18T15:40:51Z</time>
      </trkpt>
      <trkpt lat="45.85542" lon="4.77597">
        <ele>563.9</ele>
        <time>2017-02-18T15:40:52Z</time>
      </trkpt>
      <trkpt lat="45.85547" lon="4.77577">
        <ele>564</ele>
        <time>2017-02-18T15:40:54Z</time>
      </trkpt>
      <trkpt lat="45.85549" lon="4.77566">
        <ele>564.2</ele>
        <time>2017-02-18T15:40:55Z</time>
      </trkpt>
      <trkpt lat="45.8555" lon="4.77556">
        <ele>564.2</ele>
        <time>2017-02-18T15:40:56Z</time>
      </trkpt>
      <trkpt lat="45.85552" lon="4.77545">
        <ele>563.9</ele>
        <time>2017-02-18T15:40:57Z</time>
      </trkpt>
      <trkpt lat="45.85553" lon="4.77529">
        <ele>564.5</ele>
        <time>2017-02-18T15:40:59Z</time>
      </trkpt>
      <trkpt lat="45.85554" lon="4.77513">
        <ele>565.8</ele>
        <time>2017-02-18T15:41:01Z</time>
      </trkpt>
      <trkpt lat="45.85551" lon="4.77499">
        <ele>566</ele>
        <time>2017-02-18T15:41:04Z</time>
      </trkpt>
      <trkpt lat="45.85548" lon="4.77487">
        <ele>566.2</ele>
        <time>2017-02-18T15:41:07Z</time>
      </trkpt>
      <trkpt lat="45.85543" lon="4.77474">
        <ele>566.8</ele>
        <time>2017-02-18T15:41:09Z</time>
      </trkpt>
      <trkpt lat="45.85538" lon="4.77462">
        <ele>566.5</ele>
        <time>2017-02-18T15:41:11Z</time>
      </trkpt>
      <trkpt lat="45.85529" lon="4.7745">
        <ele>565.7</ele>
        <time>2017-02-18T15:41:13Z</time>
      </trkpt>
      <trkpt lat="45.85523" lon="4.77444">
        <ele>565.9</ele>
        <time>2017-02-18T15:41:14Z</time>
      </trkpt>
      <trkpt lat="45.85517" lon="4.77438">
        <ele>565.8</ele>
        <time>2017-02-18T15:41:15Z</time>
      </trkpt>
      <trkpt lat="45.8551" lon="4.77432">
        <ele>565.6</ele>
        <time>2017-02-18T15:41:16Z</time>
      </trkpt>
      <trkpt lat="45.85498" lon="4.77421">
        <ele>565.2</ele>
        <time>2017-02-18T15:41:18Z</time>
      </trkpt>
      <trkpt lat="45.85492" lon="4.77416">
        <ele>565</ele>
        <time>2017-02-18T15:41:19Z</time>
      </trkpt>
      <trkpt lat="45.85485" lon="4.7741">
        <ele>564.8</ele>
        <time>2017-02-18T15:41:20Z</time>
      </trkpt>
      <trkpt lat="45.85477" lon="4.77405">
        <ele>564.4</ele>
        <time>2017-02-18T15:41:21Z</time>
      </trkpt>
      <trkpt lat="45.85469" lon="4.77399">
        <ele>564</ele>
        <time>2017-02-18T15:41:22Z</time>
      </trkpt>
      <trkpt lat="45.85461" lon="4.77393">
        <ele>563.6</ele>
        <time>2017-02-18T15:41:23Z</time>
      </trkpt>
      <trkpt lat="45.85453" lon="4.77387">
        <ele>563</ele>
        <time>2017-02-18T15:41:24Z</time>
      </trkpt>
      <trkpt lat="45.85446" lon="4.77383">
        <ele>562.5</ele>
        <time>2017-02-18T15:41:25Z</time>
      </trkpt>
      <trkpt lat="45.85435" lon="4.77376">
        <ele>562.8</ele>
        <time>2017-02-18T15:41:27Z</time>
      </trkpt>
      <trkpt lat="45.85426" lon="4.77371">
        <ele>562.8</ele>
        <time>2017-02-18T15:41:30Z</time>
      </trkpt>
      <trkpt lat="45.85419" lon="4.77366">
        <ele>562.6</ele>
        <time>2017-02-18T15:41:33Z</time>
      </trkpt>
      <trkpt lat="45.85416" lon="4.77364">
        <ele>562.2</ele>
        <time>2017-02-18T15:41:40Z</time>
      </trkpt>
      <trkpt lat="45.85423" lon="4.77361">
        <ele>562.1</ele>
        <time>2017-02-18T15:41:42Z</time>
      </trkpt>
      <trkpt lat="45.85433" lon="4.77358">
        <ele>561.8</ele>
        <time>2017-02-18T15:41:45Z</time>
      </trkpt>
      <trkpt lat="45.85441" lon="4.77357">
        <ele>561.4</ele>
        <time>2017-02-18T15:41:48Z</time>
      </trkpt>
      <trkpt lat="45.85448" lon="4.77353">
        <ele>561.3</ele>
        <time>2017-02-18T15:41:50Z</time>
      </trkpt>
      <trkpt lat="45.85456" lon="4.77349">
        <ele>560.2</ele>
        <time>2017-02-18T15:41:52Z</time>
      </trkpt>
      <trkpt lat="45.85463" lon="4.77347">
        <ele>559</ele>
        <time>2017-02-18T15:41:54Z</time>
      </trkpt>
      <trkpt lat="45.8547" lon="4.77345">
        <ele>557.9</ele>
        <time>2017-02-18T15:41:56Z</time>
      </trkpt>
      <trkpt lat="45.85481" lon="4.77344">
        <ele>555</ele>
        <time>2017-02-18T15:41:58Z</time>
      </trkpt>
      <trkpt lat="45.8549" lon="4.77347">
        <ele>554.7</ele>
        <time>2017-02-18T15:42:00Z</time>
      </trkpt>
      <trkpt lat="45.85496" lon="4.77351">
        <ele>554.4</ele>
        <time>2017-02-18T15:42:02Z</time>
      </trkpt>
      <trkpt lat="45.85505" lon="4.77355">
        <ele>554</ele>
        <time>2017-02-18T15:42:04Z</time>
      </trkpt>
      <trkpt lat="45.85513" lon="4.77359">
        <ele>552.3</ele>
        <time>2017-02-18T15:42:06Z</time>
      </trkpt>
      <trkpt lat="45.85524" lon="4.77363">
        <ele>550.2</ele>
        <time>2017-02-18T15:42:08Z</time>
      </trkpt>
      <trkpt lat="45.85533" lon="4.77366">
        <ele>549</ele>
        <time>2017-02-18T15:42:10Z</time>
      </trkpt>
      <trkpt lat="45.85544" lon="4.77369">
        <ele>548.2</ele>
        <time>2017-02-18T15:42:12Z</time>
      </trkpt>
      <trkpt lat="45.85554" lon="4.77371">
        <ele>547.1</ele>
        <time>2017-02-18T15:42:14Z</time>
      </trkpt>
      <trkpt lat="45.85564" lon="4.77373">
        <ele>545.9</ele>
        <time>2017-02-18T15:42:16Z</time>
      </trkpt>
      <trkpt lat="45.85575" lon="4.77375">
        <ele>544.7</ele>
        <time>2017-02-18T15:42:18Z</time>
      </trkpt>
      <trkpt lat="45.85586" lon="4.77375">
        <ele>544</ele>
        <time>2017-02-18T15:42:20Z</time>
      </trkpt>
      <trkpt lat="45.85595" lon="4.77376">
        <ele>543.4</ele>
        <time>2017-02-18T15:42:22Z</time>
      </trkpt>
      <trkpt lat="45.85604" lon="4.77375">
        <ele>543.5</ele>
        <time>2017-02-18T15:42:24Z</time>
      </trkpt>
      <trkpt lat="45.85613" lon="4.77374">
        <ele>544.1</ele>
        <time>2017-02-18T15:42:26Z</time>
      </trkpt>
      <trkpt lat="45.85623" lon="4.77373">
        <ele>544.3</ele>
        <time>2017-02-18T15:42:29Z</time>
      </trkpt>
      <trkpt lat="45.85632" lon="4.77374">
        <ele>544.4</ele>
        <time>2017-02-18T15:42:31Z</time>
      </trkpt>
      <trkpt lat="45.8564" lon="4.77375">
        <ele>544.5</ele>
        <time>2017-02-18T15:42:33Z</time>
      </trkpt>
      <trkpt lat="45.85652" lon="4.77378">
        <ele>545.5</ele>
        <time>2017-02-18T15:42:36Z</time>
      </trkpt>
      <trkpt lat="45.8566" lon="4.77382">
        <ele>546.1</ele>
        <time>2017-02-18T15:42:38Z</time>
      </trkpt>
      <trkpt lat="45.85669" lon="4.77386">
        <ele>545.4</ele>
        <time>2017-02-18T15:42:40Z</time>
      </trkpt>
      <trkpt lat="45.85678" lon="4.77389">
        <ele>545.4</ele>
        <time>2017-02-18T15:42:42Z</time>
      </trkpt>
      <trkpt lat="45.85688" lon="4.77392">
        <ele>544.9</ele>
        <time>2017-02-18T15:42:44Z</time>
      </trkpt>
      <trkpt lat="45.85697" lon="4.77395">
        <ele>544.4</ele>
        <time>2017-02-18T15:42:46Z</time>
      </trkpt>
      <trkpt lat="45.85706" lon="4.774">
        <ele>544.2</ele>
        <time>2017-02-18T15:42:48Z</time>
      </trkpt>
      <trkpt lat="45.85713" lon="4.77407">
        <ele>544</ele>
        <time>2017-02-18T15:42:50Z</time>
      </trkpt>
      <trkpt lat="45.85718" lon="4.77417">
        <ele>543.6</ele>
        <time>2017-02-18T15:42:53Z</time>
      </trkpt>
      <trkpt lat="45.85719" lon="4.77422">
        <ele>542.7</ele>
        <time>2017-02-18T15:43:00Z</time>
      </trkpt>
      <trkpt lat="45.85721" lon="4.77434">
        <ele>542.5</ele>
        <time>2017-02-18T15:43:03Z</time>
      </trkpt>
      <trkpt lat="45.8572" lon="4.77445">
        <ele>542.2</ele>
        <time>2017-02-18T15:43:06Z</time>
      </trkpt>
      <trkpt lat="45.85719" lon="4.77456">
        <ele>541.7</ele>
        <time>2017-02-18T15:43:09Z</time>
      </trkpt>
      <trkpt lat="45.85716" lon="4.77466">
        <ele>541</ele>
        <time>2017-02-18T15:43:12Z</time>
      </trkpt>
      <trkpt lat="45.85712" lon="4.77479">
        <ele>540.4</ele>
        <time>2017-02-18T15:43:15Z</time>
      </trkpt>
      <trkpt lat="45.85709" lon="4.7749">
        <ele>540.1</ele>
        <time>2017-02-18T15:43:17Z</time>
      </trkpt>
      <trkpt lat="45.85704" lon="4.77502">
        <ele>539.9</ele>
        <time>2017-02-18T15:43:20Z</time>
      </trkpt>
      <trkpt lat="45.85699" lon="4.77512">
        <ele>539.7</ele>
        <time>2017-02-18T15:43:22Z</time>
      </trkpt>
      <trkpt lat="45.85696" lon="4.77522">
        <ele>539.4</ele>
        <time>2017-02-18T15:43:24Z</time>
      </trkpt>
      <trkpt lat="45.85692" lon="4.77536">
        <ele>539</ele>
        <time>2017-02-18T15:43:27Z</time>
      </trkpt>
      <trkpt lat="45.85688" lon="4.77548">
        <ele>538.4</ele>
        <time>2017-02-18T15:43:30Z</time>
      </trkpt>
      <trkpt lat="45.85685" lon="4.7756">
        <ele>538</ele>
        <time>2017-02-18T15:43:32Z</time>
      </trkpt>
      <trkpt lat="45.85684" lon="4.7757">
        <ele>537.7</ele>
        <time>2017-02-18T15:43:35Z</time>
      </trkpt>
      <trkpt lat="45.85684" lon="4.77582">
        <ele>537.4</ele>
        <time>2017-02-18T15:43:39Z</time>
      </trkpt>
      <trkpt lat="45.85685" lon="4.77593">
        <ele>536.4</ele>
        <time>2017-02-18T15:43:46Z</time>
      </trkpt>
      <trkpt lat="45.85684" lon="4.77605">
        <ele>535.5</ele>
        <time>2017-02-18T15:43:52Z</time>
      </trkpt>
      <trkpt lat="45.85683" lon="4.77607">
        <ele>534</ele>
        <time>2017-02-18T15:43:59Z</time>
      </trkpt>
      <trkpt lat="45.85683" lon="4.77607">
        <ele>533.8</ele>
        <time>2017-02-18T15:44:01Z</time>
      </trkpt>
      <trkpt lat="45.85684" lon="4.77627">
        <ele>533</ele>
        <time>2017-02-18T15:44:08Z</time>
      </trkpt>
      <trkpt lat="45.85681" lon="4.77638">
        <ele>532.7</ele>
        <time>2017-02-18T15:44:11Z</time>
      </trkpt>
      <trkpt lat="45.8568" lon="4.7765">
        <ele>532.3</ele>
        <time>2017-02-18T15:44:14Z</time>
      </trkpt>
      <trkpt lat="45.85678" lon="4.77661">
        <ele>531.8</ele>
        <time>2017-02-18T15:44:17Z</time>
      </trkpt>
      <trkpt lat="45.85678" lon="4.77672">
        <ele>531.5</ele>
        <time>2017-02-18T15:44:20Z</time>
      </trkpt>
      <trkpt lat="45.85677" lon="4.77677">
        <ele>531</ele>
        <time>2017-02-18T15:44:27Z</time>
      </trkpt>
      <trkpt lat="45.85677" lon="4.77677">
        <ele>530.9</ele>
        <time>2017-02-18T15:44:29Z</time>
      </trkpt>
      <trkpt lat="45.85676" lon="4.77687">
        <ele>530.6</ele>
        <time>2017-02-18T15:44:33Z</time>
      </trkpt>
      <trkpt lat="45.85676" lon="4.77698">
        <ele>530.2</ele>
        <time>2017-02-18T15:44:36Z</time>
      </trkpt>
      <trkpt lat="45.85674" lon="4.7771">
        <ele>529.8</ele>
        <time>2017-02-18T15:44:39Z</time>
      </trkpt>
      <trkpt lat="45.85672" lon="4.77722">
        <ele>529.1</ele>
        <time>2017-02-18T15:44:43Z</time>
      </trkpt>
      <trkpt lat="45.85671" lon="4.7773">
        <ele>528.5</ele>
        <time>2017-02-18T15:44:50Z</time>
      </trkpt>
      <trkpt lat="45.85671" lon="4.7773">
        <ele>528.4</ele>
        <time>2017-02-18T15:44:54Z</time>
      </trkpt>
      <trkpt lat="45.85669" lon="4.77735">
        <ele>527.7</ele>
        <time>2017-02-18T15:45:45Z</time>
      </trkpt>
      <trkpt lat="45.85669" lon="4.77735">
        <ele>527.6</ele>
        <time>2017-02-18T15:45:46Z</time>
      </trkpt>
      <trkpt lat="45.85667" lon="4.77749">
        <ele>527</ele>
        <time>2017-02-18T15:46:13Z</time>
      </trkpt>
      <trkpt lat="45.85666" lon="4.77761">
        <ele>526.5</ele>
        <time>2017-02-18T15:46:20Z</time>
      </trkpt>
      <trkpt lat="45.85666" lon="4.77767">
        <ele>526.1</ele>
        <time>2017-02-18T15:46:27Z</time>
      </trkpt>
      <trkpt lat="45.85664" lon="4.77769">
        <ele>525.8</ele>
        <time>2017-02-18T15:46:34Z</time>
      </trkpt>
      <trkpt lat="45.85663" lon="4.77772">
        <ele>525.6</ele>
        <time>2017-02-18T15:46:41Z</time>
      </trkpt>
      <trkpt lat="45.8566" lon="4.77774">
        <ele>525.7</ele>
        <time>2017-02-18T15:46:48Z</time>
      </trkpt>
      <trkpt lat="45.8566" lon="4.77779">
        <ele>525.8</ele>
        <time>2017-02-18T15:46:55Z</time>
      </trkpt>
      <trkpt lat="45.85661" lon="4.77788">
        <ele>525.3</ele>
        <time>2017-02-18T15:47:02Z</time>
      </trkpt>
      <trkpt lat="45.85658" lon="4.778">
        <ele>524.9</ele>
        <time>2017-02-18T15:47:06Z</time>
      </trkpt>
      <trkpt lat="45.85654" lon="4.7781">
        <ele>524.7</ele>
        <time>2017-02-18T15:47:09Z</time>
      </trkpt>
      <trkpt lat="45.85652" lon="4.7782">
        <ele>524.5</ele>
        <time>2017-02-18T15:47:13Z</time>
      </trkpt>
      <trkpt lat="45.85648" lon="4.77831">
        <ele>524.3</ele>
        <time>2017-02-18T15:47:16Z</time>
      </trkpt>
      <trkpt lat="45.85645" lon="4.7784">
        <ele>523.8</ele>
        <time>2017-02-18T15:47:21Z</time>
      </trkpt>
      <trkpt lat="45.85639" lon="4.77849">
        <ele>523.4</ele>
        <time>2017-02-18T15:47:25Z</time>
      </trkpt>
      <trkpt lat="45.85635" lon="4.77859">
        <ele>523</ele>
        <time>2017-02-18T15:47:29Z</time>
      </trkpt>
      <trkpt lat="45.8563" lon="4.77868">
        <ele>522.4</ele>
        <time>2017-02-18T15:47:33Z</time>
      </trkpt>
      <trkpt lat="45.85627" lon="4.7788">
        <ele>521.7</ele>
        <time>2017-02-18T15:47:38Z</time>
      </trkpt>
      <trkpt lat="45.85626" lon="4.77891">
        <ele>521.1</ele>
        <time>2017-02-18T15:47:42Z</time>
      </trkpt>
      <trkpt lat="45.85626" lon="4.77902">
        <ele>520.3</ele>
        <time>2017-02-18T15:47:48Z</time>
      </trkpt>
      <trkpt lat="45.85626" lon="4.7791">
        <ele>520.3</ele>
        <time>2017-02-18T15:47:55Z</time>
      </trkpt>
      <trkpt lat="45.85626" lon="4.77921">
        <ele>519.7</ele>
        <time>2017-02-18T15:48:00Z</time>
      </trkpt>
      <trkpt lat="45.85623" lon="4.77922">
        <ele>519.2</ele>
        <time>2017-02-18T15:48:07Z</time>
      </trkpt>
      <trkpt lat="45.85625" lon="4.77923">
        <ele>518.6</ele>
        <time>2017-02-18T15:48:14Z</time>
      </trkpt>
      <trkpt lat="45.85634" lon="4.77919">
        <ele>518.5</ele>
        <time>2017-02-18T15:48:21Z</time>
      </trkpt>
      <trkpt lat="45.85642" lon="4.7792">
        <ele>518.2</ele>
        <time>2017-02-18T15:48:24Z</time>
      </trkpt>
      <trkpt lat="45.8565" lon="4.77919">
        <ele>517.5</ele>
        <time>2017-02-18T15:48:30Z</time>
      </trkpt>
      <trkpt lat="45.85657" lon="4.77913">
        <ele>517</ele>
        <time>2017-02-18T15:48:35Z</time>
      </trkpt>
      <trkpt lat="45.85664" lon="4.77908">
        <ele>516.5</ele>
        <time>2017-02-18T15:48:39Z</time>
      </trkpt>
      <trkpt lat="45.85671" lon="4.77903">
        <ele>516.2</ele>
        <time>2017-02-18T15:48:42Z</time>
      </trkpt>
      <trkpt lat="45.85677" lon="4.77896">
        <ele>516</ele>
        <time>2017-02-18T15:48:45Z</time>
      </trkpt>
      <trkpt lat="45.85682" lon="4.77885">
        <ele>515.9</ele>
        <time>2017-02-18T15:48:48Z</time>
      </trkpt>
      <trkpt lat="45.85685" lon="4.77873">
        <ele>515.6</ele>
        <time>2017-02-18T15:48:51Z</time>
      </trkpt>
      <trkpt lat="45.85689" lon="4.77863">
        <ele>514.8</ele>
        <time>2017-02-18T15:48:55Z</time>
      </trkpt>
      <trkpt lat="45.85696" lon="4.77858">
        <ele>513.8</ele>
        <time>2017-02-18T15:49:00Z</time>
      </trkpt>
      <trkpt lat="45.85702" lon="4.77853">
        <ele>512.9</ele>
        <time>2017-02-18T15:49:05Z</time>
      </trkpt>
      <trkpt lat="45.85707" lon="4.77846">
        <ele>511.6</ele>
        <time>2017-02-18T15:49:12Z</time>
      </trkpt>
      <trkpt lat="45.85711" lon="4.77839">
        <ele>509.8</ele>
        <time>2017-02-18T15:49:19Z</time>
      </trkpt>
      <trkpt lat="45.85716" lon="4.77832">
        <ele>508.5</ele>
        <time>2017-02-18T15:49:25Z</time>
      </trkpt>
      <trkpt lat="45.85716" lon="4.77831">
        <ele>507.8</ele>
        <time>2017-02-18T15:49:32Z</time>
      </trkpt>
      <trkpt lat="45.85716" lon="4.77829">
        <ele>507.5</ele>
        <time>2017-02-18T15:49:34Z</time>
      </trkpt>
      <trkpt lat="45.85722" lon="4.77823">
        <ele>505.9</ele>
        <time>2017-02-18T15:49:44Z</time>
      </trkpt>
      <trkpt lat="45.85724" lon="4.77816">
        <ele>504.7</ele>
        <time>2017-02-18T15:49:51Z</time>
      </trkpt>
      <trkpt lat="45.8573" lon="4.77807">
        <ele>504.1</ele>
        <time>2017-02-18T15:49:56Z</time>
      </trkpt>
      <trkpt lat="45.85737" lon="4.77802">
        <ele>503.7</ele>
        <time>2017-02-18T15:50:01Z</time>
      </trkpt>
      <trkpt lat="45.85743" lon="4.77797">
        <ele>503.5</ele>
        <time>2017-02-18T15:50:05Z</time>
      </trkpt>
      <trkpt lat="45.8575" lon="4.77789">
        <ele>503.2</ele>
        <time>2017-02-18T15:50:09Z</time>
      </trkpt>
      <trkpt lat="45.85758" lon="4.77783">
        <ele>502.6</ele>
        <time>2017-02-18T15:50:14Z</time>
      </trkpt>
      <trkpt lat="45.85765" lon="4.77776">
        <ele>502.4</ele>
        <time>2017-02-18T15:50:17Z</time>
      </trkpt>
      <trkpt lat="45.85773" lon="4.77771">
        <ele>502.1</ele>
        <time>2017-02-18T15:50:19Z</time>
      </trkpt>
      <trkpt lat="45.85781" lon="4.77765">
        <ele>501.7</ele>
        <time>2017-02-18T15:50:22Z</time>
      </trkpt>
      <trkpt lat="45.85789" lon="4.77756">
        <ele>501.3</ele>
        <time>2017-02-18T15:50:26Z</time>
      </trkpt>
      <trkpt lat="45.85797" lon="4.7775">
        <ele>500.9</ele>
        <time>2017-02-18T15:50:30Z</time>
      </trkpt>
      <trkpt lat="45.85805" lon="4.77742">
        <ele>500.3</ele>
        <time>2017-02-18T15:50:34Z</time>
      </trkpt>
      <trkpt lat="45.85813" lon="4.77738">
        <ele>499.4</ele>
        <time>2017-02-18T15:50:37Z</time>
      </trkpt>
      <trkpt lat="45.8582" lon="4.77732">
        <ele>498.6</ele>
        <time>2017-02-18T15:50:40Z</time>
      </trkpt>
      <trkpt lat="45.85828" lon="4.77729">
        <ele>497.8</ele>
        <time>2017-02-18T15:50:43Z</time>
      </trkpt>
      <trkpt lat="45.85837" lon="4.77727">
        <ele>496.5</ele>
        <time>2017-02-18T15:50:47Z</time>
      </trkpt>
      <trkpt lat="45.85845" lon="4.77727">
        <ele>495.4</ele>
        <time>2017-02-18T15:50:50Z</time>
      </trkpt>
      <trkpt lat="45.85855" lon="4.77733">
        <ele>493.8</ele>
        <time>2017-02-18T15:50:54Z</time>
      </trkpt>
      <trkpt lat="45.85863" lon="4.77734">
        <ele>492.4</ele>
        <time>2017-02-18T15:50:57Z</time>
      </trkpt>
      <trkpt lat="45.85872" lon="4.77736">
        <ele>490.6</ele>
        <time>2017-02-18T15:51:01Z</time>
      </trkpt>
      <trkpt lat="45.8588" lon="4.77733">
        <ele>489.2</ele>
        <time>2017-02-18T15:51:04Z</time>
      </trkpt>
      <trkpt lat="45.85889" lon="4.77728">
        <ele>487.9</ele>
        <time>2017-02-18T15:51:07Z</time>
      </trkpt>
      <trkpt lat="45.85895" lon="4.77723">
        <ele>487.2</ele>
        <time>2017-02-18T15:51:09Z</time>
      </trkpt>
      <trkpt lat="45.85902" lon="4.77712">
        <ele>486.4</ele>
        <time>2017-02-18T15:51:12Z</time>
      </trkpt>
      <trkpt lat="45.85903" lon="4.77699">
        <ele>485.5</ele>
        <time>2017-02-18T15:51:15Z</time>
      </trkpt>
      <trkpt lat="45.85902" lon="4.77688">
        <ele>485.1</ele>
        <time>2017-02-18T15:51:17Z</time>
      </trkpt>
      <trkpt lat="45.85903" lon="4.77675">
        <ele>484.5</ele>
        <time>2017-02-18T15:51:20Z</time>
      </trkpt>
      <trkpt lat="45.85902" lon="4.77664">
        <ele>483.9</ele>
        <time>2017-02-18T15:51:23Z</time>
      </trkpt>
      <trkpt lat="45.85902" lon="4.77658">
        <ele>482.1</ele>
        <time>2017-02-18T15:51:30Z</time>
      </trkpt>
      <trkpt lat="45.85906" lon="4.77648">
        <ele>478.6</ele>
        <time>2017-02-18T15:51:37Z</time>
      </trkpt>
      <trkpt lat="45.85912" lon="4.77636">
        <ele>477.5</ele>
        <time>2017-02-18T15:51:40Z</time>
      </trkpt>
      <trkpt lat="45.85918" lon="4.77628">
        <ele>476.5</ele>
        <time>2017-02-18T15:51:43Z</time>
      </trkpt>
      <trkpt lat="45.85927" lon="4.77623">
        <ele>475.1</ele>
        <time>2017-02-18T15:51:47Z</time>
      </trkpt>
      <trkpt lat="45.85936" lon="4.7762">
        <ele>474.2</ele>
        <time>2017-02-18T15:51:50Z</time>
      </trkpt>
      <trkpt lat="45.85946" lon="4.77617">
        <ele>468.7</ele>
        <time>2017-02-18T15:51:52Z</time>
      </trkpt>
      <trkpt lat="45.85959" lon="4.77614">
        <ele>464</ele>
        <time>2017-02-18T15:51:54Z</time>
      </trkpt>
      <trkpt lat="45.85971" lon="4.77611">
        <ele>460.4</ele>
        <time>2017-02-18T15:51:56Z</time>
      </trkpt>
      <trkpt lat="45.85982" lon="4.77607">
        <ele>458.9</ele>
        <time>2017-02-18T15:51:58Z</time>
      </trkpt>
      <trkpt lat="45.85994" lon="4.77603">
        <ele>458.1</ele>
        <time>2017-02-18T15:52:00Z</time>
      </trkpt>
      <trkpt lat="45.86006" lon="4.77598">
        <ele>456.6</ele>
        <time>2017-02-18T15:52:02Z</time>
      </trkpt>
      <trkpt lat="45.86017" lon="4.77595">
        <ele>455</ele>
        <time>2017-02-18T15:52:04Z</time>
      </trkpt>
      <trkpt lat="45.86029" lon="4.7759">
        <ele>453.6</ele>
        <time>2017-02-18T15:52:06Z</time>
      </trkpt>
      <trkpt lat="45.86042" lon="4.77582">
        <ele>453</ele>
        <time>2017-02-18T15:52:08Z</time>
      </trkpt>
      <trkpt lat="45.86055" lon="4.77575">
        <ele>452.3</ele>
        <time>2017-02-18T15:52:10Z</time>
      </trkpt>
      <trkpt lat="45.86069" lon="4.77568">
        <ele>450.7</ele>
        <time>2017-02-18T15:52:12Z</time>
      </trkpt>
      <trkpt lat="45.86079" lon="4.77562">
        <ele>449.3</ele>
        <time>2017-02-18T15:52:14Z</time>
      </trkpt>
      <trkpt lat="45.86091" lon="4.77556">
        <ele>448.1</ele>
        <time>2017-02-18T15:52:16Z</time>
      </trkpt>
      <trkpt lat="45.86098" lon="4.77552">
        <ele>447.5</ele>
        <time>2017-02-18T15:52:17Z</time>
      </trkpt>
      <trkpt lat="45.86105" lon="4.77548">
        <ele>446.4</ele>
        <time>2017-02-18T15:52:18Z</time>
      </trkpt>
      <trkpt lat="45.86118" lon="4.77541">
        <ele>446.3</ele>
        <time>2017-02-18T15:52:20Z</time>
      </trkpt>
      <trkpt lat="45.86131" lon="4.77534">
        <ele>446</ele>
        <time>2017-02-18T15:52:22Z</time>
      </trkpt>
      <trkpt lat="45.86141" lon="4.77526">
        <ele>445.8</ele>
        <time>2017-02-18T15:52:24Z</time>
      </trkpt>
      <trkpt lat="45.86152" lon="4.77518">
        <ele>445.7</ele>
        <time>2017-02-18T15:52:26Z</time>
      </trkpt>
      <trkpt lat="45.86162" lon="4.77514">
        <ele>445.8</ele>
        <time>2017-02-18T15:52:28Z</time>
      </trkpt>
      <trkpt lat="45.86172" lon="4.77512">
        <ele>446.5</ele>
        <time>2017-02-18T15:52:30Z</time>
      </trkpt>
      <trkpt lat="45.86182" lon="4.7751">
        <ele>447.1</ele>
        <time>2017-02-18T15:52:32Z</time>
      </trkpt>
      <trkpt lat="45.86191" lon="4.77507">
        <ele>447.5</ele>
        <time>2017-02-18T15:52:34Z</time>
      </trkpt>
      <trkpt lat="45.86199" lon="4.77506">
        <ele>447.5</ele>
        <time>2017-02-18T15:52:36Z</time>
      </trkpt>
      <trkpt lat="45.86208" lon="4.77505">
        <ele>447.5</ele>
        <time>2017-02-18T15:52:38Z</time>
      </trkpt>
      <trkpt lat="45.86217" lon="4.77504">
        <ele>447.6</ele>
        <time>2017-02-18T15:52:41Z</time>
      </trkpt>
      <trkpt lat="45.86225" lon="4.77504">
        <ele>447.5</ele>
        <time>2017-02-18T15:52:43Z</time>
      </trkpt>
      <trkpt lat="45.86233" lon="4.77501">
        <ele>447.2</ele>
        <time>2017-02-18T15:52:47Z</time>
      </trkpt>
      <trkpt lat="45.86242" lon="4.775">
        <ele>446.8</ele>
        <time>2017-02-18T15:52:50Z</time>
      </trkpt>
      <trkpt lat="45.86254" lon="4.77501">
        <ele>446.3</ele>
        <time>2017-02-18T15:52:53Z</time>
      </trkpt>
      <trkpt lat="45.86262" lon="4.77504">
        <ele>446</ele>
        <time>2017-02-18T15:52:55Z</time>
      </trkpt>
      <trkpt lat="45.86273" lon="4.77506">
        <ele>443.4</ele>
        <time>2017-02-18T15:52:57Z</time>
      </trkpt>
      <trkpt lat="45.86284" lon="4.77507">
        <ele>442.5</ele>
        <time>2017-02-18T15:52:59Z</time>
      </trkpt>
      <trkpt lat="45.86293" lon="4.77507">
        <ele>440.7</ele>
        <time>2017-02-18T15:53:01Z</time>
      </trkpt>
      <trkpt lat="45.86303" lon="4.77507">
        <ele>438.5</ele>
        <time>2017-02-18T15:53:03Z</time>
      </trkpt>
      <trkpt lat="45.86311" lon="4.77509">
        <ele>436.3</ele>
        <time>2017-02-18T15:53:05Z</time>
      </trkpt>
      <trkpt lat="45.86319" lon="4.7751">
        <ele>435.3</ele>
        <time>2017-02-18T15:53:07Z</time>
      </trkpt>
      <trkpt lat="45.86326" lon="4.7751">
        <ele>435.1</ele>
        <time>2017-02-18T15:53:09Z</time>
      </trkpt>
      <trkpt lat="45.86333" lon="4.77511">
        <ele>434.9</ele>
        <time>2017-02-18T15:53:11Z</time>
      </trkpt>
      <trkpt lat="45.86341" lon="4.77511">
        <ele>434.5</ele>
        <time>2017-02-18T15:53:14Z</time>
      </trkpt>
      <trkpt lat="45.86351" lon="4.77514">
        <ele>434.1</ele>
        <time>2017-02-18T15:53:17Z</time>
      </trkpt>
      <trkpt lat="45.86361" lon="4.77516">
        <ele>433.8</ele>
        <time>2017-02-18T15:53:20Z</time>
      </trkpt>
      <trkpt lat="45.86368" lon="4.77518">
        <ele>433.4</ele>
        <time>2017-02-18T15:53:23Z</time>
      </trkpt>
      <trkpt lat="45.86377" lon="4.7752">
        <ele>433</ele>
        <time>2017-02-18T15:53:26Z</time>
      </trkpt>
      <trkpt lat="45.86386" lon="4.7752">
        <ele>432.3</ele>
        <time>2017-02-18T15:53:30Z</time>
      </trkpt>
      <trkpt lat="45.86394" lon="4.77519">
        <ele>431.6</ele>
        <time>2017-02-18T15:53:33Z</time>
      </trkpt>
      <trkpt lat="45.86404" lon="4.77519">
        <ele>430.7</ele>
        <time>2017-02-18T15:53:37Z</time>
      </trkpt>
      <trkpt lat="45.86412" lon="4.77518">
        <ele>429.7</ele>
        <time>2017-02-18T15:53:41Z</time>
      </trkpt>
      <trkpt lat="45.8642" lon="4.77518">
        <ele>428.8</ele>
        <time>2017-02-18T15:53:45Z</time>
      </trkpt>
      <trkpt lat="45.86426" lon="4.77522">
        <ele>427.9</ele>
        <time>2017-02-18T15:53:49Z</time>
      </trkpt>
      <trkpt lat="45.86434" lon="4.77523">
        <ele>426.8</ele>
        <time>2017-02-18T15:53:54Z</time>
      </trkpt>
      <trkpt lat="45.86441" lon="4.77521">
        <ele>425.5</ele>
        <time>2017-02-18T15:53:59Z</time>
      </trkpt>
      <trkpt lat="45.86449" lon="4.77515">
        <ele>424.2</ele>
        <time>2017-02-18T15:54:05Z</time>
      </trkpt>
      <trkpt lat="45.86457" lon="4.77513">
        <ele>423.2</ele>
        <time>2017-02-18T15:54:09Z</time>
      </trkpt>
      <trkpt lat="45.86466" lon="4.77511">
        <ele>422.6</ele>
        <time>2017-02-18T15:54:12Z</time>
      </trkpt>
      <trkpt lat="45.86473" lon="4.77509">
        <ele>422.2</ele>
        <time>2017-02-18T15:54:14Z</time>
      </trkpt>
      <trkpt lat="45.86481" lon="4.77507">
        <ele>421.8</ele>
        <time>2017-02-18T15:54:16Z</time>
      </trkpt>
      <trkpt lat="45.86492" lon="4.77505">
        <ele>421.2</ele>
        <time>2017-02-18T15:54:19Z</time>
      </trkpt>
      <trkpt lat="45.86502" lon="4.77504">
        <ele>420.5</ele>
        <time>2017-02-18T15:54:22Z</time>
      </trkpt>
      <trkpt lat="45.86513" lon="4.77503">
        <ele>419.8</ele>
        <time>2017-02-18T15:54:25Z</time>
      </trkpt>
      <trkpt lat="45.86522" lon="4.77502">
        <ele>419.3</ele>
        <time>2017-02-18T15:54:27Z</time>
      </trkpt>
      <trkpt lat="45.8653" lon="4.77502">
        <ele>418.7</ele>
        <time>2017-02-18T15:54:29Z</time>
      </trkpt>
      <trkpt lat="45.86538" lon="4.77501">
        <ele>417.8</ele>
        <time>2017-02-18T15:54:32Z</time>
      </trkpt>
      <trkpt lat="45.86547" lon="4.77499">
        <ele>416.8</ele>
        <time>2017-02-18T15:54:35Z</time>
      </trkpt>
      <trkpt lat="45.86555" lon="4.77495">
        <ele>416</ele>
        <time>2017-02-18T15:54:37Z</time>
      </trkpt>
      <trkpt lat="45.86563" lon="4.77491">
        <ele>415.2</ele>
        <time>2017-02-18T15:54:39Z</time>
      </trkpt>
      <trkpt lat="45.8657" lon="4.77483">
        <ele>414.1</ele>
        <time>2017-02-18T15:54:42Z</time>
      </trkpt>
      <trkpt lat="45.86578" lon="4.77478">
        <ele>413.1</ele>
        <time>2017-02-18T15:54:45Z</time>
      </trkpt>
      <trkpt lat="45.86586" lon="4.77472">
        <ele>412</ele>
        <time>2017-02-18T15:54:48Z</time>
      </trkpt>
      <trkpt lat="45.86594" lon="4.77467">
        <ele>411</ele>
        <time>2017-02-18T15:54:51Z</time>
      </trkpt>
      <trkpt lat="45.86601" lon="4.77463">
        <ele>410</ele>
        <time>2017-02-18T15:54:54Z</time>
      </trkpt>
      <trkpt lat="45.8661" lon="4.77456">
        <ele>408.8</ele>
        <time>2017-02-18T15:54:57Z</time>
      </trkpt>
      <trkpt lat="45.86619" lon="4.77448">
        <ele>407.6</ele>
        <time>2017-02-18T15:55:00Z</time>
      </trkpt>
      <trkpt lat="45.86626" lon="4.77444">
        <ele>406.9</ele>
        <time>2017-02-18T15:55:02Z</time>
      </trkpt>
      <trkpt lat="45.86634" lon="4.77439">
        <ele>406.1</ele>
        <time>2017-02-18T15:55:04Z</time>
      </trkpt>
      <trkpt lat="45.86641" lon="4.77434">
        <ele>405.4</ele>
        <time>2017-02-18T15:55:06Z</time>
      </trkpt>
      <trkpt lat="45.86649" lon="4.77429">
        <ele>401.8</ele>
        <time>2017-02-18T15:55:08Z</time>
      </trkpt>
      <trkpt lat="45.86656" lon="4.77423">
        <ele>401.2</ele>
        <time>2017-02-18T15:55:10Z</time>
      </trkpt>
      <trkpt lat="45.86663" lon="4.77419">
        <ele>400.4</ele>
        <time>2017-02-18T15:55:12Z</time>
      </trkpt>
      <trkpt lat="45.8667" lon="4.77411">
        <ele>399.6</ele>
        <time>2017-02-18T15:55:14Z</time>
      </trkpt>
      <trkpt lat="45.86676" lon="4.774">
        <ele>395.4</ele>
        <time>2017-02-18T15:55:16Z</time>
      </trkpt>
      <trkpt lat="45.86681" lon="4.77387">
        <ele>394.7</ele>
        <time>2017-02-18T15:55:18Z</time>
      </trkpt>
      <trkpt lat="45.86686" lon="4.77375">
        <ele>393.7</ele>
        <time>2017-02-18T15:55:20Z</time>
      </trkpt>
      <trkpt lat="45.86688" lon="4.77365">
        <ele>392.7</ele>
        <time>2017-02-18T15:55:22Z</time>
      </trkpt>
      <trkpt lat="45.86692" lon="4.77354">
        <ele>391.1</ele>
        <time>2017-02-18T15:55:25Z</time>
      </trkpt>
      <trkpt lat="45.86695" lon="4.77342">
        <ele>389</ele>
        <time>2017-02-18T15:55:29Z</time>
      </trkpt>
      <trkpt lat="45.86699" lon="4.7733">
        <ele>387.6</ele>
        <time>2017-02-18T15:55:32Z</time>
      </trkpt>
      <trkpt lat="45.86704" lon="4.77319">
        <ele>382</ele>
        <time>2017-02-18T15:55:35Z</time>
      </trkpt>
      <trkpt lat="45.86705" lon="4.77305">
        <ele>380.7</ele>
        <time>2017-02-18T15:55:38Z</time>
      </trkpt>
      <trkpt lat="45.86705" lon="4.77294">
        <ele>379.5</ele>
        <time>2017-02-18T15:55:41Z</time>
      </trkpt>
      <trkpt lat="45.86702" lon="4.77283">
        <ele>378.3</ele>
        <time>2017-02-18T15:55:44Z</time>
      </trkpt>
      <trkpt lat="45.86701" lon="4.7727">
        <ele>377.3</ele>
        <time>2017-02-18T15:55:47Z</time>
      </trkpt>
      <trkpt lat="45.867" lon="4.7726">
        <ele>376.2</ele>
        <time>2017-02-18T15:55:50Z</time>
      </trkpt>
      <trkpt lat="45.86699" lon="4.77248">
        <ele>375.2</ele>
        <time>2017-02-18T15:55:53Z</time>
      </trkpt>
      <trkpt lat="45.86698" lon="4.77237">
        <ele>374.1</ele>
        <time>2017-02-18T15:55:56Z</time>
      </trkpt>
      <trkpt lat="45.86697" lon="4.77225">
        <ele>372.9</ele>
        <time>2017-02-18T15:55:59Z</time>
      </trkpt>
      <trkpt lat="45.86702" lon="4.77215">
        <ele>371.5</ele>
        <time>2017-02-18T15:56:03Z</time>
      </trkpt>
      <trkpt lat="45.86711" lon="4.77212">
        <ele>370</ele>
        <time>2017-02-18T15:56:07Z</time>
      </trkpt>
      <trkpt lat="45.86714" lon="4.77211">
        <ele>368.5</ele>
        <time>2017-02-18T15:56:14Z</time>
      </trkpt>
      <trkpt lat="45.86713" lon="4.77211">
        <ele>368.2</ele>
        <time>2017-02-18T15:56:16Z</time>
      </trkpt>
      <trkpt lat="45.8672" lon="4.77212">
        <ele>366.5</ele>
        <time>2017-02-18T15:56:24Z</time>
      </trkpt>
      <trkpt lat="45.8672" lon="4.77211">
        <ele>365.5</ele>
        <time>2017-02-18T15:56:31Z</time>
      </trkpt>
      <trkpt lat="45.86718" lon="4.77211">
        <ele>363.7</ele>
        <time>2017-02-18T15:56:38Z</time>
      </trkpt>
      <trkpt lat="45.86725" lon="4.77211">
        <ele>361.9</ele>
        <time>2017-02-18T15:56:44Z</time>
      </trkpt>
      <trkpt lat="45.86733" lon="4.77212">
        <ele>361.2</ele>
        <time>2017-02-18T15:56:47Z</time>
      </trkpt>
      <trkpt lat="45.86741" lon="4.77212">
        <ele>360.5</ele>
        <time>2017-02-18T15:56:50Z</time>
      </trkpt>
      <trkpt lat="45.86751" lon="4.77211">
        <ele>360</ele>
        <time>2017-02-18T15:56:53Z</time>
      </trkpt>
      <trkpt lat="45.86759" lon="4.77209">
        <ele>356.4</ele>
        <time>2017-02-18T15:56:55Z</time>
      </trkpt>
      <trkpt lat="45.86767" lon="4.77208">
        <ele>354.1</ele>
        <time>2017-02-18T15:56:57Z</time>
      </trkpt>
      <trkpt lat="45.86775" lon="4.77208">
        <ele>352.6</ele>
        <time>2017-02-18T15:56:59Z</time>
      </trkpt>
      <trkpt lat="45.86785" lon="4.77208">
        <ele>351.3</ele>
        <time>2017-02-18T15:57:01Z</time>
      </trkpt>
      <trkpt lat="45.86796" lon="4.77207">
        <ele>350</ele>
        <time>2017-02-18T15:57:03Z</time>
      </trkpt>
      <trkpt lat="45.86806" lon="4.77206">
        <ele>348.9</ele>
        <time>2017-02-18T15:57:05Z</time>
      </trkpt>
      <trkpt lat="45.86816" lon="4.77205">
        <ele>347.4</ele>
        <time>2017-02-18T15:57:07Z</time>
      </trkpt>
      <trkpt lat="45.86826" lon="4.77204">
        <ele>346.2</ele>
        <time>2017-02-18T15:57:09Z</time>
      </trkpt>
      <trkpt lat="45.86838" lon="4.77201">
        <ele>344.6</ele>
        <time>2017-02-18T15:57:11Z</time>
      </trkpt>
      <trkpt lat="45.86849" lon="4.77197">
        <ele>342.8</ele>
        <time>2017-02-18T15:57:13Z</time>
      </trkpt>
      <trkpt lat="45.86858" lon="4.77195">
        <ele>341.1</ele>
        <time>2017-02-18T15:57:15Z</time>
      </trkpt>
      <trkpt lat="45.86868" lon="4.77192">
        <ele>338.9</ele>
        <time>2017-02-18T15:57:17Z</time>
      </trkpt>
      <trkpt lat="45.86876" lon="4.7719">
        <ele>337</ele>
        <time>2017-02-18T15:57:19Z</time>
      </trkpt>
      <trkpt lat="45.86884" lon="4.77187">
        <ele>336.9</ele>
        <time>2017-02-18T15:57:21Z</time>
      </trkpt>
      <trkpt lat="45.86891" lon="4.77178">
        <ele>336.9</ele>
        <time>2017-02-18T15:57:24Z</time>
      </trkpt>
      <trkpt lat="45.86895" lon="4.77162">
        <ele>336.6</ele>
        <time>2017-02-18T15:57:27Z</time>
      </trkpt>
      <trkpt lat="45.86901" lon="4.77152">
        <ele>334.1</ele>
        <time>2017-02-18T15:57:29Z</time>
      </trkpt>
      <trkpt lat="45.86908" lon="4.77151">
        <ele>332.9</ele>
        <time>2017-02-18T15:57:31Z</time>
      </trkpt>
      <trkpt lat="45.86916" lon="4.77152">
        <ele>332.8</ele>
        <time>2017-02-18T15:57:34Z</time>
      </trkpt>
      <trkpt lat="45.86926" lon="4.77152">
        <ele>332.5</ele>
        <time>2017-02-18T15:57:36Z</time>
      </trkpt>
      <trkpt lat="45.86937" lon="4.77152">
        <ele>332.3</ele>
        <time>2017-02-18T15:57:38Z</time>
      </trkpt>
      <trkpt lat="45.86948" lon="4.77152">
        <ele>330.8</ele>
        <time>2017-02-18T15:57:40Z</time>
      </trkpt>
      <trkpt lat="45.86957" lon="4.77151">
        <ele>328.9</ele>
        <time>2017-02-18T15:57:42Z</time>
      </trkpt>
      <trkpt lat="45.86965" lon="4.7715">
        <ele>327.9</ele>
        <time>2017-02-18T15:57:44Z</time>
      </trkpt>
      <trkpt lat="45.86972" lon="4.77146">
        <ele>327.4</ele>
        <time>2017-02-18T15:57:47Z</time>
      </trkpt>
      <trkpt lat="45.86977" lon="4.7714">
        <ele>326.3</ele>
        <time>2017-02-18T15:57:54Z</time>
      </trkpt>
      <trkpt lat="45.86976" lon="4.77135">
        <ele>325.9</ele>
        <time>2017-02-18T15:58:01Z</time>
      </trkpt>
      <trkpt lat="45.86976" lon="4.77134">
        <ele>325.2</ele>
        <time>2017-02-18T15:58:07Z</time>
      </trkpt>
      <trkpt lat="45.86975" lon="4.77145">
        <ele>324.1</ele>
        <time>2017-02-18T15:58:16Z</time>
      </trkpt>
      <trkpt lat="45.86982" lon="4.77148">
        <ele>323.5</ele>
        <time>2017-02-18T15:58:22Z</time>
      </trkpt>
      <trkpt lat="45.86993" lon="4.77148">
        <ele>323.3</ele>
        <time>2017-02-18T15:58:25Z</time>
      </trkpt>
      <trkpt lat="45.87003" lon="4.77148">
        <ele>322</ele>
        <time>2017-02-18T15:58:27Z</time>
      </trkpt>
      <trkpt lat="45.87016" lon="4.77146">
        <ele>320.3</ele>
        <time>2017-02-18T15:58:29Z</time>
      </trkpt>
      <trkpt lat="45.8703" lon="4.77145">
        <ele>319.1</ele>
        <time>2017-02-18T15:58:31Z</time>
      </trkpt>
      <trkpt lat="45.87044" lon="4.77143">
        <ele>318.7</ele>
        <time>2017-02-18T15:58:33Z</time>
      </trkpt>
      <trkpt lat="45.87051" lon="4.77143">
        <ele>318.9</ele>
        <time>2017-02-18T15:58:34Z</time>
      </trkpt>
      <trkpt lat="45.87059" lon="4.77142">
        <ele>318.7</ele>
        <time>2017-02-18T15:58:35Z</time>
      </trkpt>
      <trkpt lat="45.87066" lon="4.77142">
        <ele>318.3</ele>
        <time>2017-02-18T15:58:36Z</time>
      </trkpt>
      <trkpt lat="45.87081" lon="4.7714">
        <ele>317.5</ele>
        <time>2017-02-18T15:58:38Z</time>
      </trkpt>
      <trkpt lat="45.87089" lon="4.7714">
        <ele>316.5</ele>
        <time>2017-02-18T15:58:39Z</time>
      </trkpt>
      <trkpt lat="45.87098" lon="4.7714">
        <ele>315</ele>
        <time>2017-02-18T15:58:40Z</time>
      </trkpt>
      <trkpt lat="45.87106" lon="4.77141">
        <ele>313.4</ele>
        <time>2017-02-18T15:58:41Z</time>
      </trkpt>
      <trkpt lat="45.8712" lon="4.7714">
        <ele>311.3</ele>
        <time>2017-02-18T15:58:43Z</time>
      </trkpt>
      <trkpt lat="45.87129" lon="4.7714">
        <ele>310.3</ele>
        <time>2017-02-18T15:58:44Z</time>
      </trkpt>
      <trkpt lat="45.87137" lon="4.7714">
        <ele>309.6</ele>
        <time>2017-02-18T15:58:45Z</time>
      </trkpt>
      <trkpt lat="45.87145" lon="4.7714">
        <ele>309.1</ele>
        <time>2017-02-18T15:58:46Z</time>
      </trkpt>
      <trkpt lat="45.87152" lon="4.7714">
        <ele>308.4</ele>
        <time>2017-02-18T15:58:47Z</time>
      </trkpt>
      <trkpt lat="45.87165" lon="4.77139">
        <ele>307.5</ele>
        <time>2017-02-18T15:58:49Z</time>
      </trkpt>
      <trkpt lat="45.87178" lon="4.77139">
        <ele>307.1</ele>
        <time>2017-02-18T15:58:51Z</time>
      </trkpt>
      <trkpt lat="45.87185" lon="4.77138">
        <ele>306.7</ele>
        <time>2017-02-18T15:58:52Z</time>
      </trkpt>
      <trkpt lat="45.87193" lon="4.77138">
        <ele>306.2</ele>
        <time>2017-02-18T15:58:53Z</time>
      </trkpt>
      <trkpt lat="45.872" lon="4.77137">
        <ele>305.8</ele>
        <time>2017-02-18T15:58:54Z</time>
      </trkpt>
      <trkpt lat="45.87208" lon="4.77137">
        <ele>305.4</ele>
        <time>2017-02-18T15:58:55Z</time>
      </trkpt>
      <trkpt lat="45.87216" lon="4.77136">
        <ele>304.8</ele>
        <time>2017-02-18T15:58:56Z</time>
      </trkpt>
      <trkpt lat="45.87223" lon="4.77136">
        <ele>304.2</ele>
        <time>2017-02-18T15:58:57Z</time>
      </trkpt>
      <trkpt lat="45.87237" lon="4.77135">
        <ele>302.8</ele>
        <time>2017-02-18T15:58:59Z</time>
      </trkpt>
      <trkpt lat="45.87247" lon="4.77137">
        <ele>301.2</ele>
        <time>2017-02-18T15:59:01Z</time>
      </trkpt>
      <trkpt lat="45.87255" lon="4.77138">
        <ele>300.3</ele>
        <time>2017-02-18T15:59:03Z</time>
      </trkpt>
      <trkpt lat="45.87263" lon="4.7714">
        <ele>300.1</ele>
        <time>2017-02-18T15:59:06Z</time>
      </trkpt>
      <trkpt lat="45.87265" lon="4.7714">
        <ele>299.6</ele>
        <time>2017-02-18T15:59:13Z</time>
      </trkpt>
      <trkpt lat="45.87265" lon="4.7714">
        <ele>299.4</ele>
        <time>2017-02-18T15:59:15Z</time>
      </trkpt>
      <trkpt lat="45.87273" lon="4.77136">
        <ele>299.1</ele>
        <time>2017-02-18T15:59:19Z</time>
      </trkpt>
      <trkpt lat="45.8728" lon="4.77131">
        <ele>298.8</ele>
        <time>2017-02-18T15:59:22Z</time>
      </trkpt>
      <trkpt lat="45.87288" lon="4.77128">
        <ele>298.6</ele>
        <time>2017-02-18T15:59:25Z</time>
      </trkpt>
      <trkpt lat="45.87298" lon="4.77121">
        <ele>298.4</ele>
        <time>2017-02-18T15:59:28Z</time>
      </trkpt>
      <trkpt lat="45.87305" lon="4.77118">
        <ele>298.4</ele>
        <time>2017-02-18T15:59:30Z</time>
      </trkpt>
      <trkpt lat="45.87313" lon="4.77116">
        <ele>298.4</ele>
        <time>2017-02-18T15:59:33Z</time>
      </trkpt>
      <trkpt lat="45.87322" lon="4.77113">
        <ele>298.2</ele>
        <time>2017-02-18T15:59:36Z</time>
      </trkpt>
      <trkpt lat="45.87332" lon="4.77111">
        <ele>297.9</ele>
        <time>2017-02-18T15:59:39Z</time>
      </trkpt>
      <trkpt lat="45.87338" lon="4.77103">
        <ele>297.1</ele>
        <time>2017-02-18T15:59:43Z</time>
      </trkpt>
      <trkpt lat="45.87337" lon="4.77091">
        <ele>296.8</ele>
        <time>2017-02-18T15:59:46Z</time>
      </trkpt>
      <trkpt lat="45.87338" lon="4.77077">
        <ele>296.6</ele>
        <time>2017-02-18T15:59:49Z</time>
      </trkpt>
      <trkpt lat="45.87344" lon="4.77072">
        <ele>296.3</ele>
        <time>2017-02-18T15:59:52Z</time>
      </trkpt>
      <trkpt lat="45.87352" lon="4.7707">
        <ele>296.1</ele>
        <time>2017-02-18T15:59:54Z</time>
      </trkpt>
      <trkpt lat="45.87362" lon="4.7707">
        <ele>295.5</ele>
        <time>2017-02-18T15:59:57Z</time>
      </trkpt>
      <trkpt lat="45.87377" lon="4.77077">
        <ele>294.9</ele>
        <time>2017-02-18T16:00:05Z</time>
      </trkpt>
      <trkpt lat="45.87382" lon="4.77083">
        <ele>294.5</ele>
        <time>2017-02-18T16:00:06Z</time>
      </trkpt>
      <trkpt lat="45.87389" lon="4.77073">
        <ele>294.2</ele>
        <time>2017-02-18T16:00:10Z</time>
      </trkpt>
      <trkpt lat="45.87396" lon="4.77063">
        <ele>290.4</ele>
        <time>2017-02-18T16:00:13Z</time>
      </trkpt>
      <trkpt lat="45.87404" lon="4.77055">
        <ele>287.9</ele>
        <time>2017-02-18T16:00:15Z</time>
      </trkpt>
      <trkpt lat="45.87412" lon="4.77048">
        <ele>286</ele>
        <time>2017-02-18T16:00:17Z</time>
      </trkpt>
      <trkpt lat="45.8742" lon="4.77042">
        <ele>284.6</ele>
        <time>2017-02-18T16:00:19Z</time>
      </trkpt>
      <trkpt lat="45.8743" lon="4.7704">
        <ele>283.5</ele>
        <time>2017-02-18T16:00:21Z</time>
      </trkpt>
      <trkpt lat="45.8744" lon="4.77037">
        <ele>283</ele>
        <time>2017-02-18T16:00:23Z</time>
      </trkpt>
      <trkpt lat="45.87451" lon="4.77035">
        <ele>283</ele>
        <time>2017-02-18T16:00:25Z</time>
      </trkpt>
      <trkpt lat="45.87461" lon="4.77035">
        <ele>282.7</ele>
        <time>2017-02-18T16:00:27Z</time>
      </trkpt>
      <trkpt lat="45.87472" lon="4.77035">
        <ele>282.3</ele>
        <time>2017-02-18T16:00:29Z</time>
      </trkpt>
      <trkpt lat="45.87483" lon="4.77034">
        <ele>281.3</ele>
        <time>2017-02-18T16:00:31Z</time>
      </trkpt>
      <trkpt lat="45.87493" lon="4.77034">
        <ele>280.9</ele>
        <time>2017-02-18T16:00:33Z</time>
      </trkpt>
      <trkpt lat="45.87503" lon="4.77032">
        <ele>281.6</ele>
        <time>2017-02-18T16:00:35Z</time>
      </trkpt>
      <trkpt lat="45.87508" lon="4.77022">
        <ele>282.4</ele>
        <time>2017-02-18T16:00:38Z</time>
      </trkpt>
      <trkpt lat="45.8751" lon="4.77009">
        <ele>282.1</ele>
        <time>2017-02-18T16:00:40Z</time>
      </trkpt>
      <trkpt lat="45.87511" lon="4.76995">
        <ele>282.8</ele>
        <time>2017-02-18T16:00:42Z</time>
      </trkpt>
      <trkpt lat="45.87512" lon="4.76977">
        <ele>283</ele>
        <time>2017-02-18T16:00:44Z</time>
      </trkpt>
      <trkpt lat="45.87513" lon="4.76962">
        <ele>282.8</ele>
        <time>2017-02-18T16:00:46Z</time>
      </trkpt>
      <trkpt lat="45.87514" lon="4.76947">
        <ele>282.3</ele>
        <time>2017-02-18T16:00:48Z</time>
      </trkpt>
      <trkpt lat="45.87514" lon="4.76932">
        <ele>282.9</ele>
        <time>2017-02-18T16:00:50Z</time>
      </trkpt>
      <trkpt lat="45.87514" lon="4.76916">
        <ele>283.4</ele>
        <time>2017-02-18T16:00:52Z</time>
      </trkpt>
      <trkpt lat="45.87514" lon="4.76901">
        <ele>282.6</ele>
        <time>2017-02-18T16:00:54Z</time>
      </trkpt>
      <trkpt lat="45.87514" lon="4.76885">
        <ele>281.3</ele>
        <time>2017-02-18T16:00:56Z</time>
      </trkpt>
      <trkpt lat="45.87515" lon="4.76872">
        <ele>280.7</ele>
        <time>2017-02-18T16:00:58Z</time>
      </trkpt>
      <trkpt lat="45.87524" lon="4.76868">
        <ele>280.6</ele>
        <time>2017-02-18T16:01:01Z</time>
      </trkpt>
      <trkpt lat="45.87534" lon="4.76865">
        <ele>279.4</ele>
        <time>2017-02-18T16:01:04Z</time>
      </trkpt>
      <trkpt lat="45.87545" lon="4.76861">
        <ele>280</ele>
        <time>2017-02-18T16:01:07Z</time>
      </trkpt>
      <trkpt lat="45.87554" lon="4.76859">
        <ele>280.1</ele>
        <time>2017-02-18T16:01:09Z</time>
      </trkpt>
      <trkpt lat="45.87562" lon="4.76857">
        <ele>280.8</ele>
        <time>2017-02-18T16:01:11Z</time>
      </trkpt>
      <trkpt lat="45.8757" lon="4.76854">
        <ele>281.2</ele>
        <time>2017-02-18T16:01:13Z</time>
      </trkpt>
      <trkpt lat="45.87577" lon="4.76851">
        <ele>281.3</ele>
        <time>2017-02-18T16:01:15Z</time>
      </trkpt>
      <trkpt lat="45.87586" lon="4.76847">
        <ele>280.6</ele>
        <time>2017-02-18T16:01:17Z</time>
      </trkpt>
      <trkpt lat="45.87595" lon="4.76845">
        <ele>279.9</ele>
        <time>2017-02-18T16:01:19Z</time>
      </trkpt>
      <trkpt lat="45.87603" lon="4.76842">
        <ele>279</ele>
        <time>2017-02-18T16:01:21Z</time>
      </trkpt>
      <trkpt lat="45.87614" lon="4.76839">
        <ele>278.8</ele>
        <time>2017-02-18T16:01:24Z</time>
      </trkpt>
      <trkpt lat="45.87622" lon="4.76837">
        <ele>279</ele>
        <time>2017-02-18T16:01:26Z</time>
      </trkpt>
      <trkpt lat="45.8763" lon="4.76835">
        <ele>279</ele>
        <time>2017-02-18T16:01:28Z</time>
      </trkpt>
      <trkpt lat="45.87637" lon="4.76832">
        <ele>279.1</ele>
        <time>2017-02-18T16:01:30Z</time>
      </trkpt>
      <trkpt lat="45.87645" lon="4.7683">
        <ele>278.9</ele>
        <time>2017-02-18T16:01:32Z</time>
      </trkpt>
      <trkpt lat="45.87654" lon="4.76828">
        <ele>278.1</ele>
        <time>2017-02-18T16:01:34Z</time>
      </trkpt>
      <trkpt lat="45.87664" lon="4.76826">
        <ele>278.1</ele>
        <time>2017-02-18T16:01:37Z</time>
      </trkpt>
      <trkpt lat="45.87671" lon="4.76825">
        <ele>278.1</ele>
        <time>2017-02-18T16:01:39Z</time>
      </trkpt>
      <trkpt lat="45.8768" lon="4.76824">
        <ele>277.8</ele>
        <time>2017-02-18T16:01:41Z</time>
      </trkpt>
      <trkpt lat="45.8769" lon="4.76823">
        <ele>277.9</ele>
        <time>2017-02-18T16:01:43Z</time>
      </trkpt>
      <trkpt lat="45.87699" lon="4.76823">
        <ele>277.4</ele>
        <time>2017-02-18T16:01:45Z</time>
      </trkpt>
      <trkpt lat="45.87707" lon="4.76822">
        <ele>276.6</ele>
        <time>2017-02-18T16:01:47Z</time>
      </trkpt>
      <trkpt lat="45.87716" lon="4.76821">
        <ele>275.7</ele>
        <time>2017-02-18T16:01:49Z</time>
      </trkpt>
      <trkpt lat="45.87725" lon="4.7682">
        <ele>275.4</ele>
        <time>2017-02-18T16:01:51Z</time>
      </trkpt>
      <trkpt lat="45.87734" lon="4.76817">
        <ele>275.5</ele>
        <time>2017-02-18T16:01:54Z</time>
      </trkpt>
      <trkpt lat="45.87746" lon="4.76815">
        <ele>275.5</ele>
        <time>2017-02-18T16:01:57Z</time>
      </trkpt>
      <trkpt lat="45.87754" lon="4.76813">
        <ele>275.5</ele>
        <time>2017-02-18T16:01:59Z</time>
      </trkpt>
      <trkpt lat="45.87761" lon="4.76812">
        <ele>275.6</ele>
        <time>2017-02-18T16:02:01Z</time>
      </trkpt>
      <trkpt lat="45.87771" lon="4.7681">
        <ele>275.8</ele>
        <time>2017-02-18T16:02:04Z</time>
      </trkpt>
      <trkpt lat="45.87781" lon="4.76808">
        <ele>276.2</ele>
        <time>2017-02-18T16:02:06Z</time>
      </trkpt>
      <trkpt lat="45.8779" lon="4.76807">
        <ele>275.7</ele>
        <time>2017-02-18T16:02:08Z</time>
      </trkpt>
      <trkpt lat="45.878" lon="4.76805">
        <ele>275.9</ele>
        <time>2017-02-18T16:02:10Z</time>
      </trkpt>
      <trkpt lat="45.8781" lon="4.76804">
        <ele>276.7</ele>
        <time>2017-02-18T16:02:13Z</time>
      </trkpt>
      <trkpt lat="45.87819" lon="4.76803">
        <ele>277.5</ele>
        <time>2017-02-18T16:02:15Z</time>
      </trkpt>
      <trkpt lat="45.87828" lon="4.76802">
        <ele>278.5</ele>
        <time>2017-02-18T16:02:17Z</time>
      </trkpt>
      <trkpt lat="45.87838" lon="4.76801">
        <ele>278.6</ele>
        <time>2017-02-18T16:02:19Z</time>
      </trkpt>
      <trkpt lat="45.87846" lon="4.768">
        <ele>278.5</ele>
        <time>2017-02-18T16:02:21Z</time>
      </trkpt>
      <trkpt lat="45.87856" lon="4.768">
        <ele>279</ele>
        <time>2017-02-18T16:02:23Z</time>
      </trkpt>
      <trkpt lat="45.87865" lon="4.76798">
        <ele>279.6</ele>
        <time>2017-02-18T16:02:25Z</time>
      </trkpt>
      <trkpt lat="45.87874" lon="4.76797">
        <ele>279.3</ele>
        <time>2017-02-18T16:02:27Z</time>
      </trkpt>
      <trkpt lat="45.87883" lon="4.76795">
        <ele>277.7</ele>
        <time>2017-02-18T16:02:29Z</time>
      </trkpt>
      <trkpt lat="45.87892" lon="4.76793">
        <ele>276</ele>
        <time>2017-02-18T16:02:31Z</time>
      </trkpt>
      <trkpt lat="45.87902" lon="4.76792">
        <ele>276.1</ele>
        <time>2017-02-18T16:02:33Z</time>
      </trkpt>
      <trkpt lat="45.87911" lon="4.76791">
        <ele>276.4</ele>
        <time>2017-02-18T16:02:35Z</time>
      </trkpt>
      <trkpt lat="45.87921" lon="4.76789">
        <ele>276.4</ele>
        <time>2017-02-18T16:02:37Z</time>
      </trkpt>
      <trkpt lat="45.8793" lon="4.76787">
        <ele>276.5</ele>
        <time>2017-02-18T16:02:39Z</time>
      </trkpt>
      <trkpt lat="45.87939" lon="4.76786">
        <ele>276.2</ele>
        <time>2017-02-18T16:02:41Z</time>
      </trkpt>
      <trkpt lat="45.87947" lon="4.76785">
        <ele>274.9</ele>
        <time>2017-02-18T16:02:43Z</time>
      </trkpt>
      <trkpt lat="45.87955" lon="4.76784">
        <ele>274.6</ele>
        <time>2017-02-18T16:02:45Z</time>
      </trkpt>
      <trkpt lat="45.87962" lon="4.76781">
        <ele>273.9</ele>
        <time>2017-02-18T16:02:47Z</time>
      </trkpt>
      <trkpt lat="45.87971" lon="4.7678">
        <ele>273.5</ele>
        <time>2017-02-18T16:02:49Z</time>
      </trkpt>
      <trkpt lat="45.87979" lon="4.76779">
        <ele>273.3</ele>
        <time>2017-02-18T16:02:51Z</time>
      </trkpt>
      <trkpt lat="45.87988" lon="4.76778">
        <ele>273.3</ele>
        <time>2017-02-18T16:02:53Z</time>
      </trkpt>
      <trkpt lat="45.87997" lon="4.76776">
        <ele>273.2</ele>
        <time>2017-02-18T16:02:55Z</time>
      </trkpt>
      <trkpt lat="45.88006" lon="4.76774">
        <ele>273.3</ele>
        <time>2017-02-18T16:02:57Z</time>
      </trkpt>
      <trkpt lat="45.88015" lon="4.76773">
        <ele>273</ele>
        <time>2017-02-18T16:02:59Z</time>
      </trkpt>
      <trkpt lat="45.88024" lon="4.7677">
        <ele>272.5</ele>
        <time>2017-02-18T16:03:01Z</time>
      </trkpt>
      <trkpt lat="45.88034" lon="4.76768">
        <ele>271.8</ele>
        <time>2017-02-18T16:03:03Z</time>
      </trkpt>
      <trkpt lat="45.88044" lon="4.76765">
        <ele>271.3</ele>
        <time>2017-02-18T16:03:05Z</time>
      </trkpt>
      <trkpt lat="45.88054" lon="4.76763">
        <ele>270.6</ele>
        <time>2017-02-18T16:03:07Z</time>
      </trkpt>
      <trkpt lat="45.88064" lon="4.76762">
        <ele>269.9</ele>
        <time>2017-02-18T16:03:09Z</time>
      </trkpt>
      <trkpt lat="45.88073" lon="4.7676">
        <ele>269.4</ele>
        <time>2017-02-18T16:03:11Z</time>
      </trkpt>
      <trkpt lat="45.88082" lon="4.76759">
        <ele>269.1</ele>
        <time>2017-02-18T16:03:13Z</time>
      </trkpt>
      <trkpt lat="45.8809" lon="4.76757">
        <ele>269</ele>
        <time>2017-02-18T16:03:15Z</time>
      </trkpt>
      <trkpt lat="45.88099" lon="4.76755">
        <ele>268.9</ele>
        <time>2017-02-18T16:03:18Z</time>
      </trkpt>
      <trkpt lat="45.88104" lon="4.76756">
        <ele>268.6</ele>
        <time>2017-02-18T16:03:25Z</time>
      </trkpt>
      <trkpt lat="45.88104" lon="4.76756">
        <ele>268.6</ele>
        <time>2017-02-18T16:03:28Z</time>
      </trkpt>
      <trkpt lat="45.88111" lon="4.76748">
        <ele>268</ele>
        <time>2017-02-18T16:04:07Z</time>
      </trkpt>
      <trkpt lat="45.88115" lon="4.76736">
        <ele>267.9</ele>
        <time>2017-02-18T16:04:10Z</time>
      </trkpt>
      <trkpt lat="45.8812" lon="4.76724">
        <ele>267.5</ele>
        <time>2017-02-18T16:04:13Z</time>
      </trkpt>
      <trkpt lat="45.88126" lon="4.76714">
        <ele>267.2</ele>
        <time>2017-02-18T16:04:16Z</time>
      </trkpt>
      <trkpt lat="45.88128" lon="4.76711">
        <ele>266.5</ele>
        <time>2017-02-18T16:04:23Z</time>
      </trkpt>
      <trkpt lat="45.8813" lon="4.7671">
        <ele>266.3</ele>
        <time>2017-02-18T16:04:30Z</time>
      </trkpt>
      <trkpt lat="45.88134" lon="4.76703">
        <ele>266.6</ele>
        <time>2017-02-18T16:04:37Z</time>
      </trkpt>
      <trkpt lat="45.88137" lon="4.76692">
        <ele>266.5</ele>
        <time>2017-02-18T16:04:41Z</time>
      </trkpt>
      <trkpt lat="45.88142" lon="4.76681">
        <ele>266.4</ele>
        <time>2017-02-18T16:04:44Z</time>
      </trkpt>
      <trkpt lat="45.88146" lon="4.76671">
        <ele>266.3</ele>
        <time>2017-02-18T16:04:47Z</time>
      </trkpt>
      <trkpt lat="45.88151" lon="4.76659">
        <ele>266.3</ele>
        <time>2017-02-18T16:04:50Z</time>
      </trkpt>
      <trkpt lat="45.88156" lon="4.76648">
        <ele>266.2</ele>
        <time>2017-02-18T16:04:53Z</time>
      </trkpt>
      <trkpt lat="45.8816" lon="4.76637">
        <ele>266.3</ele>
        <time>2017-02-18T16:04:56Z</time>
      </trkpt>
      <trkpt lat="45.88165" lon="4.76626">
        <ele>266.5</ele>
        <time>2017-02-18T16:04:59Z</time>
      </trkpt>
      <trkpt lat="45.88169" lon="4.76616">
        <ele>266.9</ele>
        <time>2017-02-18T16:05:01Z</time>
      </trkpt>
      <trkpt lat="45.88173" lon="4.76605">
        <ele>267.5</ele>
        <time>2017-02-18T16:05:03Z</time>
      </trkpt>
      <trkpt lat="45.88176" lon="4.76595">
        <ele>268</ele>
        <time>2017-02-18T16:05:05Z</time>
      </trkpt>
      <trkpt lat="45.88179" lon="4.76585">
        <ele>268</ele>
        <time>2017-02-18T16:05:07Z</time>
      </trkpt>
      <trkpt lat="45.88182" lon="4.76575">
        <ele>268.2</ele>
        <time>2017-02-18T16:05:09Z</time>
      </trkpt>
      <trkpt lat="45.88185" lon="4.76564">
        <ele>268.5</ele>
        <time>2017-02-18T16:05:11Z</time>
      </trkpt>
      <trkpt lat="45.88188" lon="4.76552">
        <ele>268.8</ele>
        <time>2017-02-18T16:05:13Z</time>
      </trkpt>
      <trkpt lat="45.88192" lon="4.76541">
        <ele>269</ele>
        <time>2017-02-18T16:05:15Z</time>
      </trkpt>
      <trkpt lat="45.88196" lon="4.7653">
        <ele>268.8</ele>
        <time>2017-02-18T16:05:17Z</time>
      </trkpt>
      <trkpt lat="45.88199" lon="4.76518">
        <ele>268.6</ele>
        <time>2017-02-18T16:05:19Z</time>
      </trkpt>
      <trkpt lat="45.88203" lon="4.76507">
        <ele>268.6</ele>
        <time>2017-02-18T16:05:21Z</time>
      </trkpt>
      <trkpt lat="45.88207" lon="4.76496">
        <ele>268.6</ele>
        <time>2017-02-18T16:05:23Z</time>
      </trkpt>
      <trkpt lat="45.8821" lon="4.76485">
        <ele>267.9</ele>
        <time>2017-02-18T16:05:25Z</time>
      </trkpt>
      <trkpt lat="45.88213" lon="4.76474">
        <ele>267.2</ele>
        <time>2017-02-18T16:05:27Z</time>
      </trkpt>
      <trkpt lat="45.88217" lon="4.76463">
        <ele>266.7</ele>
        <time>2017-02-18T16:05:29Z</time>
      </trkpt>
      <trkpt lat="45.88222" lon="4.76451">
        <ele>266.7</ele>
        <time>2017-02-18T16:05:31Z</time>
      </trkpt>
      <trkpt lat="45.88226" lon="4.7644">
        <ele>267</ele>
        <time>2017-02-18T16:05:33Z</time>
      </trkpt>
      <trkpt lat="45.8823" lon="4.76428">
        <ele>267.9</ele>
        <time>2017-02-18T16:05:35Z</time>
      </trkpt>
      <trkpt lat="45.88235" lon="4.76416">
        <ele>269</ele>
        <time>2017-02-18T16:05:37Z</time>
      </trkpt>
      <trkpt lat="45.88239" lon="4.76404">
        <ele>270.7</ele>
        <time>2017-02-18T16:05:39Z</time>
      </trkpt>
      <trkpt lat="45.88244" lon="4.76392">
        <ele>271.8</ele>
        <time>2017-02-18T16:05:41Z</time>
      </trkpt>
      <trkpt lat="45.88249" lon="4.7638">
        <ele>272.4</ele>
        <time>2017-02-18T16:05:43Z</time>
      </trkpt>
      <trkpt lat="45.88252" lon="4.76368">
        <ele>272</ele>
        <time>2017-02-18T16:05:45Z</time>
      </trkpt>
      <trkpt lat="45.88256" lon="4.76355">
        <ele>271.1</ele>
        <time>2017-02-18T16:05:47Z</time>
      </trkpt>
      <trkpt lat="45.8826" lon="4.76343">
        <ele>270.4</ele>
        <time>2017-02-18T16:05:49Z</time>
      </trkpt>
      <trkpt lat="45.88264" lon="4.7633">
        <ele>270</ele>
        <time>2017-02-18T16:05:51Z</time>
      </trkpt>
      <trkpt lat="45.88268" lon="4.76315">
        <ele>269.7</ele>
        <time>2017-02-18T16:05:53Z</time>
      </trkpt>
      <trkpt lat="45.88271" lon="4.76302">
        <ele>268.8</ele>
        <time>2017-02-18T16:05:55Z</time>
      </trkpt>
      <trkpt lat="45.88274" lon="4.76287">
        <ele>267.7</ele>
        <time>2017-02-18T16:05:57Z</time>
      </trkpt>
      <trkpt lat="45.88277" lon="4.76271">
        <ele>267.6</ele>
        <time>2017-02-18T16:05:59Z</time>
      </trkpt>
      <trkpt lat="45.88279" lon="4.76255">
        <ele>267.3</ele>
        <time>2017-02-18T16:06:01Z</time>
      </trkpt>
      <trkpt lat="45.88281" lon="4.76237">
        <ele>266.6</ele>
        <time>2017-02-18T16:06:03Z</time>
      </trkpt>
      <trkpt lat="45.88284" lon="4.76218">
        <ele>265.1</ele>
        <time>2017-02-18T16:06:05Z</time>
      </trkpt>
      <trkpt lat="45.88286" lon="4.76199">
        <ele>263.5</ele>
        <time>2017-02-18T16:06:07Z</time>
      </trkpt>
      <trkpt lat="45.88287" lon="4.7618">
        <ele>262.2</ele>
        <time>2017-02-18T16:06:09Z</time>
      </trkpt>
      <trkpt lat="45.88288" lon="4.76161">
        <ele>261.2</ele>
        <time>2017-02-18T16:06:11Z</time>
      </trkpt>
      <trkpt lat="45.88289" lon="4.76141">
        <ele>260.8</ele>
        <time>2017-02-18T16:06:13Z</time>
      </trkpt>
      <trkpt lat="45.8829" lon="4.76121">
        <ele>260.5</ele>
        <time>2017-02-18T16:06:15Z</time>
      </trkpt>
      <trkpt lat="45.8829" lon="4.76101">
        <ele>260.3</ele>
        <time>2017-02-18T16:06:17Z</time>
      </trkpt>
      <trkpt lat="45.88291" lon="4.7609">
        <ele>260.2</ele>
        <time>2017-02-18T16:06:18Z</time>
      </trkpt>
      <trkpt lat="45.88291" lon="4.76079">
        <ele>259.8</ele>
        <time>2017-02-18T16:06:19Z</time>
      </trkpt>
      <trkpt lat="45.88291" lon="4.76068">
        <ele>259.5</ele>
        <time>2017-02-18T16:06:20Z</time>
      </trkpt>
      <trkpt lat="45.88292" lon="4.76058">
        <ele>259.1</ele>
        <time>2017-02-18T16:06:21Z</time>
      </trkpt>
      <trkpt lat="45.88294" lon="4.76037">
        <ele>258.3</ele>
        <time>2017-02-18T16:06:23Z</time>
      </trkpt>
      <trkpt lat="45.88295" lon="4.76027">
        <ele>257.9</ele>
        <time>2017-02-18T16:06:24Z</time>
      </trkpt>
      <trkpt lat="45.88296" lon="4.76016">
        <ele>257.5</ele>
        <time>2017-02-18T16:06:25Z</time>
      </trkpt>
      <trkpt lat="45.88298" lon="4.76005">
        <ele>257.2</ele>
        <time>2017-02-18T16:06:26Z</time>
      </trkpt>
      <trkpt lat="45.88301" lon="4.75994">
        <ele>256.9</ele>
        <time>2017-02-18T16:06:27Z</time>
      </trkpt>
      <trkpt lat="45.88304" lon="4.75984">
        <ele>256.7</ele>
        <time>2017-02-18T16:06:28Z</time>
      </trkpt>
      <trkpt lat="45.88307" lon="4.75973">
        <ele>256.4</ele>
        <time>2017-02-18T16:06:29Z</time>
      </trkpt>
      <trkpt lat="45.8831" lon="4.75963">
        <ele>256.2</ele>
        <time>2017-02-18T16:06:30Z</time>
      </trkpt>
      <trkpt lat="45.88313" lon="4.75953">
        <ele>256</ele>
        <time>2017-02-18T16:06:31Z</time>
      </trkpt>
      <trkpt lat="45.88317" lon="4.75943">
        <ele>255.7</ele>
        <time>2017-02-18T16:06:32Z</time>
      </trkpt>
      <trkpt lat="45.88321" lon="4.75933">
        <ele>255.5</ele>
        <time>2017-02-18T16:06:33Z</time>
      </trkpt>
      <trkpt lat="45.88324" lon="4.75923">
        <ele>255.3</ele>
        <time>2017-02-18T16:06:34Z</time>
      </trkpt>
      <trkpt lat="45.88327" lon="4.75913">
        <ele>255</ele>
        <time>2017-02-18T16:06:35Z</time>
      </trkpt>
      <trkpt lat="45.88329" lon="4.75902">
        <ele>254.8</ele>
        <time>2017-02-18T16:06:36Z</time>
      </trkpt>
      <trkpt lat="45.88332" lon="4.75891">
        <ele>254.6</ele>
        <time>2017-02-18T16:06:37Z</time>
      </trkpt>
      <trkpt lat="45.88334" lon="4.7588">
        <ele>254.3</ele>
        <time>2017-02-18T16:06:38Z</time>
      </trkpt>
      <trkpt lat="45.88335" lon="4.75869">
        <ele>254.1</ele>
        <time>2017-02-18T16:06:39Z</time>
      </trkpt>
      <trkpt lat="45.88336" lon="4.75859">
        <ele>253.8</ele>
        <time>2017-02-18T16:06:40Z</time>
      </trkpt>
      <trkpt lat="45.88339" lon="4.75839">
        <ele>253.6</ele>
        <time>2017-02-18T16:06:42Z</time>
      </trkpt>
      <trkpt lat="45.8834" lon="4.75819">
        <ele>254.1</ele>
        <time>2017-02-18T16:06:44Z</time>
      </trkpt>
      <trkpt lat="45.88341" lon="4.75799">
        <ele>254.2</ele>
        <time>2017-02-18T16:06:46Z</time>
      </trkpt>
      <trkpt lat="45.88342" lon="4.75779">
        <ele>254.2</ele>
        <time>2017-02-18T16:06:48Z</time>
      </trkpt>
      <trkpt lat="45.88343" lon="4.75761">
        <ele>254.2</ele>
        <time>2017-02-18T16:06:50Z</time>
      </trkpt>
      <trkpt lat="45.88344" lon="4.7575">
        <ele>254</ele>
        <time>2017-02-18T16:06:51Z</time>
      </trkpt>
      <trkpt lat="45.88347" lon="4.75731">
        <ele>253.7</ele>
        <time>2017-02-18T16:06:53Z</time>
      </trkpt>
      <trkpt lat="45.88351" lon="4.75712">
        <ele>253.6</ele>
        <time>2017-02-18T16:06:55Z</time>
      </trkpt>
      <trkpt lat="45.88355" lon="4.75694">
        <ele>253.3</ele>
        <time>2017-02-18T16:06:57Z</time>
      </trkpt>
      <trkpt lat="45.88357" lon="4.75684">
        <ele>253.1</ele>
        <time>2017-02-18T16:06:58Z</time>
      </trkpt>
      <trkpt lat="45.8836" lon="4.75664">
        <ele>252.8</ele>
        <time>2017-02-18T16:07:00Z</time>
      </trkpt>
      <trkpt lat="45.88362" lon="4.75644">
        <ele>252.6</ele>
        <time>2017-02-18T16:07:02Z</time>
      </trkpt>
      <trkpt lat="45.88362" lon="4.75625">
        <ele>252.4</ele>
        <time>2017-02-18T16:07:04Z</time>
      </trkpt>
      <trkpt lat="45.88363" lon="4.75605">
        <ele>252.4</ele>
        <time>2017-02-18T16:07:06Z</time>
      </trkpt>
      <trkpt lat="45.88363" lon="4.75587">
        <ele>252.3</ele>
        <time>2017-02-18T16:07:08Z</time>
      </trkpt>
      <trkpt lat="45.88363" lon="4.75568">
        <ele>252.3</ele>
        <time>2017-02-18T16:07:10Z</time>
      </trkpt>
      <trkpt lat="45.88363" lon="4.75551">
        <ele>252.2</ele>
        <time>2017-02-18T16:07:12Z</time>
      </trkpt>
      <trkpt lat="45.88363" lon="4.75533">
        <ele>252.2</ele>
        <time>2017-02-18T16:07:14Z</time>
      </trkpt>
      <trkpt lat="45.88363" lon="4.75515">
        <ele>252.1</ele>
        <time>2017-02-18T16:07:16Z</time>
      </trkpt>
      <trkpt lat="45.88364" lon="4.75498">
        <ele>252</ele>
        <time>2017-02-18T16:07:18Z</time>
      </trkpt>
      <trkpt lat="45.88364" lon="4.75479">
        <ele>252.1</ele>
        <time>2017-02-18T16:07:20Z</time>
      </trkpt>
      <trkpt lat="45.88366" lon="4.75462">
        <ele>252.1</ele>
        <time>2017-02-18T16:07:22Z</time>
      </trkpt>
      <trkpt lat="45.88369" lon="4.75445">
        <ele>252</ele>
        <time>2017-02-18T16:07:24Z</time>
      </trkpt>
      <trkpt lat="45.88371" lon="4.75429">
        <ele>251.8</ele>
        <time>2017-02-18T16:07:26Z</time>
      </trkpt>
      <trkpt lat="45.88374" lon="4.75412">
        <ele>251.6</ele>
        <time>2017-02-18T16:07:28Z</time>
      </trkpt>
      <trkpt lat="45.88378" lon="4.75397">
        <ele>251.5</ele>
        <time>2017-02-18T16:07:30Z</time>
      </trkpt>
      <trkpt lat="45.88381" lon="4.75382">
        <ele>251.4</ele>
        <time>2017-02-18T16:07:32Z</time>
      </trkpt>
      <trkpt lat="45.88386" lon="4.75369">
        <ele>251.3</ele>
        <time>2017-02-18T16:07:34Z</time>
      </trkpt>
      <trkpt lat="45.88393" lon="4.75358">
        <ele>250.9</ele>
        <time>2017-02-18T16:07:36Z</time>
      </trkpt>
      <trkpt lat="45.884" lon="4.75346">
        <ele>250.5</ele>
        <time>2017-02-18T16:07:38Z</time>
      </trkpt>
      <trkpt lat="45.88406" lon="4.75336">
        <ele>251.6</ele>
        <time>2017-02-18T16:07:40Z</time>
      </trkpt>
      <trkpt lat="45.88412" lon="4.75324">
        <ele>253.2</ele>
        <time>2017-02-18T16:07:42Z</time>
      </trkpt>
      <trkpt lat="45.88419" lon="4.7531">
        <ele>254.8</ele>
        <time>2017-02-18T16:07:44Z</time>
      </trkpt>
      <trkpt lat="45.88427" lon="4.75297">
        <ele>255.9</ele>
        <time>2017-02-18T16:07:46Z</time>
      </trkpt>
      <trkpt lat="45.88436" lon="4.75288">
        <ele>256.4</ele>
        <time>2017-02-18T16:07:48Z</time>
      </trkpt>
      <trkpt lat="45.88446" lon="4.7528">
        <ele>256.5</ele>
        <time>2017-02-18T16:07:50Z</time>
      </trkpt>
      <trkpt lat="45.88457" lon="4.75273">
        <ele>256.6</ele>
        <time>2017-02-18T16:07:52Z</time>
      </trkpt>
      <trkpt lat="45.88468" lon="4.75268">
        <ele>256.7</ele>
        <time>2017-02-18T16:07:54Z</time>
      </trkpt>
      <trkpt lat="45.88478" lon="4.75263">
        <ele>256.9</ele>
        <time>2017-02-18T16:07:56Z</time>
      </trkpt>
      <trkpt lat="45.88488" lon="4.75258">
        <ele>257</ele>
        <time>2017-02-18T16:07:58Z</time>
      </trkpt>
      <trkpt lat="45.88498" lon="4.75252">
        <ele>257</ele>
        <time>2017-02-18T16:08:00Z</time>
      </trkpt>
      <trkpt lat="45.88505" lon="4.75246">
        <ele>256.8</ele>
        <time>2017-02-18T16:08:02Z</time>
      </trkpt>
      <trkpt lat="45.88513" lon="4.75238">
        <ele>256.5</ele>
        <time>2017-02-18T16:08:04Z</time>
      </trkpt>
      <trkpt lat="45.88519" lon="4.75229">
        <ele>255.3</ele>
        <time>2017-02-18T16:08:06Z</time>
      </trkpt>
      <trkpt lat="45.88525" lon="4.75217">
        <ele>254.1</ele>
        <time>2017-02-18T16:08:08Z</time>
      </trkpt>
      <trkpt lat="45.88531" lon="4.75204">
        <ele>253.1</ele>
        <time>2017-02-18T16:08:10Z</time>
      </trkpt>
      <trkpt lat="45.88537" lon="4.75191">
        <ele>252.3</ele>
        <time>2017-02-18T16:08:12Z</time>
      </trkpt>
      <trkpt lat="45.88542" lon="4.75179">
        <ele>251.6</ele>
        <time>2017-02-18T16:08:14Z</time>
      </trkpt>
      <trkpt lat="45.88547" lon="4.75166">
        <ele>251.1</ele>
        <time>2017-02-18T16:08:16Z</time>
      </trkpt>
      <trkpt lat="45.88553" lon="4.75154">
        <ele>250.7</ele>
        <time>2017-02-18T16:08:18Z</time>
      </trkpt>
      <trkpt lat="45.88559" lon="4.75143">
        <ele>250.7</ele>
        <time>2017-02-18T16:08:20Z</time>
      </trkpt>
      <trkpt lat="45.88566" lon="4.75132">
        <ele>250.7</ele>
        <time>2017-02-18T16:08:22Z</time>
      </trkpt>
      <trkpt lat="45.88572" lon="4.75124">
        <ele>250.9</ele>
        <time>2017-02-18T16:08:24Z</time>
      </trkpt>
      <trkpt lat="45.88578" lon="4.75116">
        <ele>251.2</ele>
        <time>2017-02-18T16:08:26Z</time>
      </trkpt>
      <trkpt lat="45.88586" lon="4.75109">
        <ele>251.3</ele>
        <time>2017-02-18T16:08:28Z</time>
      </trkpt>
      <trkpt lat="45.88594" lon="4.751">
        <ele>251.1</ele>
        <time>2017-02-18T16:08:30Z</time>
      </trkpt>
      <trkpt lat="45.88601" lon="4.75092">
        <ele>250.7</ele>
        <time>2017-02-18T16:08:32Z</time>
      </trkpt>
      <trkpt lat="45.88608" lon="4.75081">
        <ele>250.4</ele>
        <time>2017-02-18T16:08:34Z</time>
      </trkpt>
      <trkpt lat="45.88614" lon="4.75071">
        <ele>249.9</ele>
        <time>2017-02-18T16:08:36Z</time>
      </trkpt>
      <trkpt lat="45.88618" lon="4.75057">
        <ele>249.7</ele>
        <time>2017-02-18T16:08:38Z</time>
      </trkpt>
      <trkpt lat="45.8862" lon="4.75043">
        <ele>250</ele>
        <time>2017-02-18T16:08:40Z</time>
      </trkpt>
      <trkpt lat="45.88622" lon="4.7503">
        <ele>250.3</ele>
        <time>2017-02-18T16:08:42Z</time>
      </trkpt>
      <trkpt lat="45.88624" lon="4.75017">
        <ele>250.6</ele>
        <time>2017-02-18T16:08:44Z</time>
      </trkpt>
      <trkpt lat="45.88626" lon="4.75004">
        <ele>250.8</ele>
        <time>2017-02-18T16:08:46Z</time>
      </trkpt>
      <trkpt lat="45.88629" lon="4.74989">
        <ele>250.9</ele>
        <time>2017-02-18T16:08:48Z</time>
      </trkpt>
      <trkpt lat="45.88632" lon="4.74974">
        <ele>250.7</ele>
        <time>2017-02-18T16:08:50Z</time>
      </trkpt>
      <trkpt lat="45.88635" lon="4.74961">
        <ele>250.8</ele>
        <time>2017-02-18T16:08:52Z</time>
      </trkpt>
      <trkpt lat="45.88638" lon="4.74948">
        <ele>251.4</ele>
        <time>2017-02-18T16:08:54Z</time>
      </trkpt>
      <trkpt lat="45.88645" lon="4.74935">
        <ele>251.5</ele>
        <time>2017-02-18T16:08:56Z</time>
      </trkpt>
      <trkpt lat="45.88652" lon="4.74925">
        <ele>251.2</ele>
        <time>2017-02-18T16:08:58Z</time>
      </trkpt>
      <trkpt lat="45.8866" lon="4.74918">
        <ele>251.1</ele>
        <time>2017-02-18T16:09:00Z</time>
      </trkpt>
      <trkpt lat="45.88667" lon="4.7491">
        <ele>251.6</ele>
        <time>2017-02-18T16:09:02Z</time>
      </trkpt>
      <trkpt lat="45.88673" lon="4.74899">
        <ele>251.9</ele>
        <time>2017-02-18T16:09:04Z</time>
      </trkpt>
      <trkpt lat="45.88678" lon="4.74887">
        <ele>251.6</ele>
        <time>2017-02-18T16:09:06Z</time>
      </trkpt>
      <trkpt lat="45.88681" lon="4.74874">
        <ele>252.1</ele>
        <time>2017-02-18T16:09:08Z</time>
      </trkpt>
      <trkpt lat="45.88685" lon="4.7486">
        <ele>252.4</ele>
        <time>2017-02-18T16:09:10Z</time>
      </trkpt>
      <trkpt lat="45.88689" lon="4.74844">
        <ele>252.7</ele>
        <time>2017-02-18T16:09:12Z</time>
      </trkpt>
      <trkpt lat="45.88691" lon="4.74828">
        <ele>251.9</ele>
        <time>2017-02-18T16:09:14Z</time>
      </trkpt>
      <trkpt lat="45.88692" lon="4.74813">
        <ele>251</ele>
        <time>2017-02-18T16:09:16Z</time>
      </trkpt>
      <trkpt lat="45.88695" lon="4.74797">
        <ele>251.5</ele>
        <time>2017-02-18T16:09:18Z</time>
      </trkpt>
      <trkpt lat="45.88697" lon="4.74779">
        <ele>252</ele>
        <time>2017-02-18T16:09:20Z</time>
      </trkpt>
      <trkpt lat="45.88699" lon="4.7476">
        <ele>252.3</ele>
        <time>2017-02-18T16:09:22Z</time>
      </trkpt>
      <trkpt lat="45.88701" lon="4.74742">
        <ele>251.7</ele>
        <time>2017-02-18T16:09:24Z</time>
      </trkpt>
      <trkpt lat="45.88704" lon="4.74722">
        <ele>251.4</ele>
        <time>2017-02-18T16:09:26Z</time>
      </trkpt>
      <trkpt lat="45.88707" lon="4.74702">
        <ele>250.8</ele>
        <time>2017-02-18T16:09:28Z</time>
      </trkpt>
      <trkpt lat="45.88709" lon="4.74692">
        <ele>250.6</ele>
        <time>2017-02-18T16:09:29Z</time>
      </trkpt>
      <trkpt lat="45.88711" lon="4.74672">
        <ele>250.3</ele>
        <time>2017-02-18T16:09:31Z</time>
      </trkpt>
      <trkpt lat="45.88713" lon="4.74662">
        <ele>250.1</ele>
        <time>2017-02-18T16:09:32Z</time>
      </trkpt>
      <trkpt lat="45.88714" lon="4.74651">
        <ele>249.7</ele>
        <time>2017-02-18T16:09:33Z</time>
      </trkpt>
      <trkpt lat="45.88716" lon="4.74641">
        <ele>249.3</ele>
        <time>2017-02-18T16:09:34Z</time>
      </trkpt>
      <trkpt lat="45.88719" lon="4.74621">
        <ele>248.7</ele>
        <time>2017-02-18T16:09:36Z</time>
      </trkpt>
      <trkpt lat="45.88722" lon="4.74602">
        <ele>247.7</ele>
        <time>2017-02-18T16:09:38Z</time>
      </trkpt>
      <trkpt lat="45.88723" lon="4.74592">
        <ele>247.1</ele>
        <time>2017-02-18T16:09:39Z</time>
      </trkpt>
      <trkpt lat="45.88723" lon="4.74572">
        <ele>246.5</ele>
        <time>2017-02-18T16:09:41Z</time>
      </trkpt>
      <trkpt lat="45.88723" lon="4.7456">
        <ele>246.1</ele>
        <time>2017-02-18T16:09:42Z</time>
      </trkpt>
      <trkpt lat="45.88723" lon="4.7455">
        <ele>245.6</ele>
        <time>2017-02-18T16:09:43Z</time>
      </trkpt>
      <trkpt lat="45.88722" lon="4.7453">
        <ele>245.3</ele>
        <time>2017-02-18T16:09:45Z</time>
      </trkpt>
      <trkpt lat="45.88721" lon="4.7452">
        <ele>245.1</ele>
        <time>2017-02-18T16:09:46Z</time>
      </trkpt>
      <trkpt lat="45.88718" lon="4.74501">
        <ele>245</ele>
        <time>2017-02-18T16:09:48Z</time>
      </trkpt>
      <trkpt lat="45.88716" lon="4.74483">
        <ele>244.9</ele>
        <time>2017-02-18T16:09:50Z</time>
      </trkpt>
      <trkpt lat="45.88713" lon="4.74464">
        <ele>244.5</ele>
        <time>2017-02-18T16:09:52Z</time>
      </trkpt>
      <trkpt lat="45.88711" lon="4.74447">
        <ele>243.7</ele>
        <time>2017-02-18T16:09:54Z</time>
      </trkpt>
      <trkpt lat="45.8871" lon="4.7443">
        <ele>243</ele>
        <time>2017-02-18T16:09:56Z</time>
      </trkpt>
      <trkpt lat="45.88708" lon="4.74416">
        <ele>242.7</ele>
        <time>2017-02-18T16:09:58Z</time>
      </trkpt>
      <trkpt lat="45.88707" lon="4.74405">
        <ele>242.8</ele>
        <time>2017-02-18T16:10:01Z</time>
      </trkpt>
      <trkpt lat="45.88707" lon="4.74395">
        <ele>242.9</ele>
        <time>2017-02-18T16:10:06Z</time>
      </trkpt>
      <trkpt lat="45.88706" lon="4.74386">
        <ele>242.9</ele>
        <time>2017-02-18T16:10:13Z</time>
      </trkpt>
      <trkpt lat="45.88709" lon="4.7438">
        <ele>243</ele>
        <time>2017-02-18T16:10:20Z</time>
      </trkpt>
      <trkpt lat="45.8871" lon="4.74376">
        <ele>243.1</ele>
        <time>2017-02-18T16:10:27Z</time>
      </trkpt>
      <trkpt lat="45.8871" lon="4.74376">
        <ele>243.4</ele>
        <time>2017-02-18T16:10:30Z</time>
      </trkpt>
      <trkpt lat="45.88712" lon="4.74366">
        <ele>243.5</ele>
        <time>2017-02-18T16:10:32Z</time>
      </trkpt>
      <trkpt lat="45.88709" lon="4.74353">
        <ele>243.7</ele>
        <time>2017-02-18T16:10:36Z</time>
      </trkpt>
      <trkpt lat="45.88706" lon="4.74343">
        <ele>243.7</ele>
        <time>2017-02-18T16:10:38Z</time>
      </trkpt>
      <trkpt lat="45.88705" lon="4.74332">
        <ele>243.3</ele>
        <time>2017-02-18T16:10:40Z</time>
      </trkpt>
      <trkpt lat="45.88705" lon="4.74321">
        <ele>243</ele>
        <time>2017-02-18T16:10:42Z</time>
      </trkpt>
      <trkpt lat="45.88706" lon="4.74305">
        <ele>242.8</ele>
        <time>2017-02-18T16:10:44Z</time>
      </trkpt>
      <trkpt lat="45.88706" lon="4.7429">
        <ele>242.3</ele>
        <time>2017-02-18T16:10:46Z</time>
      </trkpt>
      <trkpt lat="45.88706" lon="4.74274">
        <ele>241.6</ele>
        <time>2017-02-18T16:10:48Z</time>
      </trkpt>
      <trkpt lat="45.88706" lon="4.74257">
        <ele>240.8</ele>
        <time>2017-02-18T16:10:50Z</time>
      </trkpt>
      <trkpt lat="45.88706" lon="4.74241">
        <ele>240.2</ele>
        <time>2017-02-18T16:10:52Z</time>
      </trkpt>
      <trkpt lat="45.88705" lon="4.74225">
        <ele>239.8</ele>
        <time>2017-02-18T16:10:54Z</time>
      </trkpt>
      <trkpt lat="45.88704" lon="4.74209">
        <ele>239.5</ele>
        <time>2017-02-18T16:10:56Z</time>
      </trkpt>
      <trkpt lat="45.88703" lon="4.74191">
        <ele>239</ele>
        <time>2017-02-18T16:10:58Z</time>
      </trkpt>
      <trkpt lat="45.88701" lon="4.74175">
        <ele>238.5</ele>
        <time>2017-02-18T16:11:00Z</time>
      </trkpt>
      <trkpt lat="45.88698" lon="4.74159">
        <ele>238</ele>
        <time>2017-02-18T16:11:02Z</time>
      </trkpt>
      <trkpt lat="45.88694" lon="4.74143">
        <ele>238</ele>
        <time>2017-02-18T16:11:04Z</time>
      </trkpt>
      <trkpt lat="45.88689" lon="4.74125">
        <ele>237.8</ele>
        <time>2017-02-18T16:11:06Z</time>
      </trkpt>
      <trkpt lat="45.88684" lon="4.74108">
        <ele>237.6</ele>
        <time>2017-02-18T16:11:08Z</time>
      </trkpt>
      <trkpt lat="45.88678" lon="4.7409">
        <ele>237</ele>
        <time>2017-02-18T16:11:10Z</time>
      </trkpt>
      <trkpt lat="45.88672" lon="4.74073">
        <ele>236.4</ele>
        <time>2017-02-18T16:11:12Z</time>
      </trkpt>
      <trkpt lat="45.88666" lon="4.74056">
        <ele>235.7</ele>
        <time>2017-02-18T16:11:14Z</time>
      </trkpt>
      <trkpt lat="45.8866" lon="4.74039">
        <ele>235.6</ele>
        <time>2017-02-18T16:11:16Z</time>
      </trkpt>
      <trkpt lat="45.88656" lon="4.74023">
        <ele>236</ele>
        <time>2017-02-18T16:11:18Z</time>
      </trkpt>
      <trkpt lat="45.88653" lon="4.74005">
        <ele>236.6</ele>
        <time>2017-02-18T16:11:20Z</time>
      </trkpt>
      <trkpt lat="45.88651" lon="4.7399">
        <ele>237.1</ele>
        <time>2017-02-18T16:11:22Z</time>
      </trkpt>
      <trkpt lat="45.88649" lon="4.73975">
        <ele>237.6</ele>
        <time>2017-02-18T16:11:24Z</time>
      </trkpt>
      <trkpt lat="45.88647" lon="4.73959">
        <ele>237.3</ele>
        <time>2017-02-18T16:11:26Z</time>
      </trkpt>
      <trkpt lat="45.88646" lon="4.73941">
        <ele>236.8</ele>
        <time>2017-02-18T16:11:28Z</time>
      </trkpt>
      <trkpt lat="45.88645" lon="4.73925">
        <ele>236.8</ele>
        <time>2017-02-18T16:11:30Z</time>
      </trkpt>
      <trkpt lat="45.88644" lon="4.73908">
        <ele>236.9</ele>
        <time>2017-02-18T16:11:32Z</time>
      </trkpt>
      <trkpt lat="45.88644" lon="4.7389">
        <ele>237.2</ele>
        <time>2017-02-18T16:11:34Z</time>
      </trkpt>
      <trkpt lat="45.88645" lon="4.73872">
        <ele>236.8</ele>
        <time>2017-02-18T16:11:36Z</time>
      </trkpt>
      <trkpt lat="45.88645" lon="4.73854">
        <ele>236.4</ele>
        <time>2017-02-18T16:11:38Z</time>
      </trkpt>
      <trkpt lat="45.88645" lon="4.7384">
        <ele>236.4</ele>
        <time>2017-02-18T16:11:40Z</time>
      </trkpt>
      <trkpt lat="45.88646" lon="4.73827">
        <ele>237</ele>
        <time>2017-02-18T16:11:42Z</time>
      </trkpt>
      <trkpt lat="45.88646" lon="4.73814">
        <ele>237.6</ele>
        <time>2017-02-18T16:11:44Z</time>
      </trkpt>
      <trkpt lat="45.88646" lon="4.73802">
        <ele>238.2</ele>
        <time>2017-02-18T16:11:46Z</time>
      </trkpt>
      <trkpt lat="45.88647" lon="4.73791">
        <ele>238.8</ele>
        <time>2017-02-18T16:11:48Z</time>
      </trkpt>
      <trkpt lat="45.88647" lon="4.73779">
        <ele>239</ele>
        <time>2017-02-18T16:11:50Z</time>
      </trkpt>
      <trkpt lat="45.88647" lon="4.73769">
        <ele>239.2</ele>
        <time>2017-02-18T16:11:52Z</time>
      </trkpt>
      <trkpt lat="45.88647" lon="4.73758">
        <ele>239.4</ele>
        <time>2017-02-18T16:11:54Z</time>
      </trkpt>
      <trkpt lat="45.88647" lon="4.73744">
        <ele>239.5</ele>
        <time>2017-02-18T16:11:57Z</time>
      </trkpt>
      <trkpt lat="45.88648" lon="4.73729">
        <ele>239.6</ele>
        <time>2017-02-18T16:12:00Z</time>
      </trkpt>
      <trkpt lat="45.88649" lon="4.73716">
        <ele>239.7</ele>
        <time>2017-02-18T16:12:03Z</time>
      </trkpt>
      <trkpt lat="45.88649" lon="4.73704">
        <ele>239.9</ele>
        <time>2017-02-18T16:12:06Z</time>
      </trkpt>
      <trkpt lat="45.88648" lon="4.73691">
        <ele>240.1</ele>
        <time>2017-02-18T16:12:09Z</time>
      </trkpt>
      <trkpt lat="45.88648" lon="4.73678">
        <ele>240.3</ele>
        <time>2017-02-18T16:12:12Z</time>
      </trkpt>
      <trkpt lat="45.88648" lon="4.73664">
        <ele>240.4</ele>
        <time>2017-02-18T16:12:15Z</time>
      </trkpt>
      <trkpt lat="45.88649" lon="4.73648">
        <ele>240.6</ele>
        <time>2017-02-18T16:12:18Z</time>
      </trkpt>
      <trkpt lat="45.88649" lon="4.73638">
        <ele>241.2</ele>
        <time>2017-02-18T16:12:20Z</time>
      </trkpt>
      <trkpt lat="45.88649" lon="4.73626">
        <ele>241.6</ele>
        <time>2017-02-18T16:12:22Z</time>
      </trkpt>
      <trkpt lat="45.8865" lon="4.73613">
        <ele>242</ele>
        <time>2017-02-18T16:12:24Z</time>
      </trkpt>
      <trkpt lat="45.8865" lon="4.73599">
        <ele>242.5</ele>
        <time>2017-02-18T16:12:26Z</time>
      </trkpt>
      <trkpt lat="45.8865" lon="4.73584">
        <ele>242.8</ele>
        <time>2017-02-18T16:12:28Z</time>
      </trkpt>
      <trkpt lat="45.88651" lon="4.73569">
        <ele>243</ele>
        <time>2017-02-18T16:12:30Z</time>
      </trkpt>
      <trkpt lat="45.88652" lon="4.73551">
        <ele>243.5</ele>
        <time>2017-02-18T16:12:32Z</time>
      </trkpt>
      <trkpt lat="45.88653" lon="4.73532">
        <ele>243</ele>
        <time>2017-02-18T16:12:34Z</time>
      </trkpt>
      <trkpt lat="45.88654" lon="4.73513">
        <ele>242.2</ele>
        <time>2017-02-18T16:12:36Z</time>
      </trkpt>
      <trkpt lat="45.88658" lon="4.73502">
        <ele>241.6</ele>
        <time>2017-02-18T16:12:37Z</time>
      </trkpt>
      <trkpt lat="45.88664" lon="4.73484">
        <ele>240.7</ele>
        <time>2017-02-18T16:12:39Z</time>
      </trkpt>
      <trkpt lat="45.88671" lon="4.73468">
        <ele>239.8</ele>
        <time>2017-02-18T16:12:41Z</time>
      </trkpt>
      <trkpt lat="45.88676" lon="4.73459">
        <ele>239.6</ele>
        <time>2017-02-18T16:12:42Z</time>
      </trkpt>
      <trkpt lat="45.88681" lon="4.7345">
        <ele>239.1</ele>
        <time>2017-02-18T16:12:43Z</time>
      </trkpt>
      <trkpt lat="45.88685" lon="4.73442">
        <ele>238.9</ele>
        <time>2017-02-18T16:12:44Z</time>
      </trkpt>
      <trkpt lat="45.8869" lon="4.73434">
        <ele>238.6</ele>
        <time>2017-02-18T16:12:45Z</time>
      </trkpt>
      <trkpt lat="45.88695" lon="4.73426">
        <ele>238.4</ele>
        <time>2017-02-18T16:12:46Z</time>
      </trkpt>
      <trkpt lat="45.88704" lon="4.73414">
        <ele>238.1</ele>
        <time>2017-02-18T16:12:48Z</time>
      </trkpt>
      <trkpt lat="45.88712" lon="4.73402">
        <ele>237.6</ele>
        <time>2017-02-18T16:12:50Z</time>
      </trkpt>
      <trkpt lat="45.88722" lon="4.7339">
        <ele>237.1</ele>
        <time>2017-02-18T16:12:52Z</time>
      </trkpt>
      <trkpt lat="45.88731" lon="4.73379">
        <ele>237.1</ele>
        <time>2017-02-18T16:12:54Z</time>
      </trkpt>
      <trkpt lat="45.8874" lon="4.73368">
        <ele>236.8</ele>
        <time>2017-02-18T16:12:56Z</time>
      </trkpt>
      <trkpt lat="45.88749" lon="4.73356">
        <ele>236.5</ele>
        <time>2017-02-18T16:12:58Z</time>
      </trkpt>
      <trkpt lat="45.88757" lon="4.73346">
        <ele>236.5</ele>
        <time>2017-02-18T16:13:00Z</time>
      </trkpt>
      <trkpt lat="45.88765" lon="4.73335">
        <ele>236.8</ele>
        <time>2017-02-18T16:13:02Z</time>
      </trkpt>
      <trkpt lat="45.8877" lon="4.73322">
        <ele>237.1</ele>
        <time>2017-02-18T16:13:04Z</time>
      </trkpt>
      <trkpt lat="45.88775" lon="4.73305">
        <ele>237.6</ele>
        <time>2017-02-18T16:13:06Z</time>
      </trkpt>
      <trkpt lat="45.88779" lon="4.73291">
        <ele>237.9</ele>
        <time>2017-02-18T16:13:08Z</time>
      </trkpt>
      <trkpt lat="45.88783" lon="4.73273">
        <ele>237.8</ele>
        <time>2017-02-18T16:13:10Z</time>
      </trkpt>
      <trkpt lat="45.88786" lon="4.73256">
        <ele>238.6</ele>
        <time>2017-02-18T16:13:12Z</time>
      </trkpt>
      <trkpt lat="45.88787" lon="4.73242">
        <ele>239.5</ele>
        <time>2017-02-18T16:13:14Z</time>
      </trkpt>
      <trkpt lat="45.88789" lon="4.73224">
        <ele>239.5</ele>
        <time>2017-02-18T16:13:16Z</time>
      </trkpt>
      <trkpt lat="45.88789" lon="4.73208">
        <ele>238.6</ele>
        <time>2017-02-18T16:13:18Z</time>
      </trkpt>
      <trkpt lat="45.88788" lon="4.7319">
        <ele>237.9</ele>
        <time>2017-02-18T16:13:20Z</time>
      </trkpt>
      <trkpt lat="45.88788" lon="4.73174">
        <ele>238.4</ele>
        <time>2017-02-18T16:13:22Z</time>
      </trkpt>
      <trkpt lat="45.88786" lon="4.73157">
        <ele>238.9</ele>
        <time>2017-02-18T16:13:24Z</time>
      </trkpt>
      <trkpt lat="45.88785" lon="4.7314">
        <ele>239</ele>
        <time>2017-02-18T16:13:26Z</time>
      </trkpt>
      <trkpt lat="45.88783" lon="4.73125">
        <ele>239.1</ele>
        <time>2017-02-18T16:13:28Z</time>
      </trkpt>
      <trkpt lat="45.88782" lon="4.73109">
        <ele>238.4</ele>
        <time>2017-02-18T16:13:30Z</time>
      </trkpt>
      <trkpt lat="45.88781" lon="4.73093">
        <ele>238.1</ele>
        <time>2017-02-18T16:13:32Z</time>
      </trkpt>
      <trkpt lat="45.8878" lon="4.7308">
        <ele>238.6</ele>
        <time>2017-02-18T16:13:34Z</time>
      </trkpt>
      <trkpt lat="45.8878" lon="4.73066">
        <ele>239</ele>
        <time>2017-02-18T16:13:36Z</time>
      </trkpt>
      <trkpt lat="45.8878" lon="4.73053">
        <ele>239.6</ele>
        <time>2017-02-18T16:13:38Z</time>
      </trkpt>
      <trkpt lat="45.88779" lon="4.73039">
        <ele>240.1</ele>
        <time>2017-02-18T16:13:40Z</time>
      </trkpt>
      <trkpt lat="45.88778" lon="4.73026">
        <ele>240.5</ele>
        <time>2017-02-18T16:13:42Z</time>
      </trkpt>
      <trkpt lat="45.88777" lon="4.73013">
        <ele>239.9</ele>
        <time>2017-02-18T16:13:44Z</time>
      </trkpt>
      <trkpt lat="45.88776" lon="4.73001">
        <ele>239.8</ele>
        <time>2017-02-18T16:13:46Z</time>
      </trkpt>
      <trkpt lat="45.88775" lon="4.72989">
        <ele>240.1</ele>
        <time>2017-02-18T16:13:48Z</time>
      </trkpt>
      <trkpt lat="45.88775" lon="4.72977">
        <ele>240.3</ele>
        <time>2017-02-18T16:13:50Z</time>
      </trkpt>
      <trkpt lat="45.88773" lon="4.72966">
        <ele>239.8</ele>
        <time>2017-02-18T16:13:52Z</time>
      </trkpt>
      <trkpt lat="45.88773" lon="4.72953">
        <ele>239.4</ele>
        <time>2017-02-18T16:13:54Z</time>
      </trkpt>
      <trkpt lat="45.88772" lon="4.7294">
        <ele>239.4</ele>
        <time>2017-02-18T16:13:56Z</time>
      </trkpt>
      <trkpt lat="45.88771" lon="4.72926">
        <ele>240.2</ele>
        <time>2017-02-18T16:13:58Z</time>
      </trkpt>
      <trkpt lat="45.88771" lon="4.72912">
        <ele>240.7</ele>
        <time>2017-02-18T16:14:00Z</time>
      </trkpt>
      <trkpt lat="45.88769" lon="4.72898">
        <ele>240.8</ele>
        <time>2017-02-18T16:14:02Z</time>
      </trkpt>
      <trkpt lat="45.88768" lon="4.72885">
        <ele>240.5</ele>
        <time>2017-02-18T16:14:04Z</time>
      </trkpt>
      <trkpt lat="45.88767" lon="4.72868">
        <ele>240</ele>
        <time>2017-02-18T16:14:06Z</time>
      </trkpt>
      <trkpt lat="45.88766" lon="4.72854">
        <ele>239.6</ele>
        <time>2017-02-18T16:14:08Z</time>
      </trkpt>
      <trkpt lat="45.88758" lon="4.72853">
        <ele>239.6</ele>
        <time>2017-02-18T16:14:11Z</time>
      </trkpt>
      <trkpt lat="45.88756" lon="4.72863">
        <ele>239.5</ele>
        <time>2017-02-18T16:14:14Z</time>
      </trkpt>
      <trkpt lat="45.88754" lon="4.72878">
        <ele>238.7</ele>
        <time>2017-02-18T16:14:17Z</time>
      </trkpt>
      <trkpt lat="45.88751" lon="4.72889">
        <ele>238.3</ele>
        <time>2017-02-18T16:14:19Z</time>
      </trkpt>
      <trkpt lat="45.88744" lon="4.72898">
        <ele>237.6</ele>
        <time>2017-02-18T16:14:21Z</time>
      </trkpt>
      <trkpt lat="45.88735" lon="4.729">
        <ele>238</ele>
        <time>2017-02-18T16:14:23Z</time>
      </trkpt>
      <trkpt lat="45.88726" lon="4.72899">
        <ele>238.7</ele>
        <time>2017-02-18T16:14:26Z</time>
      </trkpt>
      <trkpt lat="45.88718" lon="4.72897">
        <ele>238.8</ele>
        <time>2017-02-18T16:14:28Z</time>
      </trkpt>
      <trkpt lat="45.8871" lon="4.72895">
        <ele>239.1</ele>
        <time>2017-02-18T16:14:30Z</time>
      </trkpt>
      <trkpt lat="45.88702" lon="4.72892">
        <ele>239.5</ele>
        <time>2017-02-18T16:14:32Z</time>
      </trkpt>
      <trkpt lat="45.88694" lon="4.72891">
        <ele>239.7</ele>
        <time>2017-02-18T16:14:34Z</time>
      </trkpt>
      <trkpt lat="45.88686" lon="4.72891">
        <ele>239.7</ele>
        <time>2017-02-18T16:14:36Z</time>
      </trkpt>
      <trkpt lat="45.88678" lon="4.72891">
        <ele>239.3</ele>
        <time>2017-02-18T16:14:38Z</time>
      </trkpt>
      <trkpt lat="45.8867" lon="4.72893">
        <ele>239</ele>
        <time>2017-02-18T16:14:40Z</time>
      </trkpt>
      <trkpt lat="45.88662" lon="4.72897">
        <ele>238.6</ele>
        <time>2017-02-18T16:14:42Z</time>
      </trkpt>
      <trkpt lat="45.88654" lon="4.72902">
        <ele>238.2</ele>
        <time>2017-02-18T16:14:44Z</time>
      </trkpt>
      <trkpt lat="45.88642" lon="4.7291">
        <ele>237.9</ele>
        <time>2017-02-18T16:14:46Z</time>
      </trkpt>
      <trkpt lat="45.88631" lon="4.72915">
        <ele>238.1</ele>
        <time>2017-02-18T16:14:48Z</time>
      </trkpt>
      <trkpt lat="45.88621" lon="4.72918">
        <ele>238.7</ele>
        <time>2017-02-18T16:14:50Z</time>
      </trkpt>
      <trkpt lat="45.88609" lon="4.72918">
        <ele>238.4</ele>
        <time>2017-02-18T16:14:52Z</time>
      </trkpt>
      <trkpt lat="45.886" lon="4.72916">
        <ele>237.9</ele>
        <time>2017-02-18T16:14:54Z</time>
      </trkpt>
      <trkpt lat="45.8859" lon="4.72912">
        <ele>237.8</ele>
        <time>2017-02-18T16:14:56Z</time>
      </trkpt>
      <trkpt lat="45.88583" lon="4.72905">
        <ele>237.9</ele>
        <time>2017-02-18T16:14:58Z</time>
      </trkpt>
      <trkpt lat="45.88575" lon="4.72899">
        <ele>238.1</ele>
        <time>2017-02-18T16:15:00Z</time>
      </trkpt>
      <trkpt lat="45.88569" lon="4.72892">
        <ele>238</ele>
        <time>2017-02-18T16:15:02Z</time>
      </trkpt>
      <trkpt lat="45.88561" lon="4.72881">
        <ele>238.7</ele>
        <time>2017-02-18T16:15:05Z</time>
      </trkpt>
      <trkpt lat="45.8855" lon="4.72873">
        <ele>238.4</ele>
        <time>2017-02-18T16:15:08Z</time>
      </trkpt>
      <trkpt lat="45.88541" lon="4.72868">
        <ele>238.7</ele>
        <time>2017-02-18T16:15:10Z</time>
      </trkpt>
      <trkpt lat="45.88532" lon="4.72865">
        <ele>239.7</ele>
        <time>2017-02-18T16:15:12Z</time>
      </trkpt>
      <trkpt lat="45.88524" lon="4.72863">
        <ele>240.1</ele>
        <time>2017-02-18T16:15:14Z</time>
      </trkpt>
      <trkpt lat="45.88517" lon="4.72861">
        <ele>240.1</ele>
        <time>2017-02-18T16:15:16Z</time>
      </trkpt>
      <trkpt lat="45.88509" lon="4.72859">
        <ele>240.2</ele>
        <time>2017-02-18T16:15:18Z</time>
      </trkpt>
      <trkpt lat="45.88499" lon="4.72856">
        <ele>240.2</ele>
        <time>2017-02-18T16:15:21Z</time>
      </trkpt>
      <trkpt lat="45.88492" lon="4.72854">
        <ele>240.1</ele>
        <time>2017-02-18T16:15:23Z</time>
      </trkpt>
      <trkpt lat="45.88483" lon="4.72853">
        <ele>240</ele>
        <time>2017-02-18T16:15:25Z</time>
      </trkpt>
      <trkpt lat="45.88475" lon="4.72853">
        <ele>240.5</ele>
        <time>2017-02-18T16:15:27Z</time>
      </trkpt>
      <trkpt lat="45.88467" lon="4.72854">
        <ele>241.2</ele>
        <time>2017-02-18T16:15:29Z</time>
      </trkpt>
      <trkpt lat="45.88459" lon="4.72855">
        <ele>242.2</ele>
        <time>2017-02-18T16:15:31Z</time>
      </trkpt>
      <trkpt lat="45.8845" lon="4.72856">
        <ele>243.3</ele>
        <time>2017-02-18T16:15:33Z</time>
      </trkpt>
      <trkpt lat="45.88441" lon="4.72858">
        <ele>244.1</ele>
        <time>2017-02-18T16:15:35Z</time>
      </trkpt>
      <trkpt lat="45.88432" lon="4.72859">
        <ele>244.5</ele>
        <time>2017-02-18T16:15:37Z</time>
      </trkpt>
      <trkpt lat="45.88424" lon="4.72859">
        <ele>244.4</ele>
        <time>2017-02-18T16:15:39Z</time>
      </trkpt>
      <trkpt lat="45.88415" lon="4.72859">
        <ele>244.7</ele>
        <time>2017-02-18T16:15:41Z</time>
      </trkpt>
      <trkpt lat="45.88405" lon="4.7286">
        <ele>244.9</ele>
        <time>2017-02-18T16:15:43Z</time>
      </trkpt>
      <trkpt lat="45.88397" lon="4.72861">
        <ele>245.1</ele>
        <time>2017-02-18T16:15:45Z</time>
      </trkpt>
      <trkpt lat="45.88388" lon="4.72862">
        <ele>245.4</ele>
        <time>2017-02-18T16:15:47Z</time>
      </trkpt>
      <trkpt lat="45.88379" lon="4.72863">
        <ele>245.7</ele>
        <time>2017-02-18T16:15:49Z</time>
      </trkpt>
      <trkpt lat="45.88371" lon="4.72864">
        <ele>246</ele>
        <time>2017-02-18T16:15:51Z</time>
      </trkpt>
      <trkpt lat="45.88363" lon="4.72863">
        <ele>246.4</ele>
        <time>2017-02-18T16:15:53Z</time>
      </trkpt>
      <trkpt lat="45.88355" lon="4.72862">
        <ele>246.2</ele>
        <time>2017-02-18T16:15:55Z</time>
      </trkpt>
      <trkpt lat="45.88347" lon="4.72861">
        <ele>245.6</ele>
        <time>2017-02-18T16:15:57Z</time>
      </trkpt>
      <trkpt lat="45.88336" lon="4.72857">
        <ele>244</ele>
        <time>2017-02-18T16:16:00Z</time>
      </trkpt>
      <trkpt lat="45.88328" lon="4.72854">
        <ele>243.2</ele>
        <time>2017-02-18T16:16:02Z</time>
      </trkpt>
      <trkpt lat="45.8832" lon="4.72851">
        <ele>242.6</ele>
        <time>2017-02-18T16:16:04Z</time>
      </trkpt>
      <trkpt lat="45.88311" lon="4.72847">
        <ele>242.4</ele>
        <time>2017-02-18T16:16:06Z</time>
      </trkpt>
      <trkpt lat="45.88303" lon="4.72844">
        <ele>242.5</ele>
        <time>2017-02-18T16:16:08Z</time>
      </trkpt>
      <trkpt lat="45.88295" lon="4.72842">
        <ele>242.7</ele>
        <time>2017-02-18T16:16:10Z</time>
      </trkpt>
      <trkpt lat="45.88287" lon="4.72847">
        <ele>242.9</ele>
        <time>2017-02-18T16:16:12Z</time>
      </trkpt>
      <trkpt lat="45.88282" lon="4.72858">
        <ele>243.3</ele>
        <time>2017-02-18T16:16:14Z</time>
      </trkpt>
      <trkpt lat="45.88281" lon="4.7287">
        <ele>242.5</ele>
        <time>2017-02-18T16:16:16Z</time>
      </trkpt>
      <trkpt lat="45.88277" lon="4.72883">
        <ele>241.1</ele>
        <time>2017-02-18T16:16:19Z</time>
      </trkpt>
      <trkpt lat="45.8827" lon="4.72887">
        <ele>240.6</ele>
        <time>2017-02-18T16:16:21Z</time>
      </trkpt>
      <trkpt lat="45.88261" lon="4.72888">
        <ele>240.5</ele>
        <time>2017-02-18T16:16:23Z</time>
      </trkpt>
      <trkpt lat="45.88251" lon="4.72887">
        <ele>240.3</ele>
        <time>2017-02-18T16:16:25Z</time>
      </trkpt>
      <trkpt lat="45.88242" lon="4.72885">
        <ele>240.3</ele>
        <time>2017-02-18T16:16:27Z</time>
      </trkpt>
      <trkpt lat="45.88233" lon="4.72883">
        <ele>240.5</ele>
        <time>2017-02-18T16:16:29Z</time>
      </trkpt>
      <trkpt lat="45.88223" lon="4.72881">
        <ele>240.5</ele>
        <time>2017-02-18T16:16:31Z</time>
      </trkpt>
      <trkpt lat="45.88212" lon="4.7288">
        <ele>240.9</ele>
        <time>2017-02-18T16:16:33Z</time>
      </trkpt>
      <trkpt lat="45.88201" lon="4.72878">
        <ele>241.4</ele>
        <time>2017-02-18T16:16:35Z</time>
      </trkpt>
      <trkpt lat="45.88192" lon="4.72876">
        <ele>241.2</ele>
        <time>2017-02-18T16:16:37Z</time>
      </trkpt>
      <trkpt lat="45.8818" lon="4.72874">
        <ele>241.4</ele>
        <time>2017-02-18T16:16:39Z</time>
      </trkpt>
      <trkpt lat="45.8817" lon="4.72872">
        <ele>241.8</ele>
        <time>2017-02-18T16:16:41Z</time>
      </trkpt>
      <trkpt lat="45.8816" lon="4.72869">
        <ele>241.9</ele>
        <time>2017-02-18T16:16:43Z</time>
      </trkpt>
      <trkpt lat="45.88149" lon="4.72866">
        <ele>242.5</ele>
        <time>2017-02-18T16:16:45Z</time>
      </trkpt>
      <trkpt lat="45.88138" lon="4.72864">
        <ele>242.7</ele>
        <time>2017-02-18T16:16:47Z</time>
      </trkpt>
      <trkpt lat="45.88128" lon="4.72861">
        <ele>243.3</ele>
        <time>2017-02-18T16:16:49Z</time>
      </trkpt>
      <trkpt lat="45.88119" lon="4.72858">
        <ele>243.7</ele>
        <time>2017-02-18T16:16:51Z</time>
      </trkpt>
      <trkpt lat="45.88112" lon="4.72855">
        <ele>243.5</ele>
        <time>2017-02-18T16:16:53Z</time>
      </trkpt>
      <trkpt lat="45.88103" lon="4.72852">
        <ele>243</ele>
        <time>2017-02-18T16:16:55Z</time>
      </trkpt>
      <trkpt lat="45.88094" lon="4.72849">
        <ele>242.4</ele>
        <time>2017-02-18T16:16:57Z</time>
      </trkpt>
      <trkpt lat="45.88085" lon="4.72845">
        <ele>241.6</ele>
        <time>2017-02-18T16:16:59Z</time>
      </trkpt>
      <trkpt lat="45.88076" lon="4.72841">
        <ele>240.6</ele>
        <time>2017-02-18T16:17:01Z</time>
      </trkpt>
      <trkpt lat="45.88065" lon="4.72837">
        <ele>241</ele>
        <time>2017-02-18T16:17:03Z</time>
      </trkpt>
      <trkpt lat="45.88057" lon="4.72834">
        <ele>241.3</ele>
        <time>2017-02-18T16:17:05Z</time>
      </trkpt>
      <trkpt lat="45.88048" lon="4.72831">
        <ele>241.3</ele>
        <time>2017-02-18T16:17:07Z</time>
      </trkpt>
      <trkpt lat="45.88039" lon="4.72829">
        <ele>241.5</ele>
        <time>2017-02-18T16:17:09Z</time>
      </trkpt>
      <trkpt lat="45.88031" lon="4.72827">
        <ele>241.2</ele>
        <time>2017-02-18T16:17:11Z</time>
      </trkpt>
      <trkpt lat="45.88022" lon="4.72823">
        <ele>241</ele>
        <time>2017-02-18T16:17:13Z</time>
      </trkpt>
      <trkpt lat="45.88014" lon="4.72819">
        <ele>240.8</ele>
        <time>2017-02-18T16:17:15Z</time>
      </trkpt>
      <trkpt lat="45.88005" lon="4.72812">
        <ele>240.7</ele>
        <time>2017-02-18T16:17:17Z</time>
      </trkpt>
      <trkpt lat="45.87997" lon="4.72805">
        <ele>241.1</ele>
        <time>2017-02-18T16:17:19Z</time>
      </trkpt>
      <trkpt lat="45.87989" lon="4.72799">
        <ele>241.3</ele>
        <time>2017-02-18T16:17:21Z</time>
      </trkpt>
      <trkpt lat="45.87981" lon="4.72791">
        <ele>241.3</ele>
        <time>2017-02-18T16:17:23Z</time>
      </trkpt>
      <trkpt lat="45.87973" lon="4.72783">
        <ele>241.4</ele>
        <time>2017-02-18T16:17:25Z</time>
      </trkpt>
      <trkpt lat="45.87965" lon="4.72775">
        <ele>241.2</ele>
        <time>2017-02-18T16:17:27Z</time>
      </trkpt>
      <trkpt lat="45.87957" lon="4.72769">
        <ele>241.3</ele>
        <time>2017-02-18T16:17:29Z</time>
      </trkpt>
      <trkpt lat="45.87949" lon="4.72762">
        <ele>241.2</ele>
        <time>2017-02-18T16:17:31Z</time>
      </trkpt>
      <trkpt lat="45.87941" lon="4.72755">
        <ele>241.6</ele>
        <time>2017-02-18T16:17:33Z</time>
      </trkpt>
      <trkpt lat="45.87935" lon="4.72749">
        <ele>241.7</ele>
        <time>2017-02-18T16:17:35Z</time>
      </trkpt>
      <trkpt lat="45.8793" lon="4.7274">
        <ele>241.7</ele>
        <time>2017-02-18T16:17:37Z</time>
      </trkpt>
      <trkpt lat="45.87926" lon="4.72731">
        <ele>241.5</ele>
        <time>2017-02-18T16:17:39Z</time>
      </trkpt>
      <trkpt lat="45.87922" lon="4.72722">
        <ele>241.6</ele>
        <time>2017-02-18T16:17:41Z</time>
      </trkpt>
      <trkpt lat="45.87918" lon="4.72712">
        <ele>241.2</ele>
        <time>2017-02-18T16:17:43Z</time>
      </trkpt>
      <trkpt lat="45.87914" lon="4.72702">
        <ele>240.9</ele>
        <time>2017-02-18T16:17:45Z</time>
      </trkpt>
      <trkpt lat="45.8791" lon="4.72693">
        <ele>240.7</ele>
        <time>2017-02-18T16:17:47Z</time>
      </trkpt>
      <trkpt lat="45.87905" lon="4.72684">
        <ele>240.7</ele>
        <time>2017-02-18T16:17:49Z</time>
      </trkpt>
      <trkpt lat="45.87899" lon="4.72674">
        <ele>241.3</ele>
        <time>2017-02-18T16:17:51Z</time>
      </trkpt>
      <trkpt lat="45.87893" lon="4.72666">
        <ele>241.4</ele>
        <time>2017-02-18T16:17:53Z</time>
      </trkpt>
      <trkpt lat="45.87884" lon="4.72661">
        <ele>241.4</ele>
        <time>2017-02-18T16:17:55Z</time>
      </trkpt>
      <trkpt lat="45.87875" lon="4.72655">
        <ele>241</ele>
        <time>2017-02-18T16:17:57Z</time>
      </trkpt>
      <trkpt lat="45.87865" lon="4.72651">
        <ele>241.3</ele>
        <time>2017-02-18T16:17:59Z</time>
      </trkpt>
      <trkpt lat="45.87857" lon="4.72649">
        <ele>241.3</ele>
        <time>2017-02-18T16:18:01Z</time>
      </trkpt>
      <trkpt lat="45.87848" lon="4.72645">
        <ele>241.6</ele>
        <time>2017-02-18T16:18:03Z</time>
      </trkpt>
      <trkpt lat="45.87838" lon="4.72641">
        <ele>241.7</ele>
        <time>2017-02-18T16:18:06Z</time>
      </trkpt>
      <trkpt lat="45.8783" lon="4.72638">
        <ele>241.9</ele>
        <time>2017-02-18T16:18:08Z</time>
      </trkpt>
      <trkpt lat="45.87823" lon="4.72634">
        <ele>242</ele>
        <time>2017-02-18T16:18:10Z</time>
      </trkpt>
      <trkpt lat="45.87814" lon="4.72629">
        <ele>242.2</ele>
        <time>2017-02-18T16:18:12Z</time>
      </trkpt>
      <trkpt lat="45.87807" lon="4.72625">
        <ele>243.1</ele>
        <time>2017-02-18T16:18:14Z</time>
      </trkpt>
      <trkpt lat="45.87798" lon="4.72623">
        <ele>243.2</ele>
        <time>2017-02-18T16:18:16Z</time>
      </trkpt>
      <trkpt lat="45.87788" lon="4.72622">
        <ele>243.3</ele>
        <time>2017-02-18T16:18:18Z</time>
      </trkpt>
      <trkpt lat="45.8778" lon="4.7262">
        <ele>243.3</ele>
        <time>2017-02-18T16:18:20Z</time>
      </trkpt>
      <trkpt lat="45.87771" lon="4.72618">
        <ele>243.3</ele>
        <time>2017-02-18T16:18:22Z</time>
      </trkpt>
      <trkpt lat="45.87762" lon="4.72616">
        <ele>242.4</ele>
        <time>2017-02-18T16:18:24Z</time>
      </trkpt>
      <trkpt lat="45.87754" lon="4.72615">
        <ele>241.8</ele>
        <time>2017-02-18T16:18:26Z</time>
      </trkpt>
      <trkpt lat="45.87745" lon="4.72616">
        <ele>241.5</ele>
        <time>2017-02-18T16:18:28Z</time>
      </trkpt>
      <trkpt lat="45.87735" lon="4.72616">
        <ele>241.6</ele>
        <time>2017-02-18T16:18:30Z</time>
      </trkpt>
      <trkpt lat="45.87726" lon="4.72615">
        <ele>242</ele>
        <time>2017-02-18T16:18:32Z</time>
      </trkpt>
      <trkpt lat="45.87718" lon="4.7261">
        <ele>242.1</ele>
        <time>2017-02-18T16:18:35Z</time>
      </trkpt>
      <trkpt lat="45.87711" lon="4.72604">
        <ele>242.2</ele>
        <time>2017-02-18T16:18:37Z</time>
      </trkpt>
      <trkpt lat="45.87703" lon="4.72599">
        <ele>242.3</ele>
        <time>2017-02-18T16:18:39Z</time>
      </trkpt>
      <trkpt lat="45.87695" lon="4.72596">
        <ele>242.3</ele>
        <time>2017-02-18T16:18:41Z</time>
      </trkpt>
      <trkpt lat="45.87687" lon="4.72592">
        <ele>242.3</ele>
        <time>2017-02-18T16:18:43Z</time>
      </trkpt>
      <trkpt lat="45.87679" lon="4.72585">
        <ele>242.2</ele>
        <time>2017-02-18T16:18:46Z</time>
      </trkpt>
      <trkpt lat="45.87677" lon="4.72574">
        <ele>242.3</ele>
        <time>2017-02-18T16:18:50Z</time>
      </trkpt>
      <trkpt lat="45.87678" lon="4.72559">
        <ele>242.5</ele>
        <time>2017-02-18T16:18:53Z</time>
      </trkpt>
      <trkpt lat="45.87678" lon="4.72546">
        <ele>242.5</ele>
        <time>2017-02-18T16:18:56Z</time>
      </trkpt>
      <trkpt lat="45.8768" lon="4.72533">
        <ele>242.4</ele>
        <time>2017-02-18T16:18:59Z</time>
      </trkpt>
      <trkpt lat="45.87685" lon="4.72522">
        <ele>242.2</ele>
        <time>2017-02-18T16:19:02Z</time>
      </trkpt>
      <trkpt lat="45.87693" lon="4.72516">
        <ele>242.1</ele>
        <time>2017-02-18T16:19:05Z</time>
      </trkpt>
      <trkpt lat="45.87702" lon="4.72515">
        <ele>241.9</ele>
        <time>2017-02-18T16:19:08Z</time>
      </trkpt>
      <trkpt lat="45.87711" lon="4.72514">
        <ele>241.8</ele>
        <time>2017-02-18T16:19:11Z</time>
      </trkpt>
      <trkpt lat="45.8772" lon="4.72513">
        <ele>241.6</ele>
        <time>2017-02-18T16:19:14Z</time>
      </trkpt>
      <trkpt lat="45.87728" lon="4.7251">
        <ele>241.4</ele>
        <time>2017-02-18T16:19:17Z</time>
      </trkpt>
      <trkpt lat="45.87734" lon="4.725">
        <ele>241.3</ele>
        <time>2017-02-18T16:19:20Z</time>
      </trkpt>
      <trkpt lat="45.87736" lon="4.72489">
        <ele>241.1</ele>
        <time>2017-02-18T16:19:23Z</time>
      </trkpt>
      <trkpt lat="45.87737" lon="4.72477">
        <ele>241</ele>
        <time>2017-02-18T16:19:26Z</time>
      </trkpt>
      <trkpt lat="45.87738" lon="4.72465">
        <ele>240.9</ele>
        <time>2017-02-18T16:19:29Z</time>
      </trkpt>
      <trkpt lat="45.87738" lon="4.72453">
        <ele>240.9</ele>
        <time>2017-02-18T16:19:32Z</time>
      </trkpt>
      <trkpt lat="45.87738" lon="4.72441">
        <ele>240.9</ele>
        <time>2017-02-18T16:19:35Z</time>
      </trkpt>
      <trkpt lat="45.8774" lon="4.7243">
        <ele>240.9</ele>
        <time>2017-02-18T16:19:38Z</time>
      </trkpt>
      <trkpt lat="45.87738" lon="4.72417">
        <ele>240.9</ele>
        <time>2017-02-18T16:19:41Z</time>
      </trkpt>
      <trkpt lat="45.87738" lon="4.72406">
        <ele>240.8</ele>
        <time>2017-02-18T16:19:44Z</time>
      </trkpt>
      <trkpt lat="45.87738" lon="4.72393">
        <ele>240.6</ele>
        <time>2017-02-18T16:19:47Z</time>
      </trkpt>
      <trkpt lat="45.87737" lon="4.7238">
        <ele>240.5</ele>
        <time>2017-02-18T16:19:50Z</time>
      </trkpt>
      <trkpt lat="45.87737" lon="4.72367">
        <ele>240.4</ele>
        <time>2017-02-18T16:19:53Z</time>
      </trkpt>
      <trkpt lat="45.87737" lon="4.72355">
        <ele>240.2</ele>
        <time>2017-02-18T16:19:56Z</time>
      </trkpt>
      <trkpt lat="45.87736" lon="4.72342">
        <ele>240.2</ele>
        <time>2017-02-18T16:19:59Z</time>
      </trkpt>
      <trkpt lat="45.87736" lon="4.72328">
        <ele>240</ele>
        <time>2017-02-18T16:20:02Z</time>
      </trkpt>
      <trkpt lat="45.87736" lon="4.72314">
        <ele>239.9</ele>
        <time>2017-02-18T16:20:05Z</time>
      </trkpt>
      <trkpt lat="45.87735" lon="4.72301">
        <ele>239.8</ele>
        <time>2017-02-18T16:20:08Z</time>
      </trkpt>
      <trkpt lat="45.87735" lon="4.72289">
        <ele>239.6</ele>
        <time>2017-02-18T16:20:11Z</time>
      </trkpt>
      <trkpt lat="45.87735" lon="4.72277">
        <ele>239.5</ele>
        <time>2017-02-18T16:20:14Z</time>
      </trkpt>
      <trkpt lat="45.87734" lon="4.72265">
        <ele>239.5</ele>
        <time>2017-02-18T16:20:17Z</time>
      </trkpt>
      <trkpt lat="45.87734" lon="4.72252">
        <ele>239.4</ele>
        <time>2017-02-18T16:20:20Z</time>
      </trkpt>
      <trkpt lat="45.87733" lon="4.72239">
        <ele>239.3</ele>
        <time>2017-02-18T16:20:23Z</time>
      </trkpt>
      <trkpt lat="45.87731" lon="4.72227">
        <ele>239.2</ele>
        <time>2017-02-18T16:20:26Z</time>
      </trkpt>
      <trkpt lat="45.8773" lon="4.72213">
        <ele>239</ele>
        <time>2017-02-18T16:20:29Z</time>
      </trkpt>
      <trkpt lat="45.8773" lon="4.72201">
        <ele>239</ele>
        <time>2017-02-18T16:20:32Z</time>
      </trkpt>
      <trkpt lat="45.87729" lon="4.72188">
        <ele>238.9</ele>
        <time>2017-02-18T16:20:35Z</time>
      </trkpt>
      <trkpt lat="45.87729" lon="4.72175">
        <ele>238.9</ele>
        <time>2017-02-18T16:20:38Z</time>
      </trkpt>
      <trkpt lat="45.87728" lon="4.72161">
        <ele>238.9</ele>
        <time>2017-02-18T16:20:41Z</time>
      </trkpt>
      <trkpt lat="45.87728" lon="4.72151">
        <ele>238.9</ele>
        <time>2017-02-18T16:20:44Z</time>
      </trkpt>
      <trkpt lat="45.87728" lon="4.7214">
        <ele>238.8</ele>
        <time>2017-02-18T16:20:47Z</time>
      </trkpt>
      <trkpt lat="45.87728" lon="4.72129">
        <ele>238.7</ele>
        <time>2017-02-18T16:20:50Z</time>
      </trkpt>
      <trkpt lat="45.87727" lon="4.72118">
        <ele>238.6</ele>
        <time>2017-02-18T16:20:53Z</time>
      </trkpt>
      <trkpt lat="45.87727" lon="4.72106">
        <ele>238.5</ele>
        <time>2017-02-18T16:20:56Z</time>
      </trkpt>
      <trkpt lat="45.87727" lon="4.72095">
        <ele>238.4</ele>
        <time>2017-02-18T16:20:59Z</time>
      </trkpt>
      <trkpt lat="45.87727" lon="4.72085">
        <ele>238.4</ele>
        <time>2017-02-18T16:21:02Z</time>
      </trkpt>
      <trkpt lat="45.87726" lon="4.72074">
        <ele>238.3</ele>
        <time>2017-02-18T16:21:05Z</time>
      </trkpt>
      <trkpt lat="45.87726" lon="4.72061">
        <ele>238.3</ele>
        <time>2017-02-18T16:21:08Z</time>
      </trkpt>
      <trkpt lat="45.87726" lon="4.7205">
        <ele>238.3</ele>
        <time>2017-02-18T16:21:11Z</time>
      </trkpt>
      <trkpt lat="45.87719" lon="4.72041">
        <ele>238.3</ele>
        <time>2017-02-18T16:21:15Z</time>
      </trkpt>
      <trkpt lat="45.87713" lon="4.72035">
        <ele>238.2</ele>
        <time>2017-02-18T16:21:18Z</time>
      </trkpt>
      <trkpt lat="45.87705" lon="4.72031">
        <ele>238.3</ele>
        <time>2017-02-18T16:21:21Z</time>
      </trkpt>
      <trkpt lat="45.87697" lon="4.72026">
        <ele>238.3</ele>
        <time>2017-02-18T16:21:24Z</time>
      </trkpt>
      <trkpt lat="45.8769" lon="4.72021">
        <ele>238.3</ele>
        <time>2017-02-18T16:21:27Z</time>
      </trkpt>
      <trkpt lat="45.87683" lon="4.72015">
        <ele>238.4</ele>
        <time>2017-02-18T16:21:31Z</time>
      </trkpt>
      <trkpt lat="45.8768" lon="4.72006">
        <ele>238.6</ele>
        <time>2017-02-18T16:21:38Z</time>
      </trkpt>
      <trkpt lat="45.87678" lon="4.72005">
        <ele>238.8</ele>
        <time>2017-02-18T16:21:44Z</time>
      </trkpt>
      <trkpt lat="45.87679" lon="4.72006">
        <ele>239.2</ele>
        <time>2017-02-18T16:21:52Z</time>
      </trkpt>
      <trkpt lat="45.87679" lon="4.72006">
        <ele>238.9</ele>
        <time>2017-02-18T16:21:59Z</time>
      </trkpt>
      <trkpt lat="45.87678" lon="4.72005">
        <ele>238.6</ele>
        <time>2017-02-18T16:22:06Z</time>
      </trkpt>
      <trkpt lat="45.87682" lon="4.72005">
        <ele>238.6</ele>
        <time>2017-02-18T16:22:15Z</time>
      </trkpt>
      <trkpt lat="45.87681" lon="4.72004">
        <ele>239.3</ele>
        <time>2017-02-18T16:22:22Z</time>
      </trkpt>
      <trkpt lat="45.87681" lon="4.72004">
        <ele>239.6</ele>
        <time>2017-02-18T16:22:26Z</time>
      </trkpt>
      <trkpt lat="45.87681" lon="4.72005">
        <ele>240.2</ele>
        <time>2017-02-18T16:22:36Z</time>
      </trkpt>
      <trkpt lat="45.8768" lon="4.72005">
        <ele>240.1</ele>
        <time>2017-02-18T16:22:43Z</time>
      </trkpt>
      <trkpt lat="45.87682" lon="4.72002">
        <ele>240.3</ele>
        <time>2017-02-18T16:22:50Z</time>
      </trkpt>
      <trkpt lat="45.87683" lon="4.72002">
        <ele>240.3</ele>
        <time>2017-02-18T16:22:57Z</time>
      </trkpt>
      <trkpt lat="45.87683" lon="4.72003">
        <ele>240.3</ele>
        <time>2017-02-18T16:22:58Z</time>
      </trkpt>
      <trkpt lat="45.87683" lon="4.72006">
        <ele>240.7</ele>
        <time>2017-02-18T16:23:06Z</time>
      </trkpt>
      <trkpt lat="45.87681" lon="4.72006">
        <ele>240.6</ele>
        <time>2017-02-18T16:23:13Z</time>
      </trkpt>
      <trkpt lat="45.8768" lon="4.72005">
        <ele>240</ele>
        <time>2017-02-18T16:23:20Z</time>
      </trkpt>
      <trkpt lat="45.87681" lon="4.71994">
        <ele>239.7</ele>
        <time>2017-02-18T16:23:27Z</time>
      </trkpt>
      <trkpt lat="45.87681" lon="4.71984">
        <ele>239.7</ele>
        <time>2017-02-18T16:23:31Z</time>
      </trkpt>
      <trkpt lat="45.87681" lon="4.71972">
        <ele>239.8</ele>
        <time>2017-02-18T16:23:35Z</time>
      </trkpt>
      <trkpt lat="45.8768" lon="4.71961">
        <ele>239.9</ele>
        <time>2017-02-18T16:23:38Z</time>
      </trkpt>
      <trkpt lat="45.87678" lon="4.71949">
        <ele>240.1</ele>
        <time>2017-02-18T16:23:42Z</time>
      </trkpt>
      <trkpt lat="45.87675" lon="4.71937">
        <ele>240.5</ele>
        <time>2017-02-18T16:23:46Z</time>
      </trkpt>
      <trkpt lat="45.87671" lon="4.71928">
        <ele>240.8</ele>
        <time>2017-02-18T16:23:50Z</time>
      </trkpt>
      <trkpt lat="45.87666" lon="4.71918">
        <ele>241.4</ele>
        <time>2017-02-18T16:23:55Z</time>
      </trkpt>
      <trkpt lat="45.87662" lon="4.71909">
        <ele>241.7</ele>
        <time>2017-02-18T16:23:59Z</time>
      </trkpt>
      <trkpt lat="45.87658" lon="4.71899">
        <ele>242.2</ele>
        <time>2017-02-18T16:24:04Z</time>
      </trkpt>
      <trkpt lat="45.87652" lon="4.7189">
        <ele>242.6</ele>
        <time>2017-02-18T16:24:09Z</time>
      </trkpt>
      <trkpt lat="45.87647" lon="4.71881">
        <ele>242.9</ele>
        <time>2017-02-18T16:24:14Z</time>
      </trkpt>
      <trkpt lat="45.87644" lon="4.71872">
        <ele>243.4</ele>
        <time>2017-02-18T16:24:19Z</time>
      </trkpt>
      <trkpt lat="45.87638" lon="4.71862">
        <ele>244.2</ele>
        <time>2017-02-18T16:24:26Z</time>
      </trkpt>
      <trkpt lat="45.87634" lon="4.71853">
        <ele>245.2</ele>
        <time>2017-02-18T16:24:33Z</time>
      </trkpt>
      <trkpt lat="45.87635" lon="4.71842">
        <ele>246.1</ele>
        <time>2017-02-18T16:24:40Z</time>
      </trkpt>
      <trkpt lat="45.87635" lon="4.71831">
        <ele>247.1</ele>
        <time>2017-02-18T16:24:47Z</time>
      </trkpt>
      <trkpt lat="45.87635" lon="4.71821">
        <ele>248.2</ele>
        <time>2017-02-18T16:24:54Z</time>
      </trkpt>
      <trkpt lat="45.87636" lon="4.71809">
        <ele>249</ele>
        <time>2017-02-18T16:25:00Z</time>
      </trkpt>
      <trkpt lat="45.87635" lon="4.71798">
        <ele>249.9</ele>
        <time>2017-02-18T16:25:06Z</time>
      </trkpt>
      <trkpt lat="45.87633" lon="4.71789">
        <ele>251</ele>
        <time>2017-02-18T16:25:13Z</time>
      </trkpt>
      <trkpt lat="45.87634" lon="4.71778">
        <ele>252</ele>
        <time>2017-02-18T16:25:20Z</time>
      </trkpt>
      <trkpt lat="45.87634" lon="4.71766">
        <ele>253.2</ele>
        <time>2017-02-18T16:25:27Z</time>
      </trkpt>
      <trkpt lat="45.87636" lon="4.71756">
        <ele>254</ele>
        <time>2017-02-18T16:25:32Z</time>
      </trkpt>
      <trkpt lat="45.87635" lon="4.71745">
        <ele>254.8</ele>
        <time>2017-02-18T16:25:38Z</time>
      </trkpt>
      <trkpt lat="45.87635" lon="4.71735">
        <ele>255.6</ele>
        <time>2017-02-18T16:25:45Z</time>
      </trkpt>
      <trkpt lat="45.87634" lon="4.71723">
        <ele>256.5</ele>
        <time>2017-02-18T16:25:52Z</time>
      </trkpt>
      <trkpt lat="45.87635" lon="4.71711">
        <ele>257.6</ele>
        <time>2017-02-18T16:25:59Z</time>
      </trkpt>
      <trkpt lat="45.87637" lon="4.71699">
        <ele>258.4</ele>
        <time>2017-02-18T16:26:05Z</time>
      </trkpt>
      <trkpt lat="45.87642" lon="4.7169">
        <ele>259</ele>
        <time>2017-02-18T16:26:10Z</time>
      </trkpt>
      <trkpt lat="45.87645" lon="4.71679">
        <ele>259.7</ele>
        <time>2017-02-18T16:26:15Z</time>
      </trkpt>
      <trkpt lat="45.87648" lon="4.71668">
        <ele>260.4</ele>
        <time>2017-02-18T16:26:20Z</time>
      </trkpt>
      <trkpt lat="45.87653" lon="4.71657">
        <ele>261</ele>
        <time>2017-02-18T16:26:25Z</time>
      </trkpt>
      <trkpt lat="45.87656" lon="4.71647">
        <ele>261.5</ele>
        <time>2017-02-18T16:26:29Z</time>
      </trkpt>
      <trkpt lat="45.8766" lon="4.71637">
        <ele>262.1</ele>
        <time>2017-02-18T16:26:34Z</time>
      </trkpt>
      <trkpt lat="45.87662" lon="4.71624">
        <ele>262.5</ele>
        <time>2017-02-18T16:26:39Z</time>
      </trkpt>
      <trkpt lat="45.87665" lon="4.71611">
        <ele>263.2</ele>
        <time>2017-02-18T16:26:44Z</time>
      </trkpt>
      <trkpt lat="45.87668" lon="4.716">
        <ele>263.7</ele>
        <time>2017-02-18T16:26:49Z</time>
      </trkpt>
      <trkpt lat="45.8767" lon="4.71589">
        <ele>264.1</ele>
        <time>2017-02-18T16:26:53Z</time>
      </trkpt>
      <trkpt lat="45.87674" lon="4.71578">
        <ele>264.6</ele>
        <time>2017-02-18T16:26:58Z</time>
      </trkpt>
      <trkpt lat="45.87676" lon="4.71568">
        <ele>265.1</ele>
        <time>2017-02-18T16:27:02Z</time>
      </trkpt>
      <trkpt lat="45.87678" lon="4.71557">
        <ele>265.5</ele>
        <time>2017-02-18T16:27:06Z</time>
      </trkpt>
      <trkpt lat="45.87681" lon="4.71546">
        <ele>266</ele>
        <time>2017-02-18T16:27:10Z</time>
      </trkpt>
      <trkpt lat="45.87685" lon="4.71535">
        <ele>266.6</ele>
        <time>2017-02-18T16:27:15Z</time>
      </trkpt>
      <trkpt lat="45.87689" lon="4.71524">
        <ele>267.1</ele>
        <time>2017-02-18T16:27:20Z</time>
      </trkpt>
      <trkpt lat="45.87684" lon="4.71516">
        <ele>267.7</ele>
        <time>2017-02-18T16:27:26Z</time>
      </trkpt>
      <trkpt lat="45.87678" lon="4.7151">
        <ele>268</ele>
        <time>2017-02-18T16:27:29Z</time>
      </trkpt>
      <trkpt lat="45.87672" lon="4.71503">
        <ele>268.3</ele>
        <time>2017-02-18T16:27:32Z</time>
      </trkpt>
      <trkpt lat="45.87665" lon="4.71497">
        <ele>268.5</ele>
        <time>2017-02-18T16:27:35Z</time>
      </trkpt>
      <trkpt lat="45.87658" lon="4.71491">
        <ele>268.7</ele>
        <time>2017-02-18T16:27:38Z</time>
      </trkpt>
      <trkpt lat="45.87651" lon="4.71484">
        <ele>268.9</ele>
        <time>2017-02-18T16:27:41Z</time>
      </trkpt>
      <trkpt lat="45.87644" lon="4.71478">
        <ele>269.3</ele>
        <time>2017-02-18T16:27:44Z</time>
      </trkpt>
      <trkpt lat="45.87636" lon="4.7147">
        <ele>269.6</ele>
        <time>2017-02-18T16:27:47Z</time>
      </trkpt>
      <trkpt lat="45.87629" lon="4.71462">
        <ele>269.9</ele>
        <time>2017-02-18T16:27:50Z</time>
      </trkpt>
      <trkpt lat="45.87625" lon="4.71449">
        <ele>270.1</ele>
        <time>2017-02-18T16:27:53Z</time>
      </trkpt>
      <trkpt lat="45.87624" lon="4.71436">
        <ele>270.3</ele>
        <time>2017-02-18T16:27:56Z</time>
      </trkpt>
      <trkpt lat="45.87623" lon="4.71424">
        <ele>270.5</ele>
        <time>2017-02-18T16:27:59Z</time>
      </trkpt>
      <trkpt lat="45.87623" lon="4.71413">
        <ele>270.7</ele>
        <time>2017-02-18T16:28:02Z</time>
      </trkpt>
      <trkpt lat="45.87624" lon="4.71399">
        <ele>271.2</ele>
        <time>2017-02-18T16:28:06Z</time>
      </trkpt>
      <trkpt lat="45.87627" lon="4.71385">
        <ele>271.3</ele>
        <time>2017-02-18T16:28:09Z</time>
      </trkpt>
      <trkpt lat="45.87629" lon="4.71371">
        <ele>271.6</ele>
        <time>2017-02-18T16:28:13Z</time>
      </trkpt>
      <trkpt lat="45.87631" lon="4.7136">
        <ele>272</ele>
        <time>2017-02-18T16:28:16Z</time>
      </trkpt>
      <trkpt lat="45.87633" lon="4.71349">
        <ele>272.5</ele>
        <time>2017-02-18T16:28:20Z</time>
      </trkpt>
      <trkpt lat="45.87634" lon="4.71337">
        <ele>272.8</ele>
        <time>2017-02-18T16:28:23Z</time>
      </trkpt>
      <trkpt lat="45.87635" lon="4.71325">
        <ele>273.1</ele>
        <time>2017-02-18T16:28:26Z</time>
      </trkpt>
      <trkpt lat="45.87636" lon="4.71312">
        <ele>273.4</ele>
        <time>2017-02-18T16:28:29Z</time>
      </trkpt>
      <trkpt lat="45.87641" lon="4.71305">
        <ele>273.7</ele>
        <time>2017-02-18T16:28:32Z</time>
      </trkpt>
      <trkpt lat="45.8765" lon="4.713">
        <ele>273.9</ele>
        <time>2017-02-18T16:28:35Z</time>
      </trkpt>
      <trkpt lat="45.87659" lon="4.71296">
        <ele>274.2</ele>
        <time>2017-02-18T16:28:38Z</time>
      </trkpt>
      <trkpt lat="45.87666" lon="4.71292">
        <ele>274.7</ele>
        <time>2017-02-18T16:28:40Z</time>
      </trkpt>
      <trkpt lat="45.87674" lon="4.71286">
        <ele>275.1</ele>
        <time>2017-02-18T16:28:42Z</time>
      </trkpt>
      <trkpt lat="45.87681" lon="4.71278">
        <ele>275.7</ele>
        <time>2017-02-18T16:28:44Z</time>
      </trkpt>
      <trkpt lat="45.87686" lon="4.71271">
        <ele>276.4</ele>
        <time>2017-02-18T16:28:46Z</time>
      </trkpt>
      <trkpt lat="45.87692" lon="4.71264">
        <ele>276.9</ele>
        <time>2017-02-18T16:28:48Z</time>
      </trkpt>
      <trkpt lat="45.877" lon="4.71256">
        <ele>277.1</ele>
        <time>2017-02-18T16:28:50Z</time>
      </trkpt>
      <trkpt lat="45.87707" lon="4.71247">
        <ele>277.3</ele>
        <time>2017-02-18T16:28:52Z</time>
      </trkpt>
      <trkpt lat="45.87715" lon="4.7124">
        <ele>277.5</ele>
        <time>2017-02-18T16:28:54Z</time>
      </trkpt>
      <trkpt lat="45.87722" lon="4.71233">
        <ele>277.3</ele>
        <time>2017-02-18T16:28:56Z</time>
      </trkpt>
      <trkpt lat="45.87729" lon="4.71226">
        <ele>276.7</ele>
        <time>2017-02-18T16:28:58Z</time>
      </trkpt>
      <trkpt lat="45.87738" lon="4.71219">
        <ele>276.9</ele>
        <time>2017-02-18T16:29:00Z</time>
      </trkpt>
      <trkpt lat="45.87744" lon="4.71214">
        <ele>276.9</ele>
        <time>2017-02-18T16:29:02Z</time>
      </trkpt>
      <trkpt lat="45.87751" lon="4.71209">
        <ele>277.1</ele>
        <time>2017-02-18T16:29:04Z</time>
      </trkpt>
      <trkpt lat="45.87759" lon="4.71202">
        <ele>277.8</ele>
        <time>2017-02-18T16:29:06Z</time>
      </trkpt>
      <trkpt lat="45.87766" lon="4.71196">
        <ele>278.5</ele>
        <time>2017-02-18T16:29:08Z</time>
      </trkpt>
      <trkpt lat="45.87772" lon="4.71189">
        <ele>278.2</ele>
        <time>2017-02-18T16:29:10Z</time>
      </trkpt>
      <trkpt lat="45.8778" lon="4.71182">
        <ele>277.6</ele>
        <time>2017-02-18T16:29:12Z</time>
      </trkpt>
      <trkpt lat="45.87787" lon="4.71175">
        <ele>277.3</ele>
        <time>2017-02-18T16:29:14Z</time>
      </trkpt>
      <trkpt lat="45.87794" lon="4.71167">
        <ele>276.8</ele>
        <time>2017-02-18T16:29:16Z</time>
      </trkpt>
      <trkpt lat="45.878" lon="4.71161">
        <ele>276.2</ele>
        <time>2017-02-18T16:29:18Z</time>
      </trkpt>
      <trkpt lat="45.87809" lon="4.71154">
        <ele>276</ele>
        <time>2017-02-18T16:29:20Z</time>
      </trkpt>
      <trkpt lat="45.87816" lon="4.71148">
        <ele>275.9</ele>
        <time>2017-02-18T16:29:22Z</time>
      </trkpt>
      <trkpt lat="45.87824" lon="4.71144">
        <ele>275.9</ele>
        <time>2017-02-18T16:29:25Z</time>
      </trkpt>
      <trkpt lat="45.87824" lon="4.71139">
        <ele>276.3</ele>
        <time>2017-02-18T16:29:32Z</time>
      </trkpt>
      <trkpt lat="45.87824" lon="4.71142">
        <ele>276.5</ele>
        <time>2017-02-18T16:29:39Z</time>
      </trkpt>
      <trkpt lat="45.87825" lon="4.71144">
        <ele>276.6</ele>
        <time>2017-02-18T16:29:42Z</time>
      </trkpt>
      <trkpt lat="45.87823" lon="4.71149">
        <ele>277.1</ele>
        <time>2017-02-18T16:29:49Z</time>
      </trkpt>
      <trkpt lat="45.87827" lon="4.71158">
        <ele>277.4</ele>
        <time>2017-02-18T16:29:54Z</time>
      </trkpt>
      <trkpt lat="45.8783" lon="4.71167">
        <ele>277.5</ele>
        <time>2017-02-18T16:29:58Z</time>
      </trkpt>
      <trkpt lat="45.87836" lon="4.71176">
        <ele>277.5</ele>
        <time>2017-02-18T16:30:02Z</time>
      </trkpt>
      <trkpt lat="45.87837" lon="4.71188">
        <ele>277.5</ele>
        <time>2017-02-18T16:30:05Z</time>
      </trkpt>
      <trkpt lat="45.87839" lon="4.71199">
        <ele>277.5</ele>
        <time>2017-02-18T16:30:08Z</time>
      </trkpt>
      <trkpt lat="45.87842" lon="4.71211">
        <ele>277.4</ele>
        <time>2017-02-18T16:30:11Z</time>
      </trkpt>
      <trkpt lat="45.87843" lon="4.71224">
        <ele>277.4</ele>
        <time>2017-02-18T16:30:14Z</time>
      </trkpt>
      <trkpt lat="45.87844" lon="4.71238">
        <ele>277.3</ele>
        <time>2017-02-18T16:30:17Z</time>
      </trkpt>
      <trkpt lat="45.87844" lon="4.71249">
        <ele>277.2</ele>
        <time>2017-02-18T16:30:20Z</time>
      </trkpt>
      <trkpt lat="45.87839" lon="4.71256">
        <ele>277.2</ele>
        <time>2017-02-18T16:30:27Z</time>
      </trkpt>
      <trkpt lat="45.87838" lon="4.71258">
        <ele>277.1</ele>
        <time>2017-02-18T16:30:34Z</time>
      </trkpt>
      <trkpt lat="45.87837" lon="4.71258">
        <ele>277.1</ele>
        <time>2017-02-18T16:30:35Z</time>
      </trkpt>
      <trkpt lat="45.87834" lon="4.71254">
        <ele>276.9</ele>
        <time>2017-02-18T16:30:45Z</time>
      </trkpt>
      <trkpt lat="45.87836" lon="4.71255">
        <ele>277.1</ele>
        <time>2017-02-18T16:30:52Z</time>
      </trkpt>
      <trkpt lat="45.87836" lon="4.71258">
        <ele>276.7</ele>
        <time>2017-02-18T16:30:59Z</time>
      </trkpt>
      <trkpt lat="45.87837" lon="4.71259">
        <ele>275.6</ele>
        <time>2017-02-18T16:31:04Z</time>
      </trkpt>
      <trkpt lat="45.87834" lon="4.71261">
        <ele>274.8</ele>
        <time>2017-02-18T16:31:14Z</time>
      </trkpt>
      <trkpt lat="45.87835" lon="4.71262">
        <ele>275.1</ele>
        <time>2017-02-18T16:31:21Z</time>
      </trkpt>
      <trkpt lat="45.87836" lon="4.71261">
        <ele>275</ele>
        <time>2017-02-18T16:31:28Z</time>
      </trkpt>
      <trkpt lat="45.87836" lon="4.71262">
        <ele>275.1</ele>
        <time>2017-02-18T16:31:30Z</time>
      </trkpt>
      <trkpt lat="45.87835" lon="4.7126">
        <ele>275.4</ele>
        <time>2017-02-18T16:31:38Z</time>
      </trkpt>
      <trkpt lat="45.87835" lon="4.7126">
        <ele>275.5</ele>
        <time>2017-02-18T16:31:39Z</time>
      </trkpt>
      <trkpt lat="45.87833" lon="4.71256">
        <ele>275.9</ele>
        <time>2017-02-18T16:31:46Z</time>
      </trkpt>
      <trkpt lat="45.87832" lon="4.71255">
        <ele>275.7</ele>
        <time>2017-02-18T16:31:53Z</time>
      </trkpt>
      <trkpt lat="45.87832" lon="4.71255">
        <ele>275.6</ele>
        <time>2017-02-18T16:31:54Z</time>
      </trkpt>
      <trkpt lat="45.87829" lon="4.71255">
        <ele>275.1</ele>
        <time>2017-02-18T16:32:02Z</time>
      </trkpt>
      <trkpt lat="45.8783" lon="4.71254">
        <ele>274.9</ele>
        <time>2017-02-18T16:32:06Z</time>
      </trkpt>
      <trkpt lat="45.87831" lon="4.71251">
        <ele>274.6</ele>
        <time>2017-02-18T16:32:14Z</time>
      </trkpt>
      <trkpt lat="45.87832" lon="4.71251">
        <ele>274.6</ele>
        <time>2017-02-18T16:32:15Z</time>
      </trkpt>
      <trkpt lat="45.87831" lon="4.71249">
        <ele>275.1</ele>
        <time>2017-02-18T16:32:23Z</time>
      </trkpt>
      <trkpt lat="45.87831" lon="4.71249">
        <ele>275.3</ele>
        <time>2017-02-18T16:32:24Z</time>
      </trkpt>
      <trkpt lat="45.87828" lon="4.71247">
        <ele>276</ele>
        <time>2017-02-18T16:32:36Z</time>
      </trkpt>
      <trkpt lat="45.87826" lon="4.71247">
        <ele>276.4</ele>
        <time>2017-02-18T16:32:42Z</time>
      </trkpt>
      <trkpt lat="45.87827" lon="4.71246">
        <ele>276.8</ele>
        <time>2017-02-18T16:32:55Z</time>
      </trkpt>
      <trkpt lat="45.87827" lon="4.71246">
        <ele>276.8</ele>
        <time>2017-02-18T16:32:56Z</time>
      </trkpt>
      <trkpt lat="45.87827" lon="4.71251">
        <ele>277</ele>
        <time>2017-02-18T16:33:04Z</time>
      </trkpt>
      <trkpt lat="45.87828" lon="4.71252">
        <ele>277.6</ele>
        <time>2017-02-18T16:33:11Z</time>
      </trkpt>
      <trkpt lat="45.87829" lon="4.71253">
        <ele>277.8</ele>
        <time>2017-02-18T16:33:15Z</time>
      </trkpt>
      <trkpt lat="45.87828" lon="4.71253">
        <ele>277.8</ele>
        <time>2017-02-18T16:33:26Z</time>
      </trkpt>
      <trkpt lat="45.87828" lon="4.71252">
        <ele>278.1</ele>
        <time>2017-02-18T16:33:32Z</time>
      </trkpt>
      <trkpt lat="45.87828" lon="4.71253">
        <ele>278.4</ele>
        <time>2017-02-18T16:33:39Z</time>
      </trkpt>
      <trkpt lat="45.8783" lon="4.7125">
        <ele>277.8</ele>
        <time>2017-02-18T16:33:46Z</time>
      </trkpt>
      <trkpt lat="45.8783" lon="4.71248">
        <ele>277.7</ele>
        <time>2017-02-18T16:33:49Z</time>
      </trkpt>
    </trkseg>
  </trk>
</gpx>